<?xml version="1.0" encoding="UTF-8" standalone="no" ?>
<gpx xmlns="http://www.topografix.com/GPX/1/1" xmlns:xsi="http://www.w3.org/2001/XMLSchema-instance" xsi:schemaLocation="http://www.topografix.com/GPX/1/1 http://www.topografix.com/GPX/1/1/gpx.xsd" version="1.1" creator="VisuGPX - https://www.visugpx.com">
  <metadata>
    <name>Tour du Mourtis depuis Arbon</name>
    <desc><![CDATA[Boucle vtt autour du Mourtis]]></desc>
  </metadata>
  <trk>
    <name><![CDATA[Tour du Mourtis depuis Arbon_1]]></name>
    <trkseg>
      <trkpt lat="43.0006" lon="0.74543">
        <ele>607.1</ele>
        <time>2004-08-06T14:45:08Z</time>
      </trkpt>
      <trkpt lat="43.00048" lon="0.74543">
        <ele>607</ele>
        <time>2004-08-06T14:45:16Z</time>
      </trkpt>
      <trkpt lat="43.00029" lon="0.74541">
        <ele>606.9</ele>
        <time>2004-08-06T14:45:16Z</time>
      </trkpt>
      <trkpt lat="43.00011" lon="0.74527">
        <ele>607.4</ele>
        <time>2004-08-06T14:45:28Z</time>
      </trkpt>
      <trkpt lat="43.00002" lon="0.74519">
        <ele>607.8</ele>
        <time>2004-08-06T14:45:32Z</time>
      </trkpt>
      <trkpt lat="42.99983" lon="0.74492">
        <ele>611.2</ele>
        <time>2004-08-06T14:45:39Z</time>
      </trkpt>
      <trkpt lat="42.99967" lon="0.74479">
        <ele>612.2</ele>
        <time>2004-08-06T14:45:57Z</time>
      </trkpt>
      <trkpt lat="42.99957" lon="0.74477">
        <ele>612.3</ele>
        <time>2004-08-06T14:45:58Z</time>
      </trkpt>
      <trkpt lat="42.99936" lon="0.74478">
        <ele>611.7</ele>
        <time>2004-08-06T14:46:01Z</time>
      </trkpt>
      <trkpt lat="42.99884" lon="0.74485">
        <ele>608.7</ele>
        <time>2004-08-06T14:46:02Z</time>
      </trkpt>
      <trkpt lat="42.99857" lon="0.74479">
        <ele>607.2</ele>
        <time>2004-08-06T14:46:06Z</time>
      </trkpt>
      <trkpt lat="42.99851" lon="0.74474">
        <ele>607.4</ele>
        <time>2004-08-06T14:46:12Z</time>
      </trkpt>
      <trkpt lat="42.99842" lon="0.74463">
        <ele>609</ele>
        <time>2004-08-06T14:46:13Z</time>
      </trkpt>
      <trkpt lat="42.9983" lon="0.74442">
        <ele>608</ele>
        <time>2004-08-06T14:46:17Z</time>
      </trkpt>
      <trkpt lat="42.9982" lon="0.74434">
        <ele>609.1</ele>
        <time>2004-08-06T14:46:21Z</time>
      </trkpt>
      <trkpt lat="42.99809" lon="0.74428">
        <ele>608</ele>
        <time>2004-08-06T14:46:25Z</time>
      </trkpt>
      <trkpt lat="42.998" lon="0.74428">
        <ele>606.4</ele>
        <time>2004-08-06T14:46:26Z</time>
      </trkpt>
      <trkpt lat="42.99789" lon="0.74432">
        <ele>604.8</ele>
        <time>2004-08-06T14:46:51Z</time>
      </trkpt>
      <trkpt lat="42.99759" lon="0.74438">
        <ele>602.9</ele>
        <time>2004-08-06T14:47:00Z</time>
      </trkpt>
      <trkpt lat="42.99724" lon="0.74459">
        <ele>589.7</ele>
        <time>2004-08-06T14:47:01Z</time>
      </trkpt>
      <trkpt lat="42.99702" lon="0.74467">
        <ele>586.9</ele>
        <time>2004-08-06T14:47:07Z</time>
      </trkpt>
      <trkpt lat="42.99694" lon="0.74467">
        <ele>586.1</ele>
        <time>2004-08-06T14:47:11Z</time>
      </trkpt>
      <trkpt lat="42.9968" lon="0.74459">
        <ele>585.7</ele>
        <time>2004-08-06T14:47:14Z</time>
      </trkpt>
      <trkpt lat="42.99666" lon="0.74447">
        <ele>575.6</ele>
        <time>2004-08-06T14:47:15Z</time>
      </trkpt>
      <trkpt lat="42.99659" lon="0.7443">
        <ele>578.6</ele>
        <time>2004-08-06T14:47:15Z</time>
      </trkpt>
      <trkpt lat="42.99655" lon="0.74416">
        <ele>583.3</ele>
        <time>2004-08-06T14:47:18Z</time>
      </trkpt>
      <trkpt lat="42.99651" lon="0.74369">
        <ele>584.1</ele>
        <time>2004-08-06T14:47:19Z</time>
      </trkpt>
      <trkpt lat="42.99646" lon="0.7435">
        <ele>585.7</ele>
        <time>2004-08-06T14:47:20Z</time>
      </trkpt>
      <trkpt lat="42.99639" lon="0.74339">
        <ele>585.2</ele>
        <time>2004-08-06T14:47:24Z</time>
      </trkpt>
      <trkpt lat="42.99634" lon="0.74337">
        <ele>584.3</ele>
        <time>2004-08-06T14:47:27Z</time>
      </trkpt>
      <trkpt lat="42.99624" lon="0.74336">
        <ele>582.5</ele>
        <time>2004-08-06T14:47:27Z</time>
      </trkpt>
      <trkpt lat="42.9961" lon="0.74341">
        <ele>580.3</ele>
        <time>2004-08-06T14:47:30Z</time>
      </trkpt>
      <trkpt lat="42.99586" lon="0.7434">
        <ele>577.2</ele>
        <time>2004-08-06T14:47:32Z</time>
      </trkpt>
      <trkpt lat="42.9958" lon="0.74337">
        <ele>573.7</ele>
        <time>2004-08-06T14:47:37Z</time>
      </trkpt>
      <trkpt lat="42.99548" lon="0.74303">
        <ele>566.6</ele>
        <time>2004-08-06T14:47:38Z</time>
      </trkpt>
      <trkpt lat="42.9954" lon="0.74293">
        <ele>565.5</ele>
        <time>2004-08-06T14:47:42Z</time>
      </trkpt>
      <trkpt lat="42.99531" lon="0.74266">
        <ele>564.1</ele>
        <time>2004-08-06T14:47:45Z</time>
      </trkpt>
      <trkpt lat="42.99522" lon="0.74225">
        <ele>562.7</ele>
        <time>2004-08-06T14:47:46Z</time>
      </trkpt>
      <trkpt lat="42.99523" lon="0.7421">
        <ele>563</ele>
        <time>2004-08-06T14:47:50Z</time>
      </trkpt>
      <trkpt lat="42.99526" lon="0.74196">
        <ele>562.8</ele>
        <time>2004-08-06T14:47:53Z</time>
      </trkpt>
      <trkpt lat="42.99543" lon="0.74161">
        <ele>565.2</ele>
        <time>2004-08-06T14:47:58Z</time>
      </trkpt>
      <trkpt lat="42.99543" lon="0.74155">
        <ele>565.2</ele>
        <time>2004-08-06T14:48:01Z</time>
      </trkpt>
      <trkpt lat="42.99533" lon="0.74141">
        <ele>563</ele>
        <time>2004-08-06T14:48:02Z</time>
      </trkpt>
      <trkpt lat="42.99525" lon="0.74106">
        <ele>561.1</ele>
        <time>2004-08-06T14:48:04Z</time>
      </trkpt>
      <trkpt lat="42.99517" lon="0.74097">
        <ele>558.3</ele>
        <time>2004-08-06T14:48:05Z</time>
      </trkpt>
      <trkpt lat="42.99489" lon="0.74076">
        <ele>543.4</ele>
        <time>2004-08-06T14:48:06Z</time>
      </trkpt>
      <trkpt lat="42.99471" lon="0.74053">
        <ele>537.8</ele>
        <time>2004-08-06T14:48:16Z</time>
      </trkpt>
      <trkpt lat="42.9944" lon="0.73964">
        <ele>533.3</ele>
        <time>2004-08-06T14:48:17Z</time>
      </trkpt>
      <trkpt lat="42.99433" lon="0.73936">
        <ele>531.7</ele>
        <time>2004-08-06T14:48:20Z</time>
      </trkpt>
      <trkpt lat="42.99412" lon="0.73876">
        <ele>533.8</ele>
        <time>2004-08-06T14:48:21Z</time>
      </trkpt>
      <trkpt lat="42.99388" lon="0.73798">
        <ele>535</ele>
        <time>2004-08-06T14:48:22Z</time>
      </trkpt>
      <trkpt lat="42.99383" lon="0.73789">
        <ele>535.3</ele>
        <time>2004-08-06T14:48:25Z</time>
      </trkpt>
      <trkpt lat="42.99373" lon="0.73789">
        <ele>535.8</ele>
        <time>2004-08-06T14:48:28Z</time>
      </trkpt>
      <trkpt lat="42.99368" lon="0.73797">
        <ele>536.3</ele>
        <time>2004-08-06T14:48:29Z</time>
      </trkpt>
      <trkpt lat="42.99367" lon="0.73807">
        <ele>536.8</ele>
        <time>2004-08-06T14:48:32Z</time>
      </trkpt>
      <trkpt lat="42.99369" lon="0.73817">
        <ele>537</ele>
        <time>2004-08-06T14:48:43Z</time>
      </trkpt>
      <trkpt lat="42.99379" lon="0.73839">
        <ele>537.1</ele>
        <time>2004-08-06T14:48:44Z</time>
      </trkpt>
      <trkpt lat="42.9938" lon="0.73859">
        <ele>537.2</ele>
        <time>2004-08-06T14:49:00Z</time>
      </trkpt>
      <trkpt lat="42.99366" lon="0.74001">
        <ele>538.1</ele>
        <time>2004-08-06T14:49:02Z</time>
      </trkpt>
      <trkpt lat="42.99353" lon="0.74032">
        <ele>538.3</ele>
        <time>2004-08-06T14:49:04Z</time>
      </trkpt>
      <trkpt lat="42.99324" lon="0.7407">
        <ele>555.2</ele>
        <time>2004-08-06T14:49:06Z</time>
      </trkpt>
      <trkpt lat="42.99295" lon="0.7412">
        <ele>558.3</ele>
        <time>2004-08-06T14:49:07Z</time>
      </trkpt>
      <trkpt lat="42.99285" lon="0.74135">
        <ele>559.6</ele>
        <time>2004-08-06T14:49:12Z</time>
      </trkpt>
      <trkpt lat="42.99248" lon="0.74171">
        <ele>569</ele>
        <time>2004-08-06T14:49:14Z</time>
      </trkpt>
      <trkpt lat="42.99238" lon="0.74177">
        <ele>567.3</ele>
        <time>2004-08-06T14:49:18Z</time>
      </trkpt>
      <trkpt lat="42.99199" lon="0.74192">
        <ele>567.2</ele>
        <time>2004-08-06T14:49:25Z</time>
      </trkpt>
      <trkpt lat="42.99182" lon="0.74196">
        <ele>568.2</ele>
        <time>2004-08-06T14:49:34Z</time>
      </trkpt>
      <trkpt lat="42.99173" lon="0.74196">
        <ele>568.9</ele>
        <time>2004-08-06T14:49:45Z</time>
      </trkpt>
      <trkpt lat="42.99148" lon="0.74181">
        <ele>568.8</ele>
        <time>2004-08-06T14:49:50Z</time>
      </trkpt>
      <trkpt lat="42.99141" lon="0.74168">
        <ele>568.3</ele>
        <time>2004-08-06T14:49:56Z</time>
      </trkpt>
      <trkpt lat="42.99133" lon="0.74127">
        <ele>578.4</ele>
        <time>2004-08-06T14:50:02Z</time>
      </trkpt>
      <trkpt lat="42.99129" lon="0.74116">
        <ele>579</ele>
        <time>2004-08-06T14:50:04Z</time>
      </trkpt>
      <trkpt lat="42.99116" lon="0.74091">
        <ele>577.8</ele>
        <time>2004-08-06T14:50:08Z</time>
      </trkpt>
      <trkpt lat="42.99055" lon="0.74013">
        <ele>565.7</ele>
        <time>2004-08-06T14:50:09Z</time>
      </trkpt>
      <trkpt lat="42.99045" lon="0.73995">
        <ele>572.9</ele>
        <time>2004-08-06T14:50:13Z</time>
      </trkpt>
      <trkpt lat="42.99026" lon="0.73935">
        <ele>572.4</ele>
        <time>2004-08-06T14:50:17Z</time>
      </trkpt>
      <trkpt lat="42.98999" lon="0.73884">
        <ele>556.3</ele>
        <time>2004-08-06T14:50:19Z</time>
      </trkpt>
      <trkpt lat="42.98982" lon="0.73844">
        <ele>564.3</ele>
        <time>2004-08-06T14:50:20Z</time>
      </trkpt>
      <trkpt lat="42.98966" lon="0.738">
        <ele>573.8</ele>
        <time>2004-08-06T14:50:24Z</time>
      </trkpt>
      <trkpt lat="42.9893" lon="0.73746">
        <ele>577.6</ele>
        <time>2004-08-06T14:50:35Z</time>
      </trkpt>
      <trkpt lat="42.98914" lon="0.73715">
        <ele>565.2</ele>
        <time>2004-08-06T14:50:43Z</time>
      </trkpt>
      <trkpt lat="42.98876" lon="0.73673">
        <ele>565.3</ele>
        <time>2004-08-06T14:50:50Z</time>
      </trkpt>
      <trkpt lat="42.98827" lon="0.73625">
        <ele>556.1</ele>
        <time>2004-08-06T14:50:51Z</time>
      </trkpt>
      <trkpt lat="42.98795" lon="0.73567">
        <ele>573.3</ele>
        <time>2004-08-06T14:50:52Z</time>
      </trkpt>
      <trkpt lat="42.9878" lon="0.73553">
        <ele>571.7</ele>
        <time>2004-08-06T14:50:54Z</time>
      </trkpt>
      <trkpt lat="42.98725" lon="0.73518">
        <ele>556.9</ele>
        <time>2004-08-06T14:50:59Z</time>
      </trkpt>
      <trkpt lat="42.98687" lon="0.73504">
        <ele>553.8</ele>
        <time>2004-08-06T14:51:07Z</time>
      </trkpt>
      <trkpt lat="42.98663" lon="0.73489">
        <ele>552.7</ele>
        <time>2004-08-06T14:51:07Z</time>
      </trkpt>
      <trkpt lat="42.98659" lon="0.73486">
        <ele>552.4</ele>
        <time>2004-08-06T14:51:09Z</time>
      </trkpt>
      <trkpt lat="42.98621" lon="0.7344">
        <ele>550.8</ele>
        <time>2004-08-06T14:51:10Z</time>
      </trkpt>
      <trkpt lat="42.98608" lon="0.7342">
        <ele>549.6</ele>
        <time>2004-08-06T14:51:10Z</time>
      </trkpt>
      <trkpt lat="42.98603" lon="0.73409">
        <ele>555</ele>
        <time>2004-08-06T14:51:13Z</time>
      </trkpt>
      <trkpt lat="42.98585" lon="0.73407">
        <ele>550.9</ele>
        <time>2004-08-06T14:51:14Z</time>
      </trkpt>
      <trkpt lat="42.98576" lon="0.73401">
        <ele>539.4</ele>
        <time>2004-08-06T14:51:15Z</time>
      </trkpt>
      <trkpt lat="42.98566" lon="0.73382">
        <ele>536.3</ele>
        <time>2004-08-06T14:51:17Z</time>
      </trkpt>
      <trkpt lat="42.98559" lon="0.73357">
        <ele>536.8</ele>
        <time>2004-08-06T14:51:18Z</time>
      </trkpt>
      <trkpt lat="42.98554" lon="0.73323">
        <ele>538.5</ele>
        <time>2004-08-06T14:51:19Z</time>
      </trkpt>
      <trkpt lat="42.98551" lon="0.73291">
        <ele>536.5</ele>
        <time>2004-08-06T14:51:26Z</time>
      </trkpt>
      <trkpt lat="42.98542" lon="0.73228">
        <ele>534.1</ele>
        <time>2004-08-06T14:51:26Z</time>
      </trkpt>
      <trkpt lat="42.98544" lon="0.73193">
        <ele>534.5</ele>
        <time>2004-08-06T14:51:30Z</time>
      </trkpt>
      <trkpt lat="42.98541" lon="0.73179">
        <ele>533.8</ele>
        <time>2004-08-06T14:51:34Z</time>
      </trkpt>
      <trkpt lat="42.98528" lon="0.73164">
        <ele>531.2</ele>
        <time>2004-08-06T14:51:34Z</time>
      </trkpt>
      <trkpt lat="42.98506" lon="0.73123">
        <ele>530.8</ele>
        <time>2004-08-06T14:51:36Z</time>
      </trkpt>
      <trkpt lat="42.98489" lon="0.73079">
        <ele>522.4</ele>
        <time>2004-08-06T14:51:41Z</time>
      </trkpt>
      <trkpt lat="42.9848" lon="0.73067">
        <ele>521.3</ele>
        <time>2004-08-06T14:51:42Z</time>
      </trkpt>
      <trkpt lat="42.98472" lon="0.73065">
        <ele>520.4</ele>
        <time>2004-08-06T14:51:44Z</time>
      </trkpt>
      <trkpt lat="42.9846" lon="0.73068">
        <ele>518.7</ele>
        <time>2004-08-06T14:51:45Z</time>
      </trkpt>
      <trkpt lat="42.98454" lon="0.73062">
        <ele>518</ele>
        <time>2004-08-06T14:51:48Z</time>
      </trkpt>
      <trkpt lat="42.98446" lon="0.73043">
        <ele>518</ele>
        <time>2004-08-06T14:51:53Z</time>
      </trkpt>
      <trkpt lat="42.98441" lon="0.73023">
        <ele>517.7</ele>
        <time>2004-08-06T14:52:01Z</time>
      </trkpt>
      <trkpt lat="42.98442" lon="0.72988">
        <ele>524.6</ele>
        <time>2004-08-06T14:52:03Z</time>
      </trkpt>
      <trkpt lat="42.98436" lon="0.72975">
        <ele>525</ele>
        <time>2004-08-06T14:52:04Z</time>
      </trkpt>
      <trkpt lat="42.98427" lon="0.72967">
        <ele>524.7</ele>
        <time>2004-08-06T14:52:08Z</time>
      </trkpt>
      <trkpt lat="42.98427" lon="0.72964">
        <ele>525.1</ele>
        <time>2004-08-06T14:52:08Z</time>
      </trkpt>
      <trkpt lat="42.98427" lon="0.72967">
        <ele>524.7</ele>
        <time>2004-08-06T14:52:09Z</time>
      </trkpt>
      <trkpt lat="42.98438" lon="0.73053">
        <ele>516.3</ele>
        <time>2004-08-06T14:52:12Z</time>
      </trkpt>
      <trkpt lat="42.98444" lon="0.73075">
        <ele>515.5</ele>
        <time>2004-08-06T14:52:13Z</time>
      </trkpt>
      <trkpt lat="42.98456" lon="0.73103">
        <ele>513.4</ele>
        <time>2004-08-06T14:52:16Z</time>
      </trkpt>
      <trkpt lat="42.98472" lon="0.73144">
        <ele>514.2</ele>
        <time>2004-08-06T14:52:20Z</time>
      </trkpt>
      <trkpt lat="42.98485" lon="0.73192">
        <ele>512.6</ele>
        <time>2004-08-06T14:52:21Z</time>
      </trkpt>
      <trkpt lat="42.98483" lon="0.73241">
        <ele>512.2</ele>
        <time>2004-08-06T14:52:27Z</time>
      </trkpt>
      <trkpt lat="42.98473" lon="0.73412">
        <ele>513.4</ele>
        <time>2004-08-06T14:52:28Z</time>
      </trkpt>
      <trkpt lat="42.98472" lon="0.73442">
        <ele>512.9</ele>
        <time>2004-08-06T14:52:39Z</time>
      </trkpt>
      <trkpt lat="42.98486" lon="0.73496">
        <ele>508.9</ele>
        <time>2004-08-06T14:52:43Z</time>
      </trkpt>
      <trkpt lat="42.98538" lon="0.73657">
        <ele>502</ele>
        <time>2004-08-06T14:52:51Z</time>
      </trkpt>
      <trkpt lat="42.98544" lon="0.73674">
        <ele>500.3</ele>
        <time>2004-08-06T14:52:55Z</time>
      </trkpt>
      <trkpt lat="42.98547" lon="0.73682">
        <ele>500.3</ele>
        <time>2004-08-06T14:52:55Z</time>
      </trkpt>
      <trkpt lat="42.98562" lon="0.73703">
        <ele>500.2</ele>
        <time>2004-08-06T14:52:57Z</time>
      </trkpt>
      <trkpt lat="42.98579" lon="0.73718">
        <ele>499.9</ele>
        <time>2004-08-06T14:52:58Z</time>
      </trkpt>
      <trkpt lat="42.9859" lon="0.73723">
        <ele>499.5</ele>
        <time>2004-08-06T14:52:59Z</time>
      </trkpt>
      <trkpt lat="42.98617" lon="0.73734">
        <ele>499.5</ele>
        <time>2004-08-06T14:53:01Z</time>
      </trkpt>
      <trkpt lat="42.98641" lon="0.73751">
        <ele>495.4</ele>
        <time>2004-08-06T14:53:41Z</time>
      </trkpt>
      <trkpt lat="42.98649" lon="0.73761">
        <ele>495</ele>
        <time>2004-08-06T14:53:42Z</time>
      </trkpt>
      <trkpt lat="42.98656" lon="0.73773">
        <ele>495</ele>
        <time>2004-08-06T14:53:46Z</time>
      </trkpt>
      <trkpt lat="42.98662" lon="0.73792">
        <ele>495</ele>
        <time>2004-08-06T14:53:48Z</time>
      </trkpt>
      <trkpt lat="42.98666" lon="0.73809">
        <ele>494.3</ele>
        <time>2004-08-06T14:53:49Z</time>
      </trkpt>
      <trkpt lat="42.98699" lon="0.73955">
        <ele>498</ele>
        <time>2004-08-06T14:53:57Z</time>
      </trkpt>
      <trkpt lat="42.98707" lon="0.73978">
        <ele>499.6</ele>
        <time>2004-08-06T14:54:00Z</time>
      </trkpt>
      <trkpt lat="42.98753" lon="0.74032">
        <ele>496.3</ele>
        <time>2004-08-06T14:54:04Z</time>
      </trkpt>
      <trkpt lat="42.98758" lon="0.74062">
        <ele>499.5</ele>
        <time>2004-08-06T14:54:05Z</time>
      </trkpt>
      <trkpt lat="42.98754" lon="0.74104">
        <ele>501.9</ele>
        <time>2004-08-06T14:54:12Z</time>
      </trkpt>
      <trkpt lat="42.98745" lon="0.7415">
        <ele>510.9</ele>
        <time>2004-08-06T14:54:16Z</time>
      </trkpt>
      <trkpt lat="42.98738" lon="0.74142">
        <ele>512.6</ele>
        <time>2004-08-06T14:54:32Z</time>
      </trkpt>
      <trkpt lat="42.98709" lon="0.74113">
        <ele>516.7</ele>
        <time>2004-08-06T14:54:34Z</time>
      </trkpt>
      <trkpt lat="42.98676" lon="0.74106">
        <ele>521.4</ele>
        <time>2004-08-06T14:54:42Z</time>
      </trkpt>
      <trkpt lat="42.98631" lon="0.74156">
        <ele>531.7</ele>
        <time>2004-08-06T14:54:47Z</time>
      </trkpt>
      <trkpt lat="42.98612" lon="0.74136">
        <ele>534</ele>
        <time>2004-08-06T14:54:58Z</time>
      </trkpt>
      <trkpt lat="42.98583" lon="0.74072">
        <ele>535.9</ele>
        <time>2004-08-06T14:55:02Z</time>
      </trkpt>
      <trkpt lat="42.98557" lon="0.74061">
        <ele>531.4</ele>
        <time>2004-08-06T14:55:02Z</time>
      </trkpt>
      <trkpt lat="42.98534" lon="0.74131">
        <ele>539.7</ele>
        <time>2004-08-06T14:55:10Z</time>
      </trkpt>
      <trkpt lat="42.98498" lon="0.74209">
        <ele>545.7</ele>
        <time>2004-08-06T14:55:12Z</time>
      </trkpt>
      <trkpt lat="42.98428" lon="0.74341">
        <ele>546.9</ele>
        <time>2004-08-06T14:55:13Z</time>
      </trkpt>
      <trkpt lat="42.98346" lon="0.74484">
        <ele>558</ele>
        <time>2004-08-06T14:55:33Z</time>
      </trkpt>
      <trkpt lat="42.98299" lon="0.7452">
        <ele>562</ele>
        <time>2004-08-06T14:55:33Z</time>
      </trkpt>
      <trkpt lat="42.98285" lon="0.74525">
        <ele>562.7</ele>
        <time>2004-08-06T14:55:34Z</time>
      </trkpt>
      <trkpt lat="42.98267" lon="0.74524">
        <ele>564.1</ele>
        <time>2004-08-06T14:55:47Z</time>
      </trkpt>
      <trkpt lat="42.98165" lon="0.7451">
        <ele>577.1</ele>
        <time>2004-08-06T14:56:01Z</time>
      </trkpt>
      <trkpt lat="42.9815" lon="0.74511">
        <ele>577.4</ele>
        <time>2004-08-06T14:56:03Z</time>
      </trkpt>
      <trkpt lat="42.98072" lon="0.74529">
        <ele>584.2</ele>
        <time>2004-08-06T14:56:04Z</time>
      </trkpt>
      <trkpt lat="42.98051" lon="0.74547">
        <ele>584.7</ele>
        <time>2004-08-06T14:56:06Z</time>
      </trkpt>
      <trkpt lat="42.98043" lon="0.74561">
        <ele>585.1</ele>
        <time>2004-08-06T14:56:10Z</time>
      </trkpt>
      <trkpt lat="42.97983" lon="0.74744">
        <ele>586</ele>
        <time>2004-08-06T14:56:11Z</time>
      </trkpt>
      <trkpt lat="42.97971" lon="0.74764">
        <ele>582.6</ele>
        <time>2004-08-06T14:56:14Z</time>
      </trkpt>
      <trkpt lat="42.97955" lon="0.7478">
        <ele>581.8</ele>
        <time>2004-08-06T14:56:18Z</time>
      </trkpt>
      <trkpt lat="42.97943" lon="0.74784">
        <ele>581.5</ele>
        <time>2004-08-06T14:56:23Z</time>
      </trkpt>
      <trkpt lat="42.97922" lon="0.74848">
        <ele>574.1</ele>
        <time>2004-08-06T14:56:23Z</time>
      </trkpt>
      <trkpt lat="42.97912" lon="0.74895">
        <ele>574.4</ele>
        <time>2004-08-06T14:56:26Z</time>
      </trkpt>
      <trkpt lat="42.9791" lon="0.74923">
        <ele>574.5</ele>
        <time>2004-08-06T14:56:31Z</time>
      </trkpt>
      <trkpt lat="42.97918" lon="0.75092">
        <ele>579.6</ele>
        <time>2004-08-06T14:56:33Z</time>
      </trkpt>
      <trkpt lat="42.97914" lon="0.75117">
        <ele>581.1</ele>
        <time>2004-08-06T14:56:39Z</time>
      </trkpt>
      <trkpt lat="42.97905" lon="0.75142">
        <ele>580.6</ele>
        <time>2004-08-06T14:56:42Z</time>
      </trkpt>
      <trkpt lat="42.97878" lon="0.75193">
        <ele>576.6</ele>
        <time>2004-08-06T14:56:46Z</time>
      </trkpt>
      <trkpt lat="42.97845" lon="0.7523">
        <ele>575.3</ele>
        <time>2004-08-06T14:56:49Z</time>
      </trkpt>
      <trkpt lat="42.97824" lon="0.7525">
        <ele>575.3</ele>
        <time>2004-08-06T14:56:51Z</time>
      </trkpt>
      <trkpt lat="42.97811" lon="0.75275">
        <ele>576.6</ele>
        <time>2004-08-06T14:56:53Z</time>
      </trkpt>
      <trkpt lat="42.97791" lon="0.75341">
        <ele>581</ele>
        <time>2004-08-06T14:56:54Z</time>
      </trkpt>
      <trkpt lat="42.97786" lon="0.75362">
        <ele>581.6</ele>
        <time>2004-08-06T14:56:54Z</time>
      </trkpt>
      <trkpt lat="42.97781" lon="0.7541">
        <ele>583</ele>
        <time>2004-08-06T14:56:57Z</time>
      </trkpt>
      <trkpt lat="42.97775" lon="0.75451">
        <ele>582.9</ele>
        <time>2004-08-06T14:56:58Z</time>
      </trkpt>
      <trkpt lat="42.97763" lon="0.75497">
        <ele>583.2</ele>
        <time>2004-08-06T14:57:00Z</time>
      </trkpt>
      <trkpt lat="42.97739" lon="0.75555">
        <ele>587.6</ele>
        <time>2004-08-06T14:57:01Z</time>
      </trkpt>
      <trkpt lat="42.97738" lon="0.75554">
        <ele>587.6</ele>
        <time>2004-08-06T14:57:04Z</time>
      </trkpt>
      <trkpt lat="42.97674" lon="0.75523">
        <ele>590.5</ele>
        <time>2004-08-06T14:57:05Z</time>
      </trkpt>
      <trkpt lat="42.97647" lon="0.75533">
        <ele>595.7</ele>
        <time>2004-08-06T14:57:05Z</time>
      </trkpt>
      <trkpt lat="42.97637" lon="0.75536">
        <ele>596.2</ele>
        <time>2004-08-06T14:57:06Z</time>
      </trkpt>
      <trkpt lat="42.97627" lon="0.75531">
        <ele>596.7</ele>
        <time>2004-08-06T14:57:08Z</time>
      </trkpt>
      <trkpt lat="42.97567" lon="0.75542">
        <ele>604.4</ele>
        <time>2004-08-06T14:57:09Z</time>
      </trkpt>
      <trkpt lat="42.97388" lon="0.75538">
        <ele>625</ele>
        <time>2004-08-06T14:57:10Z</time>
      </trkpt>
      <trkpt lat="42.97336" lon="0.75518">
        <ele>628.7</ele>
        <time>2004-08-06T14:57:12Z</time>
      </trkpt>
      <trkpt lat="42.97297" lon="0.75525">
        <ele>638.4</ele>
        <time>2004-08-06T14:57:13Z</time>
      </trkpt>
      <trkpt lat="42.97166" lon="0.75576">
        <ele>662.3</ele>
        <time>2004-08-06T14:57:13Z</time>
      </trkpt>
      <trkpt lat="42.97165" lon="0.75584">
        <ele>661.6</ele>
        <time>2004-08-06T14:57:16Z</time>
      </trkpt>
      <trkpt lat="42.9719" lon="0.75791">
        <ele>664.5</ele>
        <time>2004-08-06T14:57:17Z</time>
      </trkpt>
      <trkpt lat="42.97189" lon="0.75792">
        <ele>664.5</ele>
        <time>2004-08-06T14:57:20Z</time>
      </trkpt>
      <trkpt lat="42.97188" lon="0.75793">
        <ele>664.6</ele>
        <time>2004-08-06T14:57:21Z</time>
      </trkpt>
      <trkpt lat="42.97081" lon="0.75795">
        <ele>689.9</ele>
        <time>2004-08-06T14:57:22Z</time>
      </trkpt>
      <trkpt lat="42.97051" lon="0.75804">
        <ele>692</ele>
        <time>2004-08-06T14:57:25Z</time>
      </trkpt>
      <trkpt lat="42.96915" lon="0.75834">
        <ele>718.9</ele>
        <time>2004-08-06T14:57:25Z</time>
      </trkpt>
      <trkpt lat="42.96897" lon="0.75847">
        <ele>725.8</ele>
        <time>2004-08-06T14:57:28Z</time>
      </trkpt>
      <trkpt lat="42.96899" lon="0.75873">
        <ele>728.2</ele>
        <time>2004-08-06T14:57:29Z</time>
      </trkpt>
      <trkpt lat="42.96922" lon="0.75941">
        <ele>721.7</ele>
        <time>2004-08-06T14:57:31Z</time>
      </trkpt>
      <trkpt lat="42.96923" lon="0.75986">
        <ele>722.4</ele>
        <time>2004-08-06T14:57:32Z</time>
      </trkpt>
      <trkpt lat="42.96912" lon="0.76025">
        <ele>730.4</ele>
        <time>2004-08-06T14:57:33Z</time>
      </trkpt>
      <trkpt lat="42.96895" lon="0.76042">
        <ele>731.9</ele>
        <time>2004-08-06T14:57:35Z</time>
      </trkpt>
      <trkpt lat="42.96873" lon="0.76044">
        <ele>735.6</ele>
        <time>2004-08-06T14:57:36Z</time>
      </trkpt>
      <trkpt lat="42.96802" lon="0.76012">
        <ele>757.9</ele>
        <time>2004-08-06T14:57:39Z</time>
      </trkpt>
      <trkpt lat="42.9668" lon="0.75982">
        <ele>776.3</ele>
        <time>2004-08-06T14:57:40Z</time>
      </trkpt>
      <trkpt lat="42.9666" lon="0.75972">
        <ele>791.5</ele>
        <time>2004-08-06T14:57:41Z</time>
      </trkpt>
      <trkpt lat="42.96635" lon="0.75982">
        <ele>794.5</ele>
        <time>2004-08-06T14:57:43Z</time>
      </trkpt>
      <trkpt lat="42.96612" lon="0.76">
        <ele>797.4</ele>
        <time>2004-08-06T14:57:44Z</time>
      </trkpt>
      <trkpt lat="42.96594" lon="0.75992">
        <ele>801.9</ele>
        <time>2004-08-06T14:57:45Z</time>
      </trkpt>
      <trkpt lat="42.96591" lon="0.75972">
        <ele>801.4</ele>
        <time>2004-08-06T14:57:48Z</time>
      </trkpt>
      <trkpt lat="42.96602" lon="0.75953">
        <ele>801.4</ele>
        <time>2004-08-06T14:57:51Z</time>
      </trkpt>
      <trkpt lat="42.96607" lon="0.75933">
        <ele>803</ele>
        <time>2004-08-06T14:57:52Z</time>
      </trkpt>
      <trkpt lat="42.96598" lon="0.75915">
        <ele>815.9</ele>
        <time>2004-08-06T14:57:52Z</time>
      </trkpt>
      <trkpt lat="42.96594" lon="0.75889">
        <ele>817.9</ele>
        <time>2004-08-06T14:57:55Z</time>
      </trkpt>
      <trkpt lat="42.96606" lon="0.75858">
        <ele>822.7</ele>
        <time>2004-08-06T14:57:59Z</time>
      </trkpt>
      <trkpt lat="42.96646" lon="0.7579">
        <ele>828.4</ele>
        <time>2004-08-06T14:57:59Z</time>
      </trkpt>
      <trkpt lat="42.96648" lon="0.7578">
        <ele>828.2</ele>
        <time>2004-08-06T14:58:02Z</time>
      </trkpt>
      <trkpt lat="42.9665" lon="0.75773">
        <ele>827.7</ele>
        <time>2004-08-06T14:58:03Z</time>
      </trkpt>
      <trkpt lat="42.96637" lon="0.75766">
        <ele>830</ele>
        <time>2004-08-06T14:58:06Z</time>
      </trkpt>
      <trkpt lat="42.96618" lon="0.7575">
        <ele>830.7</ele>
        <time>2004-08-06T14:58:07Z</time>
      </trkpt>
      <trkpt lat="42.96568" lon="0.75729">
        <ele>851.4</ele>
        <time>2004-08-06T14:58:08Z</time>
      </trkpt>
      <trkpt lat="42.96498" lon="0.75724">
        <ele>875.8</ele>
        <time>2004-08-06T14:58:10Z</time>
      </trkpt>
      <trkpt lat="42.96424" lon="0.75714">
        <ele>881.4</ele>
        <time>2004-08-06T14:58:11Z</time>
      </trkpt>
      <trkpt lat="42.96405" lon="0.75702">
        <ele>902.3</ele>
        <time>2004-08-06T14:58:12Z</time>
      </trkpt>
      <trkpt lat="42.9642" lon="0.75739">
        <ele>886.8</ele>
        <time>2004-08-06T14:58:15Z</time>
      </trkpt>
      <trkpt lat="42.96432" lon="0.75755">
        <ele>887.1</ele>
        <time>2004-08-06T14:58:16Z</time>
      </trkpt>
      <trkpt lat="42.96435" lon="0.75768">
        <ele>885.3</ele>
        <time>2004-08-06T14:58:19Z</time>
      </trkpt>
      <trkpt lat="42.96432" lon="0.75773">
        <ele>885.1</ele>
        <time>2004-08-06T14:58:22Z</time>
      </trkpt>
      <trkpt lat="42.96431" lon="0.75775">
        <ele>885</ele>
        <time>2004-08-06T14:58:25Z</time>
      </trkpt>
      <trkpt lat="42.96422" lon="0.75778">
        <ele>885.2</ele>
        <time>2004-08-06T14:58:30Z</time>
      </trkpt>
      <trkpt lat="42.96422" lon="0.75768">
        <ele>886.7</ele>
        <time>2004-08-06T14:58:43Z</time>
      </trkpt>
      <trkpt lat="42.96417" lon="0.75758">
        <ele>889.2</ele>
        <time>2004-08-06T14:58:47Z</time>
      </trkpt>
      <trkpt lat="42.96403" lon="0.75749">
        <ele>899.8</ele>
        <time>2004-08-06T14:58:50Z</time>
      </trkpt>
      <trkpt lat="42.96384" lon="0.75729">
        <ele>907.7</ele>
        <time>2004-08-06T14:58:52Z</time>
      </trkpt>
      <trkpt lat="42.96367" lon="0.75681">
        <ele>912.5</ele>
        <time>2004-08-06T14:58:54Z</time>
      </trkpt>
      <trkpt lat="42.96345" lon="0.75612">
        <ele>919.9</ele>
        <time>2004-08-06T14:58:56Z</time>
      </trkpt>
      <trkpt lat="42.96338" lon="0.75568">
        <ele>932.1</ele>
        <time>2004-08-06T14:58:57Z</time>
      </trkpt>
      <trkpt lat="42.96342" lon="0.7554">
        <ele>930.6</ele>
        <time>2004-08-06T14:58:58Z</time>
      </trkpt>
      <trkpt lat="42.96362" lon="0.75513">
        <ele>930.4</ele>
        <time>2004-08-06T14:59:08Z</time>
      </trkpt>
      <trkpt lat="42.96381" lon="0.7549">
        <ele>939.5</ele>
        <time>2004-08-06T14:59:12Z</time>
      </trkpt>
      <trkpt lat="42.96415" lon="0.75419">
        <ele>940.6</ele>
        <time>2004-08-06T14:59:16Z</time>
      </trkpt>
      <trkpt lat="42.96482" lon="0.75243">
        <ele>962.9</ele>
        <time>2004-08-06T14:59:17Z</time>
      </trkpt>
      <trkpt lat="42.96492" lon="0.75223">
        <ele>965.4</ele>
        <time>2004-08-06T14:59:20Z</time>
      </trkpt>
      <trkpt lat="42.96516" lon="0.75187">
        <ele>955.3</ele>
        <time>2004-08-06T14:59:23Z</time>
      </trkpt>
      <trkpt lat="42.96532" lon="0.75169">
        <ele>954</ele>
        <time>2004-08-06T14:59:35Z</time>
      </trkpt>
      <trkpt lat="42.96542" lon="0.75131">
        <ele>962.6</ele>
        <time>2004-08-06T14:59:36Z</time>
      </trkpt>
      <trkpt lat="42.96546" lon="0.75085">
        <ele>964.3</ele>
        <time>2004-08-06T14:59:37Z</time>
      </trkpt>
      <trkpt lat="42.96543" lon="0.75038">
        <ele>965.8</ele>
        <time>2004-08-06T14:59:39Z</time>
      </trkpt>
      <trkpt lat="42.96536" lon="0.75008">
        <ele>965.8</ele>
        <time>2004-08-06T14:59:40Z</time>
      </trkpt>
      <trkpt lat="42.96528" lon="0.74982">
        <ele>961.5</ele>
        <time>2004-08-06T14:59:40Z</time>
      </trkpt>
      <trkpt lat="42.96519" lon="0.74963">
        <ele>960.4</ele>
        <time>2004-08-06T14:59:41Z</time>
      </trkpt>
      <trkpt lat="42.96512" lon="0.74957">
        <ele>960.1</ele>
        <time>2004-08-06T14:59:43Z</time>
      </trkpt>
      <trkpt lat="42.96505" lon="0.74955">
        <ele>960.1</ele>
        <time>2004-08-06T14:59:44Z</time>
      </trkpt>
      <trkpt lat="42.96499" lon="0.74958">
        <ele>958.8</ele>
        <time>2004-08-06T14:59:46Z</time>
      </trkpt>
      <trkpt lat="42.96492" lon="0.74975">
        <ele>961</ele>
        <time>2004-08-06T14:59:48Z</time>
      </trkpt>
      <trkpt lat="42.9649" lon="0.74981">
        <ele>962</ele>
        <time>2004-08-06T14:59:51Z</time>
      </trkpt>
      <trkpt lat="42.96496" lon="0.75">
        <ele>967.2</ele>
        <time>2004-08-06T14:59:52Z</time>
      </trkpt>
      <trkpt lat="42.96501" lon="0.75036">
        <ele>968.2</ele>
        <time>2004-08-06T14:59:59Z</time>
      </trkpt>
      <trkpt lat="42.96499" lon="0.75057">
        <ele>974.2</ele>
        <time>2004-08-06T15:00:00Z</time>
      </trkpt>
      <trkpt lat="42.965" lon="0.75072">
        <ele>972.4</ele>
        <time>2004-08-06T15:00:03Z</time>
      </trkpt>
      <trkpt lat="42.96495" lon="0.75112">
        <ele>978.1</ele>
        <time>2004-08-06T15:00:04Z</time>
      </trkpt>
      <trkpt lat="42.96485" lon="0.75132">
        <ele>977.8</ele>
        <time>2004-08-06T15:00:11Z</time>
      </trkpt>
      <trkpt lat="42.96443" lon="0.75167">
        <ele>980.5</ele>
        <time>2004-08-06T15:00:14Z</time>
      </trkpt>
      <trkpt lat="42.96416" lon="0.75194">
        <ele>997.6</ele>
        <time>2004-08-06T15:00:18Z</time>
      </trkpt>
      <trkpt lat="42.9639" lon="0.75241">
        <ele>995.8</ele>
        <time>2004-08-06T15:00:21Z</time>
      </trkpt>
      <trkpt lat="42.96365" lon="0.75314">
        <ele>989.8</ele>
        <time>2004-08-06T15:00:25Z</time>
      </trkpt>
      <trkpt lat="42.96327" lon="0.75384">
        <ele>997.4</ele>
        <time>2004-08-06T15:00:30Z</time>
      </trkpt>
      <trkpt lat="42.96299" lon="0.75417">
        <ele>984.3</ele>
        <time>2004-08-06T15:00:33Z</time>
      </trkpt>
      <trkpt lat="42.96265" lon="0.75445">
        <ele>989.9</ele>
        <time>2004-08-06T15:00:35Z</time>
      </trkpt>
      <trkpt lat="42.96245" lon="0.75468">
        <ele>1008.6</ele>
        <time>2004-08-06T15:00:41Z</time>
      </trkpt>
      <trkpt lat="42.96232" lon="0.75491">
        <ele>1004.5</ele>
        <time>2004-08-06T15:00:42Z</time>
      </trkpt>
      <trkpt lat="42.96216" lon="0.75515">
        <ele>1005.1</ele>
        <time>2004-08-06T15:00:45Z</time>
      </trkpt>
      <trkpt lat="42.96215" lon="0.75525">
        <ele>1005.6</ele>
        <time>2004-08-06T15:00:48Z</time>
      </trkpt>
      <trkpt lat="42.96238" lon="0.75601">
        <ele>1000</ele>
        <time>2004-08-06T15:00:49Z</time>
      </trkpt>
      <trkpt lat="42.96252" lon="0.75656">
        <ele>982.6</ele>
        <time>2004-08-06T15:00:52Z</time>
      </trkpt>
      <trkpt lat="42.96257" lon="0.75698">
        <ele>972.2</ele>
        <time>2004-08-06T15:00:53Z</time>
      </trkpt>
      <trkpt lat="42.96251" lon="0.75732">
        <ele>974.7</ele>
        <time>2004-08-06T15:00:56Z</time>
      </trkpt>
      <trkpt lat="42.9624" lon="0.75754">
        <ele>985.7</ele>
        <time>2004-08-06T15:00:57Z</time>
      </trkpt>
      <trkpt lat="42.96226" lon="0.75772">
        <ele>984.9</ele>
        <time>2004-08-06T15:01:04Z</time>
      </trkpt>
      <trkpt lat="42.96212" lon="0.75783">
        <ele>985.3</ele>
        <time>2004-08-06T15:01:07Z</time>
      </trkpt>
      <trkpt lat="42.96148" lon="0.75818">
        <ele>1005.5</ele>
        <time>2004-08-06T15:01:13Z</time>
      </trkpt>
      <trkpt lat="42.96126" lon="0.75843">
        <ele>988.7</ele>
        <time>2004-08-06T15:01:16Z</time>
      </trkpt>
      <trkpt lat="42.96096" lon="0.75895">
        <ele>985.9</ele>
        <time>2004-08-06T15:01:20Z</time>
      </trkpt>
      <trkpt lat="42.96036" lon="0.75955">
        <ele>1005.6</ele>
        <time>2004-08-06T15:01:24Z</time>
      </trkpt>
      <trkpt lat="42.96028" lon="0.75965">
        <ele>1007.1</ele>
        <time>2004-08-06T15:01:25Z</time>
      </trkpt>
      <trkpt lat="42.96023" lon="0.75979">
        <ele>1008.4</ele>
        <time>2004-08-06T15:01:28Z</time>
      </trkpt>
      <trkpt lat="42.96026" lon="0.7599">
        <ele>1008.1</ele>
        <time>2004-08-06T15:01:31Z</time>
      </trkpt>
      <trkpt lat="42.96085" lon="0.76059">
        <ele>988.1</ele>
        <time>2004-08-06T15:01:31Z</time>
      </trkpt>
      <trkpt lat="42.96121" lon="0.76083">
        <ele>981.7</ele>
        <time>2004-08-06T15:01:39Z</time>
      </trkpt>
      <trkpt lat="42.9622" lon="0.7618">
        <ele>995.5</ele>
        <time>2004-08-06T15:01:43Z</time>
      </trkpt>
      <trkpt lat="42.9626" lon="0.76212">
        <ele>981.8</ele>
        <time>2004-08-06T15:01:48Z</time>
      </trkpt>
      <trkpt lat="42.9629" lon="0.76232">
        <ele>983</ele>
        <time>2004-08-06T15:01:50Z</time>
      </trkpt>
      <trkpt lat="42.96337" lon="0.76246">
        <ele>980</ele>
        <time>2004-08-06T15:01:52Z</time>
      </trkpt>
      <trkpt lat="42.96363" lon="0.76257">
        <ele>987.1</ele>
        <time>2004-08-06T15:01:54Z</time>
      </trkpt>
      <trkpt lat="42.96388" lon="0.76274">
        <ele>984</ele>
        <time>2004-08-06T15:01:57Z</time>
      </trkpt>
      <trkpt lat="42.96428" lon="0.76319">
        <ele>968</ele>
        <time>2004-08-06T15:01:59Z</time>
      </trkpt>
      <trkpt lat="42.96433" lon="0.76333">
        <ele>969.5</ele>
        <time>2004-08-06T15:02:05Z</time>
      </trkpt>
      <trkpt lat="42.96432" lon="0.7635">
        <ele>970.1</ele>
        <time>2004-08-06T15:02:06Z</time>
      </trkpt>
      <trkpt lat="42.9637" lon="0.7655">
        <ele>1010.2</ele>
        <time>2004-08-06T15:02:09Z</time>
      </trkpt>
      <trkpt lat="42.96365" lon="0.76609">
        <ele>1010.3</ele>
        <time>2004-08-06T15:02:10Z</time>
      </trkpt>
      <trkpt lat="42.9637" lon="0.76664">
        <ele>1008.3</ele>
        <time>2004-08-06T15:02:10Z</time>
      </trkpt>
      <trkpt lat="42.96365" lon="0.76714">
        <ele>1004.7</ele>
        <time>2004-08-06T15:02:11Z</time>
      </trkpt>
      <trkpt lat="42.96355" lon="0.76747">
        <ele>1012.4</ele>
        <time>2004-08-06T15:02:14Z</time>
      </trkpt>
      <trkpt lat="42.96314" lon="0.76838">
        <ele>1028.6</ele>
        <time>2004-08-06T15:02:18Z</time>
      </trkpt>
      <trkpt lat="42.96297" lon="0.76889">
        <ele>1036.9</ele>
        <time>2004-08-06T15:02:21Z</time>
      </trkpt>
      <trkpt lat="42.96292" lon="0.76945">
        <ele>1035.5</ele>
        <time>2004-08-06T15:02:22Z</time>
      </trkpt>
      <trkpt lat="42.96307" lon="0.77002">
        <ele>1031</ele>
        <time>2004-08-06T15:02:22Z</time>
      </trkpt>
      <trkpt lat="42.96313" lon="0.77037">
        <ele>1033.4</ele>
        <time>2004-08-06T15:02:26Z</time>
      </trkpt>
      <trkpt lat="42.96302" lon="0.77151">
        <ele>1036.3</ele>
        <time>2004-08-06T15:02:29Z</time>
      </trkpt>
      <trkpt lat="42.96299" lon="0.77162">
        <ele>1036.6</ele>
        <time>2004-08-06T15:02:32Z</time>
      </trkpt>
      <trkpt lat="42.96282" lon="0.7719">
        <ele>1037.8</ele>
        <time>2004-08-06T15:02:33Z</time>
      </trkpt>
      <trkpt lat="42.9628" lon="0.77197">
        <ele>1037.8</ele>
        <time>2004-08-06T15:02:36Z</time>
      </trkpt>
      <trkpt lat="42.96285" lon="0.77224">
        <ele>1036.8</ele>
        <time>2004-08-06T15:02:37Z</time>
      </trkpt>
      <trkpt lat="42.96286" lon="0.77233">
        <ele>1036.6</ele>
        <time>2004-08-06T15:02:38Z</time>
      </trkpt>
      <trkpt lat="42.96284" lon="0.77245">
        <ele>1037</ele>
        <time>2004-08-06T15:02:41Z</time>
      </trkpt>
      <trkpt lat="42.96262" lon="0.77325">
        <ele>1040.9</ele>
        <time>2004-08-06T15:02:42Z</time>
      </trkpt>
      <trkpt lat="42.96252" lon="0.77392">
        <ele>1041.4</ele>
        <time>2004-08-06T15:02:45Z</time>
      </trkpt>
      <trkpt lat="42.96251" lon="0.7747">
        <ele>1043.3</ele>
        <time>2004-08-06T15:02:45Z</time>
      </trkpt>
      <trkpt lat="42.96252" lon="0.77495">
        <ele>1047.2</ele>
        <time>2004-08-06T15:02:49Z</time>
      </trkpt>
      <trkpt lat="42.96244" lon="0.77516">
        <ele>1051.2</ele>
        <time>2004-08-06T15:02:53Z</time>
      </trkpt>
      <trkpt lat="42.96233" lon="0.77531">
        <ele>1052.4</ele>
        <time>2004-08-06T15:02:56Z</time>
      </trkpt>
      <trkpt lat="42.96218" lon="0.77547">
        <ele>1053.2</ele>
        <time>2004-08-06T15:02:59Z</time>
      </trkpt>
      <trkpt lat="42.96208" lon="0.77567">
        <ele>1053.7</ele>
        <time>2004-08-06T15:03:04Z</time>
      </trkpt>
      <trkpt lat="42.96194" lon="0.77587">
        <ele>1054.4</ele>
        <time>2004-08-06T15:03:05Z</time>
      </trkpt>
      <trkpt lat="42.96173" lon="0.77604">
        <ele>1055.4</ele>
        <time>2004-08-06T15:03:07Z</time>
      </trkpt>
      <trkpt lat="42.9614" lon="0.77622">
        <ele>1066.1</ele>
        <time>2004-08-06T15:03:08Z</time>
      </trkpt>
      <trkpt lat="42.9613" lon="0.77635">
        <ele>1067.2</ele>
        <time>2004-08-06T15:03:12Z</time>
      </trkpt>
      <trkpt lat="42.96121" lon="0.77657">
        <ele>1068.5</ele>
        <time>2004-08-06T15:03:16Z</time>
      </trkpt>
      <trkpt lat="42.96112" lon="0.77699">
        <ele>1070.5</ele>
        <time>2004-08-06T15:03:19Z</time>
      </trkpt>
      <trkpt lat="42.9611" lon="0.77748">
        <ele>1072.2</ele>
        <time>2004-08-06T15:03:22Z</time>
      </trkpt>
      <trkpt lat="42.96102" lon="0.77778">
        <ele>1073.3</ele>
        <time>2004-08-06T15:03:27Z</time>
      </trkpt>
      <trkpt lat="42.96092" lon="0.77808">
        <ele>1074.6</ele>
        <time>2004-08-06T15:03:31Z</time>
      </trkpt>
      <trkpt lat="42.96063" lon="0.77872">
        <ele>1087.2</ele>
        <time>2004-08-06T15:03:39Z</time>
      </trkpt>
      <trkpt lat="42.96028" lon="0.77944">
        <ele>1087.8</ele>
        <time>2004-08-06T15:03:39Z</time>
      </trkpt>
      <trkpt lat="42.9601" lon="0.77971">
        <ele>1088.1</ele>
        <time>2004-08-06T15:03:42Z</time>
      </trkpt>
      <trkpt lat="42.95998" lon="0.77984">
        <ele>1098.3</ele>
        <time>2004-08-06T15:03:46Z</time>
      </trkpt>
      <trkpt lat="42.95969" lon="0.78005">
        <ele>1100.1</ele>
        <time>2004-08-06T15:03:47Z</time>
      </trkpt>
      <trkpt lat="42.95954" lon="0.78026">
        <ele>1102.9</ele>
        <time>2004-08-06T15:03:49Z</time>
      </trkpt>
      <trkpt lat="42.95874" lon="0.78174">
        <ele>1113.9</ele>
        <time>2004-08-06T15:04:09Z</time>
      </trkpt>
      <trkpt lat="42.95846" lon="0.78228">
        <ele>1115.3</ele>
        <time>2004-08-06T15:04:14Z</time>
      </trkpt>
      <trkpt lat="42.95834" lon="0.78254">
        <ele>1116.8</ele>
        <time>2004-08-06T15:04:20Z</time>
      </trkpt>
      <trkpt lat="42.95796" lon="0.78326">
        <ele>1123.2</ele>
        <time>2004-08-06T15:04:52Z</time>
      </trkpt>
      <trkpt lat="42.95777" lon="0.78351">
        <ele>1115.9</ele>
        <time>2004-08-06T15:05:00Z</time>
      </trkpt>
      <trkpt lat="42.95766" lon="0.78363">
        <ele>1115.4</ele>
        <time>2004-08-06T15:05:00Z</time>
      </trkpt>
      <trkpt lat="42.95742" lon="0.78378">
        <ele>1119.3</ele>
        <time>2004-08-06T15:05:03Z</time>
      </trkpt>
      <trkpt lat="42.95698" lon="0.78391">
        <ele>1118.5</ele>
        <time>2004-08-06T15:05:04Z</time>
      </trkpt>
      <trkpt lat="42.95686" lon="0.78384">
        <ele>1119.7</ele>
        <time>2004-08-06T15:05:06Z</time>
      </trkpt>
      <trkpt lat="42.95667" lon="0.78377">
        <ele>1121.6</ele>
        <time>2004-08-06T15:05:07Z</time>
      </trkpt>
      <trkpt lat="42.95627" lon="0.78376">
        <ele>1115</ele>
        <time>2004-08-06T15:05:10Z</time>
      </trkpt>
      <trkpt lat="42.95585" lon="0.78351">
        <ele>1118.5</ele>
        <time>2004-08-06T15:05:14Z</time>
      </trkpt>
      <trkpt lat="42.95486" lon="0.78255">
        <ele>1118.6</ele>
        <time>2004-08-06T15:05:18Z</time>
      </trkpt>
      <trkpt lat="42.95429" lon="0.78216">
        <ele>1127.6</ele>
        <time>2004-08-06T15:05:19Z</time>
      </trkpt>
      <trkpt lat="42.95389" lon="0.78195">
        <ele>1116.3</ele>
        <time>2004-08-06T15:05:22Z</time>
      </trkpt>
      <trkpt lat="42.95356" lon="0.78179">
        <ele>1114.3</ele>
        <time>2004-08-06T15:05:23Z</time>
      </trkpt>
      <trkpt lat="42.95336" lon="0.78163">
        <ele>1119.1</ele>
        <time>2004-08-06T15:05:23Z</time>
      </trkpt>
      <trkpt lat="42.95312" lon="0.78149">
        <ele>1125.5</ele>
        <time>2004-08-06T15:05:24Z</time>
      </trkpt>
      <trkpt lat="42.95278" lon="0.78147">
        <ele>1125.7</ele>
        <time>2004-08-06T15:05:34Z</time>
      </trkpt>
      <trkpt lat="42.95267" lon="0.78154">
        <ele>1122.1</ele>
        <time>2004-08-06T15:05:35Z</time>
      </trkpt>
      <trkpt lat="42.95259" lon="0.78165">
        <ele>1116.4</ele>
        <time>2004-08-06T15:05:37Z</time>
      </trkpt>
      <trkpt lat="42.95251" lon="0.78171">
        <ele>1108.2</ele>
        <time>2004-08-06T15:05:38Z</time>
      </trkpt>
      <trkpt lat="42.95241" lon="0.78176">
        <ele>1105.2</ele>
        <time>2004-08-06T15:05:39Z</time>
      </trkpt>
      <trkpt lat="42.95232" lon="0.78173">
        <ele>1104.3</ele>
        <time>2004-08-06T15:05:42Z</time>
      </trkpt>
      <trkpt lat="42.95186" lon="0.78136">
        <ele>1128.3</ele>
        <time>2004-08-06T15:05:45Z</time>
      </trkpt>
      <trkpt lat="42.95168" lon="0.78132">
        <ele>1129.1</ele>
        <time>2004-08-06T15:05:47Z</time>
      </trkpt>
      <trkpt lat="42.95143" lon="0.7814">
        <ele>1135.4</ele>
        <time>2004-08-06T15:05:53Z</time>
      </trkpt>
      <trkpt lat="42.95133" lon="0.78147">
        <ele>1136</ele>
        <time>2004-08-06T15:05:54Z</time>
      </trkpt>
      <trkpt lat="42.95125" lon="0.7816">
        <ele>1136.1</ele>
        <time>2004-08-06T15:05:55Z</time>
      </trkpt>
      <trkpt lat="42.9511" lon="0.78199">
        <ele>1118.6</ele>
        <time>2004-08-06T15:05:58Z</time>
      </trkpt>
      <trkpt lat="42.95085" lon="0.78218">
        <ele>1117.6</ele>
        <time>2004-08-06T15:06:00Z</time>
      </trkpt>
      <trkpt lat="42.9507" lon="0.78236">
        <ele>1132.8</ele>
        <time>2004-08-06T15:06:01Z</time>
      </trkpt>
      <trkpt lat="42.95058" lon="0.78262">
        <ele>1116.6</ele>
        <time>2004-08-06T15:06:01Z</time>
      </trkpt>
      <trkpt lat="42.95046" lon="0.78276">
        <ele>1116.8</ele>
        <time>2004-08-06T15:06:02Z</time>
      </trkpt>
      <trkpt lat="42.95031" lon="0.78288">
        <ele>1116.7</ele>
        <time>2004-08-06T15:06:12Z</time>
      </trkpt>
      <trkpt lat="42.94989" lon="0.78305">
        <ele>1128.4</ele>
        <time>2004-08-06T15:06:13Z</time>
      </trkpt>
      <trkpt lat="42.94926" lon="0.78327">
        <ele>1129.2</ele>
        <time>2004-08-06T15:06:14Z</time>
      </trkpt>
      <trkpt lat="42.94905" lon="0.78339">
        <ele>1121.4</ele>
        <time>2004-08-06T15:06:21Z</time>
      </trkpt>
      <trkpt lat="42.94892" lon="0.7835">
        <ele>1120</ele>
        <time>2004-08-06T15:06:22Z</time>
      </trkpt>
      <trkpt lat="42.94866" lon="0.78353">
        <ele>1124.9</ele>
        <time>2004-08-06T15:06:25Z</time>
      </trkpt>
      <trkpt lat="42.94853" lon="0.78361">
        <ele>1126.1</ele>
        <time>2004-08-06T15:06:25Z</time>
      </trkpt>
      <trkpt lat="42.9484" lon="0.78375">
        <ele>1122.2</ele>
        <time>2004-08-06T15:06:40Z</time>
      </trkpt>
      <trkpt lat="42.94828" lon="0.78394">
        <ele>1130.9</ele>
        <time>2004-08-06T15:06:44Z</time>
      </trkpt>
      <trkpt lat="42.94809" lon="0.78408">
        <ele>1131.3</ele>
        <time>2004-08-06T15:06:45Z</time>
      </trkpt>
      <trkpt lat="42.94785" lon="0.78423">
        <ele>1109.3</ele>
        <time>2004-08-06T15:06:48Z</time>
      </trkpt>
      <trkpt lat="42.94754" lon="0.78426">
        <ele>1123.8</ele>
        <time>2004-08-06T15:06:52Z</time>
      </trkpt>
      <trkpt lat="42.94716" lon="0.78445">
        <ele>1113.5</ele>
        <time>2004-08-06T15:06:55Z</time>
      </trkpt>
      <trkpt lat="42.94694" lon="0.78451">
        <ele>1110.9</ele>
        <time>2004-08-06T15:06:55Z</time>
      </trkpt>
      <trkpt lat="42.94676" lon="0.78444">
        <ele>1112.2</ele>
        <time>2004-08-06T15:06:59Z</time>
      </trkpt>
      <trkpt lat="42.94659" lon="0.78431">
        <ele>1106.9</ele>
        <time>2004-08-06T15:07:02Z</time>
      </trkpt>
      <trkpt lat="42.94616" lon="0.78358">
        <ele>1118.9</ele>
        <time>2004-08-06T15:07:07Z</time>
      </trkpt>
      <trkpt lat="42.94573" lon="0.78274">
        <ele>1116.8</ele>
        <time>2004-08-06T15:07:07Z</time>
      </trkpt>
      <trkpt lat="42.9455" lon="0.78208">
        <ele>1130.6</ele>
        <time>2004-08-06T15:07:11Z</time>
      </trkpt>
      <trkpt lat="42.94539" lon="0.78186">
        <ele>1131.7</ele>
        <time>2004-08-06T15:07:12Z</time>
      </trkpt>
      <trkpt lat="42.94525" lon="0.78169">
        <ele>1130.8</ele>
        <time>2004-08-06T15:07:19Z</time>
      </trkpt>
      <trkpt lat="42.94508" lon="0.78165">
        <ele>1135.2</ele>
        <time>2004-08-06T15:07:22Z</time>
      </trkpt>
      <trkpt lat="42.94494" lon="0.78171">
        <ele>1127.5</ele>
        <time>2004-08-06T15:07:22Z</time>
      </trkpt>
      <trkpt lat="42.94481" lon="0.78175">
        <ele>1126</ele>
        <time>2004-08-06T15:07:25Z</time>
      </trkpt>
      <trkpt lat="42.9446" lon="0.78175">
        <ele>1126.3</ele>
        <time>2004-08-06T15:07:26Z</time>
      </trkpt>
      <trkpt lat="42.94444" lon="0.78184">
        <ele>1126.9</ele>
        <time>2004-08-06T15:07:27Z</time>
      </trkpt>
      <trkpt lat="42.94428" lon="0.78193">
        <ele>1127.1</ele>
        <time>2004-08-06T15:07:29Z</time>
      </trkpt>
      <trkpt lat="42.94416" lon="0.78207">
        <ele>1133.5</ele>
        <time>2004-08-06T15:07:45Z</time>
      </trkpt>
      <trkpt lat="42.94396" lon="0.78254">
        <ele>1115.3</ele>
        <time>2004-08-06T15:07:49Z</time>
      </trkpt>
      <trkpt lat="42.94387" lon="0.78259">
        <ele>1115.2</ele>
        <time>2004-08-06T15:07:50Z</time>
      </trkpt>
      <trkpt lat="42.94369" lon="0.78259">
        <ele>1116.9</ele>
        <time>2004-08-06T15:07:53Z</time>
      </trkpt>
      <trkpt lat="42.94278" lon="0.78236">
        <ele>1148.3</ele>
        <time>2004-08-06T15:07:57Z</time>
      </trkpt>
      <trkpt lat="42.94255" lon="0.78232">
        <ele>1148.2</ele>
        <time>2004-08-06T15:07:58Z</time>
      </trkpt>
      <trkpt lat="42.94241" lon="0.7824">
        <ele>1155.3</ele>
        <time>2004-08-06T15:08:06Z</time>
      </trkpt>
      <trkpt lat="42.94222" lon="0.78262">
        <ele>1149.2</ele>
        <time>2004-08-06T15:08:09Z</time>
      </trkpt>
      <trkpt lat="42.94204" lon="0.78287">
        <ele>1151</ele>
        <time>2004-08-06T15:08:23Z</time>
      </trkpt>
      <trkpt lat="42.94182" lon="0.78341">
        <ele>1143.8</ele>
        <time>2004-08-06T15:08:24Z</time>
      </trkpt>
      <trkpt lat="42.94172" lon="0.78382">
        <ele>1134.3</ele>
        <time>2004-08-06T15:08:24Z</time>
      </trkpt>
      <trkpt lat="42.94161" lon="0.78404">
        <ele>1149.3</ele>
        <time>2004-08-06T15:08:27Z</time>
      </trkpt>
      <trkpt lat="42.94138" lon="0.78414">
        <ele>1157.1</ele>
        <time>2004-08-06T15:08:31Z</time>
      </trkpt>
      <trkpt lat="42.94085" lon="0.78467">
        <ele>1140.1</ele>
        <time>2004-08-06T15:08:32Z</time>
      </trkpt>
      <trkpt lat="42.94047" lon="0.78502">
        <ele>1137.1</ele>
        <time>2004-08-06T15:08:37Z</time>
      </trkpt>
      <trkpt lat="42.93978" lon="0.78541">
        <ele>1157.9</ele>
        <time>2004-08-06T15:08:39Z</time>
      </trkpt>
      <trkpt lat="42.93966" lon="0.78553">
        <ele>1157</ele>
        <time>2004-08-06T15:08:40Z</time>
      </trkpt>
      <trkpt lat="42.93947" lon="0.78585">
        <ele>1133</ele>
        <time>2004-08-06T15:08:47Z</time>
      </trkpt>
      <trkpt lat="42.93936" lon="0.78595">
        <ele>1136.5</ele>
        <time>2004-08-06T15:08:47Z</time>
      </trkpt>
      <trkpt lat="42.93869" lon="0.78634">
        <ele>1152.7</ele>
        <time>2004-08-06T15:08:51Z</time>
      </trkpt>
      <trkpt lat="42.93832" lon="0.78674">
        <ele>1144</ele>
        <time>2004-08-06T15:08:51Z</time>
      </trkpt>
      <trkpt lat="42.93807" lon="0.78693">
        <ele>1144.9</ele>
        <time>2004-08-06T15:08:55Z</time>
      </trkpt>
      <trkpt lat="42.93775" lon="0.78712">
        <ele>1148.3</ele>
        <time>2004-08-06T15:08:59Z</time>
      </trkpt>
      <trkpt lat="42.93746" lon="0.78754">
        <ele>1149.5</ele>
        <time>2004-08-06T15:09:03Z</time>
      </trkpt>
      <trkpt lat="42.93724" lon="0.78797">
        <ele>1146.6</ele>
        <time>2004-08-06T15:09:04Z</time>
      </trkpt>
      <trkpt lat="42.93706" lon="0.78829">
        <ele>1145.1</ele>
        <time>2004-08-06T15:09:06Z</time>
      </trkpt>
      <trkpt lat="42.93696" lon="0.78846">
        <ele>1129</ele>
        <time>2004-08-06T15:09:07Z</time>
      </trkpt>
      <trkpt lat="42.93672" lon="0.78866">
        <ele>1128.9</ele>
        <time>2004-08-06T15:09:18Z</time>
      </trkpt>
      <trkpt lat="42.93628" lon="0.7886">
        <ele>1133.1</ele>
        <time>2004-08-06T15:09:19Z</time>
      </trkpt>
      <trkpt lat="42.93584" lon="0.78847">
        <ele>1138.3</ele>
        <time>2004-08-06T15:09:21Z</time>
      </trkpt>
      <trkpt lat="42.93562" lon="0.78819">
        <ele>1138.6</ele>
        <time>2004-08-06T15:09:22Z</time>
      </trkpt>
      <trkpt lat="42.93548" lon="0.78779">
        <ele>1139.8</ele>
        <time>2004-08-06T15:09:26Z</time>
      </trkpt>
      <trkpt lat="42.93506" lon="0.78635">
        <ele>1178.5</ele>
        <time>2004-08-06T15:09:26Z</time>
      </trkpt>
      <trkpt lat="42.93492" lon="0.78612">
        <ele>1154.5</ele>
        <time>2004-08-06T15:09:29Z</time>
      </trkpt>
      <trkpt lat="42.93462" lon="0.78601">
        <ele>1145.9</ele>
        <time>2004-08-06T15:09:30Z</time>
      </trkpt>
      <trkpt lat="42.93459" lon="0.78588">
        <ele>1145.9</ele>
        <time>2004-08-06T15:09:30Z</time>
      </trkpt>
      <trkpt lat="42.93454" lon="0.7847">
        <ele>1168.9</ele>
        <time>2004-08-06T15:09:31Z</time>
      </trkpt>
      <trkpt lat="42.93453" lon="0.78348">
        <ele>1174</ele>
        <time>2004-08-06T15:09:34Z</time>
      </trkpt>
      <trkpt lat="42.9346" lon="0.78276">
        <ele>1181.6</ele>
        <time>2004-08-06T15:09:37Z</time>
      </trkpt>
      <trkpt lat="42.93456" lon="0.78151">
        <ele>1188.4</ele>
        <time>2004-08-06T15:09:41Z</time>
      </trkpt>
      <trkpt lat="42.93459" lon="0.78089">
        <ele>1190.3</ele>
        <time>2004-08-06T15:09:49Z</time>
      </trkpt>
      <trkpt lat="42.93456" lon="0.78023">
        <ele>1196.8</ele>
        <time>2004-08-06T15:09:50Z</time>
      </trkpt>
      <trkpt lat="42.93461" lon="0.77972">
        <ele>1207.3</ele>
        <time>2004-08-06T15:09:53Z</time>
      </trkpt>
      <trkpt lat="42.93459" lon="0.77905">
        <ele>1213.9</ele>
        <time>2004-08-06T15:09:54Z</time>
      </trkpt>
      <trkpt lat="42.93451" lon="0.77827">
        <ele>1219.1</ele>
        <time>2004-08-06T15:09:57Z</time>
      </trkpt>
      <trkpt lat="42.93439" lon="0.77776">
        <ele>1219.7</ele>
        <time>2004-08-06T15:09:57Z</time>
      </trkpt>
      <trkpt lat="42.93376" lon="0.7758">
        <ele>1227</ele>
        <time>2004-08-06T15:10:04Z</time>
      </trkpt>
      <trkpt lat="42.93368" lon="0.77543">
        <ele>1227.2</ele>
        <time>2004-08-06T15:10:04Z</time>
      </trkpt>
      <trkpt lat="42.93369" lon="0.77505">
        <ele>1229.2</ele>
        <time>2004-08-06T15:10:08Z</time>
      </trkpt>
      <trkpt lat="42.93363" lon="0.77479">
        <ele>1238.4</ele>
        <time>2004-08-06T15:10:12Z</time>
      </trkpt>
      <trkpt lat="42.93335" lon="0.7745">
        <ele>1238</ele>
        <time>2004-08-06T15:10:12Z</time>
      </trkpt>
      <trkpt lat="42.93323" lon="0.77415">
        <ele>1232.7</ele>
        <time>2004-08-06T15:10:16Z</time>
      </trkpt>
      <trkpt lat="42.93299" lon="0.77373">
        <ele>1230.7</ele>
        <time>2004-08-06T15:10:16Z</time>
      </trkpt>
      <trkpt lat="42.93284" lon="0.77305">
        <ele>1244.3</ele>
        <time>2004-08-06T15:10:20Z</time>
      </trkpt>
      <trkpt lat="42.93273" lon="0.77282">
        <ele>1244.3</ele>
        <time>2004-08-06T15:10:21Z</time>
      </trkpt>
      <trkpt lat="42.93264" lon="0.77256">
        <ele>1241.7</ele>
        <time>2004-08-06T15:10:24Z</time>
      </trkpt>
      <trkpt lat="42.93247" lon="0.77222">
        <ele>1237.5</ele>
        <time>2004-08-06T15:10:28Z</time>
      </trkpt>
      <trkpt lat="42.93216" lon="0.77174">
        <ele>1240.7</ele>
        <time>2004-08-06T15:10:29Z</time>
      </trkpt>
      <trkpt lat="42.93201" lon="0.77137">
        <ele>1251.3</ele>
        <time>2004-08-06T15:10:32Z</time>
      </trkpt>
      <trkpt lat="42.93194" lon="0.77119">
        <ele>1252.4</ele>
        <time>2004-08-06T15:10:36Z</time>
      </trkpt>
      <trkpt lat="42.93189" lon="0.77097">
        <ele>1253.3</ele>
        <time>2004-08-06T15:10:38Z</time>
      </trkpt>
      <trkpt lat="42.93184" lon="0.77085">
        <ele>1252.9</ele>
        <time>2004-08-06T15:10:40Z</time>
      </trkpt>
      <trkpt lat="42.93175" lon="0.77084">
        <ele>1251.9</ele>
        <time>2004-08-06T15:10:44Z</time>
      </trkpt>
      <trkpt lat="42.93158" lon="0.77096">
        <ele>1252.2</ele>
        <time>2004-08-06T15:10:46Z</time>
      </trkpt>
      <trkpt lat="42.93134" lon="0.77102">
        <ele>1255</ele>
        <time>2004-08-06T15:11:10Z</time>
      </trkpt>
      <trkpt lat="42.93117" lon="0.77112">
        <ele>1257</ele>
        <time>2004-08-06T15:11:11Z</time>
      </trkpt>
      <trkpt lat="42.93087" lon="0.77141">
        <ele>1254</ele>
        <time>2004-08-06T15:11:13Z</time>
      </trkpt>
      <trkpt lat="42.93053" lon="0.77171">
        <ele>1260.2</ele>
        <time>2004-08-06T15:11:17Z</time>
      </trkpt>
      <trkpt lat="42.93036" lon="0.77193">
        <ele>1264.5</ele>
        <time>2004-08-06T15:11:22Z</time>
      </trkpt>
      <trkpt lat="42.93029" lon="0.7723">
        <ele>1264.6</ele>
        <time>2004-08-06T15:11:25Z</time>
      </trkpt>
      <trkpt lat="42.93018" lon="0.7734">
        <ele>1271.3</ele>
        <time>2004-08-06T15:11:25Z</time>
      </trkpt>
      <trkpt lat="42.93025" lon="0.77381">
        <ele>1263.3</ele>
        <time>2004-08-06T15:11:28Z</time>
      </trkpt>
      <trkpt lat="42.93021" lon="0.77405">
        <ele>1266.7</ele>
        <time>2004-08-06T15:11:29Z</time>
      </trkpt>
      <trkpt lat="42.93014" lon="0.77429">
        <ele>1269.8</ele>
        <time>2004-08-06T15:11:32Z</time>
      </trkpt>
      <trkpt lat="42.93013" lon="0.77453">
        <ele>1266.2</ele>
        <time>2004-08-06T15:11:38Z</time>
      </trkpt>
      <trkpt lat="42.93021" lon="0.77498">
        <ele>1268.5</ele>
        <time>2004-08-06T15:11:42Z</time>
      </trkpt>
      <trkpt lat="42.93022" lon="0.77554">
        <ele>1272.5</ele>
        <time>2004-08-06T15:11:45Z</time>
      </trkpt>
      <trkpt lat="42.93018" lon="0.7758">
        <ele>1277.9</ele>
        <time>2004-08-06T15:11:46Z</time>
      </trkpt>
      <trkpt lat="42.93012" lon="0.7757">
        <ele>1278.4</ele>
        <time>2004-08-06T15:11:50Z</time>
      </trkpt>
      <trkpt lat="42.92982" lon="0.77504">
        <ele>1283.8</ele>
        <time>2004-08-06T15:11:52Z</time>
      </trkpt>
      <trkpt lat="42.9294" lon="0.77445">
        <ele>1294</ele>
        <time>2004-08-06T15:11:55Z</time>
      </trkpt>
      <trkpt lat="42.92935" lon="0.77425">
        <ele>1298</ele>
        <time>2004-08-06T15:12:00Z</time>
      </trkpt>
      <trkpt lat="42.92936" lon="0.77399">
        <ele>1303</ele>
        <time>2004-08-06T15:12:00Z</time>
      </trkpt>
      <trkpt lat="42.9294" lon="0.77367">
        <ele>1304.3</ele>
        <time>2004-08-06T15:12:03Z</time>
      </trkpt>
      <trkpt lat="42.92936" lon="0.77372">
        <ele>1304.4</ele>
        <time>2004-08-06T15:12:04Z</time>
      </trkpt>
      <trkpt lat="42.92927" lon="0.77384">
        <ele>1304.4</ele>
        <time>2004-08-06T15:12:08Z</time>
      </trkpt>
      <trkpt lat="42.92917" lon="0.77386">
        <ele>1305.1</ele>
        <time>2004-08-06T15:12:09Z</time>
      </trkpt>
      <trkpt lat="42.92889" lon="0.77405">
        <ele>1311.1</ele>
        <time>2004-08-06T15:12:11Z</time>
      </trkpt>
      <trkpt lat="42.92862" lon="0.77418">
        <ele>1294.7</ele>
        <time>2004-08-06T15:12:17Z</time>
      </trkpt>
      <trkpt lat="42.92853" lon="0.77414">
        <ele>1306.2</ele>
        <time>2004-08-06T15:12:19Z</time>
      </trkpt>
      <trkpt lat="42.92845" lon="0.77416">
        <ele>1303.4</ele>
        <time>2004-08-06T15:12:19Z</time>
      </trkpt>
      <trkpt lat="42.92833" lon="0.77417">
        <ele>1296.5</ele>
        <time>2004-08-06T15:12:30Z</time>
      </trkpt>
      <trkpt lat="42.92828" lon="0.77414">
        <ele>1298.2</ele>
        <time>2004-08-06T15:12:32Z</time>
      </trkpt>
      <trkpt lat="42.92827" lon="0.77412">
        <ele>1298.6</ele>
        <time>2004-08-06T15:12:39Z</time>
      </trkpt>
      <trkpt lat="42.92823" lon="0.77407">
        <ele>1299.6</ele>
        <time>2004-08-06T15:12:44Z</time>
      </trkpt>
      <trkpt lat="42.92809" lon="0.77397">
        <ele>1300.9</ele>
        <time>2004-08-06T15:12:47Z</time>
      </trkpt>
      <trkpt lat="42.92805" lon="0.7739">
        <ele>1301.7</ele>
        <time>2004-08-06T15:13:03Z</time>
      </trkpt>
      <trkpt lat="42.92799" lon="0.77387">
        <ele>1301.7</ele>
        <time>2004-08-06T15:13:10Z</time>
      </trkpt>
      <trkpt lat="42.92789" lon="0.77372">
        <ele>1303.2</ele>
        <time>2004-08-06T15:13:10Z</time>
      </trkpt>
      <trkpt lat="42.92776" lon="0.77364">
        <ele>1303.3</ele>
        <time>2004-08-06T15:14:10Z</time>
      </trkpt>
      <trkpt lat="42.92767" lon="0.77361">
        <ele>1303.2</ele>
        <time>2004-08-06T15:14:38Z</time>
      </trkpt>
      <trkpt lat="42.92754" lon="0.7735">
        <ele>1304.9</ele>
        <time>2004-08-06T15:14:41Z</time>
      </trkpt>
      <trkpt lat="42.92734" lon="0.77338">
        <ele>1296.4</ele>
        <time>2004-08-06T15:15:05Z</time>
      </trkpt>
      <trkpt lat="42.92714" lon="0.7733">
        <ele>1311.6</ele>
        <time>2004-08-06T15:15:16Z</time>
      </trkpt>
      <trkpt lat="42.92695" lon="0.7732">
        <ele>1309.4</ele>
        <time>2004-08-06T15:15:21Z</time>
      </trkpt>
      <trkpt lat="42.92667" lon="0.77295">
        <ele>1313.1</ele>
        <time>2004-08-06T15:15:21Z</time>
      </trkpt>
      <trkpt lat="42.92637" lon="0.77278">
        <ele>1299.6</ele>
        <time>2004-08-06T15:15:27Z</time>
      </trkpt>
      <trkpt lat="42.92615" lon="0.77256">
        <ele>1298</ele>
        <time>2004-08-06T15:15:28Z</time>
      </trkpt>
      <trkpt lat="42.92585" lon="0.77216">
        <ele>1319.4</ele>
        <time>2004-08-06T15:15:32Z</time>
      </trkpt>
      <trkpt lat="42.92545" lon="0.77146">
        <ele>1327.4</ele>
        <time>2004-08-06T15:15:35Z</time>
      </trkpt>
      <trkpt lat="42.92519" lon="0.77118">
        <ele>1328.5</ele>
        <time>2004-08-06T15:15:36Z</time>
      </trkpt>
      <trkpt lat="42.92493" lon="0.77105">
        <ele>1317</ele>
        <time>2004-08-06T15:15:40Z</time>
      </trkpt>
      <trkpt lat="42.92451" lon="0.77074">
        <ele>1334.6</ele>
        <time>2004-08-06T15:15:40Z</time>
      </trkpt>
      <trkpt lat="42.92389" lon="0.77043">
        <ele>1328.8</ele>
        <time>2004-08-06T15:15:45Z</time>
      </trkpt>
      <trkpt lat="42.92356" lon="0.77043">
        <ele>1326.8</ele>
        <time>2004-08-06T15:15:48Z</time>
      </trkpt>
      <trkpt lat="42.92325" lon="0.77046">
        <ele>1314.5</ele>
        <time>2004-08-06T15:15:51Z</time>
      </trkpt>
      <trkpt lat="42.92296" lon="0.77021">
        <ele>1316.4</ele>
        <time>2004-08-06T15:15:52Z</time>
      </trkpt>
      <trkpt lat="42.92273" lon="0.76984">
        <ele>1333</ele>
        <time>2004-08-06T15:15:54Z</time>
      </trkpt>
      <trkpt lat="42.92252" lon="0.76935">
        <ele>1338.3</ele>
        <time>2004-08-06T15:15:58Z</time>
      </trkpt>
      <trkpt lat="42.92238" lon="0.76881">
        <ele>1328.8</ele>
        <time>2004-08-06T15:15:59Z</time>
      </trkpt>
      <trkpt lat="42.92215" lon="0.76775">
        <ele>1338.7</ele>
        <time>2004-08-06T15:16:00Z</time>
      </trkpt>
      <trkpt lat="42.92206" lon="0.76702">
        <ele>1345.9</ele>
        <time>2004-08-06T15:16:02Z</time>
      </trkpt>
      <trkpt lat="42.92202" lon="0.76629">
        <ele>1355.5</ele>
        <time>2004-08-06T15:16:08Z</time>
      </trkpt>
      <trkpt lat="42.92196" lon="0.76561">
        <ele>1363.6</ele>
        <time>2004-08-06T15:16:10Z</time>
      </trkpt>
      <trkpt lat="42.92182" lon="0.76506">
        <ele>1361</ele>
        <time>2004-08-06T15:16:21Z</time>
      </trkpt>
      <trkpt lat="42.92156" lon="0.76476">
        <ele>1351.3</ele>
        <time>2004-08-06T15:16:27Z</time>
      </trkpt>
      <trkpt lat="42.92104" lon="0.76335">
        <ele>1364.1</ele>
        <time>2004-08-06T15:16:29Z</time>
      </trkpt>
      <trkpt lat="42.92088" lon="0.76277">
        <ele>1374</ele>
        <time>2004-08-06T15:16:30Z</time>
      </trkpt>
      <trkpt lat="42.92076" lon="0.76261">
        <ele>1364.5</ele>
        <time>2004-08-06T15:16:30Z</time>
      </trkpt>
      <trkpt lat="42.92051" lon="0.76254">
        <ele>1360.1</ele>
        <time>2004-08-06T15:16:31Z</time>
      </trkpt>
      <trkpt lat="42.9202" lon="0.76226">
        <ele>1365.8</ele>
        <time>2004-08-06T15:16:49Z</time>
      </trkpt>
      <trkpt lat="42.91994" lon="0.76188">
        <ele>1363.5</ele>
        <time>2004-08-06T15:17:01Z</time>
      </trkpt>
      <trkpt lat="42.9198" lon="0.76175">
        <ele>1363.6</ele>
        <time>2004-08-06T15:17:08Z</time>
      </trkpt>
      <trkpt lat="42.91965" lon="0.76173">
        <ele>1362</ele>
        <time>2004-08-06T15:17:36Z</time>
      </trkpt>
      <trkpt lat="42.91943" lon="0.76174">
        <ele>1360.2</ele>
        <time>2004-08-06T15:17:46Z</time>
      </trkpt>
      <trkpt lat="42.91937" lon="0.76182">
        <ele>1359.9</ele>
        <time>2004-08-06T15:17:52Z</time>
      </trkpt>
      <trkpt lat="42.91933" lon="0.76172">
        <ele>1359.5</ele>
        <time>2004-08-06T15:18:00Z</time>
      </trkpt>
      <trkpt lat="42.91933" lon="0.76194">
        <ele>1359.8</ele>
        <time>2004-08-06T15:18:02Z</time>
      </trkpt>
      <trkpt lat="42.91933" lon="0.76223">
        <ele>1359.6</ele>
        <time>2004-08-06T15:18:15Z</time>
      </trkpt>
      <trkpt lat="42.91915" lon="0.76249">
        <ele>1359.4</ele>
        <time>2004-08-06T15:18:18Z</time>
      </trkpt>
      <trkpt lat="42.91892" lon="0.76318">
        <ele>1363.2</ele>
        <time>2004-08-06T15:18:19Z</time>
      </trkpt>
      <trkpt lat="42.91869" lon="0.76352">
        <ele>1364.1</ele>
        <time>2004-08-06T15:18:33Z</time>
      </trkpt>
      <trkpt lat="42.91846" lon="0.76407">
        <ele>1367.4</ele>
        <time>2004-08-06T15:18:37Z</time>
      </trkpt>
      <trkpt lat="42.91822" lon="0.76468">
        <ele>1380.6</ele>
        <time>2004-08-06T15:18:57Z</time>
      </trkpt>
      <trkpt lat="42.91811" lon="0.76566">
        <ele>1374.3</ele>
        <time>2004-08-06T15:19:05Z</time>
      </trkpt>
      <trkpt lat="42.91793" lon="0.76651">
        <ele>1371.2</ele>
        <time>2004-08-06T15:19:11Z</time>
      </trkpt>
      <trkpt lat="42.91772" lon="0.76709">
        <ele>1367.3</ele>
        <time>2004-08-06T15:19:12Z</time>
      </trkpt>
      <trkpt lat="42.91739" lon="0.76767">
        <ele>1372.6</ele>
        <time>2004-08-06T15:19:13Z</time>
      </trkpt>
      <trkpt lat="42.91695" lon="0.76806">
        <ele>1373.8</ele>
        <time>2004-08-06T15:19:15Z</time>
      </trkpt>
      <trkpt lat="42.91623" lon="0.76828">
        <ele>1386.4</ele>
        <time>2004-08-06T15:19:38Z</time>
      </trkpt>
      <trkpt lat="42.91581" lon="0.76843">
        <ele>1388.8</ele>
        <time>2004-08-06T15:19:42Z</time>
      </trkpt>
      <trkpt lat="42.91557" lon="0.76883">
        <ele>1388.8</ele>
        <time>2004-08-06T15:19:43Z</time>
      </trkpt>
      <trkpt lat="42.91555" lon="0.76936">
        <ele>1384.4</ele>
        <time>2004-08-06T15:20:09Z</time>
      </trkpt>
      <trkpt lat="42.91569" lon="0.76986">
        <ele>1381.8</ele>
        <time>2004-08-06T15:20:28Z</time>
      </trkpt>
      <trkpt lat="42.91559" lon="0.77105">
        <ele>1377.2</ele>
        <time>2004-08-06T15:20:36Z</time>
      </trkpt>
      <trkpt lat="42.91552" lon="0.77145">
        <ele>1377.1</ele>
        <time>2004-08-06T15:20:37Z</time>
      </trkpt>
      <trkpt lat="42.91538" lon="0.77179">
        <ele>1373.8</ele>
        <time>2004-08-06T15:20:40Z</time>
      </trkpt>
      <trkpt lat="42.91519" lon="0.77219">
        <ele>1373.7</ele>
        <time>2004-08-06T15:20:41Z</time>
      </trkpt>
      <trkpt lat="42.9153" lon="0.77261">
        <ele>1365.4</ele>
        <time>2004-08-06T15:20:46Z</time>
      </trkpt>
      <trkpt lat="42.9153" lon="0.77316">
        <ele>1362.2</ele>
        <time>2004-08-06T15:20:56Z</time>
      </trkpt>
      <trkpt lat="42.91524" lon="0.7734">
        <ele>1355.6</ele>
        <time>2004-08-06T15:21:19Z</time>
      </trkpt>
      <trkpt lat="42.91501" lon="0.77361">
        <ele>1355.4</ele>
        <time>2004-08-06T15:21:23Z</time>
      </trkpt>
      <trkpt lat="42.91468" lon="0.77406">
        <ele>1368.3</ele>
        <time>2004-08-06T15:21:54Z</time>
      </trkpt>
      <trkpt lat="42.91445" lon="0.77451">
        <ele>1364.1</ele>
        <time>2004-08-06T15:22:03Z</time>
      </trkpt>
      <trkpt lat="42.91441" lon="0.77509">
        <ele>1360.7</ele>
        <time>2004-08-06T15:22:32Z</time>
      </trkpt>
      <trkpt lat="42.91432" lon="0.77554">
        <ele>1359</ele>
        <time>2004-08-06T15:22:33Z</time>
      </trkpt>
      <trkpt lat="42.91403" lon="0.77596">
        <ele>1364.6</ele>
        <time>2004-08-06T15:22:48Z</time>
      </trkpt>
      <trkpt lat="42.91356" lon="0.77639">
        <ele>1365.3</ele>
        <time>2004-08-06T15:22:55Z</time>
      </trkpt>
      <trkpt lat="42.91316" lon="0.7766">
        <ele>1367.3</ele>
        <time>2004-08-06T15:23:00Z</time>
      </trkpt>
      <trkpt lat="42.91296" lon="0.77639">
        <ele>1368.8</ele>
        <time>2004-08-06T15:23:01Z</time>
      </trkpt>
      <trkpt lat="42.91267" lon="0.77599">
        <ele>1371.5</ele>
        <time>2004-08-06T15:23:23Z</time>
      </trkpt>
      <trkpt lat="42.91228" lon="0.77602">
        <ele>1369.8</ele>
        <time>2004-08-06T15:23:34Z</time>
      </trkpt>
      <trkpt lat="42.91196" lon="0.77615">
        <ele>1368.5</ele>
        <time>2004-08-06T15:23:38Z</time>
      </trkpt>
      <trkpt lat="42.91149" lon="0.77594">
        <ele>1371.8</ele>
        <time>2004-08-06T15:23:43Z</time>
      </trkpt>
      <trkpt lat="42.91081" lon="0.77567">
        <ele>1382.3</ele>
        <time>2004-08-06T15:23:46Z</time>
      </trkpt>
      <trkpt lat="42.91039" lon="0.77557">
        <ele>1385.3</ele>
        <time>2004-08-06T15:23:47Z</time>
      </trkpt>
      <trkpt lat="42.9101" lon="0.77583">
        <ele>1385.8</ele>
        <time>2004-08-06T15:23:49Z</time>
      </trkpt>
      <trkpt lat="42.90969" lon="0.7758">
        <ele>1395.2</ele>
        <time>2004-08-06T15:23:53Z</time>
      </trkpt>
      <trkpt lat="42.90994" lon="0.77536">
        <ele>1394.3</ele>
        <time>2004-08-06T15:24:02Z</time>
      </trkpt>
      <trkpt lat="42.90983" lon="0.77462">
        <ele>1404.2</ele>
        <time>2004-08-06T15:24:09Z</time>
      </trkpt>
      <trkpt lat="42.90987" lon="0.7743">
        <ele>1408.7</ele>
        <time>2004-08-06T15:24:17Z</time>
      </trkpt>
      <trkpt lat="42.91023" lon="0.77411">
        <ele>1415.1</ele>
        <time>2004-08-06T15:24:21Z</time>
      </trkpt>
      <trkpt lat="42.9107" lon="0.77316">
        <ele>1431.5</ele>
        <time>2004-08-06T15:24:22Z</time>
      </trkpt>
      <trkpt lat="42.91108" lon="0.77269">
        <ele>1432</ele>
        <time>2004-08-06T15:24:32Z</time>
      </trkpt>
      <trkpt lat="42.91149" lon="0.77258">
        <ele>1433.3</ele>
        <time>2004-08-06T15:24:32Z</time>
      </trkpt>
      <trkpt lat="42.9119" lon="0.77221">
        <ele>1438.9</ele>
        <time>2004-08-06T15:24:33Z</time>
      </trkpt>
      <trkpt lat="42.91209" lon="0.77219">
        <ele>1438</ele>
        <time>2004-08-06T15:24:35Z</time>
      </trkpt>
      <trkpt lat="42.9124" lon="0.77242">
        <ele>1433.4</ele>
        <time>2004-08-06T15:24:36Z</time>
      </trkpt>
      <trkpt lat="42.91263" lon="0.77248">
        <ele>1430</ele>
        <time>2004-08-06T15:24:36Z</time>
      </trkpt>
      <trkpt lat="42.91269" lon="0.77184">
        <ele>1432.7</ele>
        <time>2004-08-06T15:24:37Z</time>
      </trkpt>
      <trkpt lat="42.91277" lon="0.77102">
        <ele>1434.4</ele>
        <time>2004-08-06T15:24:45Z</time>
      </trkpt>
      <trkpt lat="42.9125" lon="0.77071">
        <ele>1436.7</ele>
        <time>2004-08-06T15:24:47Z</time>
      </trkpt>
      <trkpt lat="42.91234" lon="0.77031">
        <ele>1446.1</ele>
        <time>2004-08-06T15:24:48Z</time>
      </trkpt>
      <trkpt lat="42.91219" lon="0.76954">
        <ele>1450.7</ele>
        <time>2004-08-06T15:24:49Z</time>
      </trkpt>
      <trkpt lat="42.91219" lon="0.76891">
        <ele>1451.2</ele>
        <time>2004-08-06T15:24:51Z</time>
      </trkpt>
      <trkpt lat="42.91196" lon="0.76841">
        <ele>1453.4</ele>
        <time>2004-08-06T15:24:58Z</time>
      </trkpt>
      <trkpt lat="42.91201" lon="0.76806">
        <ele>1452.1</ele>
        <time>2004-08-06T15:24:59Z</time>
      </trkpt>
      <trkpt lat="42.91194" lon="0.76769">
        <ele>1453.1</ele>
        <time>2004-08-06T15:25:08Z</time>
      </trkpt>
      <trkpt lat="42.91174" lon="0.76701">
        <ele>1452.7</ele>
        <time>2004-08-06T15:25:11Z</time>
      </trkpt>
      <trkpt lat="42.91168" lon="0.76606">
        <ele>1453.1</ele>
        <time>2004-08-06T15:25:14Z</time>
      </trkpt>
      <trkpt lat="42.91134" lon="0.76561">
        <ele>1454.6</ele>
        <time>2004-08-06T15:25:15Z</time>
      </trkpt>
      <trkpt lat="42.91128" lon="0.76563">
        <ele>1454.5</ele>
        <time>2004-08-06T15:25:19Z</time>
      </trkpt>
      <trkpt lat="42.91081" lon="0.76553">
        <ele>1450.3</ele>
        <time>2004-08-06T15:25:19Z</time>
      </trkpt>
      <trkpt lat="42.91047" lon="0.76548">
        <ele>1448.8</ele>
        <time>2004-08-06T15:25:22Z</time>
      </trkpt>
      <trkpt lat="42.90996" lon="0.76534">
        <ele>1450.1</ele>
        <time>2004-08-06T15:25:22Z</time>
      </trkpt>
      <trkpt lat="42.90963" lon="0.76505">
        <ele>1451</ele>
        <time>2004-08-06T15:25:23Z</time>
      </trkpt>
      <trkpt lat="42.90942" lon="0.7646">
        <ele>1442.2</ele>
        <time>2004-08-06T15:25:26Z</time>
      </trkpt>
      <trkpt lat="42.90907" lon="0.76415">
        <ele>1447.1</ele>
        <time>2004-08-06T15:25:29Z</time>
      </trkpt>
      <trkpt lat="42.90909" lon="0.76341">
        <ele>1443.4</ele>
        <time>2004-08-06T15:25:30Z</time>
      </trkpt>
      <trkpt lat="42.90907" lon="0.76278">
        <ele>1446.7</ele>
        <time>2004-08-06T15:25:34Z</time>
      </trkpt>
      <trkpt lat="42.90901" lon="0.76233">
        <ele>1446.9</ele>
        <time>2004-08-06T15:25:35Z</time>
      </trkpt>
      <trkpt lat="42.90882" lon="0.76146">
        <ele>1450.2</ele>
        <time>2004-08-06T15:25:38Z</time>
      </trkpt>
      <trkpt lat="42.90865" lon="0.76067">
        <ele>1450.6</ele>
        <time>2004-08-06T15:25:38Z</time>
      </trkpt>
      <trkpt lat="42.90838" lon="0.75998">
        <ele>1451.5</ele>
        <time>2004-08-06T15:25:41Z</time>
      </trkpt>
      <trkpt lat="42.90797" lon="0.75945">
        <ele>1457.1</ele>
        <time>2004-08-06T15:25:43Z</time>
      </trkpt>
      <trkpt lat="42.90758" lon="0.75882">
        <ele>1447.1</ele>
        <time>2004-08-06T15:25:45Z</time>
      </trkpt>
      <trkpt lat="42.90665" lon="0.758">
        <ele>1475.7</ele>
        <time>2004-08-06T15:25:46Z</time>
      </trkpt>
      <trkpt lat="42.90663" lon="0.75766">
        <ele>1468.6</ele>
        <time>2004-08-06T15:25:52Z</time>
      </trkpt>
      <trkpt lat="42.9064" lon="0.75702">
        <ele>1461.1</ele>
        <time>2004-08-06T15:25:56Z</time>
      </trkpt>
      <trkpt lat="42.90586" lon="0.75612">
        <ele>1444.8</ele>
        <time>2004-08-06T15:26:00Z</time>
      </trkpt>
      <trkpt lat="42.90528" lon="0.75533">
        <ele>1450.3</ele>
        <time>2004-08-06T15:26:02Z</time>
      </trkpt>
      <trkpt lat="42.90462" lon="0.75464">
        <ele>1445.3</ele>
        <time>2004-08-06T15:26:05Z</time>
      </trkpt>
      <trkpt lat="42.90396" lon="0.75401">
        <ele>1438.8</ele>
        <time>2004-08-06T15:26:06Z</time>
      </trkpt>
      <trkpt lat="42.9035" lon="0.75343">
        <ele>1439.8</ele>
        <time>2004-08-06T15:26:09Z</time>
      </trkpt>
      <trkpt lat="42.90336" lon="0.7529">
        <ele>1431.7</ele>
        <time>2004-08-06T15:26:13Z</time>
      </trkpt>
      <trkpt lat="42.90354" lon="0.75206">
        <ele>1433.6</ele>
        <time>2004-08-06T15:26:16Z</time>
      </trkpt>
      <trkpt lat="42.90369" lon="0.75108">
        <ele>1434.3</ele>
        <time>2004-08-06T15:26:19Z</time>
      </trkpt>
      <trkpt lat="42.90362" lon="0.75044">
        <ele>1427.3</ele>
        <time>2004-08-06T15:26:20Z</time>
      </trkpt>
      <trkpt lat="42.90329" lon="0.74976">
        <ele>1441.2</ele>
        <time>2004-08-06T15:26:21Z</time>
      </trkpt>
      <trkpt lat="42.90302" lon="0.74915">
        <ele>1434.3</ele>
        <time>2004-08-06T15:26:24Z</time>
      </trkpt>
      <trkpt lat="42.90284" lon="0.74846">
        <ele>1440.3</ele>
        <time>2004-08-06T15:26:25Z</time>
      </trkpt>
      <trkpt lat="42.90292" lon="0.74807">
        <ele>1441.2</ele>
        <time>2004-08-06T15:26:27Z</time>
      </trkpt>
      <trkpt lat="42.90327" lon="0.7478">
        <ele>1437</ele>
        <time>2004-08-06T15:26:28Z</time>
      </trkpt>
      <trkpt lat="42.90354" lon="0.74743">
        <ele>1423.3</ele>
        <time>2004-08-06T15:26:29Z</time>
      </trkpt>
      <trkpt lat="42.90373" lon="0.7468">
        <ele>1420.5</ele>
        <time>2004-08-06T15:26:31Z</time>
      </trkpt>
      <trkpt lat="42.90381" lon="0.74593">
        <ele>1420.8</ele>
        <time>2004-08-06T15:26:43Z</time>
      </trkpt>
      <trkpt lat="42.90367" lon="0.74542">
        <ele>1421</ele>
        <time>2004-08-06T15:26:54Z</time>
      </trkpt>
      <trkpt lat="42.90364" lon="0.74461">
        <ele>1414.1</ele>
        <time>2004-08-06T15:27:14Z</time>
      </trkpt>
      <trkpt lat="42.9036" lon="0.74347">
        <ele>1405.8</ele>
        <time>2004-08-06T15:27:15Z</time>
      </trkpt>
      <trkpt lat="42.90336" lon="0.74254">
        <ele>1400</ele>
        <time>2004-08-06T15:27:21Z</time>
      </trkpt>
      <trkpt lat="42.90298" lon="0.74167">
        <ele>1410.4</ele>
        <time>2004-08-06T15:27:22Z</time>
      </trkpt>
      <trkpt lat="42.90296" lon="0.74083">
        <ele>1399.9</ele>
        <time>2004-08-06T15:27:30Z</time>
      </trkpt>
      <trkpt lat="42.90286" lon="0.73988">
        <ele>1400.3</ele>
        <time>2004-08-06T15:27:30Z</time>
      </trkpt>
      <trkpt lat="42.90288" lon="0.73924">
        <ele>1399.6</ele>
        <time>2004-08-06T15:27:31Z</time>
      </trkpt>
      <trkpt lat="42.90313" lon="0.73861">
        <ele>1394.1</ele>
        <time>2004-08-06T15:27:34Z</time>
      </trkpt>
      <trkpt lat="42.90329" lon="0.73819">
        <ele>1387.8</ele>
        <time>2004-08-06T15:27:34Z</time>
      </trkpt>
      <trkpt lat="42.90323" lon="0.73723">
        <ele>1388.3</ele>
        <time>2004-08-06T15:27:36Z</time>
      </trkpt>
      <trkpt lat="42.90323" lon="0.73642">
        <ele>1378.9</ele>
        <time>2004-08-06T15:27:40Z</time>
      </trkpt>
      <trkpt lat="42.90329" lon="0.73586">
        <ele>1367.4</ele>
        <time>2004-08-06T15:27:42Z</time>
      </trkpt>
      <trkpt lat="42.90325" lon="0.73517">
        <ele>1362.6</ele>
        <time>2004-08-06T15:27:45Z</time>
      </trkpt>
      <trkpt lat="42.90294" lon="0.7348">
        <ele>1355.2</ele>
        <time>2004-08-06T15:27:45Z</time>
      </trkpt>
      <trkpt lat="42.90244" lon="0.73412">
        <ele>1358.3</ele>
        <time>2004-08-06T15:27:49Z</time>
      </trkpt>
      <trkpt lat="42.90201" lon="0.73348">
        <ele>1361.3</ele>
        <time>2004-08-06T15:27:53Z</time>
      </trkpt>
      <trkpt lat="42.90174" lon="0.73269">
        <ele>1350</ele>
        <time>2004-08-06T15:27:57Z</time>
      </trkpt>
      <trkpt lat="42.90158" lon="0.73195">
        <ele>1358.9</ele>
        <time>2004-08-06T15:27:58Z</time>
      </trkpt>
      <trkpt lat="42.90168" lon="0.73108">
        <ele>1341.1</ele>
        <time>2004-08-06T15:28:00Z</time>
      </trkpt>
      <trkpt lat="42.90182" lon="0.73018">
        <ele>1348.4</ele>
        <time>2004-08-06T15:28:03Z</time>
      </trkpt>
      <trkpt lat="42.90176" lon="0.72947">
        <ele>1352.5</ele>
        <time>2004-08-06T15:28:04Z</time>
      </trkpt>
      <trkpt lat="42.90153" lon="0.72905">
        <ele>1351.9</ele>
        <time>2004-08-06T15:28:08Z</time>
      </trkpt>
      <trkpt lat="42.90143" lon="0.72854">
        <ele>1348.1</ele>
        <time>2004-08-06T15:28:11Z</time>
      </trkpt>
      <trkpt lat="42.90073" lon="0.72825">
        <ele>1337</ele>
        <time>2004-08-06T15:28:16Z</time>
      </trkpt>
      <trkpt lat="42.90066" lon="0.72757">
        <ele>1325.2</ele>
        <time>2004-08-06T15:28:20Z</time>
      </trkpt>
      <trkpt lat="42.90063" lon="0.72702">
        <ele>1311.7</ele>
        <time>2004-08-06T15:28:24Z</time>
      </trkpt>
      <trkpt lat="42.90131" lon="0.72669">
        <ele>1312.9</ele>
        <time>2004-08-06T15:28:25Z</time>
      </trkpt>
      <trkpt lat="42.90167" lon="0.72635">
        <ele>1292.4</ele>
        <time>2004-08-06T15:28:28Z</time>
      </trkpt>
      <trkpt lat="42.90172" lon="0.72571">
        <ele>1278.6</ele>
        <time>2004-08-06T15:28:28Z</time>
      </trkpt>
      <trkpt lat="42.90178" lon="0.7253">
        <ele>1271.2</ele>
        <time>2004-08-06T15:28:32Z</time>
      </trkpt>
      <trkpt lat="42.90178" lon="0.72512">
        <ele>1270.9</ele>
        <time>2004-08-06T15:28:47Z</time>
      </trkpt>
      <trkpt lat="42.90164" lon="0.724">
        <ele>1247</ele>
        <time>2004-08-06T15:28:59Z</time>
      </trkpt>
      <trkpt lat="42.90123" lon="0.72355">
        <ele>1239.1</ele>
        <time>2004-08-06T15:29:01Z</time>
      </trkpt>
      <trkpt lat="42.90114" lon="0.72295">
        <ele>1221.7</ele>
        <time>2004-08-06T15:29:06Z</time>
      </trkpt>
      <trkpt lat="42.90084" lon="0.72316">
        <ele>1224.4</ele>
        <time>2004-08-06T15:29:07Z</time>
      </trkpt>
      <trkpt lat="42.90081" lon="0.72319">
        <ele>1218.4</ele>
        <time>2004-08-06T15:29:22Z</time>
      </trkpt>
      <trkpt lat="42.90039" lon="0.72348">
        <ele>1227.2</ele>
        <time>2004-08-06T15:29:29Z</time>
      </trkpt>
      <trkpt lat="42.90024" lon="0.72361">
        <ele>1226.6</ele>
        <time>2004-08-06T15:29:32Z</time>
      </trkpt>
      <trkpt lat="42.90001" lon="0.72385">
        <ele>1230.9</ele>
        <time>2004-08-06T15:29:34Z</time>
      </trkpt>
      <trkpt lat="42.89935" lon="0.72455">
        <ele>1229.4</ele>
        <time>2004-08-06T15:29:36Z</time>
      </trkpt>
      <trkpt lat="42.89932" lon="0.72461">
        <ele>1230</ele>
        <time>2004-08-06T15:29:37Z</time>
      </trkpt>
      <trkpt lat="42.89921" lon="0.72474">
        <ele>1230.1</ele>
        <time>2004-08-06T15:29:37Z</time>
      </trkpt>
      <trkpt lat="42.89918" lon="0.72478">
        <ele>1230</ele>
        <time>2004-08-06T15:29:41Z</time>
      </trkpt>
      <trkpt lat="42.89905" lon="0.72495">
        <ele>1214.2</ele>
        <time>2004-08-06T15:29:45Z</time>
      </trkpt>
      <trkpt lat="42.89886" lon="0.72521">
        <ele>1211.8</ele>
        <time>2004-08-06T15:29:49Z</time>
      </trkpt>
      <trkpt lat="42.89883" lon="0.72525">
        <ele>1210.9</ele>
        <time>2004-08-06T15:29:52Z</time>
      </trkpt>
      <trkpt lat="42.89873" lon="0.72543">
        <ele>1209</ele>
        <time>2004-08-06T15:29:53Z</time>
      </trkpt>
      <trkpt lat="42.8987" lon="0.72552">
        <ele>1208.7</ele>
        <time>2004-08-06T15:29:57Z</time>
      </trkpt>
      <trkpt lat="42.89868" lon="0.72567">
        <ele>1208.5</ele>
        <time>2004-08-06T15:30:05Z</time>
      </trkpt>
      <trkpt lat="42.89867" lon="0.72571">
        <ele>1208.2</ele>
        <time>2004-08-06T15:30:09Z</time>
      </trkpt>
      <trkpt lat="42.89862" lon="0.72659">
        <ele>1214.1</ele>
        <time>2004-08-06T15:30:11Z</time>
      </trkpt>
      <trkpt lat="42.89859" lon="0.72698">
        <ele>1219.5</ele>
        <time>2004-08-06T15:30:13Z</time>
      </trkpt>
      <trkpt lat="42.89859" lon="0.72702">
        <ele>1219.8</ele>
        <time>2004-08-06T15:30:16Z</time>
      </trkpt>
      <trkpt lat="42.89859" lon="0.72722">
        <ele>1219.9</ele>
        <time>2004-08-06T15:30:18Z</time>
      </trkpt>
      <trkpt lat="42.89858" lon="0.72741">
        <ele>1217.7</ele>
        <time>2004-08-06T15:30:19Z</time>
      </trkpt>
      <trkpt lat="42.89858" lon="0.72748">
        <ele>1217.2</ele>
        <time>2004-08-06T15:30:22Z</time>
      </trkpt>
      <trkpt lat="42.89858" lon="0.72752">
        <ele>1222.3</ele>
        <time>2004-08-06T15:30:26Z</time>
      </trkpt>
      <trkpt lat="42.89858" lon="0.72755">
        <ele>1222.6</ele>
        <time>2004-08-06T15:30:27Z</time>
      </trkpt>
      <trkpt lat="42.89858" lon="0.72761">
        <ele>1223.6</ele>
        <time>2004-08-06T15:30:30Z</time>
      </trkpt>
      <trkpt lat="42.89858" lon="0.72765">
        <ele>1224.4</ele>
        <time>2004-08-06T15:30:32Z</time>
      </trkpt>
      <trkpt lat="42.89857" lon="0.72772">
        <ele>1225.5</ele>
        <time>2004-08-06T15:30:35Z</time>
      </trkpt>
      <trkpt lat="42.89856" lon="0.72788">
        <ele>1228.2</ele>
        <time>2004-08-06T15:30:38Z</time>
      </trkpt>
      <trkpt lat="42.89855" lon="0.72797">
        <ele>1228.8</ele>
        <time>2004-08-06T15:30:39Z</time>
      </trkpt>
      <trkpt lat="42.89855" lon="0.72802">
        <ele>1229</ele>
        <time>2004-08-06T15:30:43Z</time>
      </trkpt>
      <trkpt lat="42.89854" lon="0.7281">
        <ele>1228.7</ele>
        <time>2004-08-06T15:30:47Z</time>
      </trkpt>
      <trkpt lat="42.89853" lon="0.72822">
        <ele>1227.4</ele>
        <time>2004-08-06T15:30:49Z</time>
      </trkpt>
      <trkpt lat="42.89852" lon="0.72836">
        <ele>1233.6</ele>
        <time>2004-08-06T15:30:50Z</time>
      </trkpt>
      <trkpt lat="42.89852" lon="0.72838">
        <ele>1233.9</ele>
        <time>2004-08-06T15:30:53Z</time>
      </trkpt>
      <trkpt lat="42.89852" lon="0.72848">
        <ele>1236.5</ele>
        <time>2004-08-06T15:30:57Z</time>
      </trkpt>
      <trkpt lat="42.89851" lon="0.72855">
        <ele>1238.2</ele>
        <time>2004-08-06T15:31:01Z</time>
      </trkpt>
      <trkpt lat="42.89851" lon="0.72859">
        <ele>1239.4</ele>
        <time>2004-08-06T15:31:02Z</time>
      </trkpt>
      <trkpt lat="42.89851" lon="0.72865">
        <ele>1240.8</ele>
        <time>2004-08-06T15:31:07Z</time>
      </trkpt>
      <trkpt lat="42.89852" lon="0.72871">
        <ele>1242.2</ele>
        <time>2004-08-06T15:31:09Z</time>
      </trkpt>
      <trkpt lat="42.89853" lon="0.72884">
        <ele>1243.8</ele>
        <time>2004-08-06T15:31:10Z</time>
      </trkpt>
      <trkpt lat="42.89854" lon="0.72888">
        <ele>1244.1</ele>
        <time>2004-08-06T15:31:12Z</time>
      </trkpt>
      <trkpt lat="42.89853" lon="0.72893">
        <ele>1243.7</ele>
        <time>2004-08-06T15:31:14Z</time>
      </trkpt>
      <trkpt lat="42.89852" lon="0.72896">
        <ele>1243.3</ele>
        <time>2004-08-06T15:31:16Z</time>
      </trkpt>
      <trkpt lat="42.89853" lon="0.72897">
        <ele>1243.5</ele>
        <time>2004-08-06T15:31:20Z</time>
      </trkpt>
      <trkpt lat="42.89851" lon="0.72902">
        <ele>1242.3</ele>
        <time>2004-08-06T15:31:25Z</time>
      </trkpt>
      <trkpt lat="42.89849" lon="0.72923">
        <ele>1248.5</ele>
        <time>2004-08-06T15:31:25Z</time>
      </trkpt>
      <trkpt lat="42.89849" lon="0.72928">
        <ele>1250.2</ele>
        <time>2004-08-06T15:31:29Z</time>
      </trkpt>
      <trkpt lat="42.89848" lon="0.72933">
        <ele>1251.6</ele>
        <time>2004-08-06T15:31:29Z</time>
      </trkpt>
      <trkpt lat="42.89847" lon="0.72935">
        <ele>1251.9</ele>
        <time>2004-08-06T15:31:32Z</time>
      </trkpt>
      <trkpt lat="42.89847" lon="0.72938">
        <ele>1253.1</ele>
        <time>2004-08-06T15:31:33Z</time>
      </trkpt>
      <trkpt lat="42.89847" lon="0.72939">
        <ele>1253.5</ele>
        <time>2004-08-06T15:31:37Z</time>
      </trkpt>
      <trkpt lat="42.89845" lon="0.72946">
        <ele>1255.3</ele>
        <time>2004-08-06T15:31:41Z</time>
      </trkpt>
      <trkpt lat="42.89844" lon="0.72947">
        <ele>1255.3</ele>
        <time>2004-08-06T15:31:43Z</time>
      </trkpt>
      <trkpt lat="42.89842" lon="0.72952">
        <ele>1256.1</ele>
        <time>2004-08-06T15:31:47Z</time>
      </trkpt>
      <trkpt lat="42.89837" lon="0.72971">
        <ele>1256.9</ele>
        <time>2004-08-06T15:31:51Z</time>
      </trkpt>
      <trkpt lat="42.89836" lon="0.72973">
        <ele>1256.6</ele>
        <time>2004-08-06T15:32:04Z</time>
      </trkpt>
      <trkpt lat="42.89826" lon="0.73017">
        <ele>1239</ele>
        <time>2004-08-06T15:32:15Z</time>
      </trkpt>
      <trkpt lat="42.89825" lon="0.7302">
        <ele>1238.6</ele>
        <time>2004-08-06T15:32:24Z</time>
      </trkpt>
      <trkpt lat="42.89822" lon="0.73029">
        <ele>1238</ele>
        <time>2004-08-06T15:32:46Z</time>
      </trkpt>
      <trkpt lat="42.89821" lon="0.73032">
        <ele>1238</ele>
        <time>2004-08-06T15:32:47Z</time>
      </trkpt>
      <trkpt lat="42.89819" lon="0.73037">
        <ele>1238.1</ele>
        <time>2004-08-06T15:33:02Z</time>
      </trkpt>
      <trkpt lat="42.89812" lon="0.73055">
        <ele>1239.9</ele>
        <time>2004-08-06T15:33:09Z</time>
      </trkpt>
      <trkpt lat="42.8981" lon="0.7306">
        <ele>1240.5</ele>
        <time>2004-08-06T15:33:18Z</time>
      </trkpt>
      <trkpt lat="42.89807" lon="0.73071">
        <ele>1241.7</ele>
        <time>2004-08-06T15:33:22Z</time>
      </trkpt>
      <trkpt lat="42.89801" lon="0.73089">
        <ele>1251.2</ele>
        <time>2004-08-06T15:33:41Z</time>
      </trkpt>
      <trkpt lat="42.89792" lon="0.73113">
        <ele>1249</ele>
        <time>2004-08-06T15:34:53Z</time>
      </trkpt>
      <trkpt lat="42.89785" lon="0.73137">
        <ele>1249.2</ele>
        <time>2004-08-06T15:34:57Z</time>
      </trkpt>
      <trkpt lat="42.8978" lon="0.73154">
        <ele>1247.9</ele>
        <time>2004-08-06T15:35:02Z</time>
      </trkpt>
      <trkpt lat="42.89775" lon="0.73168">
        <ele>1256</ele>
        <time>2004-08-06T15:35:12Z</time>
      </trkpt>
      <trkpt lat="42.89769" lon="0.73185">
        <ele>1256.1</ele>
        <time>2004-08-06T15:35:13Z</time>
      </trkpt>
      <trkpt lat="42.89768" lon="0.73188">
        <ele>1256.7</ele>
        <time>2004-08-06T15:35:16Z</time>
      </trkpt>
      <trkpt lat="42.89765" lon="0.73198">
        <ele>1258.7</ele>
        <time>2004-08-06T15:35:17Z</time>
      </trkpt>
      <trkpt lat="42.89763" lon="0.73202">
        <ele>1259.2</ele>
        <time>2004-08-06T15:35:21Z</time>
      </trkpt>
      <trkpt lat="42.89758" lon="0.73212">
        <ele>1259.8</ele>
        <time>2004-08-06T15:35:31Z</time>
      </trkpt>
      <trkpt lat="42.89754" lon="0.73222">
        <ele>1259.5</ele>
        <time>2004-08-06T15:35:35Z</time>
      </trkpt>
      <trkpt lat="42.89753" lon="0.73225">
        <ele>1259.1</ele>
        <time>2004-08-06T15:35:40Z</time>
      </trkpt>
      <trkpt lat="42.89752" lon="0.73228">
        <ele>1258.6</ele>
        <time>2004-08-06T15:35:47Z</time>
      </trkpt>
      <trkpt lat="42.89745" lon="0.73239">
        <ele>1237</ele>
        <time>2004-08-06T15:35:54Z</time>
      </trkpt>
      <trkpt lat="42.89725" lon="0.73269">
        <ele>1241.9</ele>
        <time>2004-08-06T15:35:59Z</time>
      </trkpt>
      <trkpt lat="42.89712" lon="0.7329">
        <ele>1240.9</ele>
        <time>2004-08-06T15:36:02Z</time>
      </trkpt>
      <trkpt lat="42.89701" lon="0.7331">
        <ele>1240.7</ele>
        <time>2004-08-06T15:36:04Z</time>
      </trkpt>
      <trkpt lat="42.897" lon="0.73312">
        <ele>1240.6</ele>
        <time>2004-08-06T15:36:10Z</time>
      </trkpt>
      <trkpt lat="42.89697" lon="0.73317">
        <ele>1240.1</ele>
        <time>2004-08-06T15:36:10Z</time>
      </trkpt>
      <trkpt lat="42.89696" lon="0.73319">
        <ele>1239.9</ele>
        <time>2004-08-06T15:36:13Z</time>
      </trkpt>
      <trkpt lat="42.8969" lon="0.73333">
        <ele>1238.6</ele>
        <time>2004-08-06T15:36:15Z</time>
      </trkpt>
      <trkpt lat="42.89677" lon="0.73359">
        <ele>1250</ele>
        <time>2004-08-06T15:36:18Z</time>
      </trkpt>
      <trkpt lat="42.89675" lon="0.73364">
        <ele>1251</ele>
        <time>2004-08-06T15:36:19Z</time>
      </trkpt>
      <trkpt lat="42.89674" lon="0.73368">
        <ele>1251.8</ele>
        <time>2004-08-06T15:36:22Z</time>
      </trkpt>
      <trkpt lat="42.89672" lon="0.73372">
        <ele>1252.2</ele>
        <time>2004-08-06T15:36:23Z</time>
      </trkpt>
      <trkpt lat="42.8967" lon="0.73377">
        <ele>1252.6</ele>
        <time>2004-08-06T15:36:29Z</time>
      </trkpt>
      <trkpt lat="42.89665" lon="0.73388">
        <ele>1228.4</ele>
        <time>2004-08-06T15:36:30Z</time>
      </trkpt>
      <trkpt lat="42.89658" lon="0.73402">
        <ele>1232.2</ele>
        <time>2004-08-06T15:36:30Z</time>
      </trkpt>
      <trkpt lat="42.89654" lon="0.7341">
        <ele>1233.5</ele>
        <time>2004-08-06T15:36:34Z</time>
      </trkpt>
      <trkpt lat="42.89651" lon="0.73416">
        <ele>1232.7</ele>
        <time>2004-08-06T15:36:38Z</time>
      </trkpt>
      <trkpt lat="42.89644" lon="0.73428">
        <ele>1238.9</ele>
        <time>2004-08-06T15:36:40Z</time>
      </trkpt>
      <trkpt lat="42.89642" lon="0.73432">
        <ele>1238.5</ele>
        <time>2004-08-06T15:36:44Z</time>
      </trkpt>
      <trkpt lat="42.89634" lon="0.73449">
        <ele>1237.9</ele>
        <time>2004-08-06T15:36:49Z</time>
      </trkpt>
      <trkpt lat="42.89632" lon="0.73452">
        <ele>1237.8</ele>
        <time>2004-08-06T15:37:00Z</time>
      </trkpt>
      <trkpt lat="42.89627" lon="0.73461">
        <ele>1237.8</ele>
        <time>2004-08-06T15:37:01Z</time>
      </trkpt>
      <trkpt lat="42.89621" lon="0.73472">
        <ele>1237.6</ele>
        <time>2004-08-06T15:37:07Z</time>
      </trkpt>
      <trkpt lat="42.8962" lon="0.73475">
        <ele>1237.7</ele>
        <time>2004-08-06T15:37:09Z</time>
      </trkpt>
      <trkpt lat="42.89618" lon="0.73479">
        <ele>1237.5</ele>
        <time>2004-08-06T15:37:12Z</time>
      </trkpt>
      <trkpt lat="42.89609" lon="0.73502">
        <ele>1246</ele>
        <time>2004-08-06T15:37:20Z</time>
      </trkpt>
      <trkpt lat="42.89605" lon="0.73513">
        <ele>1245.6</ele>
        <time>2004-08-06T15:37:23Z</time>
      </trkpt>
      <trkpt lat="42.89603" lon="0.73519">
        <ele>1246.2</ele>
        <time>2004-08-06T15:37:24Z</time>
      </trkpt>
      <trkpt lat="42.89598" lon="0.73532">
        <ele>1247.7</ele>
        <time>2004-08-06T15:37:32Z</time>
      </trkpt>
      <trkpt lat="42.89594" lon="0.73543">
        <ele>1248.6</ele>
        <time>2004-08-06T15:37:42Z</time>
      </trkpt>
      <trkpt lat="42.89578" lon="0.7358">
        <ele>1235.8</ele>
        <time>2004-08-06T15:37:43Z</time>
      </trkpt>
      <trkpt lat="42.8955" lon="0.73602">
        <ele>1236</ele>
        <time>2004-08-06T15:37:55Z</time>
      </trkpt>
      <trkpt lat="42.89545" lon="0.73608">
        <ele>1235.7</ele>
        <time>2004-08-06T15:37:58Z</time>
      </trkpt>
      <trkpt lat="42.89541" lon="0.73614">
        <ele>1235.6</ele>
        <time>2004-08-06T15:37:59Z</time>
      </trkpt>
      <trkpt lat="42.89536" lon="0.73624">
        <ele>1235.6</ele>
        <time>2004-08-06T15:38:02Z</time>
      </trkpt>
      <trkpt lat="42.89535" lon="0.73628">
        <ele>1235.8</ele>
        <time>2004-08-06T15:38:03Z</time>
      </trkpt>
      <trkpt lat="42.89534" lon="0.73631">
        <ele>1235.8</ele>
        <time>2004-08-06T15:38:07Z</time>
      </trkpt>
      <trkpt lat="42.89532" lon="0.73641">
        <ele>1236</ele>
        <time>2004-08-06T15:38:14Z</time>
      </trkpt>
      <trkpt lat="42.89531" lon="0.73644">
        <ele>1235.9</ele>
        <time>2004-08-06T15:38:17Z</time>
      </trkpt>
      <trkpt lat="42.8953" lon="0.73653">
        <ele>1235.9</ele>
        <time>2004-08-06T15:38:18Z</time>
      </trkpt>
      <trkpt lat="42.89529" lon="0.73662">
        <ele>1235.8</ele>
        <time>2004-08-06T15:38:19Z</time>
      </trkpt>
      <trkpt lat="42.89528" lon="0.73667">
        <ele>1242.7</ele>
        <time>2004-08-06T15:38:26Z</time>
      </trkpt>
      <trkpt lat="42.89524" lon="0.73679">
        <ele>1242.3</ele>
        <time>2004-08-06T15:38:30Z</time>
      </trkpt>
      <trkpt lat="42.89524" lon="0.73682">
        <ele>1242.6</ele>
        <time>2004-08-06T15:38:49Z</time>
      </trkpt>
      <trkpt lat="42.89516" lon="0.73715">
        <ele>1244.1</ele>
        <time>2004-08-06T15:39:00Z</time>
      </trkpt>
      <trkpt lat="42.89514" lon="0.73726">
        <ele>1243.1</ele>
        <time>2004-08-06T15:39:03Z</time>
      </trkpt>
      <trkpt lat="42.89512" lon="0.73755">
        <ele>1241.8</ele>
        <time>2004-08-06T15:39:12Z</time>
      </trkpt>
      <trkpt lat="42.89512" lon="0.73768">
        <ele>1245.6</ele>
        <time>2004-08-06T15:39:15Z</time>
      </trkpt>
      <trkpt lat="42.89512" lon="0.73772">
        <ele>1246.6</ele>
        <time>2004-08-06T15:39:19Z</time>
      </trkpt>
      <trkpt lat="42.89512" lon="0.73774">
        <ele>1247.1</ele>
        <time>2004-08-06T15:39:27Z</time>
      </trkpt>
      <trkpt lat="42.89511" lon="0.73777">
        <ele>1247.4</ele>
        <time>2004-08-06T15:39:27Z</time>
      </trkpt>
      <trkpt lat="42.89511" lon="0.73779">
        <ele>1247.8</ele>
        <time>2004-08-06T15:39:31Z</time>
      </trkpt>
      <trkpt lat="42.89511" lon="0.73778">
        <ele>1247.6</ele>
        <time>2004-08-06T15:39:31Z</time>
      </trkpt>
      <trkpt lat="42.89509" lon="0.73787">
        <ele>1248.2</ele>
        <time>2004-08-06T15:39:34Z</time>
      </trkpt>
      <trkpt lat="42.89509" lon="0.73787">
        <ele>1248.2</ele>
        <time>2004-08-06T15:39:35Z</time>
      </trkpt>
      <trkpt lat="42.89509" lon="0.73787">
        <ele>1248.2</ele>
        <time>2004-08-06T15:39:38Z</time>
      </trkpt>
      <trkpt lat="42.89509" lon="0.73787">
        <ele>1248.2</ele>
        <time>2004-08-06T15:39:43Z</time>
      </trkpt>
      <trkpt lat="42.89509" lon="0.73788">
        <ele>1248.3</ele>
        <time>2004-08-06T15:39:46Z</time>
      </trkpt>
      <trkpt lat="42.89509" lon="0.73788">
        <ele>1248.3</ele>
        <time>2004-08-06T15:39:49Z</time>
      </trkpt>
      <trkpt lat="42.89509" lon="0.73788">
        <ele>1248.3</ele>
        <time>2004-08-06T15:39:53Z</time>
      </trkpt>
      <trkpt lat="42.89509" lon="0.73788">
        <ele>1248.3</ele>
        <time>2004-08-06T15:39:54Z</time>
      </trkpt>
      <trkpt lat="42.8951" lon="0.73794">
        <ele>1248.5</ele>
        <time>2004-08-06T15:39:58Z</time>
      </trkpt>
      <trkpt lat="42.89511" lon="0.73797">
        <ele>1248.5</ele>
        <time>2004-08-06T15:39:59Z</time>
      </trkpt>
      <trkpt lat="42.89511" lon="0.73797">
        <ele>1248.5</ele>
        <time>2004-08-06T15:40:17Z</time>
      </trkpt>
      <trkpt lat="42.8951" lon="0.73795">
        <ele>1248.4</ele>
        <time>2004-08-06T15:40:20Z</time>
      </trkpt>
      <trkpt lat="42.8951" lon="0.73795">
        <ele>1248.4</ele>
        <time>2004-08-06T15:40:21Z</time>
      </trkpt>
      <trkpt lat="42.8951" lon="0.73794">
        <ele>1248.5</ele>
        <time>2004-08-06T15:40:22Z</time>
      </trkpt>
      <trkpt lat="42.8951" lon="0.73794">
        <ele>1248.5</ele>
        <time>2004-08-06T15:40:25Z</time>
      </trkpt>
      <trkpt lat="42.89511" lon="0.73794">
        <ele>1248.7</ele>
        <time>2004-08-06T15:40:30Z</time>
      </trkpt>
      <trkpt lat="42.89512" lon="0.73794">
        <ele>1248.9</ele>
        <time>2004-08-06T15:40:45Z</time>
      </trkpt>
      <trkpt lat="42.89512" lon="0.73794">
        <ele>1248.9</ele>
        <time>2004-08-06T15:40:48Z</time>
      </trkpt>
      <trkpt lat="42.89513" lon="0.73794">
        <ele>1249.1</ele>
        <time>2004-08-06T15:40:49Z</time>
      </trkpt>
      <trkpt lat="42.89513" lon="0.73794">
        <ele>1249.1</ele>
        <time>2004-08-06T15:40:52Z</time>
      </trkpt>
      <trkpt lat="42.89513" lon="0.73794">
        <ele>1249.1</ele>
        <time>2004-08-06T15:40:53Z</time>
      </trkpt>
      <trkpt lat="42.89514" lon="0.73794">
        <ele>1249.3</ele>
        <time>2004-08-06T15:40:57Z</time>
      </trkpt>
      <trkpt lat="42.89514" lon="0.73794">
        <ele>1249.3</ele>
        <time>2004-08-06T15:41:04Z</time>
      </trkpt>
      <trkpt lat="42.89514" lon="0.73794">
        <ele>1249.3</ele>
        <time>2004-08-06T15:41:04Z</time>
      </trkpt>
      <trkpt lat="42.89513" lon="0.73793">
        <ele>1249.1</ele>
        <time>2004-08-06T15:41:14Z</time>
      </trkpt>
      <trkpt lat="42.89513" lon="0.73793">
        <ele>1249.1</ele>
        <time>2004-08-06T15:41:15Z</time>
      </trkpt>
      <trkpt lat="42.89513" lon="0.73793">
        <ele>1249.1</ele>
        <time>2004-08-06T15:41:15Z</time>
      </trkpt>
      <trkpt lat="42.89513" lon="0.73793">
        <ele>1249.1</ele>
        <time>2004-08-06T15:41:16Z</time>
      </trkpt>
      <trkpt lat="42.89513" lon="0.73793">
        <ele>1249.1</ele>
        <time>2004-08-06T15:41:19Z</time>
      </trkpt>
      <trkpt lat="42.89512" lon="0.73795">
        <ele>1248.8</ele>
        <time>2004-08-06T15:41:26Z</time>
      </trkpt>
      <trkpt lat="42.89512" lon="0.73796">
        <ele>1248.8</ele>
        <time>2004-08-06T15:41:27Z</time>
      </trkpt>
      <trkpt lat="42.89512" lon="0.73796">
        <ele>1248.8</ele>
        <time>2004-08-06T15:41:27Z</time>
      </trkpt>
      <trkpt lat="42.89513" lon="0.73796">
        <ele>1249</ele>
        <time>2004-08-06T15:41:31Z</time>
      </trkpt>
      <trkpt lat="42.89512" lon="0.73805">
        <ele>1247.8</ele>
        <time>2004-08-06T15:41:33Z</time>
      </trkpt>
      <trkpt lat="42.89512" lon="0.73807">
        <ele>1247.5</ele>
        <time>2004-08-06T15:41:35Z</time>
      </trkpt>
      <trkpt lat="42.89511" lon="0.73813">
        <ele>1245.8</ele>
        <time>2004-08-06T15:41:39Z</time>
      </trkpt>
      <trkpt lat="42.89509" lon="0.73835">
        <ele>1241.4</ele>
        <time>2004-08-06T15:41:41Z</time>
      </trkpt>
      <trkpt lat="42.89509" lon="0.73839">
        <ele>1242.9</ele>
        <time>2004-08-06T15:41:42Z</time>
      </trkpt>
      <trkpt lat="42.89506" lon="0.73872">
        <ele>1256.4</ele>
        <time>2004-08-06T15:41:46Z</time>
      </trkpt>
      <trkpt lat="42.89503" lon="0.73888">
        <ele>1257.4</ele>
        <time>2004-08-06T15:41:46Z</time>
      </trkpt>
      <trkpt lat="42.89499" lon="0.73907">
        <ele>1238.1</ele>
        <time>2004-08-06T15:41:54Z</time>
      </trkpt>
      <trkpt lat="42.89496" lon="0.73916">
        <ele>1243.2</ele>
        <time>2004-08-06T15:41:54Z</time>
      </trkpt>
      <trkpt lat="42.8949" lon="0.73928">
        <ele>1240.6</ele>
        <time>2004-08-06T15:41:55Z</time>
      </trkpt>
      <trkpt lat="42.89488" lon="0.73931">
        <ele>1239.5</ele>
        <time>2004-08-06T15:41:58Z</time>
      </trkpt>
      <trkpt lat="42.89485" lon="0.73935">
        <ele>1238.2</ele>
        <time>2004-08-06T15:42:01Z</time>
      </trkpt>
      <trkpt lat="42.89483" lon="0.73938">
        <ele>1237.5</ele>
        <time>2004-08-06T15:42:02Z</time>
      </trkpt>
      <trkpt lat="42.89478" lon="0.73945">
        <ele>1236.1</ele>
        <time>2004-08-06T15:42:04Z</time>
      </trkpt>
      <trkpt lat="42.89473" lon="0.73951">
        <ele>1235</ele>
        <time>2004-08-06T15:42:05Z</time>
      </trkpt>
      <trkpt lat="42.8947" lon="0.73955">
        <ele>1234.4</ele>
        <time>2004-08-06T15:42:06Z</time>
      </trkpt>
      <trkpt lat="42.89465" lon="0.73962">
        <ele>1233.6</ele>
        <time>2004-08-06T15:42:43Z</time>
      </trkpt>
      <trkpt lat="42.8946" lon="0.73969">
        <ele>1232.6</ele>
        <time>2004-08-06T15:42:48Z</time>
      </trkpt>
      <trkpt lat="42.89458" lon="0.73974">
        <ele>1232.2</ele>
        <time>2004-08-06T15:42:56Z</time>
      </trkpt>
      <trkpt lat="42.89456" lon="0.73978">
        <ele>1231.7</ele>
        <time>2004-08-06T15:43:03Z</time>
      </trkpt>
      <trkpt lat="42.89454" lon="0.73982">
        <ele>1231</ele>
        <time>2004-08-06T15:43:04Z</time>
      </trkpt>
      <trkpt lat="42.89452" lon="0.73986">
        <ele>1230.2</ele>
        <time>2004-08-06T15:43:10Z</time>
      </trkpt>
      <trkpt lat="42.89448" lon="0.73994">
        <ele>1228.3</ele>
        <time>2004-08-06T15:43:11Z</time>
      </trkpt>
      <trkpt lat="42.89446" lon="0.73998">
        <ele>1227.3</ele>
        <time>2004-08-06T15:43:11Z</time>
      </trkpt>
      <trkpt lat="42.89444" lon="0.74002">
        <ele>1229</ele>
        <time>2004-08-06T15:43:14Z</time>
      </trkpt>
      <trkpt lat="42.89443" lon="0.74005">
        <ele>1228.6</ele>
        <time>2004-08-06T15:43:18Z</time>
      </trkpt>
      <trkpt lat="42.89441" lon="0.7401">
        <ele>1227.9</ele>
        <time>2004-08-06T15:43:19Z</time>
      </trkpt>
      <trkpt lat="42.89437" lon="0.74019">
        <ele>1227.3</ele>
        <time>2004-08-06T15:43:20Z</time>
      </trkpt>
      <trkpt lat="42.89434" lon="0.74028">
        <ele>1227.6</ele>
        <time>2004-08-06T15:43:27Z</time>
      </trkpt>
      <trkpt lat="42.89431" lon="0.74037">
        <ele>1227.5</ele>
        <time>2004-08-06T15:43:29Z</time>
      </trkpt>
      <trkpt lat="42.8943" lon="0.74042">
        <ele>1227.3</ele>
        <time>2004-08-06T15:43:34Z</time>
      </trkpt>
      <trkpt lat="42.89429" lon="0.74052">
        <ele>1226.1</ele>
        <time>2004-08-06T15:43:39Z</time>
      </trkpt>
      <trkpt lat="42.89428" lon="0.7406">
        <ele>1224.2</ele>
        <time>2004-08-06T15:43:43Z</time>
      </trkpt>
      <trkpt lat="42.89428" lon="0.74065">
        <ele>1222.6</ele>
        <time>2004-08-06T15:43:50Z</time>
      </trkpt>
      <trkpt lat="42.89427" lon="0.74078">
        <ele>1217.2</ele>
        <time>2004-08-06T15:43:53Z</time>
      </trkpt>
      <trkpt lat="42.89428" lon="0.7408">
        <ele>1217.4</ele>
        <time>2004-08-06T15:44:02Z</time>
      </trkpt>
      <trkpt lat="42.89428" lon="0.74085">
        <ele>1213.9</ele>
        <time>2004-08-06T15:44:05Z</time>
      </trkpt>
      <trkpt lat="42.8943" lon="0.74087">
        <ele>1215.1</ele>
        <time>2004-08-06T15:44:09Z</time>
      </trkpt>
      <trkpt lat="42.8943" lon="0.74096">
        <ele>1216.7</ele>
        <time>2004-08-06T15:44:10Z</time>
      </trkpt>
      <trkpt lat="42.89431" lon="0.741">
        <ele>1217.7</ele>
        <time>2004-08-06T15:44:13Z</time>
      </trkpt>
      <trkpt lat="42.89431" lon="0.7411">
        <ele>1218.9</ele>
        <time>2004-08-06T15:44:14Z</time>
      </trkpt>
      <trkpt lat="42.89432" lon="0.74118">
        <ele>1219.3</ele>
        <time>2004-08-06T15:44:17Z</time>
      </trkpt>
      <trkpt lat="42.89432" lon="0.74128">
        <ele>1218.6</ele>
        <time>2004-08-06T15:44:20Z</time>
      </trkpt>
      <trkpt lat="42.89434" lon="0.74131">
        <ele>1218.6</ele>
        <time>2004-08-06T15:44:21Z</time>
      </trkpt>
      <trkpt lat="42.89436" lon="0.74134">
        <ele>1218.6</ele>
        <time>2004-08-06T15:44:23Z</time>
      </trkpt>
      <trkpt lat="42.89436" lon="0.74139">
        <ele>1217.7</ele>
        <time>2004-08-06T15:44:29Z</time>
      </trkpt>
      <trkpt lat="42.89437" lon="0.74148">
        <ele>1216.1</ele>
        <time>2004-08-06T15:44:31Z</time>
      </trkpt>
      <trkpt lat="42.89438" lon="0.74158">
        <ele>1214.4</ele>
        <time>2004-08-06T15:44:39Z</time>
      </trkpt>
      <trkpt lat="42.89446" lon="0.74166">
        <ele>1217.7</ele>
        <time>2004-08-06T15:44:40Z</time>
      </trkpt>
      <trkpt lat="42.89449" lon="0.74168">
        <ele>1219.9</ele>
        <time>2004-08-06T15:44:48Z</time>
      </trkpt>
      <trkpt lat="42.89452" lon="0.74169">
        <ele>1221.3</ele>
        <time>2004-08-06T15:44:51Z</time>
      </trkpt>
      <trkpt lat="42.89457" lon="0.74179">
        <ele>1223.9</ele>
        <time>2004-08-06T15:44:51Z</time>
      </trkpt>
      <trkpt lat="42.89458" lon="0.74183">
        <ele>1224.5</ele>
        <time>2004-08-06T15:44:58Z</time>
      </trkpt>
      <trkpt lat="42.89459" lon="0.74181">
        <ele>1224.7</ele>
        <time>2004-08-06T15:44:59Z</time>
      </trkpt>
      <trkpt lat="42.89459" lon="0.74179">
        <ele>1224.6</ele>
        <time>2004-08-06T15:45:07Z</time>
      </trkpt>
      <trkpt lat="42.89457" lon="0.74178">
        <ele>1223.8</ele>
        <time>2004-08-06T15:45:10Z</time>
      </trkpt>
      <trkpt lat="42.89454" lon="0.74174">
        <ele>1222.4</ele>
        <time>2004-08-06T15:45:13Z</time>
      </trkpt>
      <trkpt lat="42.89451" lon="0.74171">
        <ele>1221</ele>
        <time>2004-08-06T15:45:14Z</time>
      </trkpt>
      <trkpt lat="42.89448" lon="0.74169">
        <ele>1219.5</ele>
        <time>2004-08-06T15:45:26Z</time>
      </trkpt>
      <trkpt lat="42.89445" lon="0.74167">
        <ele>1218</ele>
        <time>2004-08-06T15:45:29Z</time>
      </trkpt>
      <trkpt lat="42.89439" lon="0.74163">
        <ele>1214.2</ele>
        <time>2004-08-06T15:45:37Z</time>
      </trkpt>
      <trkpt lat="42.89437" lon="0.74162">
        <ele>1213.2</ele>
        <time>2004-08-06T15:45:45Z</time>
      </trkpt>
      <trkpt lat="42.89432" lon="0.74159">
        <ele>1210.9</ele>
        <time>2004-08-06T15:45:45Z</time>
      </trkpt>
      <trkpt lat="42.89427" lon="0.74157">
        <ele>1208.8</ele>
        <time>2004-08-06T15:45:53Z</time>
      </trkpt>
      <trkpt lat="42.89422" lon="0.74156">
        <ele>1207</ele>
        <time>2004-08-06T15:45:56Z</time>
      </trkpt>
      <trkpt lat="42.89413" lon="0.74157">
        <ele>1191.3</ele>
        <time>2004-08-06T15:45:57Z</time>
      </trkpt>
      <trkpt lat="42.89408" lon="0.7416">
        <ele>1190.8</ele>
        <time>2004-08-06T15:46:01Z</time>
      </trkpt>
      <trkpt lat="42.89393" lon="0.74167">
        <ele>1194.5</ele>
        <time>2004-08-06T15:46:01Z</time>
      </trkpt>
      <trkpt lat="42.89364" lon="0.74185">
        <ele>1190.1</ele>
        <time>2004-08-06T15:46:04Z</time>
      </trkpt>
      <trkpt lat="42.89357" lon="0.74191">
        <ele>1189.7</ele>
        <time>2004-08-06T15:46:08Z</time>
      </trkpt>
      <trkpt lat="42.89352" lon="0.74196">
        <ele>1190.1</ele>
        <time>2004-08-06T15:46:12Z</time>
      </trkpt>
      <trkpt lat="42.8935" lon="0.74198">
        <ele>1190.4</ele>
        <time>2004-08-06T15:46:13Z</time>
      </trkpt>
      <trkpt lat="42.89347" lon="0.74203">
        <ele>1191.5</ele>
        <time>2004-08-06T15:46:15Z</time>
      </trkpt>
      <trkpt lat="42.89345" lon="0.74204">
        <ele>1191.6</ele>
        <time>2004-08-06T15:46:16Z</time>
      </trkpt>
      <trkpt lat="42.89341" lon="0.74207">
        <ele>1192.1</ele>
        <time>2004-08-06T15:46:20Z</time>
      </trkpt>
      <trkpt lat="42.8934" lon="0.74208">
        <ele>1192.4</ele>
        <time>2004-08-06T15:46:20Z</time>
      </trkpt>
      <trkpt lat="42.89324" lon="0.74222">
        <ele>1177.1</ele>
        <time>2004-08-06T15:46:21Z</time>
      </trkpt>
      <trkpt lat="42.89316" lon="0.74227">
        <ele>1177.1</ele>
        <time>2004-08-06T15:46:24Z</time>
      </trkpt>
      <trkpt lat="42.89308" lon="0.74231">
        <ele>1175.6</ele>
        <time>2004-08-06T15:46:25Z</time>
      </trkpt>
      <trkpt lat="42.89304" lon="0.74234">
        <ele>1174.8</ele>
        <time>2004-08-06T15:46:27Z</time>
      </trkpt>
      <trkpt lat="42.893" lon="0.74238">
        <ele>1174</ele>
        <time>2004-08-06T15:46:34Z</time>
      </trkpt>
      <trkpt lat="42.89294" lon="0.74244">
        <ele>1172.5</ele>
        <time>2004-08-06T15:46:36Z</time>
      </trkpt>
      <trkpt lat="42.89278" lon="0.74268">
        <ele>1182.9</ele>
        <time>2004-08-06T15:46:38Z</time>
      </trkpt>
      <trkpt lat="42.89278" lon="0.74268">
        <ele>1182.9</ele>
        <time>2004-08-06T15:46:39Z</time>
      </trkpt>
      <trkpt lat="42.89278" lon="0.74268">
        <ele>1182.9</ele>
        <time>2004-08-06T15:46:39Z</time>
      </trkpt>
      <trkpt lat="42.89278" lon="0.74268">
        <ele>1182.9</ele>
        <time>2004-08-06T15:46:47Z</time>
      </trkpt>
      <trkpt lat="42.89278" lon="0.74269">
        <ele>1183</ele>
        <time>2004-08-06T15:46:50Z</time>
      </trkpt>
      <trkpt lat="42.89278" lon="0.74269">
        <ele>1183</ele>
        <time>2004-08-06T15:46:51Z</time>
      </trkpt>
      <trkpt lat="42.89278" lon="0.74269">
        <ele>1183</ele>
        <time>2004-08-06T15:46:52Z</time>
      </trkpt>
      <trkpt lat="42.89278" lon="0.7427">
        <ele>1183.2</ele>
        <time>2004-08-06T15:46:55Z</time>
      </trkpt>
      <trkpt lat="42.89278" lon="0.74271">
        <ele>1183.4</ele>
        <time>2004-08-06T15:46:57Z</time>
      </trkpt>
      <trkpt lat="42.89278" lon="0.74271">
        <ele>1183.4</ele>
        <time>2004-08-06T15:47:09Z</time>
      </trkpt>
      <trkpt lat="42.89278" lon="0.74272">
        <ele>1183.5</ele>
        <time>2004-08-06T15:47:10Z</time>
      </trkpt>
      <trkpt lat="42.89278" lon="0.74273">
        <ele>1183.7</ele>
        <time>2004-08-06T15:47:11Z</time>
      </trkpt>
      <trkpt lat="42.89278" lon="0.74273">
        <ele>1183.7</ele>
        <time>2004-08-06T15:47:37Z</time>
      </trkpt>
      <trkpt lat="42.89278" lon="0.74274">
        <ele>1183.8</ele>
        <time>2004-08-06T15:47:38Z</time>
      </trkpt>
      <trkpt lat="42.89278" lon="0.74275">
        <ele>1184</ele>
        <time>2004-08-06T15:47:41Z</time>
      </trkpt>
      <trkpt lat="42.89278" lon="0.74275">
        <ele>1184</ele>
        <time>2004-08-06T15:48:23Z</time>
      </trkpt>
      <trkpt lat="42.89278" lon="0.74276">
        <ele>1184.1</ele>
        <time>2004-08-06T15:49:25Z</time>
      </trkpt>
      <trkpt lat="42.89274" lon="0.74297">
        <ele>1185.6</ele>
        <time>2004-08-06T15:49:29Z</time>
      </trkpt>
      <trkpt lat="42.89273" lon="0.74301">
        <ele>1185.6</ele>
        <time>2004-08-06T15:49:33Z</time>
      </trkpt>
      <trkpt lat="42.89271" lon="0.74305">
        <ele>1185.2</ele>
        <time>2004-08-06T15:49:36Z</time>
      </trkpt>
      <trkpt lat="42.8927" lon="0.74307">
        <ele>1184.9</ele>
        <time>2004-08-06T15:49:37Z</time>
      </trkpt>
      <trkpt lat="42.89248" lon="0.74476">
        <ele>1177.9</ele>
        <time>2004-08-06T15:49:37Z</time>
      </trkpt>
      <trkpt lat="42.89239" lon="0.74498">
        <ele>1182.9</ele>
        <time>2004-08-06T15:49:40Z</time>
      </trkpt>
      <trkpt lat="42.89242" lon="0.74516">
        <ele>1188</ele>
        <time>2004-08-06T15:49:40Z</time>
      </trkpt>
      <trkpt lat="42.89241" lon="0.74521">
        <ele>1187.7</ele>
        <time>2004-08-06T15:49:44Z</time>
      </trkpt>
      <trkpt lat="42.89246" lon="0.7453">
        <ele>1188.2</ele>
        <time>2004-08-06T15:49:44Z</time>
      </trkpt>
      <trkpt lat="42.89247" lon="0.74532">
        <ele>1188.4</ele>
        <time>2004-08-06T15:49:45Z</time>
      </trkpt>
      <trkpt lat="42.89246" lon="0.74539">
        <ele>1188.9</ele>
        <time>2004-08-06T15:49:47Z</time>
      </trkpt>
      <trkpt lat="42.89248" lon="0.74546">
        <ele>1190</ele>
        <time>2004-08-06T15:49:49Z</time>
      </trkpt>
      <trkpt lat="42.89246" lon="0.74551">
        <ele>1190.8</ele>
        <time>2004-08-06T15:49:55Z</time>
      </trkpt>
      <trkpt lat="42.89243" lon="0.74561">
        <ele>1193</ele>
        <time>2004-08-06T15:50:27Z</time>
      </trkpt>
      <trkpt lat="42.89243" lon="0.74563">
        <ele>1193.6</ele>
        <time>2004-08-06T15:50:28Z</time>
      </trkpt>
      <trkpt lat="42.89245" lon="0.74569">
        <ele>1195.9</ele>
        <time>2004-08-06T15:50:41Z</time>
      </trkpt>
      <trkpt lat="42.89245" lon="0.74575">
        <ele>1198.5</ele>
        <time>2004-08-06T15:50:42Z</time>
      </trkpt>
      <trkpt lat="42.89248" lon="0.74589">
        <ele>1205.5</ele>
        <time>2004-08-06T15:50:43Z</time>
      </trkpt>
      <trkpt lat="42.8925" lon="0.74592">
        <ele>1205.8</ele>
        <time>2004-08-06T15:50:46Z</time>
      </trkpt>
      <trkpt lat="42.89254" lon="0.74604">
        <ele>1220.6</ele>
        <time>2004-08-06T15:50:50Z</time>
      </trkpt>
      <trkpt lat="42.89255" lon="0.74607">
        <ele>1222</ele>
        <time>2004-08-06T15:50:50Z</time>
      </trkpt>
      <trkpt lat="42.89257" lon="0.74615">
        <ele>1224.8</ele>
        <time>2004-08-06T15:50:58Z</time>
      </trkpt>
      <trkpt lat="42.89259" lon="0.74621">
        <ele>1226.3</ele>
        <time>2004-08-06T15:51:00Z</time>
      </trkpt>
      <trkpt lat="42.8926" lon="0.74622">
        <ele>1226.7</ele>
        <time>2004-08-06T15:51:02Z</time>
      </trkpt>
      <trkpt lat="42.8926" lon="0.74626">
        <ele>1227.3</ele>
        <time>2004-08-06T15:51:33Z</time>
      </trkpt>
      <trkpt lat="42.89258" lon="0.74627">
        <ele>1227.2</ele>
        <time>2004-08-06T15:51:35Z</time>
      </trkpt>
      <trkpt lat="42.89258" lon="0.74628">
        <ele>1227.3</ele>
        <time>2004-08-06T15:51:41Z</time>
      </trkpt>
      <trkpt lat="42.8925" lon="0.74631">
        <ele>1211.2</ele>
        <time>2004-08-06T15:51:43Z</time>
      </trkpt>
      <trkpt lat="42.89245" lon="0.74633">
        <ele>1211.5</ele>
        <time>2004-08-06T15:51:48Z</time>
      </trkpt>
      <trkpt lat="42.8924" lon="0.74635">
        <ele>1211.6</ele>
        <time>2004-08-06T15:51:54Z</time>
      </trkpt>
      <trkpt lat="42.89239" lon="0.74636">
        <ele>1211.8</ele>
        <time>2004-08-06T15:52:02Z</time>
      </trkpt>
      <trkpt lat="42.89236" lon="0.74637">
        <ele>1211.7</ele>
        <time>2004-08-06T15:52:03Z</time>
      </trkpt>
      <trkpt lat="42.89235" lon="0.74638">
        <ele>1211.8</ele>
        <time>2004-08-06T15:52:03Z</time>
      </trkpt>
      <trkpt lat="42.8923" lon="0.7464">
        <ele>1211.8</ele>
        <time>2004-08-06T15:52:07Z</time>
      </trkpt>
      <trkpt lat="42.89226" lon="0.74642">
        <ele>1211.7</ele>
        <time>2004-08-06T15:52:08Z</time>
      </trkpt>
      <trkpt lat="42.89218" lon="0.74646">
        <ele>1211.5</ele>
        <time>2004-08-06T15:52:12Z</time>
      </trkpt>
      <trkpt lat="42.89217" lon="0.74647">
        <ele>1211.5</ele>
        <time>2004-08-06T15:52:18Z</time>
      </trkpt>
      <trkpt lat="42.89213" lon="0.74649">
        <ele>1211.4</ele>
        <time>2004-08-06T15:52:19Z</time>
      </trkpt>
      <trkpt lat="42.89211" lon="0.7465">
        <ele>1211.4</ele>
        <time>2004-08-06T15:52:22Z</time>
      </trkpt>
      <trkpt lat="42.8921" lon="0.74651">
        <ele>1211.4</ele>
        <time>2004-08-06T15:52:26Z</time>
      </trkpt>
      <trkpt lat="42.89208" lon="0.74651">
        <ele>1211.3</ele>
        <time>2004-08-06T15:52:34Z</time>
      </trkpt>
      <trkpt lat="42.89204" lon="0.7465">
        <ele>1211</ele>
        <time>2004-08-06T15:52:50Z</time>
      </trkpt>
      <trkpt lat="42.89198" lon="0.7465">
        <ele>1210.9</ele>
        <time>2004-08-06T15:52:53Z</time>
      </trkpt>
      <trkpt lat="42.89195" lon="0.74649">
        <ele>1210.8</ele>
        <time>2004-08-06T15:53:01Z</time>
      </trkpt>
      <trkpt lat="42.89194" lon="0.74648">
        <ele>1210.6</ele>
        <time>2004-08-06T15:53:12Z</time>
      </trkpt>
      <trkpt lat="42.89192" lon="0.74647">
        <ele>1210.5</ele>
        <time>2004-08-06T15:53:20Z</time>
      </trkpt>
      <trkpt lat="42.89186" lon="0.74646">
        <ele>1210.5</ele>
        <time>2004-08-06T15:53:36Z</time>
      </trkpt>
      <trkpt lat="42.89184" lon="0.74645">
        <ele>1210.4</ele>
        <time>2004-08-06T15:53:44Z</time>
      </trkpt>
      <trkpt lat="42.8918" lon="0.74644">
        <ele>1210.3</ele>
        <time>2004-08-06T15:53:46Z</time>
      </trkpt>
      <trkpt lat="42.89179" lon="0.74643">
        <ele>1210.1</ele>
        <time>2004-08-06T15:53:51Z</time>
      </trkpt>
      <trkpt lat="42.89174" lon="0.74642">
        <ele>1210</ele>
        <time>2004-08-06T15:53:52Z</time>
      </trkpt>
      <trkpt lat="42.89171" lon="0.74643">
        <ele>1210.3</ele>
        <time>2004-08-06T15:53:54Z</time>
      </trkpt>
      <trkpt lat="42.89169" lon="0.74643">
        <ele>1210.3</ele>
        <time>2004-08-06T15:53:55Z</time>
      </trkpt>
      <trkpt lat="42.89166" lon="0.74644">
        <ele>1207</ele>
        <time>2004-08-06T15:53:56Z</time>
      </trkpt>
      <trkpt lat="42.89166" lon="0.74645">
        <ele>1207.3</ele>
        <time>2004-08-06T15:53:58Z</time>
      </trkpt>
      <trkpt lat="42.89165" lon="0.74646">
        <ele>1207.7</ele>
        <time>2004-08-06T15:53:59Z</time>
      </trkpt>
      <trkpt lat="42.89164" lon="0.74647">
        <ele>1208</ele>
        <time>2004-08-06T15:54:00Z</time>
      </trkpt>
      <trkpt lat="42.8916" lon="0.74651">
        <ele>1209.1</ele>
        <time>2004-08-06T15:54:03Z</time>
      </trkpt>
      <trkpt lat="42.89155" lon="0.74654">
        <ele>1209.2</ele>
        <time>2004-08-06T15:54:03Z</time>
      </trkpt>
      <trkpt lat="42.89151" lon="0.74657">
        <ele>1209.1</ele>
        <time>2004-08-06T15:54:07Z</time>
      </trkpt>
      <trkpt lat="42.89149" lon="0.7466">
        <ele>1209.2</ele>
        <time>2004-08-06T15:54:09Z</time>
      </trkpt>
      <trkpt lat="42.89143" lon="0.74668">
        <ele>1226</ele>
        <time>2004-08-06T15:54:10Z</time>
      </trkpt>
      <trkpt lat="42.89142" lon="0.74669">
        <ele>1226.2</ele>
        <time>2004-08-06T15:54:18Z</time>
      </trkpt>
      <trkpt lat="42.89141" lon="0.74671">
        <ele>1226.5</ele>
        <time>2004-08-06T15:54:26Z</time>
      </trkpt>
      <trkpt lat="42.89141" lon="0.74671">
        <ele>1226.5</ele>
        <time>2004-08-06T15:54:26Z</time>
      </trkpt>
      <trkpt lat="42.89141" lon="0.74672">
        <ele>1226.6</ele>
        <time>2004-08-06T15:54:29Z</time>
      </trkpt>
      <trkpt lat="42.8914" lon="0.74673">
        <ele>1226.9</ele>
        <time>2004-08-06T15:54:40Z</time>
      </trkpt>
      <trkpt lat="42.89139" lon="0.74673">
        <ele>1227</ele>
        <time>2004-08-06T15:54:41Z</time>
      </trkpt>
      <trkpt lat="42.89139" lon="0.74673">
        <ele>1227</ele>
        <time>2004-08-06T15:54:53Z</time>
      </trkpt>
      <trkpt lat="42.89138" lon="0.74673">
        <ele>1227</ele>
        <time>2004-08-06T15:55:04Z</time>
      </trkpt>
      <trkpt lat="42.89139" lon="0.74673">
        <ele>1227</ele>
        <time>2004-08-06T15:55:07Z</time>
      </trkpt>
      <trkpt lat="42.89139" lon="0.74672">
        <ele>1226.8</ele>
        <time>2004-08-06T15:55:08Z</time>
      </trkpt>
      <trkpt lat="42.89139" lon="0.74672">
        <ele>1226.8</ele>
        <time>2004-08-06T15:55:25Z</time>
      </trkpt>
      <trkpt lat="42.89139" lon="0.74672">
        <ele>1226.8</ele>
        <time>2004-08-06T15:55:36Z</time>
      </trkpt>
      <trkpt lat="42.89139" lon="0.74672">
        <ele>1226.8</ele>
        <time>2004-08-06T15:55:48Z</time>
      </trkpt>
      <trkpt lat="42.89139" lon="0.74672">
        <ele>1226.8</ele>
        <time>2004-08-06T15:55:51Z</time>
      </trkpt>
      <trkpt lat="42.89139" lon="0.74672">
        <ele>1226.8</ele>
        <time>2004-08-06T15:55:51Z</time>
      </trkpt>
      <trkpt lat="42.8914" lon="0.74671">
        <ele>1226.6</ele>
        <time>2004-08-06T15:55:55Z</time>
      </trkpt>
      <trkpt lat="42.8914" lon="0.74671">
        <ele>1226.6</ele>
        <time>2004-08-06T15:55:56Z</time>
      </trkpt>
      <trkpt lat="42.89139" lon="0.74671">
        <ele>1226.7</ele>
        <time>2004-08-06T15:55:58Z</time>
      </trkpt>
      <trkpt lat="42.89137" lon="0.74672">
        <ele>1227</ele>
        <time>2004-08-06T15:56:02Z</time>
      </trkpt>
      <trkpt lat="42.89137" lon="0.74672">
        <ele>1227</ele>
        <time>2004-08-06T15:56:03Z</time>
      </trkpt>
      <trkpt lat="42.89137" lon="0.74672">
        <ele>1227</ele>
        <time>2004-08-06T15:56:05Z</time>
      </trkpt>
      <trkpt lat="42.89137" lon="0.74672">
        <ele>1227</ele>
        <time>2004-08-06T15:56:06Z</time>
      </trkpt>
      <trkpt lat="42.89129" lon="0.74672">
        <ele>1227.2</ele>
        <time>2004-08-06T15:56:10Z</time>
      </trkpt>
      <trkpt lat="42.89128" lon="0.74674">
        <ele>1227.4</ele>
        <time>2004-08-06T15:56:11Z</time>
      </trkpt>
      <trkpt lat="42.89128" lon="0.74674">
        <ele>1227.4</ele>
        <time>2004-08-06T15:56:18Z</time>
      </trkpt>
      <trkpt lat="42.89125" lon="0.74676">
        <ele>1227.5</ele>
        <time>2004-08-06T15:56:18Z</time>
      </trkpt>
      <trkpt lat="42.89122" lon="0.7468">
        <ele>1227.9</ele>
        <time>2004-08-06T15:56:26Z</time>
      </trkpt>
      <trkpt lat="42.89119" lon="0.74684">
        <ele>1228.3</ele>
        <time>2004-08-06T15:56:56Z</time>
      </trkpt>
      <trkpt lat="42.89118" lon="0.74685">
        <ele>1228.4</ele>
        <time>2004-08-06T15:56:56Z</time>
      </trkpt>
      <trkpt lat="42.89116" lon="0.74688">
        <ele>1228.8</ele>
        <time>2004-08-06T15:56:57Z</time>
      </trkpt>
      <trkpt lat="42.89116" lon="0.74689">
        <ele>1229</ele>
        <time>2004-08-06T15:56:59Z</time>
      </trkpt>
      <trkpt lat="42.89115" lon="0.7469">
        <ele>1229.1</ele>
        <time>2004-08-06T15:57:16Z</time>
      </trkpt>
      <trkpt lat="42.89114" lon="0.7469">
        <ele>1229</ele>
        <time>2004-08-06T15:57:19Z</time>
      </trkpt>
      <trkpt lat="42.8911" lon="0.74701">
        <ele>1231.2</ele>
        <time>2004-08-06T15:57:42Z</time>
      </trkpt>
      <trkpt lat="42.89108" lon="0.74702">
        <ele>1231.3</ele>
        <time>2004-08-06T15:57:49Z</time>
      </trkpt>
      <trkpt lat="42.89107" lon="0.74703">
        <ele>1231.5</ele>
        <time>2004-08-06T15:57:54Z</time>
      </trkpt>
      <trkpt lat="42.89105" lon="0.74705">
        <ele>1232</ele>
        <time>2004-08-06T15:58:05Z</time>
      </trkpt>
      <trkpt lat="42.89104" lon="0.74706">
        <ele>1232.2</ele>
        <time>2004-08-06T15:58:06Z</time>
      </trkpt>
      <trkpt lat="42.89102" lon="0.74708">
        <ele>1232.6</ele>
        <time>2004-08-06T15:58:10Z</time>
      </trkpt>
      <trkpt lat="42.89099" lon="0.7471">
        <ele>1233.1</ele>
        <time>2004-08-06T15:58:16Z</time>
      </trkpt>
      <trkpt lat="42.89095" lon="0.74713">
        <ele>1233.9</ele>
        <time>2004-08-06T15:58:17Z</time>
      </trkpt>
      <trkpt lat="42.8909" lon="0.74717">
        <ele>1235.1</ele>
        <time>2004-08-06T15:58:20Z</time>
      </trkpt>
      <trkpt lat="42.89089" lon="0.74718">
        <ele>1235.4</ele>
        <time>2004-08-06T15:58:25Z</time>
      </trkpt>
      <trkpt lat="42.89087" lon="0.74718">
        <ele>1235.4</ele>
        <time>2004-08-06T15:58:28Z</time>
      </trkpt>
      <trkpt lat="42.89083" lon="0.74718">
        <ele>1232.6</ele>
        <time>2004-08-06T15:58:29Z</time>
      </trkpt>
      <trkpt lat="42.89081" lon="0.74718">
        <ele>1232.6</ele>
        <time>2004-08-06T15:58:33Z</time>
      </trkpt>
      <trkpt lat="42.8908" lon="0.74718">
        <ele>1232.6</ele>
        <time>2004-08-06T15:58:37Z</time>
      </trkpt>
      <trkpt lat="42.89079" lon="0.74719">
        <ele>1232.9</ele>
        <time>2004-08-06T15:58:56Z</time>
      </trkpt>
      <trkpt lat="42.89077" lon="0.7472">
        <ele>1233.1</ele>
        <time>2004-08-06T15:58:59Z</time>
      </trkpt>
      <trkpt lat="42.89067" lon="0.74727">
        <ele>1234.6</ele>
        <time>2004-08-06T15:59:07Z</time>
      </trkpt>
      <trkpt lat="42.89065" lon="0.7473">
        <ele>1235.2</ele>
        <time>2004-08-06T15:59:22Z</time>
      </trkpt>
      <trkpt lat="42.89064" lon="0.74732">
        <ele>1235.6</ele>
        <time>2004-08-06T15:59:34Z</time>
      </trkpt>
      <trkpt lat="42.89061" lon="0.74742">
        <ele>1237.2</ele>
        <time>2004-08-06T15:59:47Z</time>
      </trkpt>
      <trkpt lat="42.8906" lon="0.74743">
        <ele>1237.2</ele>
        <time>2004-08-06T16:00:02Z</time>
      </trkpt>
      <trkpt lat="42.89059" lon="0.74744">
        <ele>1237.1</ele>
        <time>2004-08-06T16:00:09Z</time>
      </trkpt>
      <trkpt lat="42.89059" lon="0.74744">
        <ele>1237.1</ele>
        <time>2004-08-06T16:00:17Z</time>
      </trkpt>
      <trkpt lat="42.89054" lon="0.74744">
        <ele>1236.3</ele>
        <time>2004-08-06T16:00:18Z</time>
      </trkpt>
      <trkpt lat="42.89051" lon="0.74742">
        <ele>1235.8</ele>
        <time>2004-08-06T16:00:21Z</time>
      </trkpt>
      <trkpt lat="42.8905" lon="0.74741">
        <ele>1235.5</ele>
        <time>2004-08-06T16:00:27Z</time>
      </trkpt>
      <trkpt lat="42.89048" lon="0.74739">
        <ele>1235.1</ele>
        <time>2004-08-06T16:00:28Z</time>
      </trkpt>
      <trkpt lat="42.89046" lon="0.74738">
        <ele>1234.9</ele>
        <time>2004-08-06T16:00:32Z</time>
      </trkpt>
      <trkpt lat="42.89044" lon="0.74736">
        <ele>1234.5</ele>
        <time>2004-08-06T16:00:32Z</time>
      </trkpt>
      <trkpt lat="42.89044" lon="0.74736">
        <ele>1234.5</ele>
        <time>2004-08-06T16:00:36Z</time>
      </trkpt>
      <trkpt lat="42.89041" lon="0.74734">
        <ele>1234.1</ele>
        <time>2004-08-06T16:00:43Z</time>
      </trkpt>
      <trkpt lat="42.8904" lon="0.74733">
        <ele>1233.9</ele>
        <time>2004-08-06T16:00:44Z</time>
      </trkpt>
      <trkpt lat="42.89037" lon="0.7473">
        <ele>1233.4</ele>
        <time>2004-08-06T16:00:47Z</time>
      </trkpt>
      <trkpt lat="42.89036" lon="0.7473">
        <ele>1233.5</ele>
        <time>2004-08-06T16:00:48Z</time>
      </trkpt>
      <trkpt lat="42.89033" lon="0.74727">
        <ele>1233</ele>
        <time>2004-08-06T16:00:49Z</time>
      </trkpt>
      <trkpt lat="42.89032" lon="0.74727">
        <ele>1233</ele>
        <time>2004-08-06T16:00:52Z</time>
      </trkpt>
      <trkpt lat="42.89027" lon="0.74726">
        <ele>1233</ele>
        <time>2004-08-06T16:00:52Z</time>
      </trkpt>
      <trkpt lat="42.89025" lon="0.74725">
        <ele>1232.9</ele>
        <time>2004-08-06T16:00:56Z</time>
      </trkpt>
      <trkpt lat="42.89024" lon="0.74725">
        <ele>1233</ele>
        <time>2004-08-06T16:00:58Z</time>
      </trkpt>
      <trkpt lat="42.89022" lon="0.74725">
        <ele>1233.1</ele>
        <time>2004-08-06T16:00:59Z</time>
      </trkpt>
      <trkpt lat="42.89022" lon="0.74725">
        <ele>1233.1</ele>
        <time>2004-08-06T16:01:00Z</time>
      </trkpt>
      <trkpt lat="42.8902" lon="0.74725">
        <ele>1233.3</ele>
        <time>2004-08-06T16:01:07Z</time>
      </trkpt>
      <trkpt lat="42.89019" lon="0.74725">
        <ele>1233.3</ele>
        <time>2004-08-06T16:01:07Z</time>
      </trkpt>
      <trkpt lat="42.89014" lon="0.74726">
        <ele>1234.1</ele>
        <time>2004-08-06T16:01:11Z</time>
      </trkpt>
      <trkpt lat="42.89011" lon="0.74727">
        <ele>1234.7</ele>
        <time>2004-08-06T16:01:16Z</time>
      </trkpt>
      <trkpt lat="42.8901" lon="0.74728">
        <ele>1235.1</ele>
        <time>2004-08-06T16:01:19Z</time>
      </trkpt>
      <trkpt lat="42.89008" lon="0.74728">
        <ele>1235.3</ele>
        <time>2004-08-06T16:01:21Z</time>
      </trkpt>
      <trkpt lat="42.89005" lon="0.74731">
        <ele>1236.8</ele>
        <time>2004-08-06T16:01:23Z</time>
      </trkpt>
      <trkpt lat="42.89004" lon="0.74731">
        <ele>1236.8</ele>
        <time>2004-08-06T16:01:27Z</time>
      </trkpt>
      <trkpt lat="42.88997" lon="0.74732">
        <ele>1232.2</ele>
        <time>2004-08-06T16:01:30Z</time>
      </trkpt>
      <trkpt lat="42.88995" lon="0.74732">
        <ele>1231.9</ele>
        <time>2004-08-06T16:01:43Z</time>
      </trkpt>
      <trkpt lat="42.88992" lon="0.74734">
        <ele>1232.4</ele>
        <time>2004-08-06T16:01:49Z</time>
      </trkpt>
      <trkpt lat="42.88992" lon="0.74735">
        <ele>1232.9</ele>
        <time>2004-08-06T16:01:50Z</time>
      </trkpt>
      <trkpt lat="42.88991" lon="0.74735">
        <ele>1232.6</ele>
        <time>2004-08-06T16:01:58Z</time>
      </trkpt>
      <trkpt lat="42.88989" lon="0.74737">
        <ele>1233</ele>
        <time>2004-08-06T16:02:04Z</time>
      </trkpt>
      <trkpt lat="42.88987" lon="0.74741">
        <ele>1233.9</ele>
        <time>2004-08-06T16:02:15Z</time>
      </trkpt>
      <trkpt lat="42.88987" lon="0.74742">
        <ele>1234.3</ele>
        <time>2004-08-06T16:02:16Z</time>
      </trkpt>
      <trkpt lat="42.88987" lon="0.74743">
        <ele>1234.7</ele>
        <time>2004-08-06T16:02:24Z</time>
      </trkpt>
      <trkpt lat="42.88987" lon="0.74742">
        <ele>1234.3</ele>
        <time>2004-08-06T16:02:31Z</time>
      </trkpt>
      <trkpt lat="42.88987" lon="0.74742">
        <ele>1234.3</ele>
        <time>2004-08-06T16:02:35Z</time>
      </trkpt>
      <trkpt lat="42.88987" lon="0.74742">
        <ele>1234.3</ele>
        <time>2004-08-06T16:02:43Z</time>
      </trkpt>
      <trkpt lat="42.88987" lon="0.74742">
        <ele>1234.3</ele>
        <time>2004-08-06T16:02:48Z</time>
      </trkpt>
      <trkpt lat="42.88986" lon="0.74746">
        <ele>1235</ele>
        <time>2004-08-06T16:02:52Z</time>
      </trkpt>
      <trkpt lat="42.88986" lon="0.74746">
        <ele>1235</ele>
        <time>2004-08-06T16:02:56Z</time>
      </trkpt>
      <trkpt lat="42.88985" lon="0.7475">
        <ele>1244.4</ele>
        <time>2004-08-06T16:03:03Z</time>
      </trkpt>
      <trkpt lat="42.88984" lon="0.74753">
        <ele>1252.2</ele>
        <time>2004-08-06T16:03:07Z</time>
      </trkpt>
      <trkpt lat="42.88983" lon="0.74756">
        <ele>1252.6</ele>
        <time>2004-08-06T16:03:19Z</time>
      </trkpt>
      <trkpt lat="42.88983" lon="0.74756">
        <ele>1252.6</ele>
        <time>2004-08-06T16:03:22Z</time>
      </trkpt>
      <trkpt lat="42.88983" lon="0.74756">
        <ele>1252.6</ele>
        <time>2004-08-06T16:03:30Z</time>
      </trkpt>
      <trkpt lat="42.88983" lon="0.74757">
        <ele>1252.7</ele>
        <time>2004-08-06T16:03:34Z</time>
      </trkpt>
      <trkpt lat="42.88984" lon="0.7476">
        <ele>1253.1</ele>
        <time>2004-08-06T16:03:38Z</time>
      </trkpt>
      <trkpt lat="42.88984" lon="0.74761">
        <ele>1253.3</ele>
        <time>2004-08-06T16:03:44Z</time>
      </trkpt>
      <trkpt lat="42.88983" lon="0.74761">
        <ele>1253.4</ele>
        <time>2004-08-06T16:04:00Z</time>
      </trkpt>
      <trkpt lat="42.88982" lon="0.74763">
        <ele>1253.8</ele>
        <time>2004-08-06T16:04:05Z</time>
      </trkpt>
      <trkpt lat="42.88981" lon="0.74767">
        <ele>1254.6</ele>
        <time>2004-08-06T16:04:19Z</time>
      </trkpt>
      <trkpt lat="42.88981" lon="0.74768">
        <ele>1254.8</ele>
        <time>2004-08-06T16:04:20Z</time>
      </trkpt>
      <trkpt lat="42.8898" lon="0.7477">
        <ele>1255.2</ele>
        <time>2004-08-06T16:04:25Z</time>
      </trkpt>
      <trkpt lat="42.88979" lon="0.74771">
        <ele>1255.4</ele>
        <time>2004-08-06T16:04:28Z</time>
      </trkpt>
      <trkpt lat="42.88979" lon="0.74772">
        <ele>1255.7</ele>
        <time>2004-08-06T16:04:30Z</time>
      </trkpt>
      <trkpt lat="42.88978" lon="0.74773">
        <ele>1255.9</ele>
        <time>2004-08-06T16:04:31Z</time>
      </trkpt>
      <trkpt lat="42.88977" lon="0.74776">
        <ele>1256.5</ele>
        <time>2004-08-06T16:04:35Z</time>
      </trkpt>
      <trkpt lat="42.88975" lon="0.7478">
        <ele>1257.4</ele>
        <time>2004-08-06T16:04:46Z</time>
      </trkpt>
      <trkpt lat="42.88974" lon="0.74781">
        <ele>1257.6</ele>
        <time>2004-08-06T16:04:51Z</time>
      </trkpt>
      <trkpt lat="42.88971" lon="0.74778">
        <ele>1256.7</ele>
        <time>2004-08-06T16:04:52Z</time>
      </trkpt>
      <trkpt lat="42.8897" lon="0.74779">
        <ele>1256.8</ele>
        <time>2004-08-06T16:04:55Z</time>
      </trkpt>
      <trkpt lat="42.88969" lon="0.74781">
        <ele>1257.2</ele>
        <time>2004-08-06T16:04:58Z</time>
      </trkpt>
      <trkpt lat="42.88968" lon="0.74783">
        <ele>1257.6</ele>
        <time>2004-08-06T16:05:05Z</time>
      </trkpt>
      <trkpt lat="42.88968" lon="0.74785">
        <ele>1258.1</ele>
        <time>2004-08-06T16:05:07Z</time>
      </trkpt>
      <trkpt lat="42.88967" lon="0.74785">
        <ele>1258</ele>
        <time>2004-08-06T16:05:14Z</time>
      </trkpt>
      <trkpt lat="42.88963" lon="0.7479">
        <ele>1258.8</ele>
        <time>2004-08-06T16:05:22Z</time>
      </trkpt>
      <trkpt lat="42.88962" lon="0.74791">
        <ele>1259</ele>
        <time>2004-08-06T16:05:24Z</time>
      </trkpt>
      <trkpt lat="42.88961" lon="0.74794">
        <ele>1259.6</ele>
        <time>2004-08-06T16:05:30Z</time>
      </trkpt>
      <trkpt lat="42.88959" lon="0.74799">
        <ele>1260.6</ele>
        <time>2004-08-06T16:05:41Z</time>
      </trkpt>
      <trkpt lat="42.88958" lon="0.748">
        <ele>1260.8</ele>
        <time>2004-08-06T16:05:42Z</time>
      </trkpt>
      <trkpt lat="42.88957" lon="0.74804">
        <ele>1261.6</ele>
        <time>2004-08-06T16:05:48Z</time>
      </trkpt>
      <trkpt lat="42.88956" lon="0.74805">
        <ele>1261.7</ele>
        <time>2004-08-06T16:05:49Z</time>
      </trkpt>
      <trkpt lat="42.88952" lon="0.74807">
        <ele>1261.8</ele>
        <time>2004-08-06T16:05:50Z</time>
      </trkpt>
      <trkpt lat="42.88951" lon="0.74807">
        <ele>1261.8</ele>
        <time>2004-08-06T16:05:52Z</time>
      </trkpt>
      <trkpt lat="42.8895" lon="0.7481">
        <ele>1262.3</ele>
        <time>2004-08-06T16:06:00Z</time>
      </trkpt>
      <trkpt lat="42.88948" lon="0.74815">
        <ele>1263.3</ele>
        <time>2004-08-06T16:06:00Z</time>
      </trkpt>
      <trkpt lat="42.88947" lon="0.74816">
        <ele>1263.4</ele>
        <time>2004-08-06T16:06:12Z</time>
      </trkpt>
      <trkpt lat="42.88945" lon="0.74819">
        <ele>1263.9</ele>
        <time>2004-08-06T16:06:17Z</time>
      </trkpt>
      <trkpt lat="42.88943" lon="0.74824">
        <ele>1264.7</ele>
        <time>2004-08-06T16:06:35Z</time>
      </trkpt>
      <trkpt lat="42.88942" lon="0.74825">
        <ele>1264.9</ele>
        <time>2004-08-06T16:06:51Z</time>
      </trkpt>
      <trkpt lat="42.8894" lon="0.74827">
        <ele>1265.2</ele>
        <time>2004-08-06T16:07:01Z</time>
      </trkpt>
      <trkpt lat="42.88938" lon="0.74831">
        <ele>1265.9</ele>
        <time>2004-08-06T16:07:05Z</time>
      </trkpt>
      <trkpt lat="42.88938" lon="0.74831">
        <ele>1265.9</ele>
        <time>2004-08-06T16:07:10Z</time>
      </trkpt>
      <trkpt lat="42.88937" lon="0.74837">
        <ele>1286</ele>
        <time>2004-08-06T16:07:11Z</time>
      </trkpt>
      <trkpt lat="42.88936" lon="0.74838">
        <ele>1285.8</ele>
        <time>2004-08-06T16:07:25Z</time>
      </trkpt>
      <trkpt lat="42.88935" lon="0.74839">
        <ele>1285.5</ele>
        <time>2004-08-06T16:07:29Z</time>
      </trkpt>
      <trkpt lat="42.88932" lon="0.74841">
        <ele>1284.7</ele>
        <time>2004-08-06T16:07:29Z</time>
      </trkpt>
      <trkpt lat="42.88928" lon="0.74846">
        <ele>1284.9</ele>
        <time>2004-08-06T16:07:34Z</time>
      </trkpt>
      <trkpt lat="42.88926" lon="0.74847">
        <ele>1284.8</ele>
        <time>2004-08-06T16:07:36Z</time>
      </trkpt>
      <trkpt lat="42.88926" lon="0.74848">
        <ele>1285.2</ele>
        <time>2004-08-06T16:07:40Z</time>
      </trkpt>
      <trkpt lat="42.88924" lon="0.7485">
        <ele>1285.7</ele>
        <time>2004-08-06T16:07:49Z</time>
      </trkpt>
      <trkpt lat="42.88923" lon="0.74851">
        <ele>1286</ele>
        <time>2004-08-06T16:07:51Z</time>
      </trkpt>
      <trkpt lat="42.88922" lon="0.74853">
        <ele>1286.8</ele>
        <time>2004-08-06T16:07:52Z</time>
      </trkpt>
      <trkpt lat="42.88918" lon="0.74859">
        <ele>1289.3</ele>
        <time>2004-08-06T16:07:56Z</time>
      </trkpt>
      <trkpt lat="42.88916" lon="0.74863">
        <ele>1280.6</ele>
        <time>2004-08-06T16:08:01Z</time>
      </trkpt>
      <trkpt lat="42.88914" lon="0.74866">
        <ele>1281.4</ele>
        <time>2004-08-06T16:08:03Z</time>
      </trkpt>
      <trkpt lat="42.88913" lon="0.74867">
        <ele>1281.7</ele>
        <time>2004-08-06T16:08:05Z</time>
      </trkpt>
      <trkpt lat="42.8891" lon="0.74869">
        <ele>1282.1</ele>
        <time>2004-08-06T16:08:07Z</time>
      </trkpt>
      <trkpt lat="42.88908" lon="0.74869">
        <ele>1282</ele>
        <time>2004-08-06T16:08:14Z</time>
      </trkpt>
      <trkpt lat="42.88907" lon="0.74869">
        <ele>1282</ele>
        <time>2004-08-06T16:08:15Z</time>
      </trkpt>
      <trkpt lat="42.88903" lon="0.74873">
        <ele>1282.9</ele>
        <time>2004-08-06T16:08:27Z</time>
      </trkpt>
      <trkpt lat="42.88902" lon="0.74874">
        <ele>1283.1</ele>
        <time>2004-08-06T16:08:31Z</time>
      </trkpt>
      <trkpt lat="42.88901" lon="0.74874">
        <ele>1283</ele>
        <time>2004-08-06T16:08:35Z</time>
      </trkpt>
      <trkpt lat="42.88899" lon="0.74876">
        <ele>1283.4</ele>
        <time>2004-08-06T16:08:57Z</time>
      </trkpt>
      <trkpt lat="42.88896" lon="0.74879">
        <ele>1284</ele>
        <time>2004-08-06T16:08:58Z</time>
      </trkpt>
      <trkpt lat="42.88896" lon="0.74879">
        <ele>1284</ele>
        <time>2004-08-06T16:08:59Z</time>
      </trkpt>
      <trkpt lat="42.88895" lon="0.7488">
        <ele>1284.1</ele>
        <time>2004-08-06T16:09:01Z</time>
      </trkpt>
      <trkpt lat="42.88893" lon="0.74882">
        <ele>1284.4</ele>
        <time>2004-08-06T16:09:01Z</time>
      </trkpt>
      <trkpt lat="42.88893" lon="0.74882">
        <ele>1284.4</ele>
        <time>2004-08-06T16:09:02Z</time>
      </trkpt>
      <trkpt lat="42.88893" lon="0.74882">
        <ele>1284.4</ele>
        <time>2004-08-06T16:09:05Z</time>
      </trkpt>
      <trkpt lat="42.88891" lon="0.74882">
        <ele>1284.1</ele>
        <time>2004-08-06T16:09:09Z</time>
      </trkpt>
      <trkpt lat="42.88886" lon="0.74884">
        <ele>1283.9</ele>
        <time>2004-08-06T16:09:10Z</time>
      </trkpt>
      <trkpt lat="42.88887" lon="0.74885">
        <ele>1284.3</ele>
        <time>2004-08-06T16:09:13Z</time>
      </trkpt>
      <trkpt lat="42.88888" lon="0.74885">
        <ele>1284.5</ele>
        <time>2004-08-06T16:09:13Z</time>
      </trkpt>
      <trkpt lat="42.88888" lon="0.74885">
        <ele>1284.5</ele>
        <time>2004-08-06T16:09:17Z</time>
      </trkpt>
      <trkpt lat="42.88888" lon="0.74886">
        <ele>1284.7</ele>
        <time>2004-08-06T16:09:18Z</time>
      </trkpt>
      <trkpt lat="42.88889" lon="0.74887">
        <ele>1285.1</ele>
        <time>2004-08-06T16:09:21Z</time>
      </trkpt>
      <trkpt lat="42.88889" lon="0.74887">
        <ele>1285.1</ele>
        <time>2004-08-06T16:09:22Z</time>
      </trkpt>
      <trkpt lat="42.8889" lon="0.7489">
        <ele>1286.1</ele>
        <time>2004-08-06T16:09:25Z</time>
      </trkpt>
      <trkpt lat="42.88891" lon="0.74891">
        <ele>1286.5</ele>
        <time>2004-08-06T16:09:27Z</time>
      </trkpt>
      <trkpt lat="42.88891" lon="0.7489">
        <ele>1286.3</ele>
        <time>2004-08-06T16:09:58Z</time>
      </trkpt>
      <trkpt lat="42.88884" lon="0.74886">
        <ele>1284.1</ele>
        <time>2004-08-06T16:10:06Z</time>
      </trkpt>
      <trkpt lat="42.88878" lon="0.74894">
        <ele>1284.9</ele>
        <time>2004-08-06T16:10:11Z</time>
      </trkpt>
      <trkpt lat="42.88873" lon="0.74899">
        <ele>1285</ele>
        <time>2004-08-06T16:10:14Z</time>
      </trkpt>
      <trkpt lat="42.88873" lon="0.749">
        <ele>1285.1</ele>
        <time>2004-08-06T16:10:26Z</time>
      </trkpt>
      <trkpt lat="42.88871" lon="0.74905">
        <ele>1285.5</ele>
        <time>2004-08-06T16:10:30Z</time>
      </trkpt>
      <trkpt lat="42.8887" lon="0.74906">
        <ele>1285.5</ele>
        <time>2004-08-06T16:10:33Z</time>
      </trkpt>
      <trkpt lat="42.88867" lon="0.74907">
        <ele>1285.3</ele>
        <time>2004-08-06T16:10:34Z</time>
      </trkpt>
      <trkpt lat="42.88864" lon="0.74909">
        <ele>1285.2</ele>
        <time>2004-08-06T16:10:34Z</time>
      </trkpt>
      <trkpt lat="42.88863" lon="0.7491">
        <ele>1285.2</ele>
        <time>2004-08-06T16:10:57Z</time>
      </trkpt>
      <trkpt lat="42.88862" lon="0.74912">
        <ele>1285.3</ele>
        <time>2004-08-06T16:11:16Z</time>
      </trkpt>
      <trkpt lat="42.88861" lon="0.74913">
        <ele>1285.3</ele>
        <time>2004-08-06T16:11:19Z</time>
      </trkpt>
      <trkpt lat="42.88858" lon="0.74917">
        <ele>1303.9</ele>
        <time>2004-08-06T16:11:32Z</time>
      </trkpt>
      <trkpt lat="42.88857" lon="0.7492">
        <ele>1303.8</ele>
        <time>2004-08-06T16:11:36Z</time>
      </trkpt>
      <trkpt lat="42.88856" lon="0.74921">
        <ele>1303.6</ele>
        <time>2004-08-06T16:11:43Z</time>
      </trkpt>
      <trkpt lat="42.88856" lon="0.74923">
        <ele>1303.9</ele>
        <time>2004-08-06T16:11:44Z</time>
      </trkpt>
      <trkpt lat="42.88855" lon="0.74923">
        <ele>1303.5</ele>
        <time>2004-08-06T16:11:50Z</time>
      </trkpt>
      <trkpt lat="42.88852" lon="0.74926">
        <ele>1302.9</ele>
        <time>2004-08-06T16:11:59Z</time>
      </trkpt>
      <trkpt lat="42.88852" lon="0.74927">
        <ele>1303.2</ele>
        <time>2004-08-06T16:12:13Z</time>
      </trkpt>
      <trkpt lat="42.88851" lon="0.74928">
        <ele>1303.1</ele>
        <time>2004-08-06T16:12:14Z</time>
      </trkpt>
      <trkpt lat="42.8885" lon="0.74929">
        <ele>1303</ele>
        <time>2004-08-06T16:12:15Z</time>
      </trkpt>
      <trkpt lat="42.88845" lon="0.74934">
        <ele>1303.2</ele>
        <time>2004-08-06T16:12:22Z</time>
      </trkpt>
      <trkpt lat="42.88844" lon="0.74935">
        <ele>1303.4</ele>
        <time>2004-08-06T16:12:23Z</time>
      </trkpt>
      <trkpt lat="42.88838" lon="0.74939">
        <ele>1304</ele>
        <time>2004-08-06T16:12:27Z</time>
      </trkpt>
      <trkpt lat="42.88837" lon="0.74939">
        <ele>1303.9</ele>
        <time>2004-08-06T16:12:38Z</time>
      </trkpt>
      <trkpt lat="42.88837" lon="0.74939">
        <ele>1303.9</ele>
        <time>2004-08-06T16:12:41Z</time>
      </trkpt>
      <trkpt lat="42.88837" lon="0.7494">
        <ele>1304.4</ele>
        <time>2004-08-06T16:12:42Z</time>
      </trkpt>
      <trkpt lat="42.88837" lon="0.7494">
        <ele>1304.4</ele>
        <time>2004-08-06T16:12:45Z</time>
      </trkpt>
      <trkpt lat="42.88836" lon="0.7494">
        <ele>1304.3</ele>
        <time>2004-08-06T16:12:48Z</time>
      </trkpt>
      <trkpt lat="42.88834" lon="0.7494">
        <ele>1304.1</ele>
        <time>2004-08-06T16:12:49Z</time>
      </trkpt>
      <trkpt lat="42.88834" lon="0.7494">
        <ele>1304.1</ele>
        <time>2004-08-06T16:12:52Z</time>
      </trkpt>
      <trkpt lat="42.88834" lon="0.7494">
        <ele>1304.1</ele>
        <time>2004-08-06T16:12:53Z</time>
      </trkpt>
      <trkpt lat="42.88833" lon="0.74938">
        <ele>1289.8</ele>
        <time>2004-08-06T16:12:57Z</time>
      </trkpt>
      <trkpt lat="42.88834" lon="0.74938">
        <ele>1303.2</ele>
        <time>2004-08-06T16:13:15Z</time>
      </trkpt>
      <trkpt lat="42.88834" lon="0.74937">
        <ele>1302.7</ele>
        <time>2004-08-06T16:13:27Z</time>
      </trkpt>
      <trkpt lat="42.88834" lon="0.74937">
        <ele>1302.7</ele>
        <time>2004-08-06T16:13:28Z</time>
      </trkpt>
      <trkpt lat="42.88834" lon="0.74937">
        <ele>1302.7</ele>
        <time>2004-08-06T16:13:38Z</time>
      </trkpt>
      <trkpt lat="42.88834" lon="0.74937">
        <ele>1302.7</ele>
        <time>2004-08-06T16:13:46Z</time>
      </trkpt>
      <trkpt lat="42.88834" lon="0.74937">
        <ele>1302.7</ele>
        <time>2004-08-06T16:13:51Z</time>
      </trkpt>
      <trkpt lat="42.88834" lon="0.74937">
        <ele>1302.7</ele>
        <time>2004-08-06T16:13:52Z</time>
      </trkpt>
      <trkpt lat="42.88834" lon="0.74937">
        <ele>1302.7</ele>
        <time>2004-08-06T16:14:07Z</time>
      </trkpt>
      <trkpt lat="42.88834" lon="0.74937">
        <ele>1302.7</ele>
        <time>2004-08-06T16:14:28Z</time>
      </trkpt>
      <trkpt lat="42.88837" lon="0.74936">
        <ele>1302.5</ele>
        <time>2004-08-06T16:14:29Z</time>
      </trkpt>
      <trkpt lat="42.88835" lon="0.74941">
        <ele>1304.6</ele>
        <time>2004-08-06T16:14:41Z</time>
      </trkpt>
      <trkpt lat="42.88834" lon="0.74943">
        <ele>1305.4</ele>
        <time>2004-08-06T16:14:45Z</time>
      </trkpt>
      <trkpt lat="42.88834" lon="0.74943">
        <ele>1305.4</ele>
        <time>2004-08-06T16:14:46Z</time>
      </trkpt>
      <trkpt lat="42.88834" lon="0.74943">
        <ele>1305.4</ele>
        <time>2004-08-06T16:15:01Z</time>
      </trkpt>
      <trkpt lat="42.88834" lon="0.74943">
        <ele>1305.4</ele>
        <time>2004-08-06T16:15:03Z</time>
      </trkpt>
      <trkpt lat="42.88836" lon="0.74944">
        <ele>1305.9</ele>
        <time>2004-08-06T16:15:08Z</time>
      </trkpt>
      <trkpt lat="42.88836" lon="0.74943">
        <ele>1305.5</ele>
        <time>2004-08-06T16:15:15Z</time>
      </trkpt>
      <trkpt lat="42.88836" lon="0.74943">
        <ele>1305.5</ele>
        <time>2004-08-06T16:15:16Z</time>
      </trkpt>
      <trkpt lat="42.88835" lon="0.7494">
        <ele>1304.2</ele>
        <time>2004-08-06T16:15:19Z</time>
      </trkpt>
      <trkpt lat="42.88835" lon="0.74939">
        <ele>1303.8</ele>
        <time>2004-08-06T16:15:24Z</time>
      </trkpt>
      <trkpt lat="42.88834" lon="0.74939">
        <ele>1303.7</ele>
        <time>2004-08-06T16:15:36Z</time>
      </trkpt>
      <trkpt lat="42.88829" lon="0.74935">
        <ele>1289.2</ele>
        <time>2004-08-06T16:15:39Z</time>
      </trkpt>
      <trkpt lat="42.88829" lon="0.74936">
        <ele>1289.3</ele>
        <time>2004-08-06T16:15:49Z</time>
      </trkpt>
      <trkpt lat="42.88829" lon="0.74936">
        <ele>1289.3</ele>
        <time>2004-08-06T16:16:01Z</time>
      </trkpt>
      <trkpt lat="42.88829" lon="0.74937">
        <ele>1289.5</ele>
        <time>2004-08-06T16:16:10Z</time>
      </trkpt>
      <trkpt lat="42.8883" lon="0.74937">
        <ele>1289.5</ele>
        <time>2004-08-06T16:16:10Z</time>
      </trkpt>
      <trkpt lat="42.88831" lon="0.74937">
        <ele>1289.6</ele>
        <time>2004-08-06T16:16:18Z</time>
      </trkpt>
      <trkpt lat="42.88831" lon="0.74937">
        <ele>1289.6</ele>
        <time>2004-08-06T16:16:40Z</time>
      </trkpt>
      <trkpt lat="42.88832" lon="0.74937">
        <ele>1289.6</ele>
        <time>2004-08-06T16:16:41Z</time>
      </trkpt>
      <trkpt lat="42.88832" lon="0.74943">
        <ele>1290.6</ele>
        <time>2004-08-06T16:16:43Z</time>
      </trkpt>
      <trkpt lat="42.88826" lon="0.74948">
        <ele>1291.2</ele>
        <time>2004-08-06T16:16:48Z</time>
      </trkpt>
      <trkpt lat="42.88825" lon="0.74948">
        <ele>1291.1</ele>
        <time>2004-08-06T16:16:48Z</time>
      </trkpt>
      <trkpt lat="42.88822" lon="0.74951">
        <ele>1291.5</ele>
        <time>2004-08-06T16:16:49Z</time>
      </trkpt>
      <trkpt lat="42.88822" lon="0.74953">
        <ele>1291.9</ele>
        <time>2004-08-06T16:17:00Z</time>
      </trkpt>
      <trkpt lat="42.88818" lon="0.74955">
        <ele>1291.9</ele>
        <time>2004-08-06T16:17:19Z</time>
      </trkpt>
      <trkpt lat="42.88818" lon="0.74955">
        <ele>1291.9</ele>
        <time>2004-08-06T16:17:20Z</time>
      </trkpt>
      <trkpt lat="42.88807" lon="0.74955">
        <ele>1290.4</ele>
        <time>2004-08-06T16:17:27Z</time>
      </trkpt>
      <trkpt lat="42.88799" lon="0.74965">
        <ele>1291</ele>
        <time>2004-08-06T16:17:28Z</time>
      </trkpt>
      <trkpt lat="42.88797" lon="0.74967">
        <ele>1290.9</ele>
        <time>2004-08-06T16:17:31Z</time>
      </trkpt>
      <trkpt lat="42.88796" lon="0.74968">
        <ele>1290.9</ele>
        <time>2004-08-06T16:17:45Z</time>
      </trkpt>
      <trkpt lat="42.88797" lon="0.74968">
        <ele>1291.1</ele>
        <time>2004-08-06T16:17:58Z</time>
      </trkpt>
      <trkpt lat="42.88797" lon="0.74966">
        <ele>1290.8</ele>
        <time>2004-08-06T16:18:01Z</time>
      </trkpt>
      <trkpt lat="42.88797" lon="0.74963">
        <ele>1290.2</ele>
        <time>2004-08-06T16:18:08Z</time>
      </trkpt>
      <trkpt lat="42.88799" lon="0.7496">
        <ele>1290</ele>
        <time>2004-08-06T16:18:12Z</time>
      </trkpt>
      <trkpt lat="42.88804" lon="0.74954">
        <ele>1289.7</ele>
        <time>2004-08-06T16:18:13Z</time>
      </trkpt>
      <trkpt lat="42.88813" lon="0.7495">
        <ele>1290.2</ele>
        <time>2004-08-06T16:18:21Z</time>
      </trkpt>
      <trkpt lat="42.88818" lon="0.74947">
        <ele>1290.3</ele>
        <time>2004-08-06T16:18:25Z</time>
      </trkpt>
      <trkpt lat="42.88822" lon="0.74949">
        <ele>1291</ele>
        <time>2004-08-06T16:18:28Z</time>
      </trkpt>
      <trkpt lat="42.88822" lon="0.74948">
        <ele>1290.8</ele>
        <time>2004-08-06T16:18:29Z</time>
      </trkpt>
      <trkpt lat="42.88825" lon="0.7495">
        <ele>1291.5</ele>
        <time>2004-08-06T16:18:31Z</time>
      </trkpt>
      <trkpt lat="42.88825" lon="0.74951">
        <ele>1291.7</ele>
        <time>2004-08-06T16:18:36Z</time>
      </trkpt>
      <trkpt lat="42.88825" lon="0.74951">
        <ele>1291.7</ele>
        <time>2004-08-06T16:18:37Z</time>
      </trkpt>
      <trkpt lat="42.88825" lon="0.74952">
        <ele>1292</ele>
        <time>2004-08-06T16:18:40Z</time>
      </trkpt>
      <trkpt lat="42.88825" lon="0.74953">
        <ele>1292.2</ele>
        <time>2004-08-06T16:18:47Z</time>
      </trkpt>
      <trkpt lat="42.88825" lon="0.74954">
        <ele>1292.4</ele>
        <time>2004-08-06T16:18:48Z</time>
      </trkpt>
      <trkpt lat="42.88825" lon="0.74954">
        <ele>1292.4</ele>
        <time>2004-08-06T16:18:55Z</time>
      </trkpt>
      <trkpt lat="42.88828" lon="0.74957">
        <ele>1293.5</ele>
        <time>2004-08-06T16:19:07Z</time>
      </trkpt>
      <trkpt lat="42.88828" lon="0.74956">
        <ele>1293.2</ele>
        <time>2004-08-06T16:19:08Z</time>
      </trkpt>
      <trkpt lat="42.88829" lon="0.74955">
        <ele>1293</ele>
        <time>2004-08-06T16:19:19Z</time>
      </trkpt>
      <trkpt lat="42.88829" lon="0.74954">
        <ele>1292.8</ele>
        <time>2004-08-06T16:19:22Z</time>
      </trkpt>
      <trkpt lat="42.8883" lon="0.74952">
        <ele>1292.4</ele>
        <time>2004-08-06T16:19:23Z</time>
      </trkpt>
      <trkpt lat="42.88834" lon="0.74945">
        <ele>1306.2</ele>
        <time>2004-08-06T16:19:26Z</time>
      </trkpt>
      <trkpt lat="42.88834" lon="0.74944">
        <ele>1305.8</ele>
        <time>2004-08-06T16:19:27Z</time>
      </trkpt>
      <trkpt lat="42.88839" lon="0.74946">
        <ele>1307</ele>
        <time>2004-08-06T16:19:39Z</time>
      </trkpt>
      <trkpt lat="42.8884" lon="0.74949">
        <ele>1308.1</ele>
        <time>2004-08-06T16:19:41Z</time>
      </trkpt>
      <trkpt lat="42.88839" lon="0.74951">
        <ele>1308.7</ele>
        <time>2004-08-06T16:19:46Z</time>
      </trkpt>
      <trkpt lat="42.88839" lon="0.74952">
        <ele>1309</ele>
        <time>2004-08-06T16:19:49Z</time>
      </trkpt>
      <trkpt lat="42.88836" lon="0.74955">
        <ele>1309.8</ele>
        <time>2004-08-06T16:19:49Z</time>
      </trkpt>
      <trkpt lat="42.88835" lon="0.74956">
        <ele>1310</ele>
        <time>2004-08-06T16:20:01Z</time>
      </trkpt>
      <trkpt lat="42.88834" lon="0.74957">
        <ele>1310.3</ele>
        <time>2004-08-06T16:20:09Z</time>
      </trkpt>
      <trkpt lat="42.88833" lon="0.74957">
        <ele>1293.9</ele>
        <time>2004-08-06T16:20:10Z</time>
      </trkpt>
      <trkpt lat="42.88833" lon="0.74957">
        <ele>1293.9</ele>
        <time>2004-08-06T16:20:12Z</time>
      </trkpt>
      <trkpt lat="42.8883" lon="0.74958">
        <ele>1293.9</ele>
        <time>2004-08-06T16:20:13Z</time>
      </trkpt>
      <trkpt lat="42.88829" lon="0.74959">
        <ele>1294.1</ele>
        <time>2004-08-06T16:20:16Z</time>
      </trkpt>
      <trkpt lat="42.88828" lon="0.74961">
        <ele>1294.6</ele>
        <time>2004-08-06T16:20:27Z</time>
      </trkpt>
      <trkpt lat="42.88827" lon="0.74965">
        <ele>1295.8</ele>
        <time>2004-08-06T16:20:32Z</time>
      </trkpt>
      <trkpt lat="42.88826" lon="0.74966">
        <ele>1296</ele>
        <time>2004-08-06T16:20:46Z</time>
      </trkpt>
      <trkpt lat="42.88825" lon="0.74967">
        <ele>1296.3</ele>
        <time>2004-08-06T16:20:47Z</time>
      </trkpt>
      <trkpt lat="42.88824" lon="0.74969">
        <ele>1296.8</ele>
        <time>2004-08-06T16:20:58Z</time>
      </trkpt>
      <trkpt lat="42.88823" lon="0.7497">
        <ele>1297</ele>
        <time>2004-08-06T16:21:00Z</time>
      </trkpt>
      <trkpt lat="42.88821" lon="0.74971">
        <ele>1297</ele>
        <time>2004-08-06T16:21:03Z</time>
      </trkpt>
      <trkpt lat="42.88821" lon="0.74972">
        <ele>1297.4</ele>
        <time>2004-08-06T16:21:11Z</time>
      </trkpt>
      <trkpt lat="42.8882" lon="0.74974">
        <ele>1297.9</ele>
        <time>2004-08-06T16:21:14Z</time>
      </trkpt>
      <trkpt lat="42.88818" lon="0.7498">
        <ele>1299.7</ele>
        <time>2004-08-06T16:21:14Z</time>
      </trkpt>
      <trkpt lat="42.88815" lon="0.74981">
        <ele>1299.1</ele>
        <time>2004-08-06T16:21:23Z</time>
      </trkpt>
      <trkpt lat="42.88812" lon="0.74982">
        <ele>1298.4</ele>
        <time>2004-08-06T16:21:26Z</time>
      </trkpt>
      <trkpt lat="42.88811" lon="0.74984">
        <ele>1298.6</ele>
        <time>2004-08-06T16:21:27Z</time>
      </trkpt>
      <trkpt lat="42.8881" lon="0.74986">
        <ele>1298.8</ele>
        <time>2004-08-06T16:21:45Z</time>
      </trkpt>
      <trkpt lat="42.88809" lon="0.74986">
        <ele>1298.4</ele>
        <time>2004-08-06T16:22:01Z</time>
      </trkpt>
      <trkpt lat="42.88808" lon="0.74988">
        <ele>1298.5</ele>
        <time>2004-08-06T16:22:04Z</time>
      </trkpt>
      <trkpt lat="42.88806" lon="0.7499">
        <ele>1298.1</ele>
        <time>2004-08-06T16:22:05Z</time>
      </trkpt>
      <trkpt lat="42.88805" lon="0.74993">
        <ele>1298.2</ele>
        <time>2004-08-06T16:22:12Z</time>
      </trkpt>
      <trkpt lat="42.88803" lon="0.74996">
        <ele>1297.8</ele>
        <time>2004-08-06T16:22:21Z</time>
      </trkpt>
      <trkpt lat="42.88803" lon="0.74997">
        <ele>1297.9</ele>
        <time>2004-08-06T16:22:43Z</time>
      </trkpt>
      <trkpt lat="42.88802" lon="0.74999">
        <ele>1297.7</ele>
        <time>2004-08-06T16:22:43Z</time>
      </trkpt>
      <trkpt lat="42.888" lon="0.75003">
        <ele>1315.7</ele>
        <time>2004-08-06T16:22:58Z</time>
      </trkpt>
      <trkpt lat="42.888" lon="0.75004">
        <ele>1315.8</ele>
        <time>2004-08-06T16:22:59Z</time>
      </trkpt>
      <trkpt lat="42.888" lon="0.75005">
        <ele>1315.9</ele>
        <time>2004-08-06T16:23:01Z</time>
      </trkpt>
      <trkpt lat="42.88799" lon="0.75006">
        <ele>1315.7</ele>
        <time>2004-08-06T16:23:07Z</time>
      </trkpt>
      <trkpt lat="42.88799" lon="0.75006">
        <ele>1315.7</ele>
        <time>2004-08-06T16:23:09Z</time>
      </trkpt>
      <trkpt lat="42.88798" lon="0.75006">
        <ele>1315.5</ele>
        <time>2004-08-06T16:23:13Z</time>
      </trkpt>
      <trkpt lat="42.88794" lon="0.75006">
        <ele>1314.5</ele>
        <time>2004-08-06T16:23:14Z</time>
      </trkpt>
      <trkpt lat="42.88794" lon="0.75007">
        <ele>1314.6</ele>
        <time>2004-08-06T16:23:14Z</time>
      </trkpt>
      <trkpt lat="42.88795" lon="0.75008">
        <ele>1314.9</ele>
        <time>2004-08-06T16:23:15Z</time>
      </trkpt>
      <trkpt lat="42.88795" lon="0.75007">
        <ele>1314.8</ele>
        <time>2004-08-06T16:23:22Z</time>
      </trkpt>
      <trkpt lat="42.88796" lon="0.75006">
        <ele>1315</ele>
        <time>2004-08-06T16:23:22Z</time>
      </trkpt>
      <trkpt lat="42.88795" lon="0.75006">
        <ele>1314.8</ele>
        <time>2004-08-06T16:23:25Z</time>
      </trkpt>
      <trkpt lat="42.88794" lon="0.75017">
        <ele>1315.7</ele>
        <time>2004-08-06T16:23:30Z</time>
      </trkpt>
      <trkpt lat="42.88794" lon="0.75018">
        <ele>1315.8</ele>
        <time>2004-08-06T16:23:33Z</time>
      </trkpt>
      <trkpt lat="42.88794" lon="0.75019">
        <ele>1315.9</ele>
        <time>2004-08-06T16:23:37Z</time>
      </trkpt>
      <trkpt lat="42.88794" lon="0.75021">
        <ele>1316.2</ele>
        <time>2004-08-06T16:23:41Z</time>
      </trkpt>
      <trkpt lat="42.88794" lon="0.75022">
        <ele>1316.4</ele>
        <time>2004-08-06T16:24:01Z</time>
      </trkpt>
      <trkpt lat="42.88793" lon="0.75023">
        <ele>1316.3</ele>
        <time>2004-08-06T16:24:04Z</time>
      </trkpt>
      <trkpt lat="42.88792" lon="0.75027">
        <ele>1316.7</ele>
        <time>2004-08-06T16:24:09Z</time>
      </trkpt>
      <trkpt lat="42.88792" lon="0.75029">
        <ele>1317.1</ele>
        <time>2004-08-06T16:24:11Z</time>
      </trkpt>
      <trkpt lat="42.88791" lon="0.75032">
        <ele>1317.4</ele>
        <time>2004-08-06T16:24:46Z</time>
      </trkpt>
      <trkpt lat="42.8879" lon="0.75033">
        <ele>1317.4</ele>
        <time>2004-08-06T16:24:59Z</time>
      </trkpt>
      <trkpt lat="42.8879" lon="0.75039">
        <ele>1318.5</ele>
        <time>2004-08-06T16:25:07Z</time>
      </trkpt>
      <trkpt lat="42.8879" lon="0.75044">
        <ele>1319.4</ele>
        <time>2004-08-06T16:25:25Z</time>
      </trkpt>
      <trkpt lat="42.88789" lon="0.75046">
        <ele>1319.6</ele>
        <time>2004-08-06T16:25:25Z</time>
      </trkpt>
      <trkpt lat="42.88789" lon="0.75048">
        <ele>1320</ele>
        <time>2004-08-06T16:25:28Z</time>
      </trkpt>
      <trkpt lat="42.88788" lon="0.75049">
        <ele>1320</ele>
        <time>2004-08-06T16:25:29Z</time>
      </trkpt>
      <trkpt lat="42.88786" lon="0.75052">
        <ele>1320.2</ele>
        <time>2004-08-06T16:25:29Z</time>
      </trkpt>
      <trkpt lat="42.88786" lon="0.75052">
        <ele>1320.2</ele>
        <time>2004-08-06T16:25:32Z</time>
      </trkpt>
      <trkpt lat="42.88784" lon="0.75056">
        <ele>1320.5</ele>
        <time>2004-08-06T16:25:39Z</time>
      </trkpt>
      <trkpt lat="42.88782" lon="0.75059">
        <ele>1320.7</ele>
        <time>2004-08-06T16:25:40Z</time>
      </trkpt>
      <trkpt lat="42.8878" lon="0.75065">
        <ele>1321.2</ele>
        <time>2004-08-06T16:25:48Z</time>
      </trkpt>
      <trkpt lat="42.88778" lon="0.75068">
        <ele>1321.3</ele>
        <time>2004-08-06T16:25:53Z</time>
      </trkpt>
      <trkpt lat="42.88777" lon="0.75072">
        <ele>1321.6</ele>
        <time>2004-08-06T16:25:59Z</time>
      </trkpt>
      <trkpt lat="42.88776" lon="0.75074">
        <ele>1321.7</ele>
        <time>2004-08-06T16:26:03Z</time>
      </trkpt>
      <trkpt lat="42.88776" lon="0.75076">
        <ele>1321.8</ele>
        <time>2004-08-06T16:26:08Z</time>
      </trkpt>
      <trkpt lat="42.88775" lon="0.75078">
        <ele>1321.9</ele>
        <time>2004-08-06T16:26:10Z</time>
      </trkpt>
      <trkpt lat="42.88773" lon="0.75082">
        <ele>1321.9</ele>
        <time>2004-08-06T16:26:16Z</time>
      </trkpt>
      <trkpt lat="42.88769" lon="0.75088">
        <ele>1335.4</ele>
        <time>2004-08-06T16:26:18Z</time>
      </trkpt>
      <trkpt lat="42.88768" lon="0.75087">
        <ele>1334.8</ele>
        <time>2004-08-06T16:26:20Z</time>
      </trkpt>
      <trkpt lat="42.88769" lon="0.75087">
        <ele>1335.2</ele>
        <time>2004-08-06T16:26:23Z</time>
      </trkpt>
      <trkpt lat="42.88769" lon="0.75087">
        <ele>1335.2</ele>
        <time>2004-08-06T16:26:27Z</time>
      </trkpt>
      <trkpt lat="42.88769" lon="0.75087">
        <ele>1335.2</ele>
        <time>2004-08-06T16:26:27Z</time>
      </trkpt>
      <trkpt lat="42.88771" lon="0.75087">
        <ele>1336.1</ele>
        <time>2004-08-06T16:26:46Z</time>
      </trkpt>
      <trkpt lat="42.88771" lon="0.7509">
        <ele>1336.5</ele>
        <time>2004-08-06T16:26:47Z</time>
      </trkpt>
      <trkpt lat="42.88771" lon="0.75092">
        <ele>1336.8</ele>
        <time>2004-08-06T16:26:58Z</time>
      </trkpt>
      <trkpt lat="42.88769" lon="0.75096">
        <ele>1337</ele>
        <time>2004-08-06T16:27:14Z</time>
      </trkpt>
      <trkpt lat="42.88769" lon="0.75097">
        <ele>1337.2</ele>
        <time>2004-08-06T16:27:22Z</time>
      </trkpt>
      <trkpt lat="42.88768" lon="0.75098">
        <ele>1337.2</ele>
        <time>2004-08-06T16:27:25Z</time>
      </trkpt>
      <trkpt lat="42.88768" lon="0.75099">
        <ele>1337.4</ele>
        <time>2004-08-06T16:27:27Z</time>
      </trkpt>
      <trkpt lat="42.88767" lon="0.75103">
        <ele>1338.3</ele>
        <time>2004-08-06T16:27:33Z</time>
      </trkpt>
      <trkpt lat="42.88766" lon="0.75108">
        <ele>1339.5</ele>
        <time>2004-08-06T16:27:39Z</time>
      </trkpt>
      <trkpt lat="42.88766" lon="0.75113">
        <ele>1340.8</ele>
        <time>2004-08-06T16:27:44Z</time>
      </trkpt>
      <trkpt lat="42.88765" lon="0.75114">
        <ele>1340.9</ele>
        <time>2004-08-06T16:27:44Z</time>
      </trkpt>
      <trkpt lat="42.88764" lon="0.75116">
        <ele>1341.3</ele>
        <time>2004-08-06T16:27:52Z</time>
      </trkpt>
      <trkpt lat="42.88764" lon="0.7512">
        <ele>1342.2</ele>
        <time>2004-08-06T16:27:52Z</time>
      </trkpt>
      <trkpt lat="42.88762" lon="0.75127">
        <ele>1343.5</ele>
        <time>2004-08-06T16:28:07Z</time>
      </trkpt>
      <trkpt lat="42.88762" lon="0.7513">
        <ele>1344.1</ele>
        <time>2004-08-06T16:28:19Z</time>
      </trkpt>
      <trkpt lat="42.88762" lon="0.75132">
        <ele>1344.4</ele>
        <time>2004-08-06T16:28:19Z</time>
      </trkpt>
      <trkpt lat="42.88762" lon="0.75134">
        <ele>1344.8</ele>
        <time>2004-08-06T16:28:20Z</time>
      </trkpt>
      <trkpt lat="42.88762" lon="0.75138">
        <ele>1345.4</ele>
        <time>2004-08-06T16:28:22Z</time>
      </trkpt>
      <trkpt lat="42.88761" lon="0.75138">
        <ele>1345.3</ele>
        <time>2004-08-06T16:28:25Z</time>
      </trkpt>
      <trkpt lat="42.88761" lon="0.7514">
        <ele>1345.6</ele>
        <time>2004-08-06T16:28:27Z</time>
      </trkpt>
      <trkpt lat="42.88762" lon="0.75146">
        <ele>1346.3</ele>
        <time>2004-08-06T16:28:35Z</time>
      </trkpt>
      <trkpt lat="42.88763" lon="0.75152">
        <ele>1346.9</ele>
        <time>2004-08-06T16:28:37Z</time>
      </trkpt>
      <trkpt lat="42.88764" lon="0.75154">
        <ele>1347.1</ele>
        <time>2004-08-06T16:28:42Z</time>
      </trkpt>
      <trkpt lat="42.88764" lon="0.75158">
        <ele>1347.3</ele>
        <time>2004-08-06T16:28:54Z</time>
      </trkpt>
      <trkpt lat="42.88763" lon="0.75161">
        <ele>1347.3</ele>
        <time>2004-08-06T16:28:56Z</time>
      </trkpt>
      <trkpt lat="42.88762" lon="0.75165">
        <ele>1347.4</ele>
        <time>2004-08-06T16:28:58Z</time>
      </trkpt>
      <trkpt lat="42.88761" lon="0.75166">
        <ele>1347.4</ele>
        <time>2004-08-06T16:29:00Z</time>
      </trkpt>
      <trkpt lat="42.88761" lon="0.75168">
        <ele>1354.4</ele>
        <time>2004-08-06T16:29:06Z</time>
      </trkpt>
      <trkpt lat="42.8876" lon="0.7517">
        <ele>1354.2</ele>
        <time>2004-08-06T16:29:09Z</time>
      </trkpt>
      <trkpt lat="42.88759" lon="0.75174">
        <ele>1354.8</ele>
        <time>2004-08-06T16:29:10Z</time>
      </trkpt>
      <trkpt lat="42.88759" lon="0.75174">
        <ele>1354.8</ele>
        <time>2004-08-06T16:29:16Z</time>
      </trkpt>
      <trkpt lat="42.88758" lon="0.75175">
        <ele>1354.7</ele>
        <time>2004-08-06T16:29:17Z</time>
      </trkpt>
      <trkpt lat="42.88759" lon="0.75176">
        <ele>1355.4</ele>
        <time>2004-08-06T16:29:24Z</time>
      </trkpt>
      <trkpt lat="42.88757" lon="0.7518">
        <ele>1356.4</ele>
        <time>2004-08-06T16:29:25Z</time>
      </trkpt>
      <trkpt lat="42.88756" lon="0.75183">
        <ele>1357.3</ele>
        <time>2004-08-06T16:29:31Z</time>
      </trkpt>
      <trkpt lat="42.88757" lon="0.75184">
        <ele>1357.8</ele>
        <time>2004-08-06T16:29:32Z</time>
      </trkpt>
      <trkpt lat="42.88755" lon="0.75189">
        <ele>1359.2</ele>
        <time>2004-08-06T16:29:36Z</time>
      </trkpt>
      <trkpt lat="42.88755" lon="0.7519">
        <ele>1359.5</ele>
        <time>2004-08-06T16:29:43Z</time>
      </trkpt>
      <trkpt lat="42.88754" lon="0.75191">
        <ele>1359.6</ele>
        <time>2004-08-06T16:29:44Z</time>
      </trkpt>
      <trkpt lat="42.88754" lon="0.75193">
        <ele>1360.2</ele>
        <time>2004-08-06T16:29:46Z</time>
      </trkpt>
      <trkpt lat="42.88753" lon="0.75196">
        <ele>1360.9</ele>
        <time>2004-08-06T16:29:48Z</time>
      </trkpt>
      <trkpt lat="42.88753" lon="0.75197">
        <ele>1361.1</ele>
        <time>2004-08-06T16:29:55Z</time>
      </trkpt>
      <trkpt lat="42.88751" lon="0.752">
        <ele>1361.6</ele>
        <time>2004-08-06T16:29:56Z</time>
      </trkpt>
      <trkpt lat="42.88749" lon="0.75205">
        <ele>1348</ele>
        <time>2004-08-06T16:30:00Z</time>
      </trkpt>
      <trkpt lat="42.88749" lon="0.75207">
        <ele>1348.3</ele>
        <time>2004-08-06T16:30:02Z</time>
      </trkpt>
      <trkpt lat="42.88744" lon="0.75211">
        <ele>1348.6</ele>
        <time>2004-08-06T16:30:03Z</time>
      </trkpt>
      <trkpt lat="42.88743" lon="0.75212">
        <ele>1348.7</ele>
        <time>2004-08-06T16:30:04Z</time>
      </trkpt>
      <trkpt lat="42.8874" lon="0.75215">
        <ele>1349</ele>
        <time>2004-08-06T16:30:07Z</time>
      </trkpt>
      <trkpt lat="42.8874" lon="0.75216">
        <ele>1349.2</ele>
        <time>2004-08-06T16:30:10Z</time>
      </trkpt>
      <trkpt lat="42.88739" lon="0.75221">
        <ele>1350</ele>
        <time>2004-08-06T16:30:26Z</time>
      </trkpt>
      <trkpt lat="42.88737" lon="0.75227">
        <ele>1351.1</ele>
        <time>2004-08-06T16:30:33Z</time>
      </trkpt>
      <trkpt lat="42.8874" lon="0.75228">
        <ele>1351.8</ele>
        <time>2004-08-06T16:30:34Z</time>
      </trkpt>
      <trkpt lat="42.88738" lon="0.75233">
        <ele>1352.7</ele>
        <time>2004-08-06T16:30:45Z</time>
      </trkpt>
      <trkpt lat="42.88738" lon="0.75239">
        <ele>1354.3</ele>
        <time>2004-08-06T16:30:46Z</time>
      </trkpt>
      <trkpt lat="42.88726" lon="0.75253">
        <ele>1357.9</ele>
        <time>2004-08-06T16:30:49Z</time>
      </trkpt>
      <trkpt lat="42.88726" lon="0.75254">
        <ele>1357.9</ele>
        <time>2004-08-06T16:30:57Z</time>
      </trkpt>
      <trkpt lat="42.88726" lon="0.75254">
        <ele>1357.9</ele>
        <time>2004-08-06T16:31:09Z</time>
      </trkpt>
      <trkpt lat="42.88724" lon="0.75257">
        <ele>1357.5</ele>
        <time>2004-08-06T16:31:20Z</time>
      </trkpt>
      <trkpt lat="42.88724" lon="0.75257">
        <ele>1357.5</ele>
        <time>2004-08-06T16:31:28Z</time>
      </trkpt>
      <trkpt lat="42.88724" lon="0.75259">
        <ele>1357.5</ele>
        <time>2004-08-06T16:31:29Z</time>
      </trkpt>
      <trkpt lat="42.88724" lon="0.7526">
        <ele>1357.5</ele>
        <time>2004-08-06T16:31:32Z</time>
      </trkpt>
      <trkpt lat="42.88723" lon="0.7526">
        <ele>1357.3</ele>
        <time>2004-08-06T16:31:39Z</time>
      </trkpt>
      <trkpt lat="42.88723" lon="0.7526">
        <ele>1357.3</ele>
        <time>2004-08-06T16:31:42Z</time>
      </trkpt>
      <trkpt lat="42.88732" lon="0.75264">
        <ele>1358.4</ele>
        <time>2004-08-06T16:31:43Z</time>
      </trkpt>
      <trkpt lat="42.88736" lon="0.75262">
        <ele>1359.1</ele>
        <time>2004-08-06T16:31:48Z</time>
      </trkpt>
      <trkpt lat="42.88736" lon="0.75264">
        <ele>1358.9</ele>
        <time>2004-08-06T16:31:52Z</time>
      </trkpt>
      <trkpt lat="42.88737" lon="0.75265">
        <ele>1359</ele>
        <time>2004-08-06T16:31:57Z</time>
      </trkpt>
      <trkpt lat="42.88733" lon="0.75281">
        <ele>1357.9</ele>
        <time>2004-08-06T16:31:58Z</time>
      </trkpt>
      <trkpt lat="42.88732" lon="0.75285">
        <ele>1357.7</ele>
        <time>2004-08-06T16:32:02Z</time>
      </trkpt>
      <trkpt lat="42.88731" lon="0.7529">
        <ele>1357.7</ele>
        <time>2004-08-06T16:32:02Z</time>
      </trkpt>
      <trkpt lat="42.88731" lon="0.75294">
        <ele>1357.7</ele>
        <time>2004-08-06T16:32:07Z</time>
      </trkpt>
      <trkpt lat="42.8873" lon="0.75302">
        <ele>1357.9</ele>
        <time>2004-08-06T16:32:09Z</time>
      </trkpt>
      <trkpt lat="42.88728" lon="0.75319">
        <ele>1358.6</ele>
        <time>2004-08-06T16:32:14Z</time>
      </trkpt>
      <trkpt lat="42.88727" lon="0.75326">
        <ele>1358.8</ele>
        <time>2004-08-06T16:32:19Z</time>
      </trkpt>
      <trkpt lat="42.88727" lon="0.75336">
        <ele>1359.4</ele>
        <time>2004-08-06T16:32:21Z</time>
      </trkpt>
      <trkpt lat="42.88727" lon="0.75347">
        <ele>1359.1</ele>
        <time>2004-08-06T16:32:26Z</time>
      </trkpt>
      <trkpt lat="42.88729" lon="0.75361">
        <ele>1358.7</ele>
        <time>2004-08-06T16:32:29Z</time>
      </trkpt>
      <trkpt lat="42.8873" lon="0.75375">
        <ele>1358.5</ele>
        <time>2004-08-06T16:32:30Z</time>
      </trkpt>
      <trkpt lat="42.8873" lon="0.75379">
        <ele>1358.5</ele>
        <time>2004-08-06T16:32:32Z</time>
      </trkpt>
      <trkpt lat="42.88731" lon="0.75383">
        <ele>1358.6</ele>
        <time>2004-08-06T16:32:33Z</time>
      </trkpt>
      <trkpt lat="42.88736" lon="0.75391">
        <ele>1359.2</ele>
        <time>2004-08-06T16:32:33Z</time>
      </trkpt>
      <trkpt lat="42.88737" lon="0.75392">
        <ele>1359.4</ele>
        <time>2004-08-06T16:32:34Z</time>
      </trkpt>
      <trkpt lat="42.88739" lon="0.75394">
        <ele>1359.6</ele>
        <time>2004-08-06T16:32:45Z</time>
      </trkpt>
      <trkpt lat="42.88743" lon="0.75397">
        <ele>1360.1</ele>
        <time>2004-08-06T16:32:45Z</time>
      </trkpt>
      <trkpt lat="42.88746" lon="0.754">
        <ele>1360.6</ele>
        <time>2004-08-06T16:32:48Z</time>
      </trkpt>
      <trkpt lat="42.88747" lon="0.754">
        <ele>1360.7</ele>
        <time>2004-08-06T16:32:53Z</time>
      </trkpt>
      <trkpt lat="42.8875" lon="0.75401">
        <ele>1368.7</ele>
        <time>2004-08-06T16:32:57Z</time>
      </trkpt>
      <trkpt lat="42.88752" lon="0.75403">
        <ele>1368.4</ele>
        <time>2004-08-06T16:33:00Z</time>
      </trkpt>
      <trkpt lat="42.88758" lon="0.75404">
        <ele>1368.8</ele>
        <time>2004-08-06T16:33:04Z</time>
      </trkpt>
      <trkpt lat="42.88759" lon="0.75404">
        <ele>1368.9</ele>
        <time>2004-08-06T16:33:05Z</time>
      </trkpt>
      <trkpt lat="42.8876" lon="0.75404">
        <ele>1369.1</ele>
        <time>2004-08-06T16:33:08Z</time>
      </trkpt>
      <trkpt lat="42.88764" lon="0.75406">
        <ele>1369.5</ele>
        <time>2004-08-06T16:33:16Z</time>
      </trkpt>
      <trkpt lat="42.88768" lon="0.75407">
        <ele>1370.2</ele>
        <time>2004-08-06T16:33:18Z</time>
      </trkpt>
      <trkpt lat="42.88769" lon="0.75407">
        <ele>1370.4</ele>
        <time>2004-08-06T16:33:23Z</time>
      </trkpt>
      <trkpt lat="42.88774" lon="0.75404">
        <ele>1371.5</ele>
        <time>2004-08-06T16:33:28Z</time>
      </trkpt>
      <trkpt lat="42.88781" lon="0.75401">
        <ele>1372.8</ele>
        <time>2004-08-06T16:33:31Z</time>
      </trkpt>
      <trkpt lat="42.88794" lon="0.75398">
        <ele>1374.8</ele>
        <time>2004-08-06T16:33:32Z</time>
      </trkpt>
      <trkpt lat="42.88795" lon="0.75397">
        <ele>1375</ele>
        <time>2004-08-06T16:33:40Z</time>
      </trkpt>
      <trkpt lat="42.88803" lon="0.75397">
        <ele>1375.9</ele>
        <time>2004-08-06T16:33:42Z</time>
      </trkpt>
      <trkpt lat="42.88809" lon="0.75396">
        <ele>1376.6</ele>
        <time>2004-08-06T16:33:47Z</time>
      </trkpt>
      <trkpt lat="42.88815" lon="0.75396">
        <ele>1377.2</ele>
        <time>2004-08-06T16:33:51Z</time>
      </trkpt>
      <trkpt lat="42.88826" lon="0.75404">
        <ele>1377.9</ele>
        <time>2004-08-06T16:33:53Z</time>
      </trkpt>
      <trkpt lat="42.88829" lon="0.75407">
        <ele>1378.1</ele>
        <time>2004-08-06T16:33:57Z</time>
      </trkpt>
      <trkpt lat="42.8883" lon="0.75408">
        <ele>1378.2</ele>
        <time>2004-08-06T16:33:58Z</time>
      </trkpt>
      <trkpt lat="42.88842" lon="0.75421">
        <ele>1383.7</ele>
        <time>2004-08-06T16:34:01Z</time>
      </trkpt>
      <trkpt lat="42.88852" lon="0.75436">
        <ele>1388.3</ele>
        <time>2004-08-06T16:34:02Z</time>
      </trkpt>
      <trkpt lat="42.88852" lon="0.75438">
        <ele>1388.4</ele>
        <time>2004-08-06T16:34:06Z</time>
      </trkpt>
      <trkpt lat="42.88863" lon="0.75456">
        <ele>1390.2</ele>
        <time>2004-08-06T16:34:09Z</time>
      </trkpt>
      <trkpt lat="42.88867" lon="0.75459">
        <ele>1390.9</ele>
        <time>2004-08-06T16:34:10Z</time>
      </trkpt>
      <trkpt lat="42.88869" lon="0.75462">
        <ele>1391.1</ele>
        <time>2004-08-06T16:34:21Z</time>
      </trkpt>
      <trkpt lat="42.88871" lon="0.75465">
        <ele>1391.3</ele>
        <time>2004-08-06T16:34:29Z</time>
      </trkpt>
      <trkpt lat="42.88873" lon="0.75467">
        <ele>1391.6</ele>
        <time>2004-08-06T16:34:41Z</time>
      </trkpt>
      <trkpt lat="42.88878" lon="0.75471">
        <ele>1392.6</ele>
        <time>2004-08-06T16:34:47Z</time>
      </trkpt>
      <trkpt lat="42.88882" lon="0.7548">
        <ele>1393</ele>
        <time>2004-08-06T16:34:59Z</time>
      </trkpt>
      <trkpt lat="42.88883" lon="0.75483">
        <ele>1393.2</ele>
        <time>2004-08-06T16:35:19Z</time>
      </trkpt>
      <trkpt lat="42.88885" lon="0.75486">
        <ele>1393.7</ele>
        <time>2004-08-06T16:35:23Z</time>
      </trkpt>
      <trkpt lat="42.88885" lon="0.75488">
        <ele>1393.6</ele>
        <time>2004-08-06T16:35:24Z</time>
      </trkpt>
      <trkpt lat="42.88889" lon="0.75501">
        <ele>1384.8</ele>
        <time>2004-08-06T16:35:27Z</time>
      </trkpt>
      <trkpt lat="42.88893" lon="0.75509">
        <ele>1385.9</ele>
        <time>2004-08-06T16:35:31Z</time>
      </trkpt>
      <trkpt lat="42.88912" lon="0.75541">
        <ele>1383.3</ele>
        <time>2004-08-06T16:35:33Z</time>
      </trkpt>
      <trkpt lat="42.88924" lon="0.75565">
        <ele>1406.3</ele>
        <time>2004-08-06T16:36:05Z</time>
      </trkpt>
      <trkpt lat="42.88925" lon="0.7557">
        <ele>1403.9</ele>
        <time>2004-08-06T16:36:12Z</time>
      </trkpt>
      <trkpt lat="42.88933" lon="0.75592">
        <ele>1396.5</ele>
        <time>2004-08-06T16:36:13Z</time>
      </trkpt>
      <trkpt lat="42.88935" lon="0.75598">
        <ele>1397.6</ele>
        <time>2004-08-06T16:36:40Z</time>
      </trkpt>
      <trkpt lat="42.88938" lon="0.75606">
        <ele>1398.7</ele>
        <time>2004-08-06T16:36:45Z</time>
      </trkpt>
      <trkpt lat="42.88946" lon="0.75618">
        <ele>1400.2</ele>
        <time>2004-08-06T16:36:47Z</time>
      </trkpt>
      <trkpt lat="42.88946" lon="0.75619">
        <ele>1400</ele>
        <time>2004-08-06T16:36:51Z</time>
      </trkpt>
      <trkpt lat="42.88948" lon="0.75624">
        <ele>1400</ele>
        <time>2004-08-06T16:37:03Z</time>
      </trkpt>
      <trkpt lat="42.88948" lon="0.75626">
        <ele>1399.8</ele>
        <time>2004-08-06T16:37:06Z</time>
      </trkpt>
      <trkpt lat="42.8895" lon="0.75628">
        <ele>1400.1</ele>
        <time>2004-08-06T16:37:07Z</time>
      </trkpt>
      <trkpt lat="42.88951" lon="0.75629">
        <ele>1400.2</ele>
        <time>2004-08-06T16:37:07Z</time>
      </trkpt>
      <trkpt lat="42.88954" lon="0.75633">
        <ele>1400.6</ele>
        <time>2004-08-06T16:37:12Z</time>
      </trkpt>
      <trkpt lat="42.88958" lon="0.75641">
        <ele>1400.9</ele>
        <time>2004-08-06T16:37:38Z</time>
      </trkpt>
      <trkpt lat="42.88959" lon="0.75646">
        <ele>1400.8</ele>
        <time>2004-08-06T16:37:42Z</time>
      </trkpt>
      <trkpt lat="42.88962" lon="0.75651">
        <ele>1401.5</ele>
        <time>2004-08-06T16:37:46Z</time>
      </trkpt>
      <trkpt lat="42.88964" lon="0.75656">
        <ele>1402</ele>
        <time>2004-08-06T16:37:56Z</time>
      </trkpt>
      <trkpt lat="42.88966" lon="0.75659">
        <ele>1402.7</ele>
        <time>2004-08-06T16:37:57Z</time>
      </trkpt>
      <trkpt lat="42.88969" lon="0.75664">
        <ele>1403.8</ele>
        <time>2004-08-06T16:38:05Z</time>
      </trkpt>
      <trkpt lat="42.8897" lon="0.75665">
        <ele>1404.1</ele>
        <time>2004-08-06T16:38:08Z</time>
      </trkpt>
      <trkpt lat="42.88979" lon="0.75695">
        <ele>1393</ele>
        <time>2004-08-06T16:38:09Z</time>
      </trkpt>
      <trkpt lat="42.88981" lon="0.75699">
        <ele>1392.8</ele>
        <time>2004-08-06T16:38:13Z</time>
      </trkpt>
      <trkpt lat="42.88982" lon="0.75701">
        <ele>1392.7</ele>
        <time>2004-08-06T16:38:23Z</time>
      </trkpt>
      <trkpt lat="42.88984" lon="0.75703">
        <ele>1392.8</ele>
        <time>2004-08-06T16:38:24Z</time>
      </trkpt>
      <trkpt lat="42.88986" lon="0.75706">
        <ele>1392.8</ele>
        <time>2004-08-06T16:38:27Z</time>
      </trkpt>
      <trkpt lat="42.88989" lon="0.75716">
        <ele>1392.5</ele>
        <time>2004-08-06T16:38:40Z</time>
      </trkpt>
      <trkpt lat="42.88996" lon="0.75738">
        <ele>1396.8</ele>
        <time>2004-08-06T16:38:54Z</time>
      </trkpt>
      <trkpt lat="42.89" lon="0.7574">
        <ele>1413.7</ele>
        <time>2004-08-06T16:38:55Z</time>
      </trkpt>
      <trkpt lat="42.89002" lon="0.75742">
        <ele>1412.4</ele>
        <time>2004-08-06T16:38:59Z</time>
      </trkpt>
      <trkpt lat="42.89003" lon="0.75745">
        <ele>1410.4</ele>
        <time>2004-08-06T16:39:03Z</time>
      </trkpt>
      <trkpt lat="42.89005" lon="0.75748">
        <ele>1410</ele>
        <time>2004-08-06T16:39:13Z</time>
      </trkpt>
      <trkpt lat="42.89008" lon="0.75753">
        <ele>1407.7</ele>
        <time>2004-08-06T16:39:14Z</time>
      </trkpt>
      <trkpt lat="42.89013" lon="0.75758">
        <ele>1409.9</ele>
        <time>2004-08-06T16:39:18Z</time>
      </trkpt>
      <trkpt lat="42.89014" lon="0.75759">
        <ele>1410.3</ele>
        <time>2004-08-06T16:39:23Z</time>
      </trkpt>
      <trkpt lat="42.89024" lon="0.75768">
        <ele>1413.4</ele>
        <time>2004-08-06T16:39:26Z</time>
      </trkpt>
      <trkpt lat="42.89025" lon="0.75769">
        <ele>1413.7</ele>
        <time>2004-08-06T16:39:29Z</time>
      </trkpt>
      <trkpt lat="42.89026" lon="0.7577">
        <ele>1414</ele>
        <time>2004-08-06T16:39:30Z</time>
      </trkpt>
      <trkpt lat="42.89027" lon="0.7577">
        <ele>1414.2</ele>
        <time>2004-08-06T16:39:45Z</time>
      </trkpt>
      <trkpt lat="42.89031" lon="0.75772">
        <ele>1415.3</ele>
        <time>2004-08-06T16:39:53Z</time>
      </trkpt>
      <trkpt lat="42.89037" lon="0.75776">
        <ele>1416.8</ele>
        <time>2004-08-06T16:39:53Z</time>
      </trkpt>
      <trkpt lat="42.89038" lon="0.75776">
        <ele>1417.1</ele>
        <time>2004-08-06T16:40:08Z</time>
      </trkpt>
      <trkpt lat="42.89039" lon="0.75777">
        <ele>1417.4</ele>
        <time>2004-08-06T16:40:08Z</time>
      </trkpt>
      <trkpt lat="42.89042" lon="0.75779">
        <ele>1418.1</ele>
        <time>2004-08-06T16:40:16Z</time>
      </trkpt>
      <trkpt lat="42.89044" lon="0.7578">
        <ele>1418.6</ele>
        <time>2004-08-06T16:40:20Z</time>
      </trkpt>
      <trkpt lat="42.89047" lon="0.75781">
        <ele>1419.4</ele>
        <time>2004-08-06T16:40:21Z</time>
      </trkpt>
      <trkpt lat="42.89051" lon="0.75783">
        <ele>1420.3</ele>
        <time>2004-08-06T16:40:29Z</time>
      </trkpt>
      <trkpt lat="42.89052" lon="0.75785">
        <ele>1420.4</ele>
        <time>2004-08-06T16:40:31Z</time>
      </trkpt>
      <trkpt lat="42.89054" lon="0.75786">
        <ele>1420.8</ele>
        <time>2004-08-06T16:40:36Z</time>
      </trkpt>
      <trkpt lat="42.89055" lon="0.75789">
        <ele>1420.8</ele>
        <time>2004-08-06T16:40:48Z</time>
      </trkpt>
      <trkpt lat="42.89056" lon="0.7579">
        <ele>1421</ele>
        <time>2004-08-06T16:40:52Z</time>
      </trkpt>
      <trkpt lat="42.89058" lon="0.75803">
        <ele>1420.7</ele>
        <time>2004-08-06T16:40:54Z</time>
      </trkpt>
      <trkpt lat="42.89059" lon="0.75804">
        <ele>1420.9</ele>
        <time>2004-08-06T16:41:03Z</time>
      </trkpt>
      <trkpt lat="42.89059" lon="0.75806">
        <ele>1420.9</ele>
        <time>2004-08-06T16:41:05Z</time>
      </trkpt>
      <trkpt lat="42.8906" lon="0.75812">
        <ele>1421.4</ele>
        <time>2004-08-06T16:41:25Z</time>
      </trkpt>
      <trkpt lat="42.8906" lon="0.75815">
        <ele>1421.5</ele>
        <time>2004-08-06T16:41:36Z</time>
      </trkpt>
      <trkpt lat="42.8906" lon="0.75818">
        <ele>1421.7</ele>
        <time>2004-08-06T16:41:37Z</time>
      </trkpt>
      <trkpt lat="42.8906" lon="0.75819">
        <ele>1421.7</ele>
        <time>2004-08-06T16:41:37Z</time>
      </trkpt>
      <trkpt lat="42.89061" lon="0.75821">
        <ele>1422.3</ele>
        <time>2004-08-06T16:41:41Z</time>
      </trkpt>
      <trkpt lat="42.89061" lon="0.75823">
        <ele>1422.4</ele>
        <time>2004-08-06T16:41:42Z</time>
      </trkpt>
      <trkpt lat="42.89059" lon="0.75828">
        <ele>1421.7</ele>
        <time>2004-08-06T16:41:45Z</time>
      </trkpt>
      <trkpt lat="42.89058" lon="0.75829">
        <ele>1421.3</ele>
        <time>2004-08-06T16:41:49Z</time>
      </trkpt>
      <trkpt lat="42.89058" lon="0.7583">
        <ele>1421.3</ele>
        <time>2004-08-06T16:41:50Z</time>
      </trkpt>
      <trkpt lat="42.89057" lon="0.75831">
        <ele>1420.8</ele>
        <time>2004-08-06T16:41:52Z</time>
      </trkpt>
      <trkpt lat="42.89057" lon="0.75831">
        <ele>1420.8</ele>
        <time>2004-08-06T16:42:12Z</time>
      </trkpt>
      <trkpt lat="42.89057" lon="0.75831">
        <ele>1420.8</ele>
        <time>2004-08-06T16:42:19Z</time>
      </trkpt>
      <trkpt lat="42.89057" lon="0.75831">
        <ele>1420.8</ele>
        <time>2004-08-06T16:42:20Z</time>
      </trkpt>
      <trkpt lat="42.89057" lon="0.75831">
        <ele>1420.8</ele>
        <time>2004-08-06T16:42:23Z</time>
      </trkpt>
      <trkpt lat="42.89057" lon="0.75832">
        <ele>1420.8</ele>
        <time>2004-08-06T16:42:38Z</time>
      </trkpt>
      <trkpt lat="42.89057" lon="0.75842">
        <ele>1415.3</ele>
        <time>2004-08-06T16:42:50Z</time>
      </trkpt>
      <trkpt lat="42.89058" lon="0.75844">
        <ele>1415.6</ele>
        <time>2004-08-06T16:42:53Z</time>
      </trkpt>
      <trkpt lat="42.89058" lon="0.75845">
        <ele>1415.4</ele>
        <time>2004-08-06T16:43:14Z</time>
      </trkpt>
      <trkpt lat="42.8906" lon="0.75853">
        <ele>1415.2</ele>
        <time>2004-08-06T16:43:17Z</time>
      </trkpt>
      <trkpt lat="42.8906" lon="0.75854">
        <ele>1415</ele>
        <time>2004-08-06T16:43:28Z</time>
      </trkpt>
      <trkpt lat="42.8906" lon="0.75861">
        <ele>1414</ele>
        <time>2004-08-06T16:43:55Z</time>
      </trkpt>
      <trkpt lat="42.89059" lon="0.75869">
        <ele>1413</ele>
        <time>2004-08-06T16:44:04Z</time>
      </trkpt>
      <trkpt lat="42.8906" lon="0.75874">
        <ele>1413.1</ele>
        <time>2004-08-06T16:44:23Z</time>
      </trkpt>
      <trkpt lat="42.89062" lon="0.75882">
        <ele>1413.6</ele>
        <time>2004-08-06T16:44:23Z</time>
      </trkpt>
      <trkpt lat="42.89062" lon="0.75886">
        <ele>1413.8</ele>
        <time>2004-08-06T16:44:31Z</time>
      </trkpt>
      <trkpt lat="42.89062" lon="0.75896">
        <ele>1414.8</ele>
        <time>2004-08-06T16:44:51Z</time>
      </trkpt>
      <trkpt lat="42.89063" lon="0.75899">
        <ele>1415.6</ele>
        <time>2004-08-06T16:45:00Z</time>
      </trkpt>
      <trkpt lat="42.89064" lon="0.75903">
        <ele>1416.6</ele>
        <time>2004-08-06T16:45:01Z</time>
      </trkpt>
      <trkpt lat="42.89064" lon="0.75905">
        <ele>1416.9</ele>
        <time>2004-08-06T16:45:06Z</time>
      </trkpt>
      <trkpt lat="42.89065" lon="0.75908">
        <ele>1417.8</ele>
        <time>2004-08-06T16:45:25Z</time>
      </trkpt>
      <trkpt lat="42.89066" lon="0.75909">
        <ele>1418.5</ele>
        <time>2004-08-06T16:45:28Z</time>
      </trkpt>
      <trkpt lat="42.89067" lon="0.75912">
        <ele>1419.5</ele>
        <time>2004-08-06T16:45:32Z</time>
      </trkpt>
      <trkpt lat="42.89068" lon="0.75914">
        <ele>1420.2</ele>
        <time>2004-08-06T16:45:40Z</time>
      </trkpt>
      <trkpt lat="42.89068" lon="0.75915">
        <ele>1420.3</ele>
        <time>2004-08-06T16:45:44Z</time>
      </trkpt>
      <trkpt lat="42.89069" lon="0.75916">
        <ele>1420.9</ele>
        <time>2004-08-06T16:45:51Z</time>
      </trkpt>
      <trkpt lat="42.8907" lon="0.75924">
        <ele>1419.5</ele>
        <time>2004-08-06T16:45:52Z</time>
      </trkpt>
      <trkpt lat="42.8907" lon="0.75925">
        <ele>1419.2</ele>
        <time>2004-08-06T16:45:54Z</time>
      </trkpt>
      <trkpt lat="42.89074" lon="0.75933">
        <ele>1418.2</ele>
        <time>2004-08-06T16:45:55Z</time>
      </trkpt>
      <trkpt lat="42.89075" lon="0.75935">
        <ele>1417.8</ele>
        <time>2004-08-06T16:45:58Z</time>
      </trkpt>
      <trkpt lat="42.89076" lon="0.75948">
        <ele>1414.7</ele>
        <time>2004-08-06T16:46:06Z</time>
      </trkpt>
      <trkpt lat="42.89076" lon="0.75951">
        <ele>1414.3</ele>
        <time>2004-08-06T16:46:07Z</time>
      </trkpt>
      <trkpt lat="42.89076" lon="0.75952">
        <ele>1414.2</ele>
        <time>2004-08-06T16:46:18Z</time>
      </trkpt>
      <trkpt lat="42.89077" lon="0.75958">
        <ele>1413.9</ele>
        <time>2004-08-06T16:46:21Z</time>
      </trkpt>
      <trkpt lat="42.89077" lon="0.7596">
        <ele>1413.9</ele>
        <time>2004-08-06T16:46:34Z</time>
      </trkpt>
      <trkpt lat="42.89078" lon="0.75964">
        <ele>1414.1</ele>
        <time>2004-08-06T16:46:41Z</time>
      </trkpt>
      <trkpt lat="42.89078" lon="0.75964">
        <ele>1414.1</ele>
        <time>2004-08-06T16:46:58Z</time>
      </trkpt>
      <trkpt lat="42.89077" lon="0.75964">
        <ele>1414</ele>
        <time>2004-08-06T16:47:13Z</time>
      </trkpt>
      <trkpt lat="42.89077" lon="0.75964">
        <ele>1414</ele>
        <time>2004-08-06T16:47:17Z</time>
      </trkpt>
      <trkpt lat="42.89078" lon="0.75966">
        <ele>1414.2</ele>
        <time>2004-08-06T16:47:21Z</time>
      </trkpt>
      <trkpt lat="42.8908" lon="0.7597">
        <ele>1414.9</ele>
        <time>2004-08-06T16:47:24Z</time>
      </trkpt>
      <trkpt lat="42.89083" lon="0.75977">
        <ele>1416.6</ele>
        <time>2004-08-06T16:47:36Z</time>
      </trkpt>
      <trkpt lat="42.89086" lon="0.75983">
        <ele>1441.3</ele>
        <time>2004-08-06T16:47:51Z</time>
      </trkpt>
      <trkpt lat="42.89086" lon="0.75984">
        <ele>1440.8</ele>
        <time>2004-08-06T16:47:52Z</time>
      </trkpt>
      <trkpt lat="42.89088" lon="0.75992">
        <ele>1437.1</ele>
        <time>2004-08-06T16:48:00Z</time>
      </trkpt>
      <trkpt lat="42.89089" lon="0.75994">
        <ele>1436.5</ele>
        <time>2004-08-06T16:48:02Z</time>
      </trkpt>
      <trkpt lat="42.8909" lon="0.75996">
        <ele>1436.2</ele>
        <time>2004-08-06T16:48:18Z</time>
      </trkpt>
      <trkpt lat="42.89092" lon="0.75999">
        <ele>1436.9</ele>
        <time>2004-08-06T16:48:22Z</time>
      </trkpt>
      <trkpt lat="42.89092" lon="0.76">
        <ele>1433.7</ele>
        <time>2004-08-06T16:48:25Z</time>
      </trkpt>
      <trkpt lat="42.89093" lon="0.76002">
        <ele>1434.1</ele>
        <time>2004-08-06T16:48:30Z</time>
      </trkpt>
      <trkpt lat="42.89095" lon="0.76003">
        <ele>1435</ele>
        <time>2004-08-06T16:48:36Z</time>
      </trkpt>
      <trkpt lat="42.89098" lon="0.76007">
        <ele>1436.5</ele>
        <time>2004-08-06T16:48:37Z</time>
      </trkpt>
      <trkpt lat="42.89099" lon="0.76009">
        <ele>1437.1</ele>
        <time>2004-08-06T16:48:46Z</time>
      </trkpt>
      <trkpt lat="42.89099" lon="0.76009">
        <ele>1437.1</ele>
        <time>2004-08-06T16:48:52Z</time>
      </trkpt>
      <trkpt lat="42.891" lon="0.76011">
        <ele>1437.6</ele>
        <time>2004-08-06T16:48:56Z</time>
      </trkpt>
      <trkpt lat="42.89102" lon="0.76013">
        <ele>1438.3</ele>
        <time>2004-08-06T16:49:01Z</time>
      </trkpt>
      <trkpt lat="42.89102" lon="0.76013">
        <ele>1438.3</ele>
        <time>2004-08-06T16:49:04Z</time>
      </trkpt>
      <trkpt lat="42.89103" lon="0.76014">
        <ele>1438.7</ele>
        <time>2004-08-06T16:49:17Z</time>
      </trkpt>
      <trkpt lat="42.89104" lon="0.76017">
        <ele>1439.2</ele>
        <time>2004-08-06T16:49:28Z</time>
      </trkpt>
      <trkpt lat="42.89105" lon="0.76018">
        <ele>1439.5</ele>
        <time>2004-08-06T16:49:32Z</time>
      </trkpt>
      <trkpt lat="42.89105" lon="0.76019">
        <ele>1439.5</ele>
        <time>2004-08-06T16:49:35Z</time>
      </trkpt>
      <trkpt lat="42.89106" lon="0.76021">
        <ele>1439.8</ele>
        <time>2004-08-06T16:49:44Z</time>
      </trkpt>
      <trkpt lat="42.89107" lon="0.7602">
        <ele>1440.1</ele>
        <time>2004-08-06T16:49:51Z</time>
      </trkpt>
      <trkpt lat="42.89107" lon="0.7602">
        <ele>1440.1</ele>
        <time>2004-08-06T16:49:51Z</time>
      </trkpt>
      <trkpt lat="42.89107" lon="0.7602">
        <ele>1440.1</ele>
        <time>2004-08-06T16:49:57Z</time>
      </trkpt>
      <trkpt lat="42.89107" lon="0.7602">
        <ele>1440.1</ele>
        <time>2004-08-06T16:49:58Z</time>
      </trkpt>
      <trkpt lat="42.89107" lon="0.7602">
        <ele>1440.1</ele>
        <time>2004-08-06T16:50:02Z</time>
      </trkpt>
      <trkpt lat="42.89107" lon="0.7602">
        <ele>1440.1</ele>
        <time>2004-08-06T16:50:03Z</time>
      </trkpt>
      <trkpt lat="42.89107" lon="0.7602">
        <ele>1440.1</ele>
        <time>2004-08-06T16:50:10Z</time>
      </trkpt>
      <trkpt lat="42.89107" lon="0.7602">
        <ele>1440.1</ele>
        <time>2004-08-06T16:50:15Z</time>
      </trkpt>
      <trkpt lat="42.8911" lon="0.76022">
        <ele>1440.9</ele>
        <time>2004-08-06T16:50:22Z</time>
      </trkpt>
      <trkpt lat="42.8911" lon="0.76023">
        <ele>1440.9</ele>
        <time>2004-08-06T16:50:30Z</time>
      </trkpt>
      <trkpt lat="42.89111" lon="0.76028">
        <ele>1441</ele>
        <time>2004-08-06T16:50:33Z</time>
      </trkpt>
      <trkpt lat="42.89113" lon="0.76029">
        <ele>1441.5</ele>
        <time>2004-08-06T16:50:37Z</time>
      </trkpt>
      <trkpt lat="42.89113" lon="0.76029">
        <ele>1441.5</ele>
        <time>2004-08-06T16:50:46Z</time>
      </trkpt>
      <trkpt lat="42.8911" lon="0.76033">
        <ele>1440.6</ele>
        <time>2004-08-06T16:50:48Z</time>
      </trkpt>
      <trkpt lat="42.8911" lon="0.76034">
        <ele>1440.5</ele>
        <time>2004-08-06T16:50:52Z</time>
      </trkpt>
      <trkpt lat="42.8911" lon="0.76034">
        <ele>1440.5</ele>
        <time>2004-08-06T16:50:56Z</time>
      </trkpt>
      <trkpt lat="42.89112" lon="0.76036">
        <ele>1440.8</ele>
        <time>2004-08-06T16:50:57Z</time>
      </trkpt>
      <trkpt lat="42.89114" lon="0.76034">
        <ele>1441.5</ele>
        <time>2004-08-06T16:50:59Z</time>
      </trkpt>
      <trkpt lat="42.89123" lon="0.7603">
        <ele>1444.1</ele>
        <time>2004-08-06T16:51:00Z</time>
      </trkpt>
      <trkpt lat="42.89125" lon="0.76032">
        <ele>1444.4</ele>
        <time>2004-08-06T16:51:04Z</time>
      </trkpt>
      <trkpt lat="42.89126" lon="0.76034">
        <ele>1444.5</ele>
        <time>2004-08-06T16:51:04Z</time>
      </trkpt>
      <trkpt lat="42.89126" lon="0.76035">
        <ele>1444.4</ele>
        <time>2004-08-06T16:51:05Z</time>
      </trkpt>
      <trkpt lat="42.89127" lon="0.76036">
        <ele>1444.6</ele>
        <time>2004-08-06T16:51:09Z</time>
      </trkpt>
      <trkpt lat="42.89127" lon="0.76038">
        <ele>1444.4</ele>
        <time>2004-08-06T16:51:12Z</time>
      </trkpt>
      <trkpt lat="42.89127" lon="0.76039">
        <ele>1444.3</ele>
        <time>2004-08-06T16:51:13Z</time>
      </trkpt>
      <trkpt lat="42.89128" lon="0.76041">
        <ele>1444.3</ele>
        <time>2004-08-06T16:51:17Z</time>
      </trkpt>
      <trkpt lat="42.89128" lon="0.76042">
        <ele>1444.2</ele>
        <time>2004-08-06T16:51:19Z</time>
      </trkpt>
      <trkpt lat="42.89129" lon="0.76042">
        <ele>1444.4</ele>
        <time>2004-08-06T16:51:22Z</time>
      </trkpt>
      <trkpt lat="42.89129" lon="0.76043">
        <ele>1444.3</ele>
        <time>2004-08-06T16:51:27Z</time>
      </trkpt>
      <trkpt lat="42.8913" lon="0.76044">
        <ele>1444.5</ele>
        <time>2004-08-06T16:51:28Z</time>
      </trkpt>
      <trkpt lat="42.8913" lon="0.76044">
        <ele>1444.5</ele>
        <time>2004-08-06T16:51:30Z</time>
      </trkpt>
      <trkpt lat="42.89128" lon="0.76052">
        <ele>1443.3</ele>
        <time>2004-08-06T16:51:35Z</time>
      </trkpt>
      <trkpt lat="42.89129" lon="0.76052">
        <ele>1443.5</ele>
        <time>2004-08-06T16:51:36Z</time>
      </trkpt>
      <trkpt lat="42.89131" lon="0.76055">
        <ele>1443.8</ele>
        <time>2004-08-06T16:51:39Z</time>
      </trkpt>
      <trkpt lat="42.89132" lon="0.76057">
        <ele>1443.9</ele>
        <time>2004-08-06T16:51:40Z</time>
      </trkpt>
      <trkpt lat="42.89133" lon="0.76058">
        <ele>1444.1</ele>
        <time>2004-08-06T16:51:42Z</time>
      </trkpt>
      <trkpt lat="42.89132" lon="0.76058">
        <ele>1443.8</ele>
        <time>2004-08-06T16:51:44Z</time>
      </trkpt>
      <trkpt lat="42.89134" lon="0.76059">
        <ele>1444.2</ele>
        <time>2004-08-06T16:51:46Z</time>
      </trkpt>
      <trkpt lat="42.89134" lon="0.76059">
        <ele>1444.2</ele>
        <time>2004-08-06T16:51:47Z</time>
      </trkpt>
      <trkpt lat="42.89136" lon="0.76061">
        <ele>1444.6</ele>
        <time>2004-08-06T16:51:54Z</time>
      </trkpt>
      <trkpt lat="42.89136" lon="0.76061">
        <ele>1444.6</ele>
        <time>2004-08-06T16:51:55Z</time>
      </trkpt>
      <trkpt lat="42.89136" lon="0.76061">
        <ele>1444.6</ele>
        <time>2004-08-06T16:51:57Z</time>
      </trkpt>
      <trkpt lat="42.89136" lon="0.76062">
        <ele>1444.6</ele>
        <time>2004-08-06T16:52:01Z</time>
      </trkpt>
      <trkpt lat="42.89136" lon="0.76062">
        <ele>1444.6</ele>
        <time>2004-08-06T16:52:02Z</time>
      </trkpt>
      <trkpt lat="42.89136" lon="0.76063">
        <ele>1444.5</ele>
        <time>2004-08-06T16:52:03Z</time>
      </trkpt>
      <trkpt lat="42.89136" lon="0.76063">
        <ele>1444.5</ele>
        <time>2004-08-06T16:52:06Z</time>
      </trkpt>
      <trkpt lat="42.89138" lon="0.76065">
        <ele>1445</ele>
        <time>2004-08-06T16:52:06Z</time>
      </trkpt>
      <trkpt lat="42.89138" lon="0.76066">
        <ele>1445</ele>
        <time>2004-08-06T16:52:07Z</time>
      </trkpt>
      <trkpt lat="42.89137" lon="0.76067">
        <ele>1444.7</ele>
        <time>2004-08-06T16:52:11Z</time>
      </trkpt>
      <trkpt lat="42.89137" lon="0.76067">
        <ele>1444.7</ele>
        <time>2004-08-06T16:52:13Z</time>
      </trkpt>
      <trkpt lat="42.89137" lon="0.76067">
        <ele>1444.7</ele>
        <time>2004-08-06T16:52:13Z</time>
      </trkpt>
      <trkpt lat="42.89137" lon="0.76067">
        <ele>1444.7</ele>
        <time>2004-08-06T16:52:16Z</time>
      </trkpt>
      <trkpt lat="42.89137" lon="0.76067">
        <ele>1444.7</ele>
        <time>2004-08-06T16:52:17Z</time>
      </trkpt>
      <trkpt lat="42.89137" lon="0.76067">
        <ele>1444.7</ele>
        <time>2004-08-06T16:52:20Z</time>
      </trkpt>
      <trkpt lat="42.89136" lon="0.76067">
        <ele>1444.4</ele>
        <time>2004-08-06T16:52:21Z</time>
      </trkpt>
      <trkpt lat="42.89136" lon="0.76068">
        <ele>1444.4</ele>
        <time>2004-08-06T16:52:21Z</time>
      </trkpt>
      <trkpt lat="42.89137" lon="0.76068">
        <ele>1444.6</ele>
        <time>2004-08-06T16:52:25Z</time>
      </trkpt>
      <trkpt lat="42.89137" lon="0.76068">
        <ele>1444.6</ele>
        <time>2004-08-06T16:52:26Z</time>
      </trkpt>
      <trkpt lat="42.89145" lon="0.76051">
        <ele>1447.2</ele>
        <time>2004-08-06T16:52:28Z</time>
      </trkpt>
      <trkpt lat="42.89152" lon="0.76033">
        <ele>1451.1</ele>
        <time>2004-08-06T16:52:33Z</time>
      </trkpt>
      <trkpt lat="42.89152" lon="0.76031">
        <ele>1451.6</ele>
        <time>2004-08-06T16:52:37Z</time>
      </trkpt>
      <trkpt lat="42.89155" lon="0.76023">
        <ele>1454.6</ele>
        <time>2004-08-06T16:52:53Z</time>
      </trkpt>
      <trkpt lat="42.89156" lon="0.76019">
        <ele>1456.4</ele>
        <time>2004-08-06T16:52:57Z</time>
      </trkpt>
      <trkpt lat="42.89155" lon="0.7602">
        <ele>1455.7</ele>
        <time>2004-08-06T16:53:00Z</time>
      </trkpt>
      <trkpt lat="42.89151" lon="0.76026">
        <ele>1452.6</ele>
        <time>2004-08-06T16:53:11Z</time>
      </trkpt>
      <trkpt lat="42.89149" lon="0.76029">
        <ele>1451.3</ele>
        <time>2004-08-06T16:53:15Z</time>
      </trkpt>
      <trkpt lat="42.89148" lon="0.7603">
        <ele>1450.9</ele>
        <time>2004-08-06T16:53:15Z</time>
      </trkpt>
      <trkpt lat="42.89143" lon="0.76055">
        <ele>1446.5</ele>
        <time>2004-08-06T16:53:19Z</time>
      </trkpt>
      <trkpt lat="42.89143" lon="0.76055">
        <ele>1446.5</ele>
        <time>2004-08-06T16:53:19Z</time>
      </trkpt>
      <trkpt lat="42.89143" lon="0.76056">
        <ele>1446.4</ele>
        <time>2004-08-06T16:53:20Z</time>
      </trkpt>
      <trkpt lat="42.89143" lon="0.76057">
        <ele>1446.4</ele>
        <time>2004-08-06T16:53:23Z</time>
      </trkpt>
      <trkpt lat="42.89142" lon="0.76057">
        <ele>1446.2</ele>
        <time>2004-08-06T16:53:26Z</time>
      </trkpt>
      <trkpt lat="42.89142" lon="0.76057">
        <ele>1446.2</ele>
        <time>2004-08-06T16:53:27Z</time>
      </trkpt>
      <trkpt lat="42.89142" lon="0.76058">
        <ele>1446.1</ele>
        <time>2004-08-06T16:53:27Z</time>
      </trkpt>
      <trkpt lat="42.89142" lon="0.76058">
        <ele>1446.1</ele>
        <time>2004-08-06T16:53:30Z</time>
      </trkpt>
      <trkpt lat="42.89142" lon="0.76058">
        <ele>1446.1</ele>
        <time>2004-08-06T16:53:31Z</time>
      </trkpt>
      <trkpt lat="42.89142" lon="0.76058">
        <ele>1446.1</ele>
        <time>2004-08-06T16:53:34Z</time>
      </trkpt>
      <trkpt lat="42.89139" lon="0.76058">
        <ele>1445.5</ele>
        <time>2004-08-06T16:53:35Z</time>
      </trkpt>
      <trkpt lat="42.89139" lon="0.76057">
        <ele>1445.5</ele>
        <time>2004-08-06T16:53:38Z</time>
      </trkpt>
      <trkpt lat="42.89139" lon="0.76057">
        <ele>1445.5</ele>
        <time>2004-08-06T16:53:38Z</time>
      </trkpt>
      <trkpt lat="42.89139" lon="0.76058">
        <ele>1445.5</ele>
        <time>2004-08-06T16:53:41Z</time>
      </trkpt>
      <trkpt lat="42.89139" lon="0.76058">
        <ele>1445.5</ele>
        <time>2004-08-06T16:53:42Z</time>
      </trkpt>
      <trkpt lat="42.89141" lon="0.76062">
        <ele>1445.8</ele>
        <time>2004-08-06T16:53:43Z</time>
      </trkpt>
      <trkpt lat="42.89142" lon="0.76064">
        <ele>1446</ele>
        <time>2004-08-06T16:53:45Z</time>
      </trkpt>
      <trkpt lat="42.89148" lon="0.76068">
        <ele>1447.4</ele>
        <time>2004-08-06T16:53:50Z</time>
      </trkpt>
      <trkpt lat="42.8915" lon="0.7607">
        <ele>1447.9</ele>
        <time>2004-08-06T16:53:53Z</time>
      </trkpt>
      <trkpt lat="42.89155" lon="0.76077">
        <ele>1449.6</ele>
        <time>2004-08-06T16:53:54Z</time>
      </trkpt>
      <trkpt lat="42.89158" lon="0.76084">
        <ele>1443.3</ele>
        <time>2004-08-06T16:53:57Z</time>
      </trkpt>
      <trkpt lat="42.89158" lon="0.76085">
        <ele>1443.1</ele>
        <time>2004-08-06T16:53:59Z</time>
      </trkpt>
      <trkpt lat="42.89158" lon="0.76085">
        <ele>1443.1</ele>
        <time>2004-08-06T16:54:01Z</time>
      </trkpt>
      <trkpt lat="42.89156" lon="0.76092">
        <ele>1438.4</ele>
        <time>2004-08-06T16:54:05Z</time>
      </trkpt>
      <trkpt lat="42.89156" lon="0.76092">
        <ele>1438.4</ele>
        <time>2004-08-06T16:54:09Z</time>
      </trkpt>
      <trkpt lat="42.89156" lon="0.76092">
        <ele>1438.4</ele>
        <time>2004-08-06T16:54:10Z</time>
      </trkpt>
      <trkpt lat="42.89156" lon="0.76096">
        <ele>1436.1</ele>
        <time>2004-08-06T16:54:13Z</time>
      </trkpt>
      <trkpt lat="42.89156" lon="0.76096">
        <ele>1436.1</ele>
        <time>2004-08-06T16:54:14Z</time>
      </trkpt>
      <trkpt lat="42.89157" lon="0.76097">
        <ele>1436</ele>
        <time>2004-08-06T16:54:25Z</time>
      </trkpt>
      <trkpt lat="42.89157" lon="0.76097">
        <ele>1436</ele>
        <time>2004-08-06T16:54:27Z</time>
      </trkpt>
      <trkpt lat="42.89157" lon="0.76097">
        <ele>1436</ele>
        <time>2004-08-06T16:54:28Z</time>
      </trkpt>
      <trkpt lat="42.89158" lon="0.76097">
        <ele>1436.4</ele>
        <time>2004-08-06T16:54:28Z</time>
      </trkpt>
      <trkpt lat="42.89159" lon="0.76097">
        <ele>1436.8</ele>
        <time>2004-08-06T16:54:29Z</time>
      </trkpt>
      <trkpt lat="42.89159" lon="0.76097">
        <ele>1436.8</ele>
        <time>2004-08-06T16:54:32Z</time>
      </trkpt>
      <trkpt lat="42.89159" lon="0.76097">
        <ele>1436.8</ele>
        <time>2004-08-06T16:54:37Z</time>
      </trkpt>
      <trkpt lat="42.89164" lon="0.76097">
        <ele>1438.4</ele>
        <time>2004-08-06T16:54:44Z</time>
      </trkpt>
      <trkpt lat="42.89164" lon="0.76097">
        <ele>1438.4</ele>
        <time>2004-08-06T16:54:44Z</time>
      </trkpt>
      <trkpt lat="42.89164" lon="0.76097">
        <ele>1438.4</ele>
        <time>2004-08-06T16:54:47Z</time>
      </trkpt>
      <trkpt lat="42.89164" lon="0.76097">
        <ele>1438.4</ele>
        <time>2004-08-06T16:54:55Z</time>
      </trkpt>
      <trkpt lat="42.89164" lon="0.76097">
        <ele>1438.4</ele>
        <time>2004-08-06T16:54:59Z</time>
      </trkpt>
      <trkpt lat="42.89165" lon="0.76095">
        <ele>1440.3</ele>
        <time>2004-08-06T16:55:02Z</time>
      </trkpt>
      <trkpt lat="42.89165" lon="0.76095">
        <ele>1440.3</ele>
        <time>2004-08-06T16:55:08Z</time>
      </trkpt>
      <trkpt lat="42.89165" lon="0.76095">
        <ele>1440.3</ele>
        <time>2004-08-06T16:55:10Z</time>
      </trkpt>
      <trkpt lat="42.89165" lon="0.76095">
        <ele>1440.3</ele>
        <time>2004-08-06T16:55:11Z</time>
      </trkpt>
      <trkpt lat="42.89165" lon="0.76095">
        <ele>1440.3</ele>
        <time>2004-08-06T16:55:26Z</time>
      </trkpt>
      <trkpt lat="42.89165" lon="0.76095">
        <ele>1440.3</ele>
        <time>2004-08-06T16:55:31Z</time>
      </trkpt>
      <trkpt lat="42.89166" lon="0.76096">
        <ele>1439.5</ele>
        <time>2004-08-06T16:55:33Z</time>
      </trkpt>
      <trkpt lat="42.89166" lon="0.76096">
        <ele>1439.5</ele>
        <time>2004-08-06T16:55:34Z</time>
      </trkpt>
      <trkpt lat="42.89166" lon="0.76096">
        <ele>1439.5</ele>
        <time>2004-08-06T16:55:34Z</time>
      </trkpt>
      <trkpt lat="42.8917" lon="0.76096">
        <ele>1445.3</ele>
        <time>2004-08-06T16:55:35Z</time>
      </trkpt>
      <trkpt lat="42.8917" lon="0.76096">
        <ele>1445.3</ele>
        <time>2004-08-06T16:55:41Z</time>
      </trkpt>
      <trkpt lat="42.8917" lon="0.76095">
        <ele>1445.8</ele>
        <time>2004-08-06T16:55:49Z</time>
      </trkpt>
      <trkpt lat="42.89173" lon="0.76092">
        <ele>1446.7</ele>
        <time>2004-08-06T16:55:50Z</time>
      </trkpt>
      <trkpt lat="42.89174" lon="0.76091">
        <ele>1446.8</ele>
        <time>2004-08-06T16:55:57Z</time>
      </trkpt>
      <trkpt lat="42.89176" lon="0.76089">
        <ele>1446.8</ele>
        <time>2004-08-06T16:55:58Z</time>
      </trkpt>
      <trkpt lat="42.89181" lon="0.76083">
        <ele>1459</ele>
        <time>2004-08-06T16:56:08Z</time>
      </trkpt>
      <trkpt lat="42.89182" lon="0.76081">
        <ele>1459.3</ele>
        <time>2004-08-06T16:56:24Z</time>
      </trkpt>
      <trkpt lat="42.89183" lon="0.7608">
        <ele>1459.6</ele>
        <time>2004-08-06T16:56:32Z</time>
      </trkpt>
      <trkpt lat="42.89188" lon="0.76079">
        <ele>1460.5</ele>
        <time>2004-08-06T16:56:32Z</time>
      </trkpt>
      <trkpt lat="42.8919" lon="0.76077">
        <ele>1461</ele>
        <time>2004-08-06T16:56:33Z</time>
      </trkpt>
      <trkpt lat="42.89193" lon="0.76078">
        <ele>1461.3</ele>
        <time>2004-08-06T16:56:37Z</time>
      </trkpt>
      <trkpt lat="42.89193" lon="0.76078">
        <ele>1461.3</ele>
        <time>2004-08-06T16:56:42Z</time>
      </trkpt>
      <trkpt lat="42.89197" lon="0.76079">
        <ele>1461.5</ele>
        <time>2004-08-06T16:56:43Z</time>
      </trkpt>
      <trkpt lat="42.89199" lon="0.76081">
        <ele>1461.5</ele>
        <time>2004-08-06T16:56:46Z</time>
      </trkpt>
      <trkpt lat="42.89202" lon="0.76081">
        <ele>1461.7</ele>
        <time>2004-08-06T16:56:51Z</time>
      </trkpt>
      <trkpt lat="42.892" lon="0.76081">
        <ele>1461.6</ele>
        <time>2004-08-06T16:56:52Z</time>
      </trkpt>
      <trkpt lat="42.892" lon="0.76081">
        <ele>1461.6</ele>
        <time>2004-08-06T16:56:58Z</time>
      </trkpt>
      <trkpt lat="42.892" lon="0.76081">
        <ele>1461.6</ele>
        <time>2004-08-06T16:57:07Z</time>
      </trkpt>
      <trkpt lat="42.89207" lon="0.76081">
        <ele>1461.8</ele>
        <time>2004-08-06T16:57:10Z</time>
      </trkpt>
      <trkpt lat="42.89207" lon="0.76081">
        <ele>1461.8</ele>
        <time>2004-08-06T16:57:11Z</time>
      </trkpt>
      <trkpt lat="42.8921" lon="0.76081">
        <ele>1461.8</ele>
        <time>2004-08-06T16:57:13Z</time>
      </trkpt>
      <trkpt lat="42.89212" lon="0.7608">
        <ele>1461.8</ele>
        <time>2004-08-06T16:57:14Z</time>
      </trkpt>
      <trkpt lat="42.89212" lon="0.7608">
        <ele>1461.8</ele>
        <time>2004-08-06T16:57:15Z</time>
      </trkpt>
      <trkpt lat="42.89214" lon="0.76083">
        <ele>1461.5</ele>
        <time>2004-08-06T16:57:18Z</time>
      </trkpt>
      <trkpt lat="42.89215" lon="0.76083">
        <ele>1461.5</ele>
        <time>2004-08-06T16:57:18Z</time>
      </trkpt>
      <trkpt lat="42.89217" lon="0.76084">
        <ele>1441</ele>
        <time>2004-08-06T16:57:22Z</time>
      </trkpt>
      <trkpt lat="42.89222" lon="0.76085">
        <ele>1441.4</ele>
        <time>2004-08-06T16:57:23Z</time>
      </trkpt>
      <trkpt lat="42.89223" lon="0.76085">
        <ele>1441.5</ele>
        <time>2004-08-06T16:57:25Z</time>
      </trkpt>
      <trkpt lat="42.89225" lon="0.76085">
        <ele>1441.8</ele>
        <time>2004-08-06T16:57:27Z</time>
      </trkpt>
      <trkpt lat="42.89225" lon="0.76086">
        <ele>1441.7</ele>
        <time>2004-08-06T16:57:31Z</time>
      </trkpt>
      <trkpt lat="42.89226" lon="0.76086">
        <ele>1441.9</ele>
        <time>2004-08-06T16:57:34Z</time>
      </trkpt>
      <trkpt lat="42.89227" lon="0.76086">
        <ele>1442.1</ele>
        <time>2004-08-06T16:57:37Z</time>
      </trkpt>
      <trkpt lat="42.89228" lon="0.76086">
        <ele>1442.3</ele>
        <time>2004-08-06T16:57:41Z</time>
      </trkpt>
      <trkpt lat="42.89232" lon="0.76087">
        <ele>1443.1</ele>
        <time>2004-08-06T16:57:45Z</time>
      </trkpt>
      <trkpt lat="42.89233" lon="0.76088">
        <ele>1443.2</ele>
        <time>2004-08-06T16:57:46Z</time>
      </trkpt>
      <trkpt lat="42.89234" lon="0.76088">
        <ele>1443.5</ele>
        <time>2004-08-06T16:57:49Z</time>
      </trkpt>
      <trkpt lat="42.89235" lon="0.76088">
        <ele>1443.8</ele>
        <time>2004-08-06T16:57:57Z</time>
      </trkpt>
      <trkpt lat="42.89242" lon="0.7609">
        <ele>1445.7</ele>
        <time>2004-08-06T16:58:01Z</time>
      </trkpt>
      <trkpt lat="42.89243" lon="0.7609">
        <ele>1446</ele>
        <time>2004-08-06T16:58:01Z</time>
      </trkpt>
      <trkpt lat="42.89247" lon="0.7609">
        <ele>1447.2</ele>
        <time>2004-08-06T16:58:03Z</time>
      </trkpt>
      <trkpt lat="42.89251" lon="0.76091">
        <ele>1447.5</ele>
        <time>2004-08-06T16:58:04Z</time>
      </trkpt>
      <trkpt lat="42.89251" lon="0.76092">
        <ele>1447</ele>
        <time>2004-08-06T16:58:05Z</time>
      </trkpt>
      <trkpt lat="42.89251" lon="0.76092">
        <ele>1447</ele>
        <time>2004-08-06T16:58:13Z</time>
      </trkpt>
      <trkpt lat="42.89251" lon="0.76092">
        <ele>1447</ele>
        <time>2004-08-06T16:58:17Z</time>
      </trkpt>
      <trkpt lat="42.89251" lon="0.76093">
        <ele>1446.5</ele>
        <time>2004-08-06T16:58:25Z</time>
      </trkpt>
      <trkpt lat="42.89251" lon="0.76093">
        <ele>1446.5</ele>
        <time>2004-08-06T16:58:30Z</time>
      </trkpt>
      <trkpt lat="42.89253" lon="0.76094">
        <ele>1445.9</ele>
        <time>2004-08-06T16:58:42Z</time>
      </trkpt>
      <trkpt lat="42.89254" lon="0.76093">
        <ele>1446.2</ele>
        <time>2004-08-06T16:58:43Z</time>
      </trkpt>
      <trkpt lat="42.89254" lon="0.76093">
        <ele>1446.2</ele>
        <time>2004-08-06T16:58:50Z</time>
      </trkpt>
      <trkpt lat="42.89255" lon="0.76093">
        <ele>1446</ele>
        <time>2004-08-06T16:58:55Z</time>
      </trkpt>
      <trkpt lat="42.89255" lon="0.76093">
        <ele>1446</ele>
        <time>2004-08-06T16:58:57Z</time>
      </trkpt>
      <trkpt lat="42.89257" lon="0.76093">
        <ele>1445.6</ele>
        <time>2004-08-06T16:58:58Z</time>
      </trkpt>
      <trkpt lat="42.89257" lon="0.76092">
        <ele>1446</ele>
        <time>2004-08-06T16:58:59Z</time>
      </trkpt>
      <trkpt lat="42.8927" lon="0.76089">
        <ele>1443.5</ele>
        <time>2004-08-06T16:59:01Z</time>
      </trkpt>
      <trkpt lat="42.89277" lon="0.76091">
        <ele>1442.1</ele>
        <time>2004-08-06T16:59:02Z</time>
      </trkpt>
      <trkpt lat="42.8928" lon="0.76093">
        <ele>1441.6</ele>
        <time>2004-08-06T16:59:03Z</time>
      </trkpt>
      <trkpt lat="42.89284" lon="0.76095">
        <ele>1441.1</ele>
        <time>2004-08-06T16:59:06Z</time>
      </trkpt>
      <trkpt lat="42.89284" lon="0.76095">
        <ele>1441.1</ele>
        <time>2004-08-06T16:59:07Z</time>
      </trkpt>
      <trkpt lat="42.89284" lon="0.76095">
        <ele>1441.1</ele>
        <time>2004-08-06T16:59:10Z</time>
      </trkpt>
      <trkpt lat="42.89285" lon="0.76096">
        <ele>1440.9</ele>
        <time>2004-08-06T16:59:11Z</time>
      </trkpt>
      <trkpt lat="42.89291" lon="0.76099">
        <ele>1440.4</ele>
        <time>2004-08-06T16:59:13Z</time>
      </trkpt>
      <trkpt lat="42.89292" lon="0.76099">
        <ele>1440.4</ele>
        <time>2004-08-06T16:59:14Z</time>
      </trkpt>
      <trkpt lat="42.89299" lon="0.76098">
        <ele>1440.7</ele>
        <time>2004-08-06T16:59:17Z</time>
      </trkpt>
      <trkpt lat="42.89299" lon="0.76096">
        <ele>1441</ele>
        <time>2004-08-06T16:59:18Z</time>
      </trkpt>
      <trkpt lat="42.89299" lon="0.76095">
        <ele>1441.1</ele>
        <time>2004-08-06T16:59:18Z</time>
      </trkpt>
      <trkpt lat="42.89303" lon="0.76091">
        <ele>1441.7</ele>
        <time>2004-08-06T16:59:19Z</time>
      </trkpt>
      <trkpt lat="42.89306" lon="0.76089">
        <ele>1442.2</ele>
        <time>2004-08-06T16:59:21Z</time>
      </trkpt>
      <trkpt lat="42.89308" lon="0.76087">
        <ele>1442.6</ele>
        <time>2004-08-06T16:59:22Z</time>
      </trkpt>
      <trkpt lat="42.89316" lon="0.76097">
        <ele>1442.5</ele>
        <time>2004-08-06T16:59:24Z</time>
      </trkpt>
      <trkpt lat="42.89319" lon="0.76101">
        <ele>1442.1</ele>
        <time>2004-08-06T16:59:25Z</time>
      </trkpt>
      <trkpt lat="42.89327" lon="0.76107">
        <ele>1441.4</ele>
        <time>2004-08-06T16:59:25Z</time>
      </trkpt>
      <trkpt lat="42.89328" lon="0.76107">
        <ele>1441.5</ele>
        <time>2004-08-06T16:59:26Z</time>
      </trkpt>
      <trkpt lat="42.89329" lon="0.76107">
        <ele>1441.5</ele>
        <time>2004-08-06T16:59:28Z</time>
      </trkpt>
      <trkpt lat="42.89329" lon="0.76107">
        <ele>1441.5</ele>
        <time>2004-08-06T16:59:29Z</time>
      </trkpt>
      <trkpt lat="42.8933" lon="0.76107">
        <ele>1441.5</ele>
        <time>2004-08-06T16:59:29Z</time>
      </trkpt>
      <trkpt lat="42.89332" lon="0.76109">
        <ele>1441.1</ele>
        <time>2004-08-06T16:59:33Z</time>
      </trkpt>
      <trkpt lat="42.89332" lon="0.76115">
        <ele>1439.7</ele>
        <time>2004-08-06T16:59:33Z</time>
      </trkpt>
      <trkpt lat="42.89339" lon="0.76127">
        <ele>1446.7</ele>
        <time>2004-08-06T16:59:34Z</time>
      </trkpt>
      <trkpt lat="42.89342" lon="0.76131">
        <ele>1446.1</ele>
        <time>2004-08-06T16:59:36Z</time>
      </trkpt>
      <trkpt lat="42.89343" lon="0.76132">
        <ele>1446</ele>
        <time>2004-08-06T16:59:37Z</time>
      </trkpt>
      <trkpt lat="42.89345" lon="0.76134">
        <ele>1445.8</ele>
        <time>2004-08-06T16:59:38Z</time>
      </trkpt>
      <trkpt lat="42.89348" lon="0.76135">
        <ele>1445.9</ele>
        <time>2004-08-06T16:59:41Z</time>
      </trkpt>
      <trkpt lat="42.89357" lon="0.76139">
        <ele>1446.3</ele>
        <time>2004-08-06T16:59:45Z</time>
      </trkpt>
      <trkpt lat="42.89359" lon="0.76141">
        <ele>1446.3</ele>
        <time>2004-08-06T16:59:51Z</time>
      </trkpt>
      <trkpt lat="42.89358" lon="0.76143">
        <ele>1445.8</ele>
        <time>2004-08-06T16:59:56Z</time>
      </trkpt>
      <trkpt lat="42.8936" lon="0.76143">
        <ele>1446.1</ele>
        <time>2004-08-06T16:59:59Z</time>
      </trkpt>
      <trkpt lat="42.8936" lon="0.76143">
        <ele>1446.1</ele>
        <time>2004-08-06T17:00:00Z</time>
      </trkpt>
      <trkpt lat="42.89361" lon="0.76143">
        <ele>1446.3</ele>
        <time>2004-08-06T17:00:03Z</time>
      </trkpt>
      <trkpt lat="42.89362" lon="0.76144">
        <ele>1446.3</ele>
        <time>2004-08-06T17:00:04Z</time>
      </trkpt>
      <trkpt lat="42.89365" lon="0.76148">
        <ele>1446.3</ele>
        <time>2004-08-06T17:00:05Z</time>
      </trkpt>
      <trkpt lat="42.89366" lon="0.7615">
        <ele>1446.2</ele>
        <time>2004-08-06T17:00:07Z</time>
      </trkpt>
      <trkpt lat="42.89367" lon="0.76152">
        <ele>1446.1</ele>
        <time>2004-08-06T17:00:12Z</time>
      </trkpt>
      <trkpt lat="42.89367" lon="0.76154">
        <ele>1445.9</ele>
        <time>2004-08-06T17:00:13Z</time>
      </trkpt>
      <trkpt lat="42.89367" lon="0.76155">
        <ele>1445.8</ele>
        <time>2004-08-06T17:00:16Z</time>
      </trkpt>
      <trkpt lat="42.89368" lon="0.76164">
        <ele>1445.2</ele>
        <time>2004-08-06T17:00:32Z</time>
      </trkpt>
      <trkpt lat="42.89369" lon="0.76165">
        <ele>1445.4</ele>
        <time>2004-08-06T17:00:34Z</time>
      </trkpt>
      <trkpt lat="42.89373" lon="0.76176">
        <ele>1433.6</ele>
        <time>2004-08-06T17:00:35Z</time>
      </trkpt>
      <trkpt lat="42.89378" lon="0.76179">
        <ele>1434.3</ele>
        <time>2004-08-06T17:00:39Z</time>
      </trkpt>
      <trkpt lat="42.89401" lon="0.76189">
        <ele>1437.6</ele>
        <time>2004-08-06T17:00:43Z</time>
      </trkpt>
      <trkpt lat="42.89407" lon="0.76199">
        <ele>1437</ele>
        <time>2004-08-06T17:00:45Z</time>
      </trkpt>
      <trkpt lat="42.89404" lon="0.76202">
        <ele>1436.3</ele>
        <time>2004-08-06T17:00:46Z</time>
      </trkpt>
      <trkpt lat="42.89404" lon="0.76203">
        <ele>1436.2</ele>
        <time>2004-08-06T17:00:50Z</time>
      </trkpt>
      <trkpt lat="42.894" lon="0.7621">
        <ele>1435.2</ele>
        <time>2004-08-06T17:00:50Z</time>
      </trkpt>
      <trkpt lat="42.89398" lon="0.76212">
        <ele>1434.9</ele>
        <time>2004-08-06T17:00:51Z</time>
      </trkpt>
      <trkpt lat="42.89389" lon="0.76235">
        <ele>1433</ele>
        <time>2004-08-06T17:00:53Z</time>
      </trkpt>
      <trkpt lat="42.89389" lon="0.76239">
        <ele>1433</ele>
        <time>2004-08-06T17:00:55Z</time>
      </trkpt>
      <trkpt lat="42.89388" lon="0.76241">
        <ele>1432.8</ele>
        <time>2004-08-06T17:00:57Z</time>
      </trkpt>
      <trkpt lat="42.89383" lon="0.7625">
        <ele>1431.2</ele>
        <time>2004-08-06T17:00:59Z</time>
      </trkpt>
      <trkpt lat="42.89381" lon="0.76253">
        <ele>1427.3</ele>
        <time>2004-08-06T17:01:02Z</time>
      </trkpt>
      <trkpt lat="42.89375" lon="0.76267">
        <ele>1425.5</ele>
        <time>2004-08-06T17:01:02Z</time>
      </trkpt>
      <trkpt lat="42.89367" lon="0.76289">
        <ele>1423.9</ele>
        <time>2004-08-06T17:01:06Z</time>
      </trkpt>
      <trkpt lat="42.89366" lon="0.76291">
        <ele>1423.7</ele>
        <time>2004-08-06T17:01:06Z</time>
      </trkpt>
      <trkpt lat="42.89365" lon="0.76293">
        <ele>1423.5</ele>
        <time>2004-08-06T17:01:10Z</time>
      </trkpt>
      <trkpt lat="42.89362" lon="0.76302">
        <ele>1422.6</ele>
        <time>2004-08-06T17:01:12Z</time>
      </trkpt>
      <trkpt lat="42.89359" lon="0.76313">
        <ele>1421.1</ele>
        <time>2004-08-06T17:01:16Z</time>
      </trkpt>
      <trkpt lat="42.89358" lon="0.76316">
        <ele>1420.5</ele>
        <time>2004-08-06T17:01:18Z</time>
      </trkpt>
      <trkpt lat="42.89359" lon="0.76324">
        <ele>1420.2</ele>
        <time>2004-08-06T17:01:21Z</time>
      </trkpt>
      <trkpt lat="42.89359" lon="0.76329">
        <ele>1419.9</ele>
        <time>2004-08-06T17:01:22Z</time>
      </trkpt>
      <trkpt lat="42.89364" lon="0.76344">
        <ele>1420.9</ele>
        <time>2004-08-06T17:01:24Z</time>
      </trkpt>
      <trkpt lat="42.89365" lon="0.76349">
        <ele>1421.4</ele>
        <time>2004-08-06T17:01:30Z</time>
      </trkpt>
      <trkpt lat="42.89369" lon="0.76373">
        <ele>1422.3</ele>
        <time>2004-08-06T17:01:32Z</time>
      </trkpt>
      <trkpt lat="42.89371" lon="0.7638">
        <ele>1422.5</ele>
        <time>2004-08-06T17:01:33Z</time>
      </trkpt>
      <trkpt lat="42.89374" lon="0.76385">
        <ele>1423.2</ele>
        <time>2004-08-06T17:01:37Z</time>
      </trkpt>
      <trkpt lat="42.89375" lon="0.76405">
        <ele>1422.7</ele>
        <time>2004-08-06T17:01:39Z</time>
      </trkpt>
      <trkpt lat="42.89375" lon="0.76412">
        <ele>1422.6</ele>
        <time>2004-08-06T17:01:40Z</time>
      </trkpt>
      <trkpt lat="42.89375" lon="0.76415">
        <ele>1422.5</ele>
        <time>2004-08-06T17:01:40Z</time>
      </trkpt>
      <trkpt lat="42.89376" lon="0.76418">
        <ele>1414.4</ele>
        <time>2004-08-06T17:01:43Z</time>
      </trkpt>
      <trkpt lat="42.89377" lon="0.7642">
        <ele>1414.7</ele>
        <time>2004-08-06T17:01:44Z</time>
      </trkpt>
      <trkpt lat="42.89378" lon="0.76423">
        <ele>1415</ele>
        <time>2004-08-06T17:01:45Z</time>
      </trkpt>
      <trkpt lat="42.89378" lon="0.76428">
        <ele>1414.6</ele>
        <time>2004-08-06T17:01:47Z</time>
      </trkpt>
      <trkpt lat="42.89379" lon="0.76444">
        <ele>1413.2</ele>
        <time>2004-08-06T17:01:49Z</time>
      </trkpt>
      <trkpt lat="42.89379" lon="0.76446">
        <ele>1412.9</ele>
        <time>2004-08-06T17:01:53Z</time>
      </trkpt>
      <trkpt lat="42.89379" lon="0.76452">
        <ele>1412.2</ele>
        <time>2004-08-06T17:01:59Z</time>
      </trkpt>
      <trkpt lat="42.89379" lon="0.76453">
        <ele>1412</ele>
        <time>2004-08-06T17:02:04Z</time>
      </trkpt>
      <trkpt lat="42.89379" lon="0.76457">
        <ele>1411.5</ele>
        <time>2004-08-06T17:02:08Z</time>
      </trkpt>
      <trkpt lat="42.89379" lon="0.76459">
        <ele>1411.3</ele>
        <time>2004-08-06T17:02:11Z</time>
      </trkpt>
      <trkpt lat="42.8938" lon="0.76463">
        <ele>1411.1</ele>
        <time>2004-08-06T17:02:12Z</time>
      </trkpt>
      <trkpt lat="42.8938" lon="0.76465">
        <ele>1410.8</ele>
        <time>2004-08-06T17:02:14Z</time>
      </trkpt>
      <trkpt lat="42.8938" lon="0.76468">
        <ele>1410.5</ele>
        <time>2004-08-06T17:02:15Z</time>
      </trkpt>
      <trkpt lat="42.8938" lon="0.76471">
        <ele>1410.2</ele>
        <time>2004-08-06T17:02:16Z</time>
      </trkpt>
      <trkpt lat="42.89386" lon="0.7648">
        <ele>1411.2</ele>
        <time>2004-08-06T17:02:23Z</time>
      </trkpt>
      <trkpt lat="42.89386" lon="0.76481">
        <ele>1411.1</ele>
        <time>2004-08-06T17:02:38Z</time>
      </trkpt>
      <trkpt lat="42.89386" lon="0.76482">
        <ele>1411.1</ele>
        <time>2004-08-06T17:02:38Z</time>
      </trkpt>
      <trkpt lat="42.89386" lon="0.76482">
        <ele>1411.1</ele>
        <time>2004-08-06T17:02:45Z</time>
      </trkpt>
      <trkpt lat="42.89386" lon="0.76484">
        <ele>1411</ele>
        <time>2004-08-06T17:02:46Z</time>
      </trkpt>
      <trkpt lat="42.89386" lon="0.76485">
        <ele>1411</ele>
        <time>2004-08-06T17:02:57Z</time>
      </trkpt>
      <trkpt lat="42.89386" lon="0.76485">
        <ele>1411</ele>
        <time>2004-08-06T17:02:58Z</time>
      </trkpt>
      <trkpt lat="42.89386" lon="0.76485">
        <ele>1411</ele>
        <time>2004-08-06T17:03:05Z</time>
      </trkpt>
      <trkpt lat="42.89386" lon="0.76485">
        <ele>1411</ele>
        <time>2004-08-06T17:03:06Z</time>
      </trkpt>
      <trkpt lat="42.89385" lon="0.76488">
        <ele>1410.5</ele>
        <time>2004-08-06T17:03:08Z</time>
      </trkpt>
      <trkpt lat="42.89384" lon="0.76489">
        <ele>1410.2</ele>
        <time>2004-08-06T17:03:09Z</time>
      </trkpt>
      <trkpt lat="42.89384" lon="0.76489">
        <ele>1410.2</ele>
        <time>2004-08-06T17:03:13Z</time>
      </trkpt>
      <trkpt lat="42.89383" lon="0.7649">
        <ele>1409.8</ele>
        <time>2004-08-06T17:03:25Z</time>
      </trkpt>
      <trkpt lat="42.89383" lon="0.7649">
        <ele>1409.8</ele>
        <time>2004-08-06T17:03:28Z</time>
      </trkpt>
      <trkpt lat="42.89383" lon="0.7649">
        <ele>1409.8</ele>
        <time>2004-08-06T17:03:39Z</time>
      </trkpt>
      <trkpt lat="42.89383" lon="0.7649">
        <ele>1409.8</ele>
        <time>2004-08-06T17:03:40Z</time>
      </trkpt>
      <trkpt lat="42.89383" lon="0.7649">
        <ele>1409.8</ele>
        <time>2004-08-06T17:03:44Z</time>
      </trkpt>
      <trkpt lat="42.89381" lon="0.76497">
        <ele>1408.8</ele>
        <time>2004-08-06T17:03:48Z</time>
      </trkpt>
      <trkpt lat="42.89383" lon="0.76507">
        <ele>1407.2</ele>
        <time>2004-08-06T17:03:52Z</time>
      </trkpt>
      <trkpt lat="42.89384" lon="0.76508">
        <ele>1407.5</ele>
        <time>2004-08-06T17:04:00Z</time>
      </trkpt>
      <trkpt lat="42.89385" lon="0.7651">
        <ele>1407.8</ele>
        <time>2004-08-06T17:04:02Z</time>
      </trkpt>
      <trkpt lat="42.89393" lon="0.76524">
        <ele>1409.6</ele>
        <time>2004-08-06T17:04:03Z</time>
      </trkpt>
      <trkpt lat="42.89394" lon="0.76526">
        <ele>1409.8</ele>
        <time>2004-08-06T17:04:04Z</time>
      </trkpt>
      <trkpt lat="42.89398" lon="0.7653">
        <ele>1410.4</ele>
        <time>2004-08-06T17:04:07Z</time>
      </trkpt>
      <trkpt lat="42.894" lon="0.76537">
        <ele>1410.6</ele>
        <time>2004-08-06T17:04:10Z</time>
      </trkpt>
      <trkpt lat="42.894" lon="0.7654">
        <ele>1410.6</ele>
        <time>2004-08-06T17:04:11Z</time>
      </trkpt>
      <trkpt lat="42.89401" lon="0.76543">
        <ele>1410.8</ele>
        <time>2004-08-06T17:04:16Z</time>
      </trkpt>
      <trkpt lat="42.89402" lon="0.76546">
        <ele>1411.1</ele>
        <time>2004-08-06T17:04:18Z</time>
      </trkpt>
      <trkpt lat="42.89404" lon="0.76551">
        <ele>1411.6</ele>
        <time>2004-08-06T17:04:22Z</time>
      </trkpt>
      <trkpt lat="42.89405" lon="0.76554">
        <ele>1412</ele>
        <time>2004-08-06T17:04:34Z</time>
      </trkpt>
      <trkpt lat="42.89406" lon="0.76557">
        <ele>1412.5</ele>
        <time>2004-08-06T17:04:35Z</time>
      </trkpt>
      <trkpt lat="42.89406" lon="0.76558">
        <ele>1412.6</ele>
        <time>2004-08-06T17:04:42Z</time>
      </trkpt>
      <trkpt lat="42.89409" lon="0.76561">
        <ele>1413.3</ele>
        <time>2004-08-06T17:04:49Z</time>
      </trkpt>
      <trkpt lat="42.89413" lon="0.76571">
        <ele>1415.9</ele>
        <time>2004-08-06T17:04:54Z</time>
      </trkpt>
      <trkpt lat="42.89412" lon="0.76572">
        <ele>1416</ele>
        <time>2004-08-06T17:04:56Z</time>
      </trkpt>
      <trkpt lat="42.89412" lon="0.76571">
        <ele>1415.7</ele>
        <time>2004-08-06T17:05:02Z</time>
      </trkpt>
      <trkpt lat="42.89412" lon="0.7657">
        <ele>1415.5</ele>
        <time>2004-08-06T17:05:05Z</time>
      </trkpt>
      <trkpt lat="42.89412" lon="0.76568">
        <ele>1415</ele>
        <time>2004-08-06T17:05:06Z</time>
      </trkpt>
      <trkpt lat="42.89413" lon="0.76567">
        <ele>1414.9</ele>
        <time>2004-08-06T17:05:14Z</time>
      </trkpt>
      <trkpt lat="42.89413" lon="0.76566">
        <ele>1414.7</ele>
        <time>2004-08-06T17:05:23Z</time>
      </trkpt>
      <trkpt lat="42.89412" lon="0.76564">
        <ele>1414.2</ele>
        <time>2004-08-06T17:05:25Z</time>
      </trkpt>
      <trkpt lat="42.89411" lon="0.76564">
        <ele>1414.1</ele>
        <time>2004-08-06T17:05:29Z</time>
      </trkpt>
      <trkpt lat="42.89411" lon="0.76564">
        <ele>1414.1</ele>
        <time>2004-08-06T17:05:31Z</time>
      </trkpt>
      <trkpt lat="42.89394" lon="0.76537">
        <ele>1409.7</ele>
        <time>2004-08-06T17:05:32Z</time>
      </trkpt>
      <trkpt lat="42.89368" lon="0.76497">
        <ele>1403.9</ele>
        <time>2004-08-06T17:05:33Z</time>
      </trkpt>
      <trkpt lat="42.89369" lon="0.76499">
        <ele>1404.2</ele>
        <time>2004-08-06T17:05:36Z</time>
      </trkpt>
      <trkpt lat="42.89407" lon="0.76551">
        <ele>1411.9</ele>
        <time>2004-08-06T17:05:43Z</time>
      </trkpt>
      <trkpt lat="42.89407" lon="0.76551">
        <ele>1411.9</ele>
        <time>2004-08-06T17:05:43Z</time>
      </trkpt>
      <trkpt lat="42.89408" lon="0.76552">
        <ele>1412.1</ele>
        <time>2004-08-06T17:05:51Z</time>
      </trkpt>
      <trkpt lat="42.89408" lon="0.76554">
        <ele>1412.3</ele>
        <time>2004-08-06T17:05:54Z</time>
      </trkpt>
      <trkpt lat="42.89409" lon="0.76554">
        <ele>1412.4</ele>
        <time>2004-08-06T17:05:56Z</time>
      </trkpt>
      <trkpt lat="42.89409" lon="0.76555">
        <ele>1412.5</ele>
        <time>2004-08-06T17:06:02Z</time>
      </trkpt>
      <trkpt lat="42.89409" lon="0.76555">
        <ele>1412.5</ele>
        <time>2004-08-06T17:06:03Z</time>
      </trkpt>
      <trkpt lat="42.89408" lon="0.76556">
        <ele>1412.6</ele>
        <time>2004-08-06T17:06:13Z</time>
      </trkpt>
      <trkpt lat="42.89408" lon="0.76556">
        <ele>1412.6</ele>
        <time>2004-08-06T17:06:25Z</time>
      </trkpt>
      <trkpt lat="42.89408" lon="0.76556">
        <ele>1412.6</ele>
        <time>2004-08-06T17:06:27Z</time>
      </trkpt>
      <trkpt lat="42.89408" lon="0.76557">
        <ele>1412.7</ele>
        <time>2004-08-06T17:06:30Z</time>
      </trkpt>
      <trkpt lat="42.89408" lon="0.76557">
        <ele>1412.7</ele>
        <time>2004-08-06T17:06:31Z</time>
      </trkpt>
      <trkpt lat="42.89408" lon="0.76557">
        <ele>1412.7</ele>
        <time>2004-08-06T17:06:33Z</time>
      </trkpt>
      <trkpt lat="42.89408" lon="0.76557">
        <ele>1412.7</ele>
        <time>2004-08-06T17:06:34Z</time>
      </trkpt>
      <trkpt lat="42.89409" lon="0.76557">
        <ele>1412.8</ele>
        <time>2004-08-06T17:06:38Z</time>
      </trkpt>
      <trkpt lat="42.89409" lon="0.76558">
        <ele>1412.9</ele>
        <time>2004-08-06T17:06:40Z</time>
      </trkpt>
      <trkpt lat="42.89409" lon="0.76558">
        <ele>1412.9</ele>
        <time>2004-08-06T17:06:41Z</time>
      </trkpt>
      <trkpt lat="42.89409" lon="0.76558">
        <ele>1412.9</ele>
        <time>2004-08-06T17:06:45Z</time>
      </trkpt>
      <trkpt lat="42.89409" lon="0.76558">
        <ele>1412.9</ele>
        <time>2004-08-06T17:06:49Z</time>
      </trkpt>
      <trkpt lat="42.89409" lon="0.76558">
        <ele>1412.9</ele>
        <time>2004-08-06T17:06:49Z</time>
      </trkpt>
      <trkpt lat="42.89409" lon="0.76558">
        <ele>1412.9</ele>
        <time>2004-08-06T17:06:53Z</time>
      </trkpt>
      <trkpt lat="42.89409" lon="0.76559">
        <ele>1413</ele>
        <time>2004-08-06T17:06:54Z</time>
      </trkpt>
      <trkpt lat="42.89409" lon="0.76559">
        <ele>1413</ele>
        <time>2004-08-06T17:07:00Z</time>
      </trkpt>
      <trkpt lat="42.89409" lon="0.76559">
        <ele>1413</ele>
        <time>2004-08-06T17:07:12Z</time>
      </trkpt>
      <trkpt lat="42.89409" lon="0.76559">
        <ele>1413</ele>
        <time>2004-08-06T17:07:12Z</time>
      </trkpt>
      <trkpt lat="42.89409" lon="0.76559">
        <ele>1413</ele>
        <time>2004-08-06T17:07:20Z</time>
      </trkpt>
      <trkpt lat="42.89409" lon="0.76559">
        <ele>1413</ele>
        <time>2004-08-06T17:07:27Z</time>
      </trkpt>
      <trkpt lat="42.89404" lon="0.76566">
        <ele>1413.5</ele>
        <time>2004-08-06T17:07:28Z</time>
      </trkpt>
      <trkpt lat="42.894" lon="0.76568">
        <ele>1413</ele>
        <time>2004-08-06T17:07:35Z</time>
      </trkpt>
      <trkpt lat="42.89394" lon="0.76573">
        <ele>1412.4</ele>
        <time>2004-08-06T17:07:39Z</time>
      </trkpt>
      <trkpt lat="42.89389" lon="0.76577">
        <ele>1411.5</ele>
        <time>2004-08-06T17:07:47Z</time>
      </trkpt>
      <trkpt lat="42.89388" lon="0.76577">
        <ele>1411.3</ele>
        <time>2004-08-06T17:07:52Z</time>
      </trkpt>
      <trkpt lat="42.8938" lon="0.7658">
        <ele>1409.9</ele>
        <time>2004-08-06T17:07:58Z</time>
      </trkpt>
      <trkpt lat="42.89375" lon="0.76582">
        <ele>1409.1</ele>
        <time>2004-08-06T17:07:58Z</time>
      </trkpt>
      <trkpt lat="42.89373" lon="0.76583">
        <ele>1408.8</ele>
        <time>2004-08-06T17:08:02Z</time>
      </trkpt>
      <trkpt lat="42.89371" lon="0.76583">
        <ele>1408.5</ele>
        <time>2004-08-06T17:08:06Z</time>
      </trkpt>
      <trkpt lat="42.8937" lon="0.76584">
        <ele>1423.8</ele>
        <time>2004-08-06T17:08:11Z</time>
      </trkpt>
      <trkpt lat="42.89365" lon="0.76586">
        <ele>1422.9</ele>
        <time>2004-08-06T17:08:13Z</time>
      </trkpt>
      <trkpt lat="42.89364" lon="0.76586">
        <ele>1422.6</ele>
        <time>2004-08-06T17:08:14Z</time>
      </trkpt>
      <trkpt lat="42.89363" lon="0.76587">
        <ele>1422.5</ele>
        <time>2004-08-06T17:08:15Z</time>
      </trkpt>
      <trkpt lat="42.89358" lon="0.76589">
        <ele>1421.3</ele>
        <time>2004-08-06T17:08:19Z</time>
      </trkpt>
      <trkpt lat="42.89357" lon="0.76589">
        <ele>1420.9</ele>
        <time>2004-08-06T17:08:29Z</time>
      </trkpt>
      <trkpt lat="42.89352" lon="0.76585">
        <ele>1418.4</ele>
        <time>2004-08-06T17:08:29Z</time>
      </trkpt>
      <trkpt lat="42.8935" lon="0.76577">
        <ele>1405.8</ele>
        <time>2004-08-06T17:08:32Z</time>
      </trkpt>
      <trkpt lat="42.8935" lon="0.76577">
        <ele>1405.8</ele>
        <time>2004-08-06T17:08:33Z</time>
      </trkpt>
      <trkpt lat="42.89347" lon="0.76579">
        <ele>1405.7</ele>
        <time>2004-08-06T17:08:40Z</time>
      </trkpt>
      <trkpt lat="42.89345" lon="0.7658">
        <ele>1405.5</ele>
        <time>2004-08-06T17:08:41Z</time>
      </trkpt>
      <trkpt lat="42.89343" lon="0.7658">
        <ele>1405.4</ele>
        <time>2004-08-06T17:08:44Z</time>
      </trkpt>
      <trkpt lat="42.89337" lon="0.76581">
        <ele>1405.1</ele>
        <time>2004-08-06T17:08:49Z</time>
      </trkpt>
      <trkpt lat="42.89336" lon="0.76581">
        <ele>1405.1</ele>
        <time>2004-08-06T17:08:51Z</time>
      </trkpt>
      <trkpt lat="42.89321" lon="0.76582">
        <ele>1398.8</ele>
        <time>2004-08-06T17:08:53Z</time>
      </trkpt>
      <trkpt lat="42.8932" lon="0.76582">
        <ele>1398.4</ele>
        <time>2004-08-06T17:08:55Z</time>
      </trkpt>
      <trkpt lat="42.89316" lon="0.76583">
        <ele>1397.3</ele>
        <time>2004-08-06T17:08:56Z</time>
      </trkpt>
      <trkpt lat="42.89311" lon="0.76585">
        <ele>1415.2</ele>
        <time>2004-08-06T17:08:57Z</time>
      </trkpt>
      <trkpt lat="42.89311" lon="0.76585">
        <ele>1415.2</ele>
        <time>2004-08-06T17:08:59Z</time>
      </trkpt>
      <trkpt lat="42.89295" lon="0.76583">
        <ele>1394.1</ele>
        <time>2004-08-06T17:09:05Z</time>
      </trkpt>
      <trkpt lat="42.89281" lon="0.76577">
        <ele>1393.7</ele>
        <time>2004-08-06T17:09:08Z</time>
      </trkpt>
      <trkpt lat="42.89279" lon="0.76576">
        <ele>1393.7</ele>
        <time>2004-08-06T17:09:12Z</time>
      </trkpt>
      <trkpt lat="42.89277" lon="0.76576">
        <ele>1393.9</ele>
        <time>2004-08-06T17:09:16Z</time>
      </trkpt>
      <trkpt lat="42.89276" lon="0.76575">
        <ele>1393.9</ele>
        <time>2004-08-06T17:09:22Z</time>
      </trkpt>
      <trkpt lat="42.89271" lon="0.76574">
        <ele>1394.4</ele>
        <time>2004-08-06T17:09:23Z</time>
      </trkpt>
      <trkpt lat="42.89265" lon="0.76571">
        <ele>1394.9</ele>
        <time>2004-08-06T17:09:23Z</time>
      </trkpt>
      <trkpt lat="42.89264" lon="0.76571">
        <ele>1395</ele>
        <time>2004-08-06T17:09:26Z</time>
      </trkpt>
      <trkpt lat="42.89262" lon="0.7657">
        <ele>1395.1</ele>
        <time>2004-08-06T17:09:27Z</time>
      </trkpt>
      <trkpt lat="42.89262" lon="0.7657">
        <ele>1395.1</ele>
        <time>2004-08-06T17:09:28Z</time>
      </trkpt>
      <trkpt lat="42.89261" lon="0.7657">
        <ele>1395.3</ele>
        <time>2004-08-06T17:09:34Z</time>
      </trkpt>
      <trkpt lat="42.8926" lon="0.7657">
        <ele>1395.5</ele>
        <time>2004-08-06T17:09:35Z</time>
      </trkpt>
      <trkpt lat="42.8926" lon="0.76569">
        <ele>1395.1</ele>
        <time>2004-08-06T17:09:43Z</time>
      </trkpt>
      <trkpt lat="42.89258" lon="0.76567">
        <ele>1394.7</ele>
        <time>2004-08-06T17:09:46Z</time>
      </trkpt>
      <trkpt lat="42.89258" lon="0.76567">
        <ele>1394.7</ele>
        <time>2004-08-06T17:09:53Z</time>
      </trkpt>
      <trkpt lat="42.89258" lon="0.76567">
        <ele>1394.7</ele>
        <time>2004-08-06T17:09:54Z</time>
      </trkpt>
      <trkpt lat="42.89257" lon="0.76566">
        <ele>1394.4</ele>
        <time>2004-08-06T17:09:57Z</time>
      </trkpt>
      <trkpt lat="42.89257" lon="0.76566">
        <ele>1394.4</ele>
        <time>2004-08-06T17:09:58Z</time>
      </trkpt>
      <trkpt lat="42.89257" lon="0.76566">
        <ele>1394.4</ele>
        <time>2004-08-06T17:10:06Z</time>
      </trkpt>
      <trkpt lat="42.89257" lon="0.76564">
        <ele>1393.7</ele>
        <time>2004-08-06T17:10:10Z</time>
      </trkpt>
      <trkpt lat="42.89259" lon="0.76563">
        <ele>1393.2</ele>
        <time>2004-08-06T17:10:10Z</time>
      </trkpt>
      <trkpt lat="42.89271" lon="0.76561">
        <ele>1391.6</ele>
        <time>2004-08-06T17:10:13Z</time>
      </trkpt>
      <trkpt lat="42.89271" lon="0.76561">
        <ele>1391.6</ele>
        <time>2004-08-06T17:10:14Z</time>
      </trkpt>
      <trkpt lat="42.8927" lon="0.76562">
        <ele>1391.9</ele>
        <time>2004-08-06T17:10:21Z</time>
      </trkpt>
      <trkpt lat="42.89266" lon="0.76561">
        <ele>1392</ele>
        <time>2004-08-06T17:10:26Z</time>
      </trkpt>
      <trkpt lat="42.89246" lon="0.76562">
        <ele>1384.5</ele>
        <time>2004-08-06T17:10:32Z</time>
      </trkpt>
      <trkpt lat="42.89246" lon="0.76562">
        <ele>1384.5</ele>
        <time>2004-08-06T17:10:34Z</time>
      </trkpt>
      <trkpt lat="42.89236" lon="0.76563">
        <ele>1382.8</ele>
        <time>2004-08-06T17:10:37Z</time>
      </trkpt>
      <trkpt lat="42.89236" lon="0.76563">
        <ele>1382.8</ele>
        <time>2004-08-06T17:10:39Z</time>
      </trkpt>
      <trkpt lat="42.89235" lon="0.76563">
        <ele>1382.6</ele>
        <time>2004-08-06T17:10:43Z</time>
      </trkpt>
      <trkpt lat="42.89234" lon="0.76563">
        <ele>1382.3</ele>
        <time>2004-08-06T17:10:49Z</time>
      </trkpt>
      <trkpt lat="42.89234" lon="0.76563">
        <ele>1382.3</ele>
        <time>2004-08-06T17:10:53Z</time>
      </trkpt>
      <trkpt lat="42.89233" lon="0.76563">
        <ele>1382</ele>
        <time>2004-08-06T17:10:55Z</time>
      </trkpt>
      <trkpt lat="42.89233" lon="0.76563">
        <ele>1382</ele>
        <time>2004-08-06T17:10:57Z</time>
      </trkpt>
      <trkpt lat="42.89233" lon="0.76563">
        <ele>1382</ele>
        <time>2004-08-06T17:11:00Z</time>
      </trkpt>
      <trkpt lat="42.89233" lon="0.76563">
        <ele>1382</ele>
        <time>2004-08-06T17:11:01Z</time>
      </trkpt>
      <trkpt lat="42.8923" lon="0.76566">
        <ele>1382.2</ele>
        <time>2004-08-06T17:11:04Z</time>
      </trkpt>
      <trkpt lat="42.89229" lon="0.76566">
        <ele>1381.9</ele>
        <time>2004-08-06T17:11:07Z</time>
      </trkpt>
      <trkpt lat="42.89228" lon="0.76566">
        <ele>1381.5</ele>
        <time>2004-08-06T17:11:14Z</time>
      </trkpt>
      <trkpt lat="42.89226" lon="0.76568">
        <ele>1381.5</ele>
        <time>2004-08-06T17:11:15Z</time>
      </trkpt>
      <trkpt lat="42.89225" lon="0.76568">
        <ele>1381.2</ele>
        <time>2004-08-06T17:11:18Z</time>
      </trkpt>
      <trkpt lat="42.89224" lon="0.76569">
        <ele>1381.1</ele>
        <time>2004-08-06T17:11:19Z</time>
      </trkpt>
      <trkpt lat="42.89224" lon="0.76569">
        <ele>1381.1</ele>
        <time>2004-08-06T17:11:23Z</time>
      </trkpt>
      <trkpt lat="42.89217" lon="0.76573">
        <ele>1379.8</ele>
        <time>2004-08-06T17:11:27Z</time>
      </trkpt>
      <trkpt lat="42.89216" lon="0.76573">
        <ele>1379.5</ele>
        <time>2004-08-06T17:11:27Z</time>
      </trkpt>
      <trkpt lat="42.89212" lon="0.76571">
        <ele>1378.1</ele>
        <time>2004-08-06T17:11:31Z</time>
      </trkpt>
      <trkpt lat="42.89212" lon="0.76571">
        <ele>1378.1</ele>
        <time>2004-08-06T17:11:31Z</time>
      </trkpt>
      <trkpt lat="42.89213" lon="0.76572">
        <ele>1378.5</ele>
        <time>2004-08-06T17:11:37Z</time>
      </trkpt>
      <trkpt lat="42.89214" lon="0.76584">
        <ele>1405.6</ele>
        <time>2004-08-06T17:11:38Z</time>
      </trkpt>
      <trkpt lat="42.89208" lon="0.76592">
        <ele>1405.4</ele>
        <time>2004-08-06T17:11:43Z</time>
      </trkpt>
      <trkpt lat="42.89203" lon="0.76603">
        <ele>1406.2</ele>
        <time>2004-08-06T17:11:45Z</time>
      </trkpt>
      <trkpt lat="42.89203" lon="0.76603">
        <ele>1406.2</ele>
        <time>2004-08-06T17:11:46Z</time>
      </trkpt>
      <trkpt lat="42.89203" lon="0.76604">
        <ele>1406.4</ele>
        <time>2004-08-06T17:11:51Z</time>
      </trkpt>
      <trkpt lat="42.89203" lon="0.76604">
        <ele>1406.4</ele>
        <time>2004-08-06T17:11:55Z</time>
      </trkpt>
      <trkpt lat="42.89203" lon="0.76604">
        <ele>1406.4</ele>
        <time>2004-08-06T17:11:57Z</time>
      </trkpt>
      <trkpt lat="42.89203" lon="0.76605">
        <ele>1406.6</ele>
        <time>2004-08-06T17:12:00Z</time>
      </trkpt>
      <trkpt lat="42.89198" lon="0.76612">
        <ele>1407.3</ele>
        <time>2004-08-06T17:12:04Z</time>
      </trkpt>
      <trkpt lat="42.89197" lon="0.76613">
        <ele>1407.4</ele>
        <time>2004-08-06T17:12:05Z</time>
      </trkpt>
      <trkpt lat="42.8919" lon="0.76618">
        <ele>1407.5</ele>
        <time>2004-08-06T17:12:06Z</time>
      </trkpt>
      <trkpt lat="42.89188" lon="0.76618">
        <ele>1407.2</ele>
        <time>2004-08-06T17:12:09Z</time>
      </trkpt>
      <trkpt lat="42.89189" lon="0.76621">
        <ele>1408.3</ele>
        <time>2004-08-06T17:12:13Z</time>
      </trkpt>
      <trkpt lat="42.89188" lon="0.76625">
        <ele>1409.3</ele>
        <time>2004-08-06T17:12:14Z</time>
      </trkpt>
      <trkpt lat="42.89187" lon="0.7663">
        <ele>1410.6</ele>
        <time>2004-08-06T17:12:16Z</time>
      </trkpt>
      <trkpt lat="42.89187" lon="0.76631">
        <ele>1410.9</ele>
        <time>2004-08-06T17:12:17Z</time>
      </trkpt>
      <trkpt lat="42.89184" lon="0.76636">
        <ele>1411.9</ele>
        <time>2004-08-06T17:12:18Z</time>
      </trkpt>
      <trkpt lat="42.89184" lon="0.76637">
        <ele>1412.2</ele>
        <time>2004-08-06T17:12:20Z</time>
      </trkpt>
      <trkpt lat="42.89182" lon="0.7664">
        <ele>1412.8</ele>
        <time>2004-08-06T17:12:25Z</time>
      </trkpt>
      <trkpt lat="42.89181" lon="0.76641">
        <ele>1413</ele>
        <time>2004-08-06T17:12:28Z</time>
      </trkpt>
      <trkpt lat="42.89175" lon="0.76642">
        <ele>1413</ele>
        <time>2004-08-06T17:12:35Z</time>
      </trkpt>
      <trkpt lat="42.89174" lon="0.76643">
        <ele>1413.2</ele>
        <time>2004-08-06T17:12:39Z</time>
      </trkpt>
      <trkpt lat="42.89156" lon="0.76645">
        <ele>1394</ele>
        <time>2004-08-06T17:12:43Z</time>
      </trkpt>
      <trkpt lat="42.89156" lon="0.76646">
        <ele>1394.6</ele>
        <time>2004-08-06T17:12:44Z</time>
      </trkpt>
      <trkpt lat="42.89154" lon="0.76643">
        <ele>1392.3</ele>
        <time>2004-08-06T17:12:47Z</time>
      </trkpt>
      <trkpt lat="42.89151" lon="0.76641">
        <ele>1390.5</ele>
        <time>2004-08-06T17:12:52Z</time>
      </trkpt>
      <trkpt lat="42.8915" lon="0.76641">
        <ele>1390.2</ele>
        <time>2004-08-06T17:12:55Z</time>
      </trkpt>
      <trkpt lat="42.8915" lon="0.76641">
        <ele>1390.2</ele>
        <time>2004-08-06T17:12:59Z</time>
      </trkpt>
      <trkpt lat="42.8915" lon="0.76641">
        <ele>1390.2</ele>
        <time>2004-08-06T17:13:02Z</time>
      </trkpt>
      <trkpt lat="42.8915" lon="0.76641">
        <ele>1390.2</ele>
        <time>2004-08-06T17:13:06Z</time>
      </trkpt>
      <trkpt lat="42.89143" lon="0.76648">
        <ele>1390.3</ele>
        <time>2004-08-06T17:13:07Z</time>
      </trkpt>
      <trkpt lat="42.89136" lon="0.76653">
        <ele>1388.7</ele>
        <time>2004-08-06T17:13:11Z</time>
      </trkpt>
      <trkpt lat="42.89134" lon="0.76654">
        <ele>1388.1</ele>
        <time>2004-08-06T17:13:12Z</time>
      </trkpt>
      <trkpt lat="42.89126" lon="0.76663">
        <ele>1386.2</ele>
        <time>2004-08-06T17:13:18Z</time>
      </trkpt>
      <trkpt lat="42.89124" lon="0.76663">
        <ele>1385.4</ele>
        <time>2004-08-06T17:13:22Z</time>
      </trkpt>
      <trkpt lat="42.89118" lon="0.76673">
        <ele>1405.9</ele>
        <time>2004-08-06T17:13:27Z</time>
      </trkpt>
      <trkpt lat="42.89097" lon="0.76694">
        <ele>1403.5</ele>
        <time>2004-08-06T17:13:35Z</time>
      </trkpt>
      <trkpt lat="42.89096" lon="0.76696">
        <ele>1404</ele>
        <time>2004-08-06T17:13:42Z</time>
      </trkpt>
      <trkpt lat="42.89094" lon="0.76698">
        <ele>1404.4</ele>
        <time>2004-08-06T17:13:43Z</time>
      </trkpt>
      <trkpt lat="42.8909" lon="0.76703">
        <ele>1405.5</ele>
        <time>2004-08-06T17:13:49Z</time>
      </trkpt>
      <trkpt lat="42.89085" lon="0.76706">
        <ele>1406</ele>
        <time>2004-08-06T17:13:56Z</time>
      </trkpt>
      <trkpt lat="42.89078" lon="0.76714">
        <ele>1379.8</ele>
        <time>2004-08-06T17:14:10Z</time>
      </trkpt>
      <trkpt lat="42.89062" lon="0.7673">
        <ele>1381.3</ele>
        <time>2004-08-06T17:14:21Z</time>
      </trkpt>
      <trkpt lat="42.89061" lon="0.76732">
        <ele>1381.5</ele>
        <time>2004-08-06T17:14:27Z</time>
      </trkpt>
      <trkpt lat="42.89053" lon="0.76745">
        <ele>1380.1</ele>
        <time>2004-08-06T17:14:32Z</time>
      </trkpt>
      <trkpt lat="42.89042" lon="0.76768">
        <ele>1388.8</ele>
        <time>2004-08-06T17:14:51Z</time>
      </trkpt>
      <trkpt lat="42.89041" lon="0.7677">
        <ele>1388.5</ele>
        <time>2004-08-06T17:14:55Z</time>
      </trkpt>
      <trkpt lat="42.89037" lon="0.76777">
        <ele>1387.6</ele>
        <time>2004-08-06T17:14:55Z</time>
      </trkpt>
      <trkpt lat="42.89036" lon="0.76779">
        <ele>1387.4</ele>
        <time>2004-08-06T17:15:10Z</time>
      </trkpt>
      <trkpt lat="42.89029" lon="0.76792">
        <ele>1386.4</ele>
        <time>2004-08-06T17:15:13Z</time>
      </trkpt>
      <trkpt lat="42.89027" lon="0.76797">
        <ele>1386.2</ele>
        <time>2004-08-06T17:15:22Z</time>
      </trkpt>
      <trkpt lat="42.89025" lon="0.768">
        <ele>1385.8</ele>
        <time>2004-08-06T17:15:23Z</time>
      </trkpt>
      <trkpt lat="42.89023" lon="0.76815">
        <ele>1385</ele>
        <time>2004-08-06T17:15:42Z</time>
      </trkpt>
      <trkpt lat="42.89022" lon="0.76817">
        <ele>1384.5</ele>
        <time>2004-08-06T17:15:44Z</time>
      </trkpt>
      <trkpt lat="42.89027" lon="0.76828">
        <ele>1386.1</ele>
        <time>2004-08-06T17:15:45Z</time>
      </trkpt>
      <trkpt lat="42.89027" lon="0.7683">
        <ele>1386</ele>
        <time>2004-08-06T17:15:50Z</time>
      </trkpt>
      <trkpt lat="42.89029" lon="0.76833">
        <ele>1387</ele>
        <time>2004-08-06T17:15:52Z</time>
      </trkpt>
      <trkpt lat="42.8903" lon="0.76833">
        <ele>1387.5</ele>
        <time>2004-08-06T17:15:57Z</time>
      </trkpt>
      <trkpt lat="42.8903" lon="0.76841">
        <ele>1391</ele>
        <time>2004-08-06T17:16:00Z</time>
      </trkpt>
      <trkpt lat="42.89032" lon="0.76847">
        <ele>1392.3</ele>
        <time>2004-08-06T17:16:01Z</time>
      </trkpt>
      <trkpt lat="42.89033" lon="0.7685">
        <ele>1392.9</ele>
        <time>2004-08-06T17:16:16Z</time>
      </trkpt>
      <trkpt lat="42.89032" lon="0.76852">
        <ele>1392.6</ele>
        <time>2004-08-06T17:16:21Z</time>
      </trkpt>
      <trkpt lat="42.89032" lon="0.76855">
        <ele>1392.7</ele>
        <time>2004-08-06T17:16:48Z</time>
      </trkpt>
      <trkpt lat="42.89033" lon="0.76862">
        <ele>1393.3</ele>
        <time>2004-08-06T17:17:01Z</time>
      </trkpt>
      <trkpt lat="42.89033" lon="0.76865">
        <ele>1393.4</ele>
        <time>2004-08-06T17:17:02Z</time>
      </trkpt>
      <trkpt lat="42.89033" lon="0.76869">
        <ele>1393.4</ele>
        <time>2004-08-06T17:17:40Z</time>
      </trkpt>
      <trkpt lat="42.89033" lon="0.7687">
        <ele>1393.4</ele>
        <time>2004-08-06T17:17:52Z</time>
      </trkpt>
      <trkpt lat="42.89032" lon="0.76871">
        <ele>1393.1</ele>
        <time>2004-08-06T17:17:52Z</time>
      </trkpt>
      <trkpt lat="42.89032" lon="0.76874">
        <ele>1393.1</ele>
        <time>2004-08-06T17:18:13Z</time>
      </trkpt>
      <trkpt lat="42.89032" lon="0.76878">
        <ele>1393</ele>
        <time>2004-08-06T17:18:23Z</time>
      </trkpt>
      <trkpt lat="42.89033" lon="0.7688">
        <ele>1393.3</ele>
        <time>2004-08-06T17:18:31Z</time>
      </trkpt>
      <trkpt lat="42.89032" lon="0.76898">
        <ele>1391.8</ele>
        <time>2004-08-06T17:18:35Z</time>
      </trkpt>
      <trkpt lat="42.89032" lon="0.76901">
        <ele>1391.6</ele>
        <time>2004-08-06T17:18:40Z</time>
      </trkpt>
      <trkpt lat="42.89032" lon="0.76901">
        <ele>1391.6</ele>
        <time>2004-08-06T17:18:42Z</time>
      </trkpt>
      <trkpt lat="42.89033" lon="0.76912">
        <ele>1391.4</ele>
        <time>2004-08-06T17:18:47Z</time>
      </trkpt>
      <trkpt lat="42.89033" lon="0.76912">
        <ele>1391.4</ele>
        <time>2004-08-06T17:18:49Z</time>
      </trkpt>
      <trkpt lat="42.89032" lon="0.76913">
        <ele>1390.9</ele>
        <time>2004-08-06T17:18:50Z</time>
      </trkpt>
      <trkpt lat="42.89029" lon="0.76925">
        <ele>1388.3</ele>
        <time>2004-08-06T17:18:51Z</time>
      </trkpt>
      <trkpt lat="42.89025" lon="0.76938">
        <ele>1387.8</ele>
        <time>2004-08-06T17:18:57Z</time>
      </trkpt>
      <trkpt lat="42.89025" lon="0.76951">
        <ele>1388.8</ele>
        <time>2004-08-06T17:19:02Z</time>
      </trkpt>
      <trkpt lat="42.89026" lon="0.76965">
        <ele>1389</ele>
        <time>2004-08-06T17:19:14Z</time>
      </trkpt>
      <trkpt lat="42.89026" lon="0.76966">
        <ele>1389</ele>
        <time>2004-08-06T17:19:16Z</time>
      </trkpt>
      <trkpt lat="42.89027" lon="0.76971">
        <ele>1388.9</ele>
        <time>2004-08-06T17:19:18Z</time>
      </trkpt>
      <trkpt lat="42.89028" lon="0.76985">
        <ele>1388</ele>
        <time>2004-08-06T17:19:21Z</time>
      </trkpt>
      <trkpt lat="42.89028" lon="0.76989">
        <ele>1387.6</ele>
        <time>2004-08-06T17:19:29Z</time>
      </trkpt>
      <trkpt lat="42.89029" lon="0.7699">
        <ele>1388</ele>
        <time>2004-08-06T17:19:29Z</time>
      </trkpt>
      <trkpt lat="42.89032" lon="0.76997">
        <ele>1389.1</ele>
        <time>2004-08-06T17:19:36Z</time>
      </trkpt>
      <trkpt lat="42.89033" lon="0.77003">
        <ele>1389.5</ele>
        <time>2004-08-06T17:19:37Z</time>
      </trkpt>
      <trkpt lat="42.89034" lon="0.77009">
        <ele>1390.2</ele>
        <time>2004-08-06T17:19:40Z</time>
      </trkpt>
      <trkpt lat="42.89035" lon="0.77014">
        <ele>1390.9</ele>
        <time>2004-08-06T17:19:43Z</time>
      </trkpt>
      <trkpt lat="42.89035" lon="0.77021">
        <ele>1391.3</ele>
        <time>2004-08-06T17:19:48Z</time>
      </trkpt>
      <trkpt lat="42.89035" lon="0.77023">
        <ele>1391.4</ele>
        <time>2004-08-06T17:19:52Z</time>
      </trkpt>
      <trkpt lat="42.89033" lon="0.77035">
        <ele>1391.2</ele>
        <time>2004-08-06T17:19:55Z</time>
      </trkpt>
      <trkpt lat="42.89033" lon="0.77035">
        <ele>1391.2</ele>
        <time>2004-08-06T17:20:00Z</time>
      </trkpt>
      <trkpt lat="42.89032" lon="0.77043">
        <ele>1391.1</ele>
        <time>2004-08-06T17:20:00Z</time>
      </trkpt>
      <trkpt lat="42.89034" lon="0.77052">
        <ele>1391.7</ele>
        <time>2004-08-06T17:20:06Z</time>
      </trkpt>
      <trkpt lat="42.89034" lon="0.77054">
        <ele>1391.6</ele>
        <time>2004-08-06T17:20:11Z</time>
      </trkpt>
      <trkpt lat="42.89035" lon="0.77059">
        <ele>1391.8</ele>
        <time>2004-08-06T17:20:11Z</time>
      </trkpt>
      <trkpt lat="42.89034" lon="0.77062">
        <ele>1391.4</ele>
        <time>2004-08-06T17:20:16Z</time>
      </trkpt>
      <trkpt lat="42.89034" lon="0.77065">
        <ele>1391.3</ele>
        <time>2004-08-06T17:20:19Z</time>
      </trkpt>
      <trkpt lat="42.89034" lon="0.77067">
        <ele>1391.2</ele>
        <time>2004-08-06T17:20:24Z</time>
      </trkpt>
      <trkpt lat="42.89034" lon="0.77068">
        <ele>1391.2</ele>
        <time>2004-08-06T17:20:27Z</time>
      </trkpt>
      <trkpt lat="42.89033" lon="0.77069">
        <ele>1390.8</ele>
        <time>2004-08-06T17:20:27Z</time>
      </trkpt>
      <trkpt lat="42.89032" lon="0.7707">
        <ele>1390.3</ele>
        <time>2004-08-06T17:20:34Z</time>
      </trkpt>
      <trkpt lat="42.89027" lon="0.77083">
        <ele>1387.7</ele>
        <time>2004-08-06T17:20:34Z</time>
      </trkpt>
      <trkpt lat="42.89026" lon="0.77084">
        <ele>1394.7</ele>
        <time>2004-08-06T17:20:42Z</time>
      </trkpt>
      <trkpt lat="42.89026" lon="0.77085">
        <ele>1394.7</ele>
        <time>2004-08-06T17:20:42Z</time>
      </trkpt>
      <trkpt lat="42.89022" lon="0.77089">
        <ele>1392.9</ele>
        <time>2004-08-06T17:20:47Z</time>
      </trkpt>
      <trkpt lat="42.89021" lon="0.77091">
        <ele>1392.7</ele>
        <time>2004-08-06T17:20:51Z</time>
      </trkpt>
      <trkpt lat="42.8902" lon="0.77095">
        <ele>1393.2</ele>
        <time>2004-08-06T17:20:57Z</time>
      </trkpt>
      <trkpt lat="42.89017" lon="0.77098">
        <ele>1392.6</ele>
        <time>2004-08-06T17:20:58Z</time>
      </trkpt>
      <trkpt lat="42.89016" lon="0.77099">
        <ele>1392.5</ele>
        <time>2004-08-06T17:21:05Z</time>
      </trkpt>
      <trkpt lat="42.89016" lon="0.77104">
        <ele>1394.5</ele>
        <time>2004-08-06T17:21:05Z</time>
      </trkpt>
      <trkpt lat="42.89013" lon="0.77106">
        <ele>1394.3</ele>
        <time>2004-08-06T17:21:06Z</time>
      </trkpt>
      <trkpt lat="42.89013" lon="0.77106">
        <ele>1394.3</ele>
        <time>2004-08-06T17:21:10Z</time>
      </trkpt>
      <trkpt lat="42.89017" lon="0.77111">
        <ele>1397.4</ele>
        <time>2004-08-06T17:21:12Z</time>
      </trkpt>
      <trkpt lat="42.89014" lon="0.77114">
        <ele>1397.6</ele>
        <time>2004-08-06T17:21:13Z</time>
      </trkpt>
      <trkpt lat="42.8901" lon="0.77116">
        <ele>1397.4</ele>
        <time>2004-08-06T17:21:21Z</time>
      </trkpt>
      <trkpt lat="42.89011" lon="0.77118">
        <ele>1398.2</ele>
        <time>2004-08-06T17:21:25Z</time>
      </trkpt>
      <trkpt lat="42.89002" lon="0.77125">
        <ele>1399</ele>
        <time>2004-08-06T17:21:31Z</time>
      </trkpt>
      <trkpt lat="42.89001" lon="0.77125">
        <ele>1398.9</ele>
        <time>2004-08-06T17:21:32Z</time>
      </trkpt>
      <trkpt lat="42.88997" lon="0.7713">
        <ele>1374</ele>
        <time>2004-08-06T17:21:35Z</time>
      </trkpt>
      <trkpt lat="42.88998" lon="0.77131">
        <ele>1374.4</ele>
        <time>2004-08-06T17:21:36Z</time>
      </trkpt>
      <trkpt lat="42.88998" lon="0.77131">
        <ele>1374.4</ele>
        <time>2004-08-06T17:21:40Z</time>
      </trkpt>
      <trkpt lat="42.88998" lon="0.77132">
        <ele>1374.7</ele>
        <time>2004-08-06T17:21:44Z</time>
      </trkpt>
      <trkpt lat="42.88998" lon="0.77135">
        <ele>1375.8</ele>
        <time>2004-08-06T17:21:48Z</time>
      </trkpt>
      <trkpt lat="42.88996" lon="0.77135">
        <ele>1375.6</ele>
        <time>2004-08-06T17:21:52Z</time>
      </trkpt>
      <trkpt lat="42.88995" lon="0.77136">
        <ele>1375.8</ele>
        <time>2004-08-06T17:21:54Z</time>
      </trkpt>
      <trkpt lat="42.88992" lon="0.77137">
        <ele>1375.7</ele>
        <time>2004-08-06T17:21:58Z</time>
      </trkpt>
      <trkpt lat="42.88991" lon="0.77139">
        <ele>1376.3</ele>
        <time>2004-08-06T17:21:59Z</time>
      </trkpt>
      <trkpt lat="42.8899" lon="0.7714">
        <ele>1376.5</ele>
        <time>2004-08-06T17:22:03Z</time>
      </trkpt>
      <trkpt lat="42.88983" lon="0.77152">
        <ele>1379.1</ele>
        <time>2004-08-06T17:22:04Z</time>
      </trkpt>
      <trkpt lat="42.88977" lon="0.77162">
        <ele>1378.5</ele>
        <time>2004-08-06T17:22:11Z</time>
      </trkpt>
      <trkpt lat="42.88966" lon="0.77177">
        <ele>1389</ele>
        <time>2004-08-06T17:22:14Z</time>
      </trkpt>
      <trkpt lat="42.88963" lon="0.77184">
        <ele>1388.5</ele>
        <time>2004-08-06T17:22:15Z</time>
      </trkpt>
      <trkpt lat="42.88963" lon="0.77184">
        <ele>1388.5</ele>
        <time>2004-08-06T17:22:16Z</time>
      </trkpt>
      <trkpt lat="42.88958" lon="0.77187">
        <ele>1387.1</ele>
        <time>2004-08-06T17:22:19Z</time>
      </trkpt>
      <trkpt lat="42.88958" lon="0.77187">
        <ele>1387.1</ele>
        <time>2004-08-06T17:22:21Z</time>
      </trkpt>
      <trkpt lat="42.88958" lon="0.77187">
        <ele>1387.1</ele>
        <time>2004-08-06T17:22:22Z</time>
      </trkpt>
      <trkpt lat="42.88957" lon="0.77187">
        <ele>1386.8</ele>
        <time>2004-08-06T17:22:22Z</time>
      </trkpt>
      <trkpt lat="42.88957" lon="0.77187">
        <ele>1386.8</ele>
        <time>2004-08-06T17:22:25Z</time>
      </trkpt>
      <trkpt lat="42.88957" lon="0.77187">
        <ele>1386.8</ele>
        <time>2004-08-06T17:22:26Z</time>
      </trkpt>
      <trkpt lat="42.88952" lon="0.77192">
        <ele>1385.8</ele>
        <time>2004-08-06T17:22:27Z</time>
      </trkpt>
      <trkpt lat="42.88953" lon="0.77191">
        <ele>1386</ele>
        <time>2004-08-06T17:22:29Z</time>
      </trkpt>
      <trkpt lat="42.88952" lon="0.77191">
        <ele>1385.7</ele>
        <time>2004-08-06T17:22:30Z</time>
      </trkpt>
      <trkpt lat="42.88949" lon="0.77194">
        <ele>1385.2</ele>
        <time>2004-08-06T17:22:31Z</time>
      </trkpt>
      <trkpt lat="42.88948" lon="0.77193">
        <ele>1384.7</ele>
        <time>2004-08-06T17:22:34Z</time>
      </trkpt>
      <trkpt lat="42.88948" lon="0.77193">
        <ele>1384.7</ele>
        <time>2004-08-06T17:22:35Z</time>
      </trkpt>
      <trkpt lat="42.88948" lon="0.77193">
        <ele>1384.7</ele>
        <time>2004-08-06T17:22:37Z</time>
      </trkpt>
      <trkpt lat="42.88946" lon="0.77192">
        <ele>1383.9</ele>
        <time>2004-08-06T17:22:38Z</time>
      </trkpt>
      <trkpt lat="42.88946" lon="0.77192">
        <ele>1383.9</ele>
        <time>2004-08-06T17:22:42Z</time>
      </trkpt>
      <trkpt lat="42.88945" lon="0.77192">
        <ele>1383.5</ele>
        <time>2004-08-06T17:22:45Z</time>
      </trkpt>
      <trkpt lat="42.88945" lon="0.77192">
        <ele>1383.5</ele>
        <time>2004-08-06T17:22:48Z</time>
      </trkpt>
      <trkpt lat="42.88944" lon="0.77191">
        <ele>1383</ele>
        <time>2004-08-06T17:22:49Z</time>
      </trkpt>
      <trkpt lat="42.88944" lon="0.77191">
        <ele>1383</ele>
        <time>2004-08-06T17:22:50Z</time>
      </trkpt>
      <trkpt lat="42.88944" lon="0.77191">
        <ele>1383</ele>
        <time>2004-08-06T17:22:52Z</time>
      </trkpt>
      <trkpt lat="42.88944" lon="0.77191">
        <ele>1383</ele>
        <time>2004-08-06T17:22:53Z</time>
      </trkpt>
      <trkpt lat="42.88937" lon="0.77197">
        <ele>1382.2</ele>
        <time>2004-08-06T17:22:54Z</time>
      </trkpt>
      <trkpt lat="42.88936" lon="0.77199">
        <ele>1382.4</ele>
        <time>2004-08-06T17:22:57Z</time>
      </trkpt>
      <trkpt lat="42.88932" lon="0.77206">
        <ele>1382.9</ele>
        <time>2004-08-06T17:22:58Z</time>
      </trkpt>
      <trkpt lat="42.8893" lon="0.77208">
        <ele>1382.9</ele>
        <time>2004-08-06T17:23:01Z</time>
      </trkpt>
      <trkpt lat="42.88929" lon="0.7721">
        <ele>1383</ele>
        <time>2004-08-06T17:23:05Z</time>
      </trkpt>
      <trkpt lat="42.88929" lon="0.77213">
        <ele>1383.4</ele>
        <time>2004-08-06T17:23:09Z</time>
      </trkpt>
      <trkpt lat="42.88931" lon="0.77224">
        <ele>1384.5</ele>
        <time>2004-08-06T17:23:15Z</time>
      </trkpt>
      <trkpt lat="42.8893" lon="0.77226">
        <ele>1384.3</ele>
        <time>2004-08-06T17:23:19Z</time>
      </trkpt>
      <trkpt lat="42.88929" lon="0.77228">
        <ele>1384</ele>
        <time>2004-08-06T17:23:20Z</time>
      </trkpt>
      <trkpt lat="42.88922" lon="0.77242">
        <ele>1380.5</ele>
        <time>2004-08-06T17:23:23Z</time>
      </trkpt>
      <trkpt lat="42.88919" lon="0.77256">
        <ele>1384</ele>
        <time>2004-08-06T17:23:25Z</time>
      </trkpt>
      <trkpt lat="42.88919" lon="0.77257">
        <ele>1384.9</ele>
        <time>2004-08-06T17:23:28Z</time>
      </trkpt>
      <trkpt lat="42.88919" lon="0.77263">
        <ele>1389.9</ele>
        <time>2004-08-06T17:23:28Z</time>
      </trkpt>
      <trkpt lat="42.88918" lon="0.77267">
        <ele>1392.5</ele>
        <time>2004-08-06T17:23:29Z</time>
      </trkpt>
      <trkpt lat="42.88913" lon="0.77278">
        <ele>1370.5</ele>
        <time>2004-08-06T17:23:32Z</time>
      </trkpt>
      <trkpt lat="42.88913" lon="0.77279">
        <ele>1370.5</ele>
        <time>2004-08-06T17:23:33Z</time>
      </trkpt>
      <trkpt lat="42.88912" lon="0.77285">
        <ele>1370.8</ele>
        <time>2004-08-06T17:23:37Z</time>
      </trkpt>
      <trkpt lat="42.88912" lon="0.77293">
        <ele>1372</ele>
        <time>2004-08-06T17:23:39Z</time>
      </trkpt>
      <trkpt lat="42.88913" lon="0.77296">
        <ele>1372.7</ele>
        <time>2004-08-06T17:23:47Z</time>
      </trkpt>
      <trkpt lat="42.88913" lon="0.77299">
        <ele>1373.4</ele>
        <time>2004-08-06T17:23:51Z</time>
      </trkpt>
      <trkpt lat="42.88913" lon="0.77301">
        <ele>1374</ele>
        <time>2004-08-06T17:23:59Z</time>
      </trkpt>
      <trkpt lat="42.88913" lon="0.77319">
        <ele>1381.6</ele>
        <time>2004-08-06T17:23:59Z</time>
      </trkpt>
      <trkpt lat="42.88912" lon="0.77329">
        <ele>1388</ele>
        <time>2004-08-06T17:24:04Z</time>
      </trkpt>
      <trkpt lat="42.88911" lon="0.77331">
        <ele>1388.2</ele>
        <time>2004-08-06T17:24:11Z</time>
      </trkpt>
      <trkpt lat="42.88906" lon="0.77349">
        <ele>1389.3</ele>
        <time>2004-08-06T17:24:18Z</time>
      </trkpt>
      <trkpt lat="42.88906" lon="0.7735">
        <ele>1389.2</ele>
        <time>2004-08-06T17:24:18Z</time>
      </trkpt>
      <trkpt lat="42.88906" lon="0.77361">
        <ele>1388.9</ele>
        <time>2004-08-06T17:24:26Z</time>
      </trkpt>
      <trkpt lat="42.88903" lon="0.77366">
        <ele>1388.6</ele>
        <time>2004-08-06T17:24:30Z</time>
      </trkpt>
      <trkpt lat="42.88901" lon="0.77367">
        <ele>1388.4</ele>
        <time>2004-08-06T17:24:35Z</time>
      </trkpt>
      <trkpt lat="42.88901" lon="0.77373">
        <ele>1389</ele>
        <time>2004-08-06T17:24:45Z</time>
      </trkpt>
      <trkpt lat="42.88902" lon="0.77373">
        <ele>1389.2</ele>
        <time>2004-08-06T17:24:46Z</time>
      </trkpt>
      <trkpt lat="42.88902" lon="0.77374">
        <ele>1389.3</ele>
        <time>2004-08-06T17:24:53Z</time>
      </trkpt>
      <trkpt lat="42.88901" lon="0.77385">
        <ele>1391.1</ele>
        <time>2004-08-06T17:25:01Z</time>
      </trkpt>
      <trkpt lat="42.88901" lon="0.77393">
        <ele>1393.2</ele>
        <time>2004-08-06T17:25:07Z</time>
      </trkpt>
      <trkpt lat="42.889" lon="0.77394">
        <ele>1393.2</ele>
        <time>2004-08-06T17:25:11Z</time>
      </trkpt>
      <trkpt lat="42.8889" lon="0.77402">
        <ele>1391.5</ele>
        <time>2004-08-06T17:25:17Z</time>
      </trkpt>
      <trkpt lat="42.88889" lon="0.77403">
        <ele>1391.3</ele>
        <time>2004-08-06T17:25:19Z</time>
      </trkpt>
      <trkpt lat="42.88883" lon="0.7742">
        <ele>1398.5</ele>
        <time>2004-08-06T17:25:24Z</time>
      </trkpt>
      <trkpt lat="42.88882" lon="0.77432">
        <ele>1398.3</ele>
        <time>2004-08-06T17:25:25Z</time>
      </trkpt>
      <trkpt lat="42.88881" lon="0.77433">
        <ele>1398</ele>
        <time>2004-08-06T17:25:27Z</time>
      </trkpt>
      <trkpt lat="42.88881" lon="0.77434">
        <ele>1398</ele>
        <time>2004-08-06T17:25:32Z</time>
      </trkpt>
      <trkpt lat="42.8888" lon="0.77438">
        <ele>1397.8</ele>
        <time>2004-08-06T17:25:44Z</time>
      </trkpt>
      <trkpt lat="42.88879" lon="0.77439">
        <ele>1397.5</ele>
        <time>2004-08-06T17:25:46Z</time>
      </trkpt>
      <trkpt lat="42.88877" lon="0.77443">
        <ele>1397.1</ele>
        <time>2004-08-06T17:25:55Z</time>
      </trkpt>
      <trkpt lat="42.88875" lon="0.77447">
        <ele>1396.8</ele>
        <time>2004-08-06T17:25:56Z</time>
      </trkpt>
      <trkpt lat="42.88874" lon="0.7745">
        <ele>1396.8</ele>
        <time>2004-08-06T17:26:05Z</time>
      </trkpt>
      <trkpt lat="42.88873" lon="0.77453">
        <ele>1396.7</ele>
        <time>2004-08-06T17:26:07Z</time>
      </trkpt>
      <trkpt lat="42.88867" lon="0.77462">
        <ele>1395.9</ele>
        <time>2004-08-06T17:26:09Z</time>
      </trkpt>
      <trkpt lat="42.88865" lon="0.77465">
        <ele>1395.6</ele>
        <time>2004-08-06T17:26:13Z</time>
      </trkpt>
      <trkpt lat="42.88865" lon="0.77465">
        <ele>1395.6</ele>
        <time>2004-08-06T17:26:14Z</time>
      </trkpt>
      <trkpt lat="42.88863" lon="0.77467">
        <ele>1395.2</ele>
        <time>2004-08-06T17:26:15Z</time>
      </trkpt>
      <trkpt lat="42.88859" lon="0.77471">
        <ele>1394.5</ele>
        <time>2004-08-06T17:26:18Z</time>
      </trkpt>
      <trkpt lat="42.88858" lon="0.77471">
        <ele>1394.3</ele>
        <time>2004-08-06T17:26:21Z</time>
      </trkpt>
      <trkpt lat="42.88858" lon="0.77471">
        <ele>1394.3</ele>
        <time>2004-08-06T17:26:22Z</time>
      </trkpt>
      <trkpt lat="42.88857" lon="0.77472">
        <ele>1394.1</ele>
        <time>2004-08-06T17:26:25Z</time>
      </trkpt>
      <trkpt lat="42.88857" lon="0.77472">
        <ele>1394.1</ele>
        <time>2004-08-06T17:26:29Z</time>
      </trkpt>
      <trkpt lat="42.88857" lon="0.77472">
        <ele>1394.1</ele>
        <time>2004-08-06T17:26:33Z</time>
      </trkpt>
      <trkpt lat="42.88856" lon="0.77474">
        <ele>1393.9</ele>
        <time>2004-08-06T17:26:33Z</time>
      </trkpt>
      <trkpt lat="42.88853" lon="0.7748">
        <ele>1393.1</ele>
        <time>2004-08-06T17:26:34Z</time>
      </trkpt>
      <trkpt lat="42.88847" lon="0.77496">
        <ele>1390.2</ele>
        <time>2004-08-06T17:26:37Z</time>
      </trkpt>
      <trkpt lat="42.88847" lon="0.77497">
        <ele>1390.1</ele>
        <time>2004-08-06T17:26:37Z</time>
      </trkpt>
      <trkpt lat="42.88845" lon="0.77504">
        <ele>1395.1</ele>
        <time>2004-08-06T17:26:49Z</time>
      </trkpt>
      <trkpt lat="42.88841" lon="0.77522">
        <ele>1400.7</ele>
        <time>2004-08-06T17:26:49Z</time>
      </trkpt>
      <trkpt lat="42.88841" lon="0.77525">
        <ele>1401.8</ele>
        <time>2004-08-06T17:26:56Z</time>
      </trkpt>
      <trkpt lat="42.88841" lon="0.77525">
        <ele>1401.8</ele>
        <time>2004-08-06T17:27:12Z</time>
      </trkpt>
      <trkpt lat="42.88841" lon="0.77527">
        <ele>1402.5</ele>
        <time>2004-08-06T17:27:15Z</time>
      </trkpt>
      <trkpt lat="42.88835" lon="0.77541">
        <ele>1405.3</ele>
        <time>2004-08-06T17:27:16Z</time>
      </trkpt>
      <trkpt lat="42.88834" lon="0.77545">
        <ele>1405.8</ele>
        <time>2004-08-06T17:27:19Z</time>
      </trkpt>
      <trkpt lat="42.88833" lon="0.7755">
        <ele>1388.8</ele>
        <time>2004-08-06T17:27:19Z</time>
      </trkpt>
      <trkpt lat="42.88827" lon="0.77558">
        <ele>1390.3</ele>
        <time>2004-08-06T17:27:23Z</time>
      </trkpt>
      <trkpt lat="42.88826" lon="0.77563">
        <ele>1391.7</ele>
        <time>2004-08-06T17:27:26Z</time>
      </trkpt>
      <trkpt lat="42.88824" lon="0.77572">
        <ele>1394.2</ele>
        <time>2004-08-06T17:27:27Z</time>
      </trkpt>
      <trkpt lat="42.88823" lon="0.77574">
        <ele>1394.6</ele>
        <time>2004-08-06T17:27:30Z</time>
      </trkpt>
      <trkpt lat="42.88823" lon="0.77575">
        <ele>1394.9</ele>
        <time>2004-08-06T17:27:32Z</time>
      </trkpt>
      <trkpt lat="42.88822" lon="0.77577">
        <ele>1395</ele>
        <time>2004-08-06T17:27:35Z</time>
      </trkpt>
      <trkpt lat="42.88822" lon="0.77579">
        <ele>1395.4</ele>
        <time>2004-08-06T17:27:38Z</time>
      </trkpt>
      <trkpt lat="42.8882" lon="0.77587">
        <ele>1400.3</ele>
        <time>2004-08-06T17:27:39Z</time>
      </trkpt>
      <trkpt lat="42.8882" lon="0.77587">
        <ele>1400.3</ele>
        <time>2004-08-06T17:27:40Z</time>
      </trkpt>
      <trkpt lat="42.8882" lon="0.77588">
        <ele>1400.3</ele>
        <time>2004-08-06T17:27:43Z</time>
      </trkpt>
      <trkpt lat="42.8882" lon="0.77589">
        <ele>1400.2</ele>
        <time>2004-08-06T17:27:50Z</time>
      </trkpt>
      <trkpt lat="42.88817" lon="0.776">
        <ele>1399.5</ele>
        <time>2004-08-06T17:27:51Z</time>
      </trkpt>
      <trkpt lat="42.88816" lon="0.77601">
        <ele>1399.3</ele>
        <time>2004-08-06T17:27:53Z</time>
      </trkpt>
      <trkpt lat="42.88815" lon="0.77604">
        <ele>1399.2</ele>
        <time>2004-08-06T17:27:54Z</time>
      </trkpt>
      <trkpt lat="42.88815" lon="0.77604">
        <ele>1399.2</ele>
        <time>2004-08-06T17:27:55Z</time>
      </trkpt>
      <trkpt lat="42.88815" lon="0.77604">
        <ele>1399.2</ele>
        <time>2004-08-06T17:27:57Z</time>
      </trkpt>
      <trkpt lat="42.88813" lon="0.77604">
        <ele>1399</ele>
        <time>2004-08-06T17:27:58Z</time>
      </trkpt>
      <trkpt lat="42.88813" lon="0.77604">
        <ele>1399</ele>
        <time>2004-08-06T17:27:58Z</time>
      </trkpt>
      <trkpt lat="42.8881" lon="0.77608">
        <ele>1398.6</ele>
        <time>2004-08-06T17:27:59Z</time>
      </trkpt>
      <trkpt lat="42.88808" lon="0.77613">
        <ele>1398.5</ele>
        <time>2004-08-06T17:28:01Z</time>
      </trkpt>
      <trkpt lat="42.88808" lon="0.77614">
        <ele>1398.6</ele>
        <time>2004-08-06T17:28:02Z</time>
      </trkpt>
      <trkpt lat="42.88806" lon="0.77619">
        <ele>1398.6</ele>
        <time>2004-08-06T17:28:03Z</time>
      </trkpt>
      <trkpt lat="42.88806" lon="0.7762">
        <ele>1398.6</ele>
        <time>2004-08-06T17:28:06Z</time>
      </trkpt>
      <trkpt lat="42.888" lon="0.77634">
        <ele>1398.7</ele>
        <time>2004-08-06T17:28:06Z</time>
      </trkpt>
      <trkpt lat="42.88798" lon="0.77638">
        <ele>1398.7</ele>
        <time>2004-08-06T17:28:09Z</time>
      </trkpt>
      <trkpt lat="42.88797" lon="0.7764">
        <ele>1398.7</ele>
        <time>2004-08-06T17:28:10Z</time>
      </trkpt>
      <trkpt lat="42.88794" lon="0.77646">
        <ele>1398.5</ele>
        <time>2004-08-06T17:28:12Z</time>
      </trkpt>
      <trkpt lat="42.88792" lon="0.77652">
        <ele>1398.4</ele>
        <time>2004-08-06T17:28:14Z</time>
      </trkpt>
      <trkpt lat="42.88792" lon="0.77653">
        <ele>1398.4</ele>
        <time>2004-08-06T17:28:17Z</time>
      </trkpt>
      <trkpt lat="42.88788" lon="0.77662">
        <ele>1397.8</ele>
        <time>2004-08-06T17:28:17Z</time>
      </trkpt>
      <trkpt lat="42.88785" lon="0.77666">
        <ele>1397.3</ele>
        <time>2004-08-06T17:28:18Z</time>
      </trkpt>
      <trkpt lat="42.88784" lon="0.77669">
        <ele>1399.1</ele>
        <time>2004-08-06T17:28:20Z</time>
      </trkpt>
      <trkpt lat="42.88781" lon="0.77674">
        <ele>1398.5</ele>
        <time>2004-08-06T17:28:21Z</time>
      </trkpt>
      <trkpt lat="42.8878" lon="0.77675">
        <ele>1398.3</ele>
        <time>2004-08-06T17:28:24Z</time>
      </trkpt>
      <trkpt lat="42.88774" lon="0.77682">
        <ele>1397.4</ele>
        <time>2004-08-06T17:28:25Z</time>
      </trkpt>
      <trkpt lat="42.88765" lon="0.77689">
        <ele>1396.5</ele>
        <time>2004-08-06T17:28:28Z</time>
      </trkpt>
      <trkpt lat="42.88763" lon="0.77693">
        <ele>1396.6</ele>
        <time>2004-08-06T17:28:29Z</time>
      </trkpt>
      <trkpt lat="42.88762" lon="0.77697">
        <ele>1396.8</ele>
        <time>2004-08-06T17:28:32Z</time>
      </trkpt>
      <trkpt lat="42.88761" lon="0.77708">
        <ele>1397.1</ele>
        <time>2004-08-06T17:28:33Z</time>
      </trkpt>
      <trkpt lat="42.88762" lon="0.77715">
        <ele>1397.2</ele>
        <time>2004-08-06T17:28:33Z</time>
      </trkpt>
      <trkpt lat="42.88763" lon="0.77715">
        <ele>1397.3</ele>
        <time>2004-08-06T17:28:34Z</time>
      </trkpt>
      <trkpt lat="42.88765" lon="0.77721">
        <ele>1397.3</ele>
        <time>2004-08-06T17:28:36Z</time>
      </trkpt>
      <trkpt lat="42.88765" lon="0.77722">
        <ele>1397.2</ele>
        <time>2004-08-06T17:28:37Z</time>
      </trkpt>
      <trkpt lat="42.88765" lon="0.77725">
        <ele>1397.1</ele>
        <time>2004-08-06T17:28:37Z</time>
      </trkpt>
      <trkpt lat="42.88764" lon="0.77725">
        <ele>1397</ele>
        <time>2004-08-06T17:28:39Z</time>
      </trkpt>
      <trkpt lat="42.88765" lon="0.77726">
        <ele>1397.1</ele>
        <time>2004-08-06T17:28:40Z</time>
      </trkpt>
      <trkpt lat="42.88765" lon="0.77726">
        <ele>1397.1</ele>
        <time>2004-08-06T17:28:41Z</time>
      </trkpt>
      <trkpt lat="42.88769" lon="0.77724">
        <ele>1397.5</ele>
        <time>2004-08-06T17:28:43Z</time>
      </trkpt>
      <trkpt lat="42.88776" lon="0.77727">
        <ele>1398.2</ele>
        <time>2004-08-06T17:28:45Z</time>
      </trkpt>
      <trkpt lat="42.88778" lon="0.77727">
        <ele>1398.4</ele>
        <time>2004-08-06T17:28:48Z</time>
      </trkpt>
      <trkpt lat="42.88781" lon="0.77727">
        <ele>1398.7</ele>
        <time>2004-08-06T17:28:51Z</time>
      </trkpt>
      <trkpt lat="42.88788" lon="0.77727">
        <ele>1399.6</ele>
        <time>2004-08-06T17:28:52Z</time>
      </trkpt>
      <trkpt lat="42.88789" lon="0.77727">
        <ele>1399.7</ele>
        <time>2004-08-06T17:28:53Z</time>
      </trkpt>
      <trkpt lat="42.88792" lon="0.77728">
        <ele>1400</ele>
        <time>2004-08-06T17:28:55Z</time>
      </trkpt>
      <trkpt lat="42.88795" lon="0.77729">
        <ele>1400.4</ele>
        <time>2004-08-06T17:28:56Z</time>
      </trkpt>
      <trkpt lat="42.88796" lon="0.77729">
        <ele>1400.5</ele>
        <time>2004-08-06T17:28:56Z</time>
      </trkpt>
      <trkpt lat="42.88796" lon="0.77729">
        <ele>1400.5</ele>
        <time>2004-08-06T17:28:57Z</time>
      </trkpt>
      <trkpt lat="42.88798" lon="0.77729">
        <ele>1400.7</ele>
        <time>2004-08-06T17:29:00Z</time>
      </trkpt>
      <trkpt lat="42.888" lon="0.7773">
        <ele>1400.9</ele>
        <time>2004-08-06T17:29:00Z</time>
      </trkpt>
      <trkpt lat="42.888" lon="0.7773">
        <ele>1400.9</ele>
        <time>2004-08-06T17:29:01Z</time>
      </trkpt>
      <trkpt lat="42.88801" lon="0.7773">
        <ele>1401</ele>
        <time>2004-08-06T17:29:03Z</time>
      </trkpt>
      <trkpt lat="42.88804" lon="0.7773">
        <ele>1401.4</ele>
        <time>2004-08-06T17:29:04Z</time>
      </trkpt>
      <trkpt lat="42.88806" lon="0.77731">
        <ele>1401.6</ele>
        <time>2004-08-06T17:29:11Z</time>
      </trkpt>
      <trkpt lat="42.88808" lon="0.77732">
        <ele>1401.8</ele>
        <time>2004-08-06T17:29:14Z</time>
      </trkpt>
      <trkpt lat="42.88811" lon="0.77734">
        <ele>1402.2</ele>
        <time>2004-08-06T17:29:15Z</time>
      </trkpt>
      <trkpt lat="42.88812" lon="0.77734">
        <ele>1402.3</ele>
        <time>2004-08-06T17:29:15Z</time>
      </trkpt>
      <trkpt lat="42.88814" lon="0.77736">
        <ele>1402.5</ele>
        <time>2004-08-06T17:29:19Z</time>
      </trkpt>
      <trkpt lat="42.88818" lon="0.7774">
        <ele>1403.1</ele>
        <time>2004-08-06T17:29:19Z</time>
      </trkpt>
      <trkpt lat="42.88819" lon="0.77741">
        <ele>1403.3</ele>
        <time>2004-08-06T17:29:22Z</time>
      </trkpt>
      <trkpt lat="42.8882" lon="0.77742">
        <ele>1403.4</ele>
        <time>2004-08-06T17:29:23Z</time>
      </trkpt>
      <trkpt lat="42.88823" lon="0.77746">
        <ele>1404</ele>
        <time>2004-08-06T17:29:24Z</time>
      </trkpt>
      <trkpt lat="42.88823" lon="0.77746">
        <ele>1404</ele>
        <time>2004-08-06T17:29:26Z</time>
      </trkpt>
      <trkpt lat="42.88823" lon="0.77746">
        <ele>1404</ele>
        <time>2004-08-06T17:29:27Z</time>
      </trkpt>
      <trkpt lat="42.88823" lon="0.77746">
        <ele>1404</ele>
        <time>2004-08-06T17:29:28Z</time>
      </trkpt>
      <trkpt lat="42.88823" lon="0.77746">
        <ele>1404</ele>
        <time>2004-08-06T17:29:31Z</time>
      </trkpt>
      <trkpt lat="42.88823" lon="0.77746">
        <ele>1404</ele>
        <time>2004-08-06T17:29:33Z</time>
      </trkpt>
      <trkpt lat="42.88823" lon="0.77746">
        <ele>1404</ele>
        <time>2004-08-06T17:29:34Z</time>
      </trkpt>
      <trkpt lat="42.88822" lon="0.77746">
        <ele>1403.9</ele>
        <time>2004-08-06T17:29:37Z</time>
      </trkpt>
      <trkpt lat="42.88819" lon="0.77741">
        <ele>1403.3</ele>
        <time>2004-08-06T17:29:39Z</time>
      </trkpt>
      <trkpt lat="42.88817" lon="0.77739">
        <ele>1403</ele>
        <time>2004-08-06T17:29:41Z</time>
      </trkpt>
      <trkpt lat="42.88816" lon="0.77738">
        <ele>1402.8</ele>
        <time>2004-08-06T17:29:42Z</time>
      </trkpt>
      <trkpt lat="42.88811" lon="0.77733">
        <ele>1402.2</ele>
        <time>2004-08-06T17:29:42Z</time>
      </trkpt>
      <trkpt lat="42.8881" lon="0.77732">
        <ele>1402</ele>
        <time>2004-08-06T17:29:45Z</time>
      </trkpt>
      <trkpt lat="42.88807" lon="0.77731">
        <ele>1401.7</ele>
        <time>2004-08-06T17:29:47Z</time>
      </trkpt>
      <trkpt lat="42.88806" lon="0.7773">
        <ele>1401.6</ele>
        <time>2004-08-06T17:29:53Z</time>
      </trkpt>
      <trkpt lat="42.88805" lon="0.7773">
        <ele>1401.5</ele>
        <time>2004-08-06T17:29:57Z</time>
      </trkpt>
      <trkpt lat="42.88803" lon="0.77729">
        <ele>1401.3</ele>
        <time>2004-08-06T17:29:58Z</time>
      </trkpt>
      <trkpt lat="42.88798" lon="0.77728">
        <ele>1400.7</ele>
        <time>2004-08-06T17:30:00Z</time>
      </trkpt>
      <trkpt lat="42.88797" lon="0.77728">
        <ele>1400.6</ele>
        <time>2004-08-06T17:30:09Z</time>
      </trkpt>
      <trkpt lat="42.88795" lon="0.77727">
        <ele>1400.4</ele>
        <time>2004-08-06T17:30:16Z</time>
      </trkpt>
      <trkpt lat="42.88792" lon="0.77726">
        <ele>1400</ele>
        <time>2004-08-06T17:30:18Z</time>
      </trkpt>
      <trkpt lat="42.88789" lon="0.77726">
        <ele>1399.7</ele>
        <time>2004-08-06T17:30:21Z</time>
      </trkpt>
      <trkpt lat="42.88786" lon="0.77726">
        <ele>1399.3</ele>
        <time>2004-08-06T17:30:25Z</time>
      </trkpt>
      <trkpt lat="42.88785" lon="0.77725">
        <ele>1399.2</ele>
        <time>2004-08-06T17:30:27Z</time>
      </trkpt>
      <trkpt lat="42.88783" lon="0.77726">
        <ele>1399</ele>
        <time>2004-08-06T17:30:29Z</time>
      </trkpt>
      <trkpt lat="42.88778" lon="0.77725">
        <ele>1398.4</ele>
        <time>2004-08-06T17:30:31Z</time>
      </trkpt>
      <trkpt lat="42.88776" lon="0.77725">
        <ele>1398.2</ele>
        <time>2004-08-06T17:30:37Z</time>
      </trkpt>
      <trkpt lat="42.88775" lon="0.77724">
        <ele>1398.1</ele>
        <time>2004-08-06T17:30:39Z</time>
      </trkpt>
      <trkpt lat="42.88767" lon="0.7772">
        <ele>1397.5</ele>
        <time>2004-08-06T17:30:44Z</time>
      </trkpt>
      <trkpt lat="42.88765" lon="0.77724">
        <ele>1397.2</ele>
        <time>2004-08-06T17:30:49Z</time>
      </trkpt>
      <trkpt lat="42.88767" lon="0.77726">
        <ele>1397.3</ele>
        <time>2004-08-06T17:30:52Z</time>
      </trkpt>
      <trkpt lat="42.88767" lon="0.77727">
        <ele>1397.2</ele>
        <time>2004-08-06T17:30:55Z</time>
      </trkpt>
      <trkpt lat="42.88767" lon="0.77731">
        <ele>1397</ele>
        <time>2004-08-06T17:30:55Z</time>
      </trkpt>
      <trkpt lat="42.88769" lon="0.77745">
        <ele>1396.5</ele>
        <time>2004-08-06T17:31:02Z</time>
      </trkpt>
      <trkpt lat="42.88769" lon="0.77751">
        <ele>1393</ele>
        <time>2004-08-06T17:31:03Z</time>
      </trkpt>
      <trkpt lat="42.88769" lon="0.77753">
        <ele>1392.9</ele>
        <time>2004-08-06T17:31:15Z</time>
      </trkpt>
      <trkpt lat="42.8877" lon="0.77758">
        <ele>1392.9</ele>
        <time>2004-08-06T17:31:16Z</time>
      </trkpt>
      <trkpt lat="42.8877" lon="0.7776">
        <ele>1392.8</ele>
        <time>2004-08-06T17:31:29Z</time>
      </trkpt>
      <trkpt lat="42.88771" lon="0.77761">
        <ele>1392.9</ele>
        <time>2004-08-06T17:31:31Z</time>
      </trkpt>
      <trkpt lat="42.88771" lon="0.77766">
        <ele>1392.7</ele>
        <time>2004-08-06T17:31:33Z</time>
      </trkpt>
      <trkpt lat="42.88772" lon="0.77769">
        <ele>1392.7</ele>
        <time>2004-08-06T17:31:39Z</time>
      </trkpt>
      <trkpt lat="42.88773" lon="0.7777">
        <ele>1392.7</ele>
        <time>2004-08-06T17:31:43Z</time>
      </trkpt>
      <trkpt lat="42.88773" lon="0.77772">
        <ele>1392.6</ele>
        <time>2004-08-06T17:31:58Z</time>
      </trkpt>
      <trkpt lat="42.88774" lon="0.77775">
        <ele>1392.5</ele>
        <time>2004-08-06T17:32:00Z</time>
      </trkpt>
      <trkpt lat="42.88774" lon="0.77776">
        <ele>1392.5</ele>
        <time>2004-08-06T17:32:05Z</time>
      </trkpt>
      <trkpt lat="42.88775" lon="0.7778">
        <ele>1392.3</ele>
        <time>2004-08-06T17:32:12Z</time>
      </trkpt>
      <trkpt lat="42.88774" lon="0.77781">
        <ele>1392.2</ele>
        <time>2004-08-06T17:32:13Z</time>
      </trkpt>
      <trkpt lat="42.88774" lon="0.77782">
        <ele>1392.1</ele>
        <time>2004-08-06T17:32:13Z</time>
      </trkpt>
      <trkpt lat="42.88774" lon="0.77783">
        <ele>1392.1</ele>
        <time>2004-08-06T17:32:20Z</time>
      </trkpt>
      <trkpt lat="42.88774" lon="0.77785">
        <ele>1391.9</ele>
        <time>2004-08-06T17:32:24Z</time>
      </trkpt>
      <trkpt lat="42.88774" lon="0.77787">
        <ele>1391.8</ele>
        <time>2004-08-06T17:32:24Z</time>
      </trkpt>
      <trkpt lat="42.88773" lon="0.77789">
        <ele>1391.5</ele>
        <time>2004-08-06T17:32:36Z</time>
      </trkpt>
      <trkpt lat="42.88773" lon="0.77789">
        <ele>1391.5</ele>
        <time>2004-08-06T17:32:36Z</time>
      </trkpt>
      <trkpt lat="42.88776" lon="0.77794">
        <ele>1391.3</ele>
        <time>2004-08-06T17:32:39Z</time>
      </trkpt>
      <trkpt lat="42.88777" lon="0.77794">
        <ele>1391.4</ele>
        <time>2004-08-06T17:32:46Z</time>
      </trkpt>
      <trkpt lat="42.88777" lon="0.77793">
        <ele>1391.5</ele>
        <time>2004-08-06T17:32:50Z</time>
      </trkpt>
      <trkpt lat="42.88777" lon="0.77793">
        <ele>1391.5</ele>
        <time>2004-08-06T17:32:55Z</time>
      </trkpt>
      <trkpt lat="42.88777" lon="0.77793">
        <ele>1391.5</ele>
        <time>2004-08-06T17:32:58Z</time>
      </trkpt>
      <trkpt lat="42.88778" lon="0.77793">
        <ele>1391.6</ele>
        <time>2004-08-06T17:33:00Z</time>
      </trkpt>
      <trkpt lat="42.88778" lon="0.77793">
        <ele>1391.6</ele>
        <time>2004-08-06T17:33:06Z</time>
      </trkpt>
      <trkpt lat="42.88778" lon="0.77792">
        <ele>1391.6</ele>
        <time>2004-08-06T17:33:07Z</time>
      </trkpt>
      <trkpt lat="42.88779" lon="0.77792">
        <ele>1391.7</ele>
        <time>2004-08-06T17:33:13Z</time>
      </trkpt>
      <trkpt lat="42.88781" lon="0.77791">
        <ele>1392</ele>
        <time>2004-08-06T17:33:18Z</time>
      </trkpt>
      <trkpt lat="42.88781" lon="0.77791">
        <ele>1392</ele>
        <time>2004-08-06T17:33:29Z</time>
      </trkpt>
      <trkpt lat="42.88781" lon="0.7779">
        <ele>1392</ele>
        <time>2004-08-06T17:33:30Z</time>
      </trkpt>
      <trkpt lat="42.88781" lon="0.7779">
        <ele>1392</ele>
        <time>2004-08-06T17:33:31Z</time>
      </trkpt>
      <trkpt lat="42.88781" lon="0.77789">
        <ele>1392.1</ele>
        <time>2004-08-06T17:33:40Z</time>
      </trkpt>
      <trkpt lat="42.88781" lon="0.77789">
        <ele>1392.1</ele>
        <time>2004-08-06T17:33:42Z</time>
      </trkpt>
      <trkpt lat="42.88781" lon="0.77789">
        <ele>1392.1</ele>
        <time>2004-08-06T17:33:45Z</time>
      </trkpt>
      <trkpt lat="42.88781" lon="0.77789">
        <ele>1392.1</ele>
        <time>2004-08-06T17:33:48Z</time>
      </trkpt>
      <trkpt lat="42.88781" lon="0.77789">
        <ele>1392.1</ele>
        <time>2004-08-06T17:33:52Z</time>
      </trkpt>
      <trkpt lat="42.8878" lon="0.77789">
        <ele>1392</ele>
        <time>2004-08-06T17:33:53Z</time>
      </trkpt>
      <trkpt lat="42.8878" lon="0.77789">
        <ele>1392</ele>
        <time>2004-08-06T17:34:01Z</time>
      </trkpt>
      <trkpt lat="42.8878" lon="0.77789">
        <ele>1392</ele>
        <time>2004-08-06T17:34:01Z</time>
      </trkpt>
      <trkpt lat="42.88779" lon="0.77789">
        <ele>1392</ele>
        <time>2004-08-06T17:34:13Z</time>
      </trkpt>
      <trkpt lat="42.88779" lon="0.77789">
        <ele>1392</ele>
        <time>2004-08-06T17:34:15Z</time>
      </trkpt>
      <trkpt lat="42.88779" lon="0.77789">
        <ele>1392</ele>
        <time>2004-08-06T17:34:20Z</time>
      </trkpt>
      <trkpt lat="42.88779" lon="0.77789">
        <ele>1392</ele>
        <time>2004-08-06T17:34:21Z</time>
      </trkpt>
      <trkpt lat="42.88779" lon="0.77789">
        <ele>1392</ele>
        <time>2004-08-06T17:34:27Z</time>
      </trkpt>
      <trkpt lat="42.88779" lon="0.77789">
        <ele>1392</ele>
        <time>2004-08-06T17:34:28Z</time>
      </trkpt>
      <trkpt lat="42.88778" lon="0.77789">
        <ele>1391.9</ele>
        <time>2004-08-06T17:34:43Z</time>
      </trkpt>
      <trkpt lat="42.88779" lon="0.77789">
        <ele>1392</ele>
        <time>2004-08-06T17:34:46Z</time>
      </trkpt>
      <trkpt lat="42.88779" lon="0.77789">
        <ele>1392</ele>
        <time>2004-08-06T17:34:52Z</time>
      </trkpt>
      <trkpt lat="42.88779" lon="0.77789">
        <ele>1392</ele>
        <time>2004-08-06T17:34:55Z</time>
      </trkpt>
      <trkpt lat="42.88779" lon="0.77789">
        <ele>1392</ele>
        <time>2004-08-06T17:34:55Z</time>
      </trkpt>
      <trkpt lat="42.88779" lon="0.77789">
        <ele>1392</ele>
        <time>2004-08-06T17:34:58Z</time>
      </trkpt>
      <trkpt lat="42.88779" lon="0.77789">
        <ele>1392</ele>
        <time>2004-08-06T17:35:02Z</time>
      </trkpt>
      <trkpt lat="42.88779" lon="0.77789">
        <ele>1392</ele>
        <time>2004-08-06T17:35:02Z</time>
      </trkpt>
      <trkpt lat="42.88779" lon="0.77789">
        <ele>1392</ele>
        <time>2004-08-06T17:35:03Z</time>
      </trkpt>
      <trkpt lat="42.88779" lon="0.77789">
        <ele>1392</ele>
        <time>2004-08-06T17:35:17Z</time>
      </trkpt>
      <trkpt lat="42.88779" lon="0.77789">
        <ele>1392</ele>
        <time>2004-08-06T17:35:18Z</time>
      </trkpt>
      <trkpt lat="42.88779" lon="0.77789">
        <ele>1392</ele>
        <time>2004-08-06T17:35:21Z</time>
      </trkpt>
      <trkpt lat="42.88782" lon="0.77787">
        <ele>1392.3</ele>
        <time>2004-08-06T17:35:22Z</time>
      </trkpt>
      <trkpt lat="42.88781" lon="0.77788">
        <ele>1392.2</ele>
        <time>2004-08-06T17:35:24Z</time>
      </trkpt>
      <trkpt lat="42.88781" lon="0.77788">
        <ele>1392.2</ele>
        <time>2004-08-06T17:35:28Z</time>
      </trkpt>
      <trkpt lat="42.88781" lon="0.77788">
        <ele>1392.2</ele>
        <time>2004-08-06T17:35:29Z</time>
      </trkpt>
      <trkpt lat="42.88781" lon="0.77789">
        <ele>1392.1</ele>
        <time>2004-08-06T17:35:36Z</time>
      </trkpt>
      <trkpt lat="42.8878" lon="0.77789">
        <ele>1392</ele>
        <time>2004-08-06T17:35:40Z</time>
      </trkpt>
      <trkpt lat="42.8878" lon="0.77789">
        <ele>1392</ele>
        <time>2004-08-06T17:35:44Z</time>
      </trkpt>
      <trkpt lat="42.8878" lon="0.77789">
        <ele>1392</ele>
        <time>2004-08-06T17:35:45Z</time>
      </trkpt>
      <trkpt lat="42.88779" lon="0.77789">
        <ele>1392</ele>
        <time>2004-08-06T17:35:46Z</time>
      </trkpt>
      <trkpt lat="42.88781" lon="0.77789">
        <ele>1392.1</ele>
        <time>2004-08-06T17:35:48Z</time>
      </trkpt>
      <trkpt lat="42.88788" lon="0.77794">
        <ele>1392.3</ele>
        <time>2004-08-06T17:35:55Z</time>
      </trkpt>
      <trkpt lat="42.88805" lon="0.77815">
        <ele>1392.3</ele>
        <time>2004-08-06T17:35:56Z</time>
      </trkpt>
      <trkpt lat="42.88811" lon="0.77826">
        <ele>1392.3</ele>
        <time>2004-08-06T17:35:59Z</time>
      </trkpt>
      <trkpt lat="42.88816" lon="0.77834">
        <ele>1385.2</ele>
        <time>2004-08-06T17:36:00Z</time>
      </trkpt>
      <trkpt lat="42.88818" lon="0.77839">
        <ele>1385.4</ele>
        <time>2004-08-06T17:36:01Z</time>
      </trkpt>
      <trkpt lat="42.88822" lon="0.77849">
        <ele>1384.4</ele>
        <time>2004-08-06T17:36:03Z</time>
      </trkpt>
      <trkpt lat="42.88825" lon="0.77854">
        <ele>1383.6</ele>
        <time>2004-08-06T17:36:04Z</time>
      </trkpt>
      <trkpt lat="42.88829" lon="0.77865">
        <ele>1381.5</ele>
        <time>2004-08-06T17:36:07Z</time>
      </trkpt>
      <trkpt lat="42.88831" lon="0.77871">
        <ele>1380.6</ele>
        <time>2004-08-06T17:36:08Z</time>
      </trkpt>
      <trkpt lat="42.8884" lon="0.77894">
        <ele>1396.8</ele>
        <time>2004-08-06T17:36:08Z</time>
      </trkpt>
      <trkpt lat="42.88842" lon="0.779">
        <ele>1394.7</ele>
        <time>2004-08-06T17:36:12Z</time>
      </trkpt>
      <trkpt lat="42.88845" lon="0.77905">
        <ele>1393.7</ele>
        <time>2004-08-06T17:36:13Z</time>
      </trkpt>
      <trkpt lat="42.88856" lon="0.77918">
        <ele>1386.7</ele>
        <time>2004-08-06T17:36:15Z</time>
      </trkpt>
      <trkpt lat="42.88871" lon="0.77932">
        <ele>1390.8</ele>
        <time>2004-08-06T17:36:19Z</time>
      </trkpt>
      <trkpt lat="42.88881" lon="0.77943">
        <ele>1392.6</ele>
        <time>2004-08-06T17:36:19Z</time>
      </trkpt>
      <trkpt lat="42.88887" lon="0.77952">
        <ele>1392.6</ele>
        <time>2004-08-06T17:36:32Z</time>
      </trkpt>
      <trkpt lat="42.88896" lon="0.77971">
        <ele>1391.4</ele>
        <time>2004-08-06T17:36:32Z</time>
      </trkpt>
      <trkpt lat="42.88906" lon="0.77997">
        <ele>1392.4</ele>
      </trkpt>
      <trkpt lat="42.88908" lon="0.78003">
        <ele>1385.4</ele>
      </trkpt>
      <trkpt lat="42.88915" lon="0.7802">
        <ele>1378.6</ele>
      </trkpt>
      <trkpt lat="42.88938" lon="0.78067">
        <ele>1398.8</ele>
      </trkpt>
      <trkpt lat="42.88946" lon="0.78085">
        <ele>1393.6</ele>
      </trkpt>
      <trkpt lat="42.88948" lon="0.78091">
        <ele>1394.7</ele>
      </trkpt>
      <trkpt lat="42.8895" lon="0.78097">
        <ele>1395.8</ele>
      </trkpt>
      <trkpt lat="42.8895" lon="0.78103">
        <ele>1396</ele>
      </trkpt>
      <trkpt lat="42.8895" lon="0.78115">
        <ele>1396.2</ele>
      </trkpt>
      <trkpt lat="42.88949" lon="0.7815">
        <ele>1393.8</ele>
      </trkpt>
      <trkpt lat="42.88948" lon="0.78165">
        <ele>1392.2</ele>
      </trkpt>
      <trkpt lat="42.88952" lon="0.78196">
        <ele>1388.7</ele>
      </trkpt>
      <trkpt lat="42.88957" lon="0.78211">
        <ele>1389.6</ele>
      </trkpt>
      <trkpt lat="42.8897" lon="0.7826">
        <ele>1385.2</ele>
      </trkpt>
      <trkpt lat="42.8897" lon="0.78266">
        <ele>1384.3</ele>
      </trkpt>
      <trkpt lat="42.88975" lon="0.783">
        <ele>1381.8</ele>
      </trkpt>
      <trkpt lat="42.88979" lon="0.78327">
        <ele>1385.3</ele>
      </trkpt>
      <trkpt lat="42.8898" lon="0.7834">
        <ele>1380.2</ele>
      </trkpt>
      <trkpt lat="42.88981" lon="0.78346">
        <ele>1379.4</ele>
      </trkpt>
      <trkpt lat="42.88983" lon="0.7836">
        <ele>1376.3</ele>
      </trkpt>
      <trkpt lat="42.88984" lon="0.78367">
        <ele>1375.2</ele>
      </trkpt>
      <trkpt lat="42.88986" lon="0.78382">
        <ele>1374.4</ele>
      </trkpt>
      <trkpt lat="42.88987" lon="0.7839">
        <ele>1375.1</ele>
      </trkpt>
      <trkpt lat="42.88988" lon="0.78411">
        <ele>1380</ele>
      </trkpt>
      <trkpt lat="42.88987" lon="0.78432">
        <ele>1375.1</ele>
      </trkpt>
      <trkpt lat="42.88985" lon="0.78453">
        <ele>1370.5</ele>
      </trkpt>
      <trkpt lat="42.88984" lon="0.78475">
        <ele>1370.9</ele>
      </trkpt>
      <trkpt lat="42.88983" lon="0.78486">
        <ele>1372.4</ele>
      </trkpt>
      <trkpt lat="42.88982" lon="0.78507">
        <ele>1374</ele>
      </trkpt>
      <trkpt lat="42.88982" lon="0.78529">
        <ele>1371.1</ele>
      </trkpt>
      <trkpt lat="42.8898" lon="0.7854">
        <ele>1370.3</ele>
      </trkpt>
      <trkpt lat="42.88979" lon="0.78551">
        <ele>1370.6</ele>
      </trkpt>
      <trkpt lat="42.88978" lon="0.78563">
        <ele>1371.8</ele>
      </trkpt>
      <trkpt lat="42.88976" lon="0.78574">
        <ele>1372.5</ele>
      </trkpt>
      <trkpt lat="42.88973" lon="0.78585">
        <ele>1372.3</ele>
      </trkpt>
      <trkpt lat="42.88964" lon="0.78608">
        <ele>1368.2</ele>
      </trkpt>
      <trkpt lat="42.88959" lon="0.78617">
        <ele>1366.7</ele>
      </trkpt>
      <trkpt lat="42.88955" lon="0.78626">
        <ele>1365.8</ele>
      </trkpt>
      <trkpt lat="42.8895" lon="0.78635">
        <ele>1364.8</ele>
      </trkpt>
      <trkpt lat="42.88944" lon="0.78644">
        <ele>1363.4</ele>
      </trkpt>
      <trkpt lat="42.88939" lon="0.78651">
        <ele>1362</ele>
      </trkpt>
      <trkpt lat="42.88934" lon="0.78657">
        <ele>1360.3</ele>
      </trkpt>
      <trkpt lat="42.88921" lon="0.78673">
        <ele>1356.4</ele>
      </trkpt>
      <trkpt lat="42.88917" lon="0.78679">
        <ele>1357.8</ele>
      </trkpt>
      <trkpt lat="42.88914" lon="0.78684">
        <ele>1352.3</ele>
      </trkpt>
      <trkpt lat="42.88911" lon="0.78688">
        <ele>1352.2</ele>
      </trkpt>
      <trkpt lat="42.88908" lon="0.78693">
        <ele>1352.2</ele>
      </trkpt>
      <trkpt lat="42.88901" lon="0.78702">
        <ele>1352.1</ele>
      </trkpt>
      <trkpt lat="42.88894" lon="0.78718">
        <ele>1352.4</ele>
      </trkpt>
      <trkpt lat="42.8889" lon="0.78734">
        <ele>1352.8</ele>
      </trkpt>
      <trkpt lat="42.8889" lon="0.78761">
        <ele>1352.2</ele>
      </trkpt>
      <trkpt lat="42.88897" lon="0.78782">
        <ele>1351.1</ele>
      </trkpt>
      <trkpt lat="42.88901" lon="0.78786">
        <ele>1350.8</ele>
      </trkpt>
      <trkpt lat="42.88903" lon="0.78788">
        <ele>1350.7</ele>
      </trkpt>
      <trkpt lat="42.88908" lon="0.78794">
        <ele>1350.1</ele>
      </trkpt>
      <trkpt lat="42.8891" lon="0.78796">
        <ele>1349.9</ele>
      </trkpt>
      <trkpt lat="42.88914" lon="0.78799">
        <ele>1349.6</ele>
      </trkpt>
      <trkpt lat="42.88916" lon="0.78801">
        <ele>1349.3</ele>
      </trkpt>
      <trkpt lat="42.88932" lon="0.78814">
        <ele>1353.9</ele>
      </trkpt>
      <trkpt lat="42.88935" lon="0.78816">
        <ele>1354.1</ele>
      </trkpt>
      <trkpt lat="42.88944" lon="0.78822">
        <ele>1355.2</ele>
      </trkpt>
      <trkpt lat="42.88984" lon="0.78861">
        <ele>1348.6</ele>
      </trkpt>
      <trkpt lat="42.88986" lon="0.78863">
        <ele>1348.4</ele>
      </trkpt>
      <trkpt lat="42.88989" lon="0.78866">
        <ele>1348</ele>
      </trkpt>
      <trkpt lat="42.88998" lon="0.78875">
        <ele>1346.7</ele>
      </trkpt>
      <trkpt lat="42.8901" lon="0.78886">
        <ele>1358.3</ele>
      </trkpt>
      <trkpt lat="42.89013" lon="0.78889">
        <ele>1357.9</ele>
      </trkpt>
      <trkpt lat="42.89018" lon="0.78894">
        <ele>1357.6</ele>
      </trkpt>
      <trkpt lat="42.89028" lon="0.78903">
        <ele>1358.3</ele>
      </trkpt>
      <trkpt lat="42.89032" lon="0.78907">
        <ele>1358.9</ele>
      </trkpt>
      <trkpt lat="42.89036" lon="0.7891">
        <ele>1359.6</ele>
      </trkpt>
      <trkpt lat="42.8904" lon="0.78913">
        <ele>1360.4</ele>
      </trkpt>
      <trkpt lat="42.89051" lon="0.78924">
        <ele>1348</ele>
      </trkpt>
      <trkpt lat="42.89055" lon="0.78928">
        <ele>1348.7</ele>
      </trkpt>
      <trkpt lat="42.89069" lon="0.78936">
        <ele>1350.7</ele>
      </trkpt>
      <trkpt lat="42.89077" lon="0.78938">
        <ele>1351.6</ele>
      </trkpt>
      <trkpt lat="42.89081" lon="0.78939">
        <ele>1351.6</ele>
      </trkpt>
      <trkpt lat="42.89092" lon="0.78939">
        <ele>1365.1</ele>
      </trkpt>
      <trkpt lat="42.89096" lon="0.78939">
        <ele>1365.4</ele>
      </trkpt>
      <trkpt lat="42.89111" lon="0.78941">
        <ele>1366.9</ele>
      </trkpt>
      <trkpt lat="42.89114" lon="0.78943">
        <ele>1367.1</ele>
      </trkpt>
      <trkpt lat="42.89127" lon="0.78953">
        <ele>1367.6</ele>
      </trkpt>
      <trkpt lat="42.89137" lon="0.78961">
        <ele>1367.7</ele>
      </trkpt>
      <trkpt lat="42.89145" lon="0.78971">
        <ele>1366.6</ele>
      </trkpt>
      <trkpt lat="42.89148" lon="0.78974">
        <ele>1366.3</ele>
      </trkpt>
      <trkpt lat="42.89151" lon="0.78978">
        <ele>1365.7</ele>
      </trkpt>
      <trkpt lat="42.8917" lon="0.79011">
        <ele>1363.1</ele>
      </trkpt>
      <trkpt lat="42.89173" lon="0.79016">
        <ele>1363.3</ele>
      </trkpt>
      <trkpt lat="42.89176" lon="0.7902">
        <ele>1363.4</ele>
      </trkpt>
      <trkpt lat="42.89186" lon="0.79041">
        <ele>1361.5</ele>
      </trkpt>
      <trkpt lat="42.89191" lon="0.79051">
        <ele>1360.2</ele>
      </trkpt>
      <trkpt lat="42.89194" lon="0.79056">
        <ele>1359.7</ele>
      </trkpt>
      <trkpt lat="42.89197" lon="0.79061">
        <ele>1359.4</ele>
      </trkpt>
      <trkpt lat="42.89203" lon="0.79071">
        <ele>1359.5</ele>
      </trkpt>
      <trkpt lat="42.89206" lon="0.79076">
        <ele>1359.9</ele>
      </trkpt>
      <trkpt lat="42.89211" lon="0.79086">
        <ele>1341.9</ele>
      </trkpt>
      <trkpt lat="42.89214" lon="0.7909">
        <ele>1342.5</ele>
      </trkpt>
      <trkpt lat="42.89223" lon="0.79104">
        <ele>1343.1</ele>
      </trkpt>
      <trkpt lat="42.89235" lon="0.79122">
        <ele>1340.5</ele>
      </trkpt>
      <trkpt lat="42.89249" lon="0.79143">
        <ele>1336.3</ele>
      </trkpt>
      <trkpt lat="42.89267" lon="0.79167">
        <ele>1333.5</ele>
      </trkpt>
      <trkpt lat="42.89277" lon="0.79182">
        <ele>1334</ele>
      </trkpt>
      <trkpt lat="42.89283" lon="0.79189">
        <ele>1334.3</ele>
      </trkpt>
      <trkpt lat="42.89289" lon="0.79196">
        <ele>1334.3</ele>
      </trkpt>
      <trkpt lat="42.89292" lon="0.79199">
        <ele>1334.3</ele>
      </trkpt>
      <trkpt lat="42.89298" lon="0.79207">
        <ele>1333.7</ele>
      </trkpt>
      <trkpt lat="42.89301" lon="0.7921">
        <ele>1333.5</ele>
      </trkpt>
      <trkpt lat="42.89321" lon="0.79229">
        <ele>1331.2</ele>
      </trkpt>
      <trkpt lat="42.89367" lon="0.79266">
        <ele>1328.1</ele>
      </trkpt>
      <trkpt lat="42.8937" lon="0.79268">
        <ele>1328.4</ele>
      </trkpt>
      <trkpt lat="42.89386" lon="0.79279">
        <ele>1329.7</ele>
      </trkpt>
      <trkpt lat="42.89389" lon="0.79281">
        <ele>1329.8</ele>
      </trkpt>
      <trkpt lat="42.89415" lon="0.79304">
        <ele>1327.2</ele>
      </trkpt>
      <trkpt lat="42.89417" lon="0.79307">
        <ele>1343.5</ele>
      </trkpt>
      <trkpt lat="42.89434" lon="0.79328">
        <ele>1339.5</ele>
      </trkpt>
      <trkpt lat="42.89436" lon="0.79332">
        <ele>1340.1</ele>
      </trkpt>
      <trkpt lat="42.89437" lon="0.79335">
        <ele>1326.6</ele>
      </trkpt>
      <trkpt lat="42.89439" lon="0.79338">
        <ele>1326.9</ele>
      </trkpt>
      <trkpt lat="42.8945" lon="0.79352">
        <ele>1328.7</ele>
      </trkpt>
      <trkpt lat="42.89483" lon="0.79382">
        <ele>1330.5</ele>
      </trkpt>
      <trkpt lat="42.89494" lon="0.79387">
        <ele>1330.8</ele>
      </trkpt>
      <trkpt lat="42.8953" lon="0.79407">
        <ele>1345.7</ele>
      </trkpt>
      <trkpt lat="42.89533" lon="0.79409">
        <ele>1346.2</ele>
      </trkpt>
      <trkpt lat="42.89545" lon="0.79417">
        <ele>1330.9</ele>
      </trkpt>
      <trkpt lat="42.89554" lon="0.79425">
        <ele>1332.3</ele>
      </trkpt>
      <trkpt lat="42.89561" lon="0.79434">
        <ele>1332.6</ele>
      </trkpt>
      <trkpt lat="42.89574" lon="0.79454">
        <ele>1329.8</ele>
      </trkpt>
      <trkpt lat="42.89576" lon="0.79456">
        <ele>1329.5</ele>
      </trkpt>
      <trkpt lat="42.89578" lon="0.79458">
        <ele>1329.1</ele>
      </trkpt>
      <trkpt lat="42.89581" lon="0.79462">
        <ele>1328.5</ele>
      </trkpt>
      <trkpt lat="42.89587" lon="0.79466">
        <ele>1335.3</ele>
      </trkpt>
      <trkpt lat="42.89591" lon="0.79469">
        <ele>1334.8</ele>
      </trkpt>
      <trkpt lat="42.89593" lon="0.79471">
        <ele>1334.4</ele>
      </trkpt>
      <trkpt lat="42.89604" lon="0.79479">
        <ele>1333.7</ele>
      </trkpt>
      <trkpt lat="42.89605" lon="0.7948">
        <ele>1333.7</ele>
      </trkpt>
      <trkpt lat="42.89615" lon="0.79483">
        <ele>1334.3</ele>
      </trkpt>
      <trkpt lat="42.89633" lon="0.79492">
        <ele>1334.6</ele>
      </trkpt>
      <trkpt lat="42.89637" lon="0.79491">
        <ele>1334.7</ele>
      </trkpt>
      <trkpt lat="42.89646" lon="0.79479">
        <ele>1335.6</ele>
      </trkpt>
      <trkpt lat="42.89649" lon="0.79463">
        <ele>1337.3</ele>
      </trkpt>
      <trkpt lat="42.89649" lon="0.79451">
        <ele>1338.8</ele>
      </trkpt>
      <trkpt lat="42.89648" lon="0.79449">
        <ele>1339</ele>
      </trkpt>
      <trkpt lat="42.89648" lon="0.79436">
        <ele>1340.6</ele>
      </trkpt>
      <trkpt lat="42.89647" lon="0.7943">
        <ele>1341.2</ele>
      </trkpt>
      <trkpt lat="42.89647" lon="0.79428">
        <ele>1341.4</ele>
      </trkpt>
      <trkpt lat="42.89646" lon="0.79414">
        <ele>1350.4</ele>
      </trkpt>
      <trkpt lat="42.89647" lon="0.79401">
        <ele>1351.2</ele>
      </trkpt>
      <trkpt lat="42.89645" lon="0.79395">
        <ele>1351.9</ele>
      </trkpt>
      <trkpt lat="42.89645" lon="0.79387">
        <ele>1352.6</ele>
      </trkpt>
      <trkpt lat="42.89645" lon="0.79385">
        <ele>1352.8</ele>
      </trkpt>
      <trkpt lat="42.89644" lon="0.79381">
        <ele>1353.2</ele>
      </trkpt>
      <trkpt lat="42.89644" lon="0.79379">
        <ele>1353.3</ele>
      </trkpt>
      <trkpt lat="42.89642" lon="0.79373">
        <ele>1353.9</ele>
      </trkpt>
      <trkpt lat="42.89636" lon="0.7936">
        <ele>1355.1</ele>
      </trkpt>
      <trkpt lat="42.89636" lon="0.79358">
        <ele>1355.2</ele>
      </trkpt>
      <trkpt lat="42.89635" lon="0.79346">
        <ele>1355.9</ele>
      </trkpt>
      <trkpt lat="42.89634" lon="0.79341">
        <ele>1356.2</ele>
      </trkpt>
      <trkpt lat="42.89633" lon="0.79335">
        <ele>1356.5</ele>
      </trkpt>
      <trkpt lat="42.89633" lon="0.79326">
        <ele>1366.5</ele>
      </trkpt>
      <trkpt lat="42.89633" lon="0.79322">
        <ele>1366.8</ele>
      </trkpt>
      <trkpt lat="42.89634" lon="0.79305">
        <ele>1368.2</ele>
      </trkpt>
      <trkpt lat="42.89638" lon="0.79283">
        <ele>1369.4</ele>
      </trkpt>
      <trkpt lat="42.89639" lon="0.79277">
        <ele>1369.4</ele>
      </trkpt>
      <trkpt lat="42.8964" lon="0.79273">
        <ele>1369.3</ele>
      </trkpt>
      <trkpt lat="42.8964" lon="0.7927">
        <ele>1369.3</ele>
      </trkpt>
      <trkpt lat="42.89641" lon="0.79268">
        <ele>1369.1</ele>
      </trkpt>
      <trkpt lat="42.89641" lon="0.79266">
        <ele>1369.1</ele>
      </trkpt>
      <trkpt lat="42.8964" lon="0.79253">
        <ele>1369.3</ele>
      </trkpt>
      <trkpt lat="42.8964" lon="0.79251">
        <ele>1369.3</ele>
      </trkpt>
      <trkpt lat="42.8964" lon="0.79249">
        <ele>1378.9</ele>
      </trkpt>
      <trkpt lat="42.89642" lon="0.7924">
        <ele>1378.8</ele>
      </trkpt>
      <trkpt lat="42.89643" lon="0.79233">
        <ele>1379.7</ele>
      </trkpt>
      <trkpt lat="42.89643" lon="0.79231">
        <ele>1380.1</ele>
      </trkpt>
      <trkpt lat="42.89644" lon="0.79225">
        <ele>1381</ele>
      </trkpt>
      <trkpt lat="42.89645" lon="0.79221">
        <ele>1381.5</ele>
      </trkpt>
      <trkpt lat="42.89646" lon="0.79212">
        <ele>1382.7</ele>
      </trkpt>
      <trkpt lat="42.89651" lon="0.79191">
        <ele>1382.5</ele>
      </trkpt>
      <trkpt lat="42.89652" lon="0.79189">
        <ele>1382.2</ele>
      </trkpt>
      <trkpt lat="42.89656" lon="0.79178">
        <ele>1379.4</ele>
      </trkpt>
      <trkpt lat="42.8966" lon="0.79166">
        <ele>1379.9</ele>
      </trkpt>
      <trkpt lat="42.89661" lon="0.79163">
        <ele>1380</ele>
      </trkpt>
      <trkpt lat="42.89664" lon="0.79153">
        <ele>1386.5</ele>
      </trkpt>
      <trkpt lat="42.89667" lon="0.79146">
        <ele>1366.4</ele>
      </trkpt>
      <trkpt lat="42.89672" lon="0.79131">
        <ele>1366.4</ele>
      </trkpt>
      <trkpt lat="42.89676" lon="0.79121">
        <ele>1367.5</ele>
      </trkpt>
      <trkpt lat="42.8968" lon="0.79113">
        <ele>1368.8</ele>
      </trkpt>
      <trkpt lat="42.8968" lon="0.79111">
        <ele>1369.3</ele>
      </trkpt>
      <trkpt lat="42.89682" lon="0.79106">
        <ele>1370.3</ele>
      </trkpt>
      <trkpt lat="42.89684" lon="0.79099">
        <ele>1371.9</ele>
      </trkpt>
      <trkpt lat="42.89689" lon="0.79089">
        <ele>1371.8</ele>
      </trkpt>
      <trkpt lat="42.89689" lon="0.79087">
        <ele>1372.1</ele>
      </trkpt>
      <trkpt lat="42.89691" lon="0.79083">
        <ele>1381.6</ele>
      </trkpt>
      <trkpt lat="42.89691" lon="0.79082">
        <ele>1381.6</ele>
      </trkpt>
      <trkpt lat="42.89693" lon="0.79075">
        <ele>1381.1</ele>
      </trkpt>
      <trkpt lat="42.89697" lon="0.79059">
        <ele>1380.3</ele>
      </trkpt>
      <trkpt lat="42.89697" lon="0.79057">
        <ele>1380.4</ele>
      </trkpt>
      <trkpt lat="42.89698" lon="0.79054">
        <ele>1380.4</ele>
      </trkpt>
      <trkpt lat="42.89699" lon="0.7905">
        <ele>1380.5</ele>
      </trkpt>
      <trkpt lat="42.89701" lon="0.7904">
        <ele>1381.1</ele>
      </trkpt>
      <trkpt lat="42.89702" lon="0.79038">
        <ele>1381</ele>
      </trkpt>
      <trkpt lat="42.89703" lon="0.79033">
        <ele>1381.4</ele>
      </trkpt>
      <trkpt lat="42.89704" lon="0.79024">
        <ele>1382.2</ele>
      </trkpt>
      <trkpt lat="42.89704" lon="0.79021">
        <ele>1382.6</ele>
      </trkpt>
      <trkpt lat="42.89705" lon="0.79015">
        <ele>1382.8</ele>
      </trkpt>
      <trkpt lat="42.89705" lon="0.79013">
        <ele>1383</ele>
      </trkpt>
      <trkpt lat="42.89705" lon="0.79011">
        <ele>1383.2</ele>
      </trkpt>
      <trkpt lat="42.89705" lon="0.79007">
        <ele>1383.5</ele>
      </trkpt>
      <trkpt lat="42.89705" lon="0.79005">
        <ele>1383.7</ele>
      </trkpt>
      <trkpt lat="42.89705" lon="0.78993">
        <ele>1396.8</ele>
      </trkpt>
      <trkpt lat="42.89705" lon="0.78989">
        <ele>1397</ele>
      </trkpt>
      <trkpt lat="42.89707" lon="0.78981">
        <ele>1396.8</ele>
      </trkpt>
      <trkpt lat="42.89708" lon="0.78972">
        <ele>1397.4</ele>
      </trkpt>
      <trkpt lat="42.89711" lon="0.78963">
        <ele>1397.5</ele>
      </trkpt>
      <trkpt lat="42.89712" lon="0.78961">
        <ele>1397.4</ele>
      </trkpt>
      <trkpt lat="42.89712" lon="0.78959">
        <ele>1397.7</ele>
      </trkpt>
      <trkpt lat="42.89714" lon="0.78955">
        <ele>1397.5</ele>
      </trkpt>
      <trkpt lat="42.89714" lon="0.78951">
        <ele>1398</ele>
      </trkpt>
      <trkpt lat="42.89715" lon="0.78949">
        <ele>1397.8</ele>
      </trkpt>
      <trkpt lat="42.89719" lon="0.7894">
        <ele>1397.1</ele>
      </trkpt>
      <trkpt lat="42.8972" lon="0.78938">
        <ele>1396.8</ele>
      </trkpt>
      <trkpt lat="42.89727" lon="0.78922">
        <ele>1393.7</ele>
      </trkpt>
      <trkpt lat="42.89727" lon="0.78918">
        <ele>1393.7</ele>
      </trkpt>
      <trkpt lat="42.89732" lon="0.78907">
        <ele>1404</ele>
      </trkpt>
      <trkpt lat="42.89732" lon="0.78905">
        <ele>1404.8</ele>
      </trkpt>
      <trkpt lat="42.89734" lon="0.78901">
        <ele>1405.2</ele>
      </trkpt>
      <trkpt lat="42.89735" lon="0.78899">
        <ele>1405.6</ele>
      </trkpt>
      <trkpt lat="42.8974" lon="0.78887">
        <ele>1409.1</ele>
      </trkpt>
      <trkpt lat="42.89745" lon="0.78882">
        <ele>1409.8</ele>
      </trkpt>
      <trkpt lat="42.89747" lon="0.78881">
        <ele>1409.8</ele>
      </trkpt>
      <trkpt lat="42.89751" lon="0.78878">
        <ele>1381.3</ele>
      </trkpt>
      <trkpt lat="42.89752" lon="0.78877">
        <ele>1381.4</ele>
      </trkpt>
      <trkpt lat="42.8976" lon="0.78872">
        <ele>1381.7</ele>
      </trkpt>
      <trkpt lat="42.89766" lon="0.78862">
        <ele>1383.3</ele>
      </trkpt>
      <trkpt lat="42.8977" lon="0.78854">
        <ele>1384.5</ele>
      </trkpt>
      <trkpt lat="42.89772" lon="0.78848">
        <ele>1385.3</ele>
      </trkpt>
      <trkpt lat="42.89773" lon="0.78845">
        <ele>1385.6</ele>
      </trkpt>
      <trkpt lat="42.89774" lon="0.78841">
        <ele>1385.9</ele>
      </trkpt>
      <trkpt lat="42.89775" lon="0.78833">
        <ele>1397.8</ele>
      </trkpt>
      <trkpt lat="42.89778" lon="0.7882">
        <ele>1397.3</ele>
      </trkpt>
      <trkpt lat="42.89778" lon="0.78812">
        <ele>1397.7</ele>
      </trkpt>
      <trkpt lat="42.89778" lon="0.78809">
        <ele>1397.9</ele>
      </trkpt>
      <trkpt lat="42.89778" lon="0.78804">
        <ele>1398.3</ele>
      </trkpt>
      <trkpt lat="42.89778" lon="0.78798">
        <ele>1398.9</ele>
      </trkpt>
      <trkpt lat="42.89778" lon="0.78796">
        <ele>1399.1</ele>
      </trkpt>
      <trkpt lat="42.89778" lon="0.78792">
        <ele>1399.6</ele>
      </trkpt>
      <trkpt lat="42.8978" lon="0.78786">
        <ele>1400.1</ele>
      </trkpt>
      <trkpt lat="42.89783" lon="0.78772">
        <ele>1401.4</ele>
      </trkpt>
      <trkpt lat="42.89784" lon="0.78768">
        <ele>1401.7</ele>
      </trkpt>
      <trkpt lat="42.89785" lon="0.78764">
        <ele>1401.8</ele>
      </trkpt>
      <trkpt lat="42.89785" lon="0.78762">
        <ele>1402.1</ele>
      </trkpt>
      <trkpt lat="42.89786" lon="0.78754">
        <ele>1402.4</ele>
      </trkpt>
      <trkpt lat="42.89787" lon="0.78747">
        <ele>1412.7</ele>
      </trkpt>
      <trkpt lat="42.89787" lon="0.78745">
        <ele>1412.8</ele>
      </trkpt>
      <trkpt lat="42.89787" lon="0.78739">
        <ele>1413</ele>
      </trkpt>
      <trkpt lat="42.89788" lon="0.78737">
        <ele>1412.7</ele>
      </trkpt>
      <trkpt lat="42.89789" lon="0.78727">
        <ele>1412.9</ele>
      </trkpt>
      <trkpt lat="42.89789" lon="0.78725">
        <ele>1413</ele>
      </trkpt>
      <trkpt lat="42.89792" lon="0.78713">
        <ele>1413</ele>
      </trkpt>
      <trkpt lat="42.89792" lon="0.78711">
        <ele>1413.2</ele>
      </trkpt>
      <trkpt lat="42.89793" lon="0.78707">
        <ele>1413.2</ele>
      </trkpt>
      <trkpt lat="42.89795" lon="0.78696">
        <ele>1413.4</ele>
      </trkpt>
      <trkpt lat="42.89798" lon="0.78688">
        <ele>1412.7</ele>
      </trkpt>
      <trkpt lat="42.89798" lon="0.78686">
        <ele>1412.8</ele>
      </trkpt>
      <trkpt lat="42.89799" lon="0.7868">
        <ele>1412.5</ele>
      </trkpt>
      <trkpt lat="42.89799" lon="0.78671">
        <ele>1412.6</ele>
      </trkpt>
      <trkpt lat="42.898" lon="0.78669">
        <ele>1412.1</ele>
      </trkpt>
      <trkpt lat="42.89801" lon="0.78665">
        <ele>1420.3</ele>
      </trkpt>
      <trkpt lat="42.89802" lon="0.7866">
        <ele>1420.1</ele>
      </trkpt>
      <trkpt lat="42.89802" lon="0.78654">
        <ele>1420.8</ele>
      </trkpt>
      <trkpt lat="42.89802" lon="0.78651">
        <ele>1421.2</ele>
      </trkpt>
      <trkpt lat="42.89802" lon="0.78649">
        <ele>1421.5</ele>
      </trkpt>
      <trkpt lat="42.89803" lon="0.78647">
        <ele>1421.3</ele>
      </trkpt>
      <trkpt lat="42.89803" lon="0.78643">
        <ele>1421.9</ele>
      </trkpt>
      <trkpt lat="42.89803" lon="0.78641">
        <ele>1422.3</ele>
      </trkpt>
      <trkpt lat="42.89805" lon="0.78629">
        <ele>1423.2</ele>
      </trkpt>
      <trkpt lat="42.89805" lon="0.78623">
        <ele>1423.8</ele>
      </trkpt>
      <trkpt lat="42.89808" lon="0.78611">
        <ele>1423.5</ele>
      </trkpt>
      <trkpt lat="42.89809" lon="0.78604">
        <ele>1423</ele>
      </trkpt>
      <trkpt lat="42.8981" lon="0.78596">
        <ele>1422.1</ele>
      </trkpt>
      <trkpt lat="42.89811" lon="0.78594">
        <ele>1421.6</ele>
      </trkpt>
      <trkpt lat="42.89812" lon="0.78588">
        <ele>1420.7</ele>
      </trkpt>
      <trkpt lat="42.89815" lon="0.78577">
        <ele>1427.9</ele>
      </trkpt>
      <trkpt lat="42.89817" lon="0.78571">
        <ele>1428.5</ele>
      </trkpt>
      <trkpt lat="42.89818" lon="0.78565">
        <ele>1430.3</ele>
      </trkpt>
      <trkpt lat="42.89819" lon="0.78559">
        <ele>1432.3</ele>
      </trkpt>
      <trkpt lat="42.89822" lon="0.78552">
        <ele>1433.7</ele>
      </trkpt>
      <trkpt lat="42.89823" lon="0.78549">
        <ele>1434.3</ele>
      </trkpt>
      <trkpt lat="42.89825" lon="0.78541">
        <ele>1435.7</ele>
      </trkpt>
      <trkpt lat="42.89826" lon="0.78539">
        <ele>1435.8</ele>
      </trkpt>
      <trkpt lat="42.8983" lon="0.7853">
        <ele>1435.8</ele>
      </trkpt>
      <trkpt lat="42.89833" lon="0.78521">
        <ele>1435</ele>
      </trkpt>
      <trkpt lat="42.89834" lon="0.78511">
        <ele>1417.9</ele>
      </trkpt>
      <trkpt lat="42.89838" lon="0.78493">
        <ele>1426</ele>
      </trkpt>
      <trkpt lat="42.89842" lon="0.78474">
        <ele>1426</ele>
      </trkpt>
      <trkpt lat="42.89842" lon="0.78471">
        <ele>1426.3</ele>
      </trkpt>
      <trkpt lat="42.89846" lon="0.78462">
        <ele>1427.1</ele>
      </trkpt>
      <trkpt lat="42.89848" lon="0.78453">
        <ele>1428.4</ele>
      </trkpt>
      <trkpt lat="42.89848" lon="0.78454">
        <ele>1428.2</ele>
      </trkpt>
      <trkpt lat="42.89849" lon="0.78455">
        <ele>1427.9</ele>
      </trkpt>
      <trkpt lat="42.89849" lon="0.78456">
        <ele>1427.7</ele>
      </trkpt>
      <trkpt lat="42.89849" lon="0.78456">
        <ele>1427.7</ele>
      </trkpt>
      <trkpt lat="42.89848" lon="0.78456">
        <ele>1427.9</ele>
      </trkpt>
      <trkpt lat="42.89848" lon="0.78456">
        <ele>1427.9</ele>
      </trkpt>
      <trkpt lat="42.89848" lon="0.78456">
        <ele>1427.9</ele>
      </trkpt>
      <trkpt lat="42.89848" lon="0.78456">
        <ele>1427.9</ele>
      </trkpt>
      <trkpt lat="42.89848" lon="0.78456">
        <ele>1427.9</ele>
      </trkpt>
      <trkpt lat="42.89849" lon="0.78457">
        <ele>1427.6</ele>
      </trkpt>
      <trkpt lat="42.89849" lon="0.78457">
        <ele>1427.6</ele>
      </trkpt>
      <trkpt lat="42.89849" lon="0.78456">
        <ele>1427.7</ele>
      </trkpt>
      <trkpt lat="42.89849" lon="0.78456">
        <ele>1427.7</ele>
      </trkpt>
      <trkpt lat="42.89849" lon="0.78456">
        <ele>1427.7</ele>
      </trkpt>
      <trkpt lat="42.8985" lon="0.78456">
        <ele>1427.6</ele>
      </trkpt>
      <trkpt lat="42.8985" lon="0.78456">
        <ele>1427.6</ele>
      </trkpt>
      <trkpt lat="42.8985" lon="0.78456">
        <ele>1427.6</ele>
      </trkpt>
      <trkpt lat="42.8985" lon="0.78456">
        <ele>1427.6</ele>
      </trkpt>
      <trkpt lat="42.8985" lon="0.78456">
        <ele>1427.6</ele>
      </trkpt>
      <trkpt lat="42.89851" lon="0.78456">
        <ele>1427.5</ele>
      </trkpt>
      <trkpt lat="42.89851" lon="0.78455">
        <ele>1427.7</ele>
      </trkpt>
      <trkpt lat="42.89851" lon="0.78455">
        <ele>1427.7</ele>
      </trkpt>
      <trkpt lat="42.8985" lon="0.78455">
        <ele>1427.8</ele>
      </trkpt>
      <trkpt lat="42.8985" lon="0.78455">
        <ele>1427.8</ele>
      </trkpt>
      <trkpt lat="42.89849" lon="0.78454">
        <ele>1428.1</ele>
      </trkpt>
      <trkpt lat="42.89837" lon="0.78452">
        <ele>1429.7</ele>
      </trkpt>
      <trkpt lat="42.89837" lon="0.78452">
        <ele>1429.7</ele>
      </trkpt>
      <trkpt lat="42.89846" lon="0.78438">
        <ele>1432.3</ele>
      </trkpt>
      <trkpt lat="42.89869" lon="0.78426">
        <ele>1429</ele>
      </trkpt>
      <trkpt lat="42.89886" lon="0.7842">
        <ele>1426.5</ele>
      </trkpt>
      <trkpt lat="42.89895" lon="0.78417">
        <ele>1425.8</ele>
      </trkpt>
      <trkpt lat="42.89906" lon="0.78416">
        <ele>1434</ele>
      </trkpt>
      <trkpt lat="42.89908" lon="0.78417">
        <ele>1425.4</ele>
      </trkpt>
      <trkpt lat="42.89917" lon="0.78421">
        <ele>1423.4</ele>
      </trkpt>
      <trkpt lat="42.89919" lon="0.78422">
        <ele>1422.6</ele>
      </trkpt>
      <trkpt lat="42.89922" lon="0.78424">
        <ele>1421</ele>
      </trkpt>
      <trkpt lat="42.89923" lon="0.78426">
        <ele>1420.1</ele>
      </trkpt>
      <trkpt lat="42.89931" lon="0.78429">
        <ele>1417.5</ele>
      </trkpt>
      <trkpt lat="42.89941" lon="0.78429">
        <ele>1415.8</ele>
      </trkpt>
      <trkpt lat="42.89956" lon="0.78416">
        <ele>1432.5</ele>
      </trkpt>
      <trkpt lat="42.89957" lon="0.78415">
        <ele>1432.5</ele>
      </trkpt>
      <trkpt lat="42.89961" lon="0.78411">
        <ele>1432.6</ele>
      </trkpt>
      <trkpt lat="42.89962" lon="0.78405">
        <ele>1433.1</ele>
      </trkpt>
      <trkpt lat="42.89967" lon="0.78391">
        <ele>1434.6</ele>
      </trkpt>
      <trkpt lat="42.89968" lon="0.78389">
        <ele>1434.8</ele>
      </trkpt>
      <trkpt lat="42.89974" lon="0.7838">
        <ele>1436</ele>
      </trkpt>
      <trkpt lat="42.89975" lon="0.78376">
        <ele>1436.7</ele>
      </trkpt>
      <trkpt lat="42.89977" lon="0.78374">
        <ele>1436.9</ele>
      </trkpt>
      <trkpt lat="42.8998" lon="0.7837">
        <ele>1437.6</ele>
      </trkpt>
      <trkpt lat="42.89987" lon="0.78365">
        <ele>1438.4</ele>
      </trkpt>
      <trkpt lat="42.89992" lon="0.78363">
        <ele>1438.8</ele>
      </trkpt>
      <trkpt lat="42.89996" lon="0.78365">
        <ele>1438.4</ele>
      </trkpt>
      <trkpt lat="42.90003" lon="0.78369">
        <ele>1428.9</ele>
      </trkpt>
      <trkpt lat="42.90004" lon="0.7837">
        <ele>1428.6</ele>
      </trkpt>
      <trkpt lat="42.90011" lon="0.78374">
        <ele>1427.2</ele>
      </trkpt>
      <trkpt lat="42.90017" lon="0.78378">
        <ele>1426</ele>
      </trkpt>
      <trkpt lat="42.90019" lon="0.78378">
        <ele>1425.8</ele>
      </trkpt>
      <trkpt lat="42.90027" lon="0.78378">
        <ele>1425</ele>
      </trkpt>
      <trkpt lat="42.9003" lon="0.78376">
        <ele>1425</ele>
      </trkpt>
      <trkpt lat="42.90037" lon="0.78369">
        <ele>1425.2</ele>
      </trkpt>
      <trkpt lat="42.90039" lon="0.78366">
        <ele>1425.4</ele>
      </trkpt>
      <trkpt lat="42.9004" lon="0.78364">
        <ele>1425.6</ele>
      </trkpt>
      <trkpt lat="42.90044" lon="0.78354">
        <ele>1426.3</ele>
      </trkpt>
      <trkpt lat="42.90045" lon="0.78353">
        <ele>1426.3</ele>
      </trkpt>
      <trkpt lat="42.90049" lon="0.7834">
        <ele>1426.9</ele>
      </trkpt>
      <trkpt lat="42.90049" lon="0.78338">
        <ele>1427</ele>
      </trkpt>
      <trkpt lat="42.90051" lon="0.78327">
        <ele>1443.3</ele>
      </trkpt>
      <trkpt lat="42.90053" lon="0.7832">
        <ele>1443.7</ele>
      </trkpt>
      <trkpt lat="42.90056" lon="0.7831">
        <ele>1444.8</ele>
      </trkpt>
      <trkpt lat="42.90056" lon="0.78308">
        <ele>1445.2</ele>
      </trkpt>
      <trkpt lat="42.9006" lon="0.78293">
        <ele>1447.7</ele>
      </trkpt>
      <trkpt lat="42.90061" lon="0.78291">
        <ele>1448</ele>
      </trkpt>
      <trkpt lat="42.90062" lon="0.78288">
        <ele>1448.5</ele>
      </trkpt>
      <trkpt lat="42.90065" lon="0.78278">
        <ele>1450</ele>
      </trkpt>
      <trkpt lat="42.90066" lon="0.78275">
        <ele>1450.4</ele>
      </trkpt>
      <trkpt lat="42.90067" lon="0.78273">
        <ele>1450.6</ele>
      </trkpt>
      <trkpt lat="42.90085" lon="0.78256">
        <ele>1449.6</ele>
      </trkpt>
      <trkpt lat="42.90094" lon="0.78249">
        <ele>1455.9</ele>
      </trkpt>
      <trkpt lat="42.90108" lon="0.78241">
        <ele>1457.9</ele>
      </trkpt>
      <trkpt lat="42.90111" lon="0.7824">
        <ele>1458.1</ele>
      </trkpt>
      <trkpt lat="42.9012" lon="0.78248">
        <ele>1457.3</ele>
      </trkpt>
      <trkpt lat="42.90124" lon="0.78256">
        <ele>1442.1</ele>
      </trkpt>
      <trkpt lat="42.9013" lon="0.7827">
        <ele>1440.7</ele>
      </trkpt>
      <trkpt lat="42.90145" lon="0.78284">
        <ele>1439.1</ele>
      </trkpt>
      <trkpt lat="42.90157" lon="0.78283">
        <ele>1439.2</ele>
      </trkpt>
      <trkpt lat="42.90173" lon="0.7828">
        <ele>1451.1</ele>
      </trkpt>
      <trkpt lat="42.90181" lon="0.78281">
        <ele>1452.2</ele>
      </trkpt>
      <trkpt lat="42.9019" lon="0.78297">
        <ele>1452.8</ele>
      </trkpt>
      <trkpt lat="42.9019" lon="0.78302">
        <ele>1452.2</ele>
      </trkpt>
      <trkpt lat="42.90186" lon="0.78328">
        <ele>1446.2</ele>
      </trkpt>
      <trkpt lat="42.90185" lon="0.78334">
        <ele>1440.8</ele>
      </trkpt>
      <trkpt lat="42.90185" lon="0.78375">
        <ele>1442</ele>
      </trkpt>
      <trkpt lat="42.90185" lon="0.78387">
        <ele>1440.2</ele>
      </trkpt>
      <trkpt lat="42.90185" lon="0.78399">
        <ele>1437.2</ele>
      </trkpt>
      <trkpt lat="42.90184" lon="0.78405">
        <ele>1435</ele>
      </trkpt>
      <trkpt lat="42.90183" lon="0.78417">
        <ele>1428.7</ele>
      </trkpt>
      <trkpt lat="42.90181" lon="0.78429">
        <ele>1429.5</ele>
      </trkpt>
      <trkpt lat="42.9018" lon="0.78436">
        <ele>1430.7</ele>
      </trkpt>
      <trkpt lat="42.90179" lon="0.78443">
        <ele>1431.7</ele>
      </trkpt>
      <trkpt lat="42.90179" lon="0.78457">
        <ele>1432.5</ele>
      </trkpt>
      <trkpt lat="42.90179" lon="0.78465">
        <ele>1431.9</ele>
      </trkpt>
      <trkpt lat="42.9018" lon="0.78479">
        <ele>1429.3</ele>
      </trkpt>
      <trkpt lat="42.9018" lon="0.78486">
        <ele>1427.1</ele>
      </trkpt>
      <trkpt lat="42.9018" lon="0.78493">
        <ele>1424.8</ele>
      </trkpt>
      <trkpt lat="42.90181" lon="0.78507">
        <ele>1422.6</ele>
      </trkpt>
      <trkpt lat="42.90182" lon="0.78522">
        <ele>1426.1</ele>
      </trkpt>
      <trkpt lat="42.90183" lon="0.78538">
        <ele>1427.6</ele>
      </trkpt>
      <trkpt lat="42.90184" lon="0.78546">
        <ele>1427.5</ele>
      </trkpt>
      <trkpt lat="42.90184" lon="0.78562">
        <ele>1424.9</ele>
      </trkpt>
      <trkpt lat="42.90186" lon="0.78595">
        <ele>1417.6</ele>
      </trkpt>
      <trkpt lat="42.90188" lon="0.78611">
        <ele>1419.2</ele>
      </trkpt>
      <trkpt lat="42.90192" lon="0.78632">
        <ele>1418.9</ele>
      </trkpt>
      <trkpt lat="42.90194" lon="0.78639">
        <ele>1418.6</ele>
      </trkpt>
      <trkpt lat="42.90197" lon="0.78652">
        <ele>1417.8</ele>
      </trkpt>
      <trkpt lat="42.90199" lon="0.78658">
        <ele>1417.9</ele>
      </trkpt>
      <trkpt lat="42.90204" lon="0.78668">
        <ele>1410.7</ele>
      </trkpt>
      <trkpt lat="42.90206" lon="0.78673">
        <ele>1411.3</ele>
      </trkpt>
      <trkpt lat="42.90215" lon="0.78684">
        <ele>1413.7</ele>
      </trkpt>
      <trkpt lat="42.90217" lon="0.78686">
        <ele>1414.2</ele>
      </trkpt>
      <trkpt lat="42.90223" lon="0.78691">
        <ele>1415.4</ele>
      </trkpt>
      <trkpt lat="42.90232" lon="0.78701">
        <ele>1416.1</ele>
      </trkpt>
      <trkpt lat="42.90239" lon="0.78715">
        <ele>1415.8</ele>
      </trkpt>
      <trkpt lat="42.90245" lon="0.78729">
        <ele>1417</ele>
      </trkpt>
      <trkpt lat="42.90248" lon="0.78741">
        <ele>1419.9</ele>
      </trkpt>
      <trkpt lat="42.90248" lon="0.78744">
        <ele>1420.9</ele>
      </trkpt>
      <trkpt lat="42.90251" lon="0.78754">
        <ele>1425.7</ele>
      </trkpt>
      <trkpt lat="42.90254" lon="0.78763">
        <ele>1428.3</ele>
      </trkpt>
      <trkpt lat="42.90256" lon="0.78769">
        <ele>1429.4</ele>
      </trkpt>
      <trkpt lat="42.90257" lon="0.78772">
        <ele>1429.7</ele>
      </trkpt>
      <trkpt lat="42.90257" lon="0.78775">
        <ele>1429.9</ele>
      </trkpt>
      <trkpt lat="42.90259" lon="0.78781">
        <ele>1430.3</ele>
      </trkpt>
      <trkpt lat="42.90261" lon="0.78786">
        <ele>1430.4</ele>
      </trkpt>
      <trkpt lat="42.90265" lon="0.78797">
        <ele>1430</ele>
      </trkpt>
      <trkpt lat="42.90266" lon="0.788">
        <ele>1429.8</ele>
      </trkpt>
      <trkpt lat="42.90273" lon="0.78819">
        <ele>1428.5</ele>
      </trkpt>
      <trkpt lat="42.90278" lon="0.78831">
        <ele>1428.9</ele>
      </trkpt>
      <trkpt lat="42.90284" lon="0.78846">
        <ele>1421.3</ele>
      </trkpt>
      <trkpt lat="42.90285" lon="0.78849">
        <ele>1421.3</ele>
      </trkpt>
      <trkpt lat="42.90291" lon="0.7886">
        <ele>1421.6</ele>
      </trkpt>
      <trkpt lat="42.90301" lon="0.78871">
        <ele>1422.1</ele>
      </trkpt>
      <trkpt lat="42.90311" lon="0.78876">
        <ele>1422.9</ele>
      </trkpt>
      <trkpt lat="42.90313" lon="0.78876">
        <ele>1423.2</ele>
      </trkpt>
      <trkpt lat="42.90327" lon="0.78867">
        <ele>1426.1</ele>
      </trkpt>
      <trkpt lat="42.90331" lon="0.78861">
        <ele>1427.7</ele>
      </trkpt>
      <trkpt lat="42.90341" lon="0.78849">
        <ele>1439.9</ele>
      </trkpt>
      <trkpt lat="42.9036" lon="0.78842">
        <ele>1440.9</ele>
      </trkpt>
      <trkpt lat="42.90364" lon="0.78843">
        <ele>1441.1</ele>
      </trkpt>
      <trkpt lat="42.90374" lon="0.78846">
        <ele>1441.8</ele>
      </trkpt>
      <trkpt lat="42.90389" lon="0.78857">
        <ele>1442.6</ele>
      </trkpt>
      <trkpt lat="42.90401" lon="0.78865">
        <ele>1442.6</ele>
      </trkpt>
      <trkpt lat="42.90408" lon="0.78871">
        <ele>1442</ele>
      </trkpt>
      <trkpt lat="42.9042" lon="0.78882">
        <ele>1451.9</ele>
      </trkpt>
      <trkpt lat="42.90421" lon="0.78884">
        <ele>1451.5</ele>
      </trkpt>
      <trkpt lat="42.90429" lon="0.78892">
        <ele>1450.4</ele>
      </trkpt>
      <trkpt lat="42.90432" lon="0.78895">
        <ele>1450.2</ele>
      </trkpt>
      <trkpt lat="42.90433" lon="0.78896">
        <ele>1450.2</ele>
      </trkpt>
      <trkpt lat="42.90441" lon="0.78907">
        <ele>1450.1</ele>
      </trkpt>
      <trkpt lat="42.9046" lon="0.78927">
        <ele>1440.5</ele>
      </trkpt>
      <trkpt lat="42.90462" lon="0.78929">
        <ele>1440.8</ele>
      </trkpt>
      <trkpt lat="42.90476" lon="0.78949">
        <ele>1440.1</ele>
      </trkpt>
      <trkpt lat="42.90478" lon="0.7895">
        <ele>1440.2</ele>
      </trkpt>
      <trkpt lat="42.90492" lon="0.78963">
        <ele>1438.5</ele>
      </trkpt>
      <trkpt lat="42.90497" lon="0.78966">
        <ele>1438.1</ele>
      </trkpt>
      <trkpt lat="42.90499" lon="0.78967">
        <ele>1437.9</ele>
      </trkpt>
      <trkpt lat="42.90507" lon="0.7897">
        <ele>1437.7</ele>
      </trkpt>
      <trkpt lat="42.9051" lon="0.78969">
        <ele>1437.8</ele>
      </trkpt>
      <trkpt lat="42.90512" lon="0.78968">
        <ele>1438</ele>
      </trkpt>
      <trkpt lat="42.90516" lon="0.78968">
        <ele>1437.9</ele>
      </trkpt>
      <trkpt lat="42.90521" lon="0.78964">
        <ele>1438.5</ele>
      </trkpt>
      <trkpt lat="42.90522" lon="0.78963">
        <ele>1438.6</ele>
      </trkpt>
      <trkpt lat="42.90527" lon="0.78959">
        <ele>1439.1</ele>
      </trkpt>
      <trkpt lat="42.90534" lon="0.78955">
        <ele>1439.3</ele>
      </trkpt>
      <trkpt lat="42.9054" lon="0.78949">
        <ele>1439.9</ele>
      </trkpt>
      <trkpt lat="42.90541" lon="0.78948">
        <ele>1439.9</ele>
      </trkpt>
      <trkpt lat="42.90543" lon="0.78947">
        <ele>1440</ele>
      </trkpt>
      <trkpt lat="42.90546" lon="0.78944">
        <ele>1440.3</ele>
      </trkpt>
      <trkpt lat="42.90548" lon="0.78943">
        <ele>1440.3</ele>
      </trkpt>
      <trkpt lat="42.90569" lon="0.78927">
        <ele>1443</ele>
      </trkpt>
      <trkpt lat="42.9057" lon="0.78925">
        <ele>1443.5</ele>
      </trkpt>
      <trkpt lat="42.90584" lon="0.78914">
        <ele>1448.6</ele>
      </trkpt>
      <trkpt lat="42.90614" lon="0.7889">
        <ele>1451.6</ele>
      </trkpt>
      <trkpt lat="42.90621" lon="0.78883">
        <ele>1452.1</ele>
      </trkpt>
      <trkpt lat="42.90627" lon="0.78878">
        <ele>1452.3</ele>
      </trkpt>
      <trkpt lat="42.90633" lon="0.78872">
        <ele>1452.8</ele>
      </trkpt>
      <trkpt lat="42.90637" lon="0.78869">
        <ele>1453</ele>
      </trkpt>
      <trkpt lat="42.90661" lon="0.78855">
        <ele>1455</ele>
      </trkpt>
      <trkpt lat="42.90673" lon="0.78848">
        <ele>1447.9</ele>
      </trkpt>
      <trkpt lat="42.90686" lon="0.78854">
        <ele>1442.2</ele>
      </trkpt>
      <trkpt lat="42.90698" lon="0.7886">
        <ele>1438.3</ele>
      </trkpt>
      <trkpt lat="42.90716" lon="0.78858">
        <ele>1436.6</ele>
      </trkpt>
      <trkpt lat="42.90728" lon="0.7885">
        <ele>1437.4</ele>
      </trkpt>
      <trkpt lat="42.90743" lon="0.78837">
        <ele>1440.6</ele>
      </trkpt>
      <trkpt lat="42.90747" lon="0.78832">
        <ele>1445.3</ele>
      </trkpt>
      <trkpt lat="42.90755" lon="0.78824">
        <ele>1441.7</ele>
      </trkpt>
      <trkpt lat="42.90766" lon="0.78808">
        <ele>1440.5</ele>
      </trkpt>
      <trkpt lat="42.90777" lon="0.78765">
        <ele>1441.9</ele>
      </trkpt>
      <trkpt lat="42.9078" lon="0.7875">
        <ele>1441</ele>
      </trkpt>
      <trkpt lat="42.90781" lon="0.78741">
        <ele>1440.3</ele>
      </trkpt>
      <trkpt lat="42.90782" lon="0.78733">
        <ele>1439.5</ele>
      </trkpt>
      <trkpt lat="42.90782" lon="0.78715">
        <ele>1438.6</ele>
      </trkpt>
      <trkpt lat="42.90782" lon="0.78706">
        <ele>1438.4</ele>
      </trkpt>
      <trkpt lat="42.90782" lon="0.78697">
        <ele>1438.4</ele>
      </trkpt>
      <trkpt lat="42.90783" lon="0.78688">
        <ele>1438.3</ele>
      </trkpt>
      <trkpt lat="42.90783" lon="0.78679">
        <ele>1438.6</ele>
      </trkpt>
      <trkpt lat="42.90784" lon="0.7867">
        <ele>1438.4</ele>
      </trkpt>
      <trkpt lat="42.90785" lon="0.78651">
        <ele>1436</ele>
      </trkpt>
      <trkpt lat="42.90785" lon="0.78641">
        <ele>1435.6</ele>
      </trkpt>
      <trkpt lat="42.90786" lon="0.78622">
        <ele>1434.9</ele>
      </trkpt>
      <trkpt lat="42.90786" lon="0.78611">
        <ele>1435</ele>
      </trkpt>
      <trkpt lat="42.90787" lon="0.78591">
        <ele>1435.1</ele>
      </trkpt>
      <trkpt lat="42.90788" lon="0.78581">
        <ele>1435</ele>
      </trkpt>
      <trkpt lat="42.90789" lon="0.7856">
        <ele>1434.5</ele>
      </trkpt>
      <trkpt lat="42.90791" lon="0.78526">
        <ele>1434.2</ele>
      </trkpt>
      <trkpt lat="42.90792" lon="0.78503">
        <ele>1434.1</ele>
      </trkpt>
      <trkpt lat="42.90793" lon="0.78491">
        <ele>1435.2</ele>
      </trkpt>
      <trkpt lat="42.90794" lon="0.78479">
        <ele>1435.1</ele>
      </trkpt>
      <trkpt lat="42.90796" lon="0.78468">
        <ele>1434.7</ele>
      </trkpt>
      <trkpt lat="42.90797" lon="0.78456">
        <ele>1434.7</ele>
      </trkpt>
      <trkpt lat="42.90803" lon="0.78421">
        <ele>1431.7</ele>
      </trkpt>
      <trkpt lat="42.90806" lon="0.78397">
        <ele>1434.8</ele>
      </trkpt>
      <trkpt lat="42.90809" lon="0.78373">
        <ele>1436.3</ele>
      </trkpt>
      <trkpt lat="42.90812" lon="0.7835">
        <ele>1434.7</ele>
      </trkpt>
      <trkpt lat="42.90815" lon="0.78329">
        <ele>1436.2</ele>
      </trkpt>
      <trkpt lat="42.90817" lon="0.78318">
        <ele>1437.5</ele>
      </trkpt>
      <trkpt lat="42.90819" lon="0.78308">
        <ele>1439.4</ele>
      </trkpt>
      <trkpt lat="42.90821" lon="0.78298">
        <ele>1440.7</ele>
      </trkpt>
      <trkpt lat="42.90823" lon="0.78288">
        <ele>1441</ele>
      </trkpt>
      <trkpt lat="42.90826" lon="0.78278">
        <ele>1440</ele>
      </trkpt>
      <trkpt lat="42.90828" lon="0.78268">
        <ele>1437.7</ele>
      </trkpt>
      <trkpt lat="42.9083" lon="0.78258">
        <ele>1433.3</ele>
      </trkpt>
      <trkpt lat="42.90834" lon="0.7824">
        <ele>1423.4</ele>
      </trkpt>
      <trkpt lat="42.90836" lon="0.78232">
        <ele>1421.8</ele>
      </trkpt>
      <trkpt lat="42.90839" lon="0.78224">
        <ele>1421</ele>
      </trkpt>
      <trkpt lat="42.9085" lon="0.782">
        <ele>1421.8</ele>
      </trkpt>
      <trkpt lat="42.90861" lon="0.78184">
        <ele>1421.9</ele>
      </trkpt>
      <trkpt lat="42.90879" lon="0.78161">
        <ele>1430.5</ele>
      </trkpt>
      <trkpt lat="42.90891" lon="0.78146">
        <ele>1428.5</ele>
      </trkpt>
      <trkpt lat="42.90897" lon="0.78138">
        <ele>1428.8</ele>
      </trkpt>
      <trkpt lat="42.90903" lon="0.78131">
        <ele>1429.4</ele>
      </trkpt>
      <trkpt lat="42.90909" lon="0.78123">
        <ele>1430.4</ele>
      </trkpt>
      <trkpt lat="42.90916" lon="0.78116">
        <ele>1431.1</ele>
      </trkpt>
      <trkpt lat="42.90922" lon="0.78109">
        <ele>1414.8</ele>
      </trkpt>
      <trkpt lat="42.90936" lon="0.78095">
        <ele>1416</ele>
      </trkpt>
      <trkpt lat="42.90942" lon="0.78088">
        <ele>1415</ele>
      </trkpt>
      <trkpt lat="42.90949" lon="0.78082">
        <ele>1423.7</ele>
      </trkpt>
      <trkpt lat="42.90956" lon="0.78077">
        <ele>1422.3</ele>
      </trkpt>
      <trkpt lat="42.90972" lon="0.78069">
        <ele>1418.9</ele>
      </trkpt>
      <trkpt lat="42.91025" lon="0.78069">
        <ele>1399.4</ele>
      </trkpt>
      <trkpt lat="42.91035" lon="0.78061">
        <ele>1397.9</ele>
      </trkpt>
      <trkpt lat="42.9104" lon="0.78057">
        <ele>1397.3</ele>
      </trkpt>
      <trkpt lat="42.91044" lon="0.78052">
        <ele>1396.9</ele>
      </trkpt>
      <trkpt lat="42.91051" lon="0.78031">
        <ele>1396.4</ele>
      </trkpt>
      <trkpt lat="42.91052" lon="0.78024">
        <ele>1396.3</ele>
      </trkpt>
      <trkpt lat="42.91051" lon="0.78007">
        <ele>1396.3</ele>
      </trkpt>
      <trkpt lat="42.91049" lon="0.77999">
        <ele>1393.1</ele>
      </trkpt>
      <trkpt lat="42.91043" lon="0.77985">
        <ele>1393.7</ele>
      </trkpt>
      <trkpt lat="42.9104" lon="0.77977">
        <ele>1393.6</ele>
      </trkpt>
      <trkpt lat="42.91037" lon="0.7797">
        <ele>1393.5</ele>
      </trkpt>
      <trkpt lat="42.9103" lon="0.77954">
        <ele>1392.9</ele>
      </trkpt>
      <trkpt lat="42.91023" lon="0.77938">
        <ele>1392.8</ele>
      </trkpt>
      <trkpt lat="42.91016" lon="0.77923">
        <ele>1393.8</ele>
      </trkpt>
      <trkpt lat="42.91009" lon="0.77907">
        <ele>1387.7</ele>
      </trkpt>
      <trkpt lat="42.91001" lon="0.77891">
        <ele>1383.3</ele>
      </trkpt>
      <trkpt lat="42.9099" lon="0.77868">
        <ele>1401.3</ele>
      </trkpt>
      <trkpt lat="42.90986" lon="0.7786">
        <ele>1400.2</ele>
      </trkpt>
      <trkpt lat="42.90983" lon="0.77852">
        <ele>1398.9</ele>
      </trkpt>
      <trkpt lat="42.9098" lon="0.77843">
        <ele>1397.8</ele>
      </trkpt>
      <trkpt lat="42.90973" lon="0.77827">
        <ele>1393.8</ele>
      </trkpt>
      <trkpt lat="42.90965" lon="0.77799">
        <ele>1396.2</ele>
      </trkpt>
      <trkpt lat="42.90957" lon="0.77757">
        <ele>1396.6</ele>
      </trkpt>
      <trkpt lat="42.90954" lon="0.77728">
        <ele>1394.8</ele>
      </trkpt>
      <trkpt lat="42.90953" lon="0.77715">
        <ele>1394.8</ele>
      </trkpt>
      <trkpt lat="42.90951" lon="0.77709">
        <ele>1395.2</ele>
      </trkpt>
      <trkpt lat="42.90939" lon="0.77658">
        <ele>1399.7</ele>
      </trkpt>
      <trkpt lat="42.90931" lon="0.77623">
        <ele>1399.5</ele>
      </trkpt>
      <trkpt lat="42.90932" lon="0.77611">
        <ele>1400.1</ele>
      </trkpt>
      <trkpt lat="42.90936" lon="0.77606">
        <ele>1399.9</ele>
      </trkpt>
      <trkpt lat="42.90943" lon="0.77596">
        <ele>1399.4</ele>
      </trkpt>
      <trkpt lat="42.90947" lon="0.77591">
        <ele>1398.8</ele>
      </trkpt>
      <trkpt lat="42.90952" lon="0.77584">
        <ele>1397.8</ele>
      </trkpt>
      <trkpt lat="42.90953" lon="0.77581">
        <ele>1398.4</ele>
      </trkpt>
      <trkpt lat="42.90962" lon="0.77565">
        <ele>1396.7</ele>
      </trkpt>
      <trkpt lat="42.90963" lon="0.77563">
        <ele>1396.6</ele>
      </trkpt>
      <trkpt lat="42.90972" lon="0.77549">
        <ele>1395.7</ele>
      </trkpt>
      <trkpt lat="42.90979" lon="0.77539">
        <ele>1395.3</ele>
      </trkpt>
      <trkpt lat="42.90984" lon="0.77535">
        <ele>1394.9</ele>
      </trkpt>
      <trkpt lat="42.90988" lon="0.77532">
        <ele>1394.6</ele>
      </trkpt>
      <trkpt lat="42.90989" lon="0.77531">
        <ele>1394.6</ele>
      </trkpt>
      <trkpt lat="42.91001" lon="0.77523">
        <ele>1388</ele>
      </trkpt>
      <trkpt lat="42.91006" lon="0.7752">
        <ele>1388.1</ele>
      </trkpt>
      <trkpt lat="42.91031" lon="0.77505">
        <ele>1387.4</ele>
      </trkpt>
      <trkpt lat="42.91034" lon="0.77504">
        <ele>1387.3</ele>
      </trkpt>
      <trkpt lat="42.91063" lon="0.77489">
        <ele>1393.2</ele>
      </trkpt>
      <trkpt lat="42.91072" lon="0.77485">
        <ele>1392.6</ele>
      </trkpt>
      <trkpt lat="42.91074" lon="0.77483">
        <ele>1392.7</ele>
      </trkpt>
      <trkpt lat="42.91093" lon="0.77475">
        <ele>1389.4</ele>
      </trkpt>
      <trkpt lat="42.91106" lon="0.77475">
        <ele>1389.3</ele>
      </trkpt>
      <trkpt lat="42.91149" lon="0.77448">
        <ele>1389.5</ele>
      </trkpt>
      <trkpt lat="42.91151" lon="0.77444">
        <ele>1389.7</ele>
      </trkpt>
      <trkpt lat="42.91159" lon="0.77421">
        <ele>1390.7</ele>
      </trkpt>
      <trkpt lat="42.91166" lon="0.77397">
        <ele>1399</ele>
      </trkpt>
      <trkpt lat="42.91169" lon="0.77393">
        <ele>1397.4</ele>
      </trkpt>
      <trkpt lat="42.91172" lon="0.7739">
        <ele>1398.1</ele>
      </trkpt>
      <trkpt lat="42.91193" lon="0.77382">
        <ele>1399.7</ele>
      </trkpt>
      <trkpt lat="42.91207" lon="0.77385">
        <ele>1399.3</ele>
      </trkpt>
      <trkpt lat="42.9121" lon="0.77387">
        <ele>1399.1</ele>
      </trkpt>
      <trkpt lat="42.91247" lon="0.77409">
        <ele>1393</ele>
      </trkpt>
      <trkpt lat="42.91249" lon="0.77412">
        <ele>1391.8</ele>
      </trkpt>
      <trkpt lat="42.91255" lon="0.77418">
        <ele>1389.5</ele>
      </trkpt>
      <trkpt lat="42.91272" lon="0.77434">
        <ele>1388.1</ele>
      </trkpt>
      <trkpt lat="42.91282" lon="0.77438">
        <ele>1387.9</ele>
      </trkpt>
      <trkpt lat="42.91298" lon="0.77437">
        <ele>1388.4</ele>
      </trkpt>
      <trkpt lat="42.91303" lon="0.77436">
        <ele>1388.7</ele>
      </trkpt>
      <trkpt lat="42.91309" lon="0.7743">
        <ele>1389.4</ele>
      </trkpt>
      <trkpt lat="42.91318" lon="0.77418">
        <ele>1390.9</ele>
      </trkpt>
      <trkpt lat="42.91319" lon="0.77416">
        <ele>1396.9</ele>
      </trkpt>
      <trkpt lat="42.9133" lon="0.77405">
        <ele>1397</ele>
      </trkpt>
      <trkpt lat="42.91341" lon="0.77394">
        <ele>1395.9</ele>
      </trkpt>
      <trkpt lat="42.91361" lon="0.77374">
        <ele>1397.1</ele>
      </trkpt>
      <trkpt lat="42.91364" lon="0.77372">
        <ele>1397.1</ele>
      </trkpt>
      <trkpt lat="42.91368" lon="0.77367">
        <ele>1397.3</ele>
      </trkpt>
      <trkpt lat="42.91386" lon="0.77345">
        <ele>1397.2</ele>
      </trkpt>
      <trkpt lat="42.91392" lon="0.77337">
        <ele>1397</ele>
      </trkpt>
      <trkpt lat="42.91396" lon="0.77326">
        <ele>1403.5</ele>
      </trkpt>
      <trkpt lat="42.91399" lon="0.77319">
        <ele>1403.6</ele>
      </trkpt>
      <trkpt lat="42.91404" lon="0.77303">
        <ele>1405</ele>
      </trkpt>
      <trkpt lat="42.91406" lon="0.77295">
        <ele>1405.5</ele>
      </trkpt>
      <trkpt lat="42.9141" lon="0.77266">
        <ele>1405.6</ele>
      </trkpt>
      <trkpt lat="42.91411" lon="0.77262">
        <ele>1405.3</ele>
      </trkpt>
      <trkpt lat="42.91417" lon="0.77215">
        <ele>1399.5</ele>
      </trkpt>
      <trkpt lat="42.91418" lon="0.77212">
        <ele>1399.6</ele>
      </trkpt>
      <trkpt lat="42.91422" lon="0.7719">
        <ele>1402.3</ele>
      </trkpt>
      <trkpt lat="42.91423" lon="0.77186">
        <ele>1403.1</ele>
      </trkpt>
      <trkpt lat="42.91426" lon="0.7717">
        <ele>1406.5</ele>
      </trkpt>
      <trkpt lat="42.91427" lon="0.77163">
        <ele>1408.8</ele>
      </trkpt>
      <trkpt lat="42.91436" lon="0.7711">
        <ele>1407</ele>
      </trkpt>
      <trkpt lat="42.91436" lon="0.77103">
        <ele>1407.7</ele>
      </trkpt>
      <trkpt lat="42.91435" lon="0.77077">
        <ele>1410.6</ele>
      </trkpt>
      <trkpt lat="42.91433" lon="0.77065">
        <ele>1410.1</ele>
      </trkpt>
      <trkpt lat="42.91433" lon="0.7706">
        <ele>1409.7</ele>
      </trkpt>
      <trkpt lat="42.91431" lon="0.77049">
        <ele>1409.4</ele>
      </trkpt>
      <trkpt lat="42.91428" lon="0.77027">
        <ele>1410</ele>
      </trkpt>
      <trkpt lat="42.91427" lon="0.77021">
        <ele>1410.5</ele>
      </trkpt>
      <trkpt lat="42.91427" lon="0.77016">
        <ele>1411.1</ele>
      </trkpt>
      <trkpt lat="42.91419" lon="0.76953">
        <ele>1409.3</ele>
      </trkpt>
      <trkpt lat="42.91418" lon="0.76944">
        <ele>1409.6</ele>
      </trkpt>
      <trkpt lat="42.91419" lon="0.76936">
        <ele>1410.2</ele>
      </trkpt>
      <trkpt lat="42.91418" lon="0.76932">
        <ele>1410.7</ele>
      </trkpt>
      <trkpt lat="42.91419" lon="0.76924">
        <ele>1412</ele>
      </trkpt>
      <trkpt lat="42.9142" lon="0.76908">
        <ele>1412.1</ele>
      </trkpt>
      <trkpt lat="42.91421" lon="0.76901">
        <ele>1411.2</ele>
      </trkpt>
      <trkpt lat="42.91421" lon="0.76879">
        <ele>1410.5</ele>
      </trkpt>
      <trkpt lat="42.9142" lon="0.76863">
        <ele>1411.2</ele>
      </trkpt>
      <trkpt lat="42.91418" lon="0.76847">
        <ele>1413.3</ele>
      </trkpt>
      <trkpt lat="42.91416" lon="0.76839">
        <ele>1418.1</ele>
      </trkpt>
      <trkpt lat="42.91415" lon="0.76835">
        <ele>1417.5</ele>
      </trkpt>
      <trkpt lat="42.91414" lon="0.76831">
        <ele>1417.7</ele>
      </trkpt>
      <trkpt lat="42.9141" lon="0.76802">
        <ele>1420.2</ele>
      </trkpt>
      <trkpt lat="42.91409" lon="0.76798">
        <ele>1420.3</ele>
      </trkpt>
      <trkpt lat="42.91408" lon="0.76786">
        <ele>1420.2</ele>
      </trkpt>
      <trkpt lat="42.91408" lon="0.76782">
        <ele>1420.1</ele>
      </trkpt>
      <trkpt lat="42.91408" lon="0.76774">
        <ele>1419.7</ele>
      </trkpt>
      <trkpt lat="42.91408" lon="0.7677">
        <ele>1419.4</ele>
      </trkpt>
      <trkpt lat="42.91408" lon="0.76766">
        <ele>1419.1</ele>
      </trkpt>
      <trkpt lat="42.91411" lon="0.76757">
        <ele>1417.9</ele>
      </trkpt>
      <trkpt lat="42.91411" lon="0.76753">
        <ele>1417.4</ele>
      </trkpt>
      <trkpt lat="42.91412" lon="0.76749">
        <ele>1416.8</ele>
      </trkpt>
      <trkpt lat="42.91415" lon="0.76739">
        <ele>1417.5</ele>
      </trkpt>
      <trkpt lat="42.91417" lon="0.76733">
        <ele>1415.4</ele>
      </trkpt>
      <trkpt lat="42.91418" lon="0.7673">
        <ele>1415.4</ele>
      </trkpt>
      <trkpt lat="42.9142" lon="0.76717">
        <ele>1415.3</ele>
      </trkpt>
      <trkpt lat="42.91421" lon="0.76714">
        <ele>1415.3</ele>
      </trkpt>
      <trkpt lat="42.91429" lon="0.76663">
        <ele>1417.1</ele>
      </trkpt>
      <trkpt lat="42.91486" lon="0.76685">
        <ele>1417.9</ele>
      </trkpt>
      <trkpt lat="42.91546" lon="0.76725">
        <ele>1412.4</ele>
      </trkpt>
      <trkpt lat="42.916" lon="0.76727">
        <ele>1406.8</ele>
      </trkpt>
      <trkpt lat="42.9166" lon="0.76701">
        <ele>1406.3</ele>
      </trkpt>
      <trkpt lat="42.91706" lon="0.76645">
        <ele>1400.5</ele>
      </trkpt>
      <trkpt lat="42.91739" lon="0.76579">
        <ele>1397.1</ele>
      </trkpt>
      <trkpt lat="42.91762" lon="0.76495">
        <ele>1392.4</ele>
      </trkpt>
      <trkpt lat="42.91801" lon="0.76431">
        <ele>1384.1</ele>
      </trkpt>
      <trkpt lat="42.9183" lon="0.7636">
        <ele>1382.6</ele>
      </trkpt>
      <trkpt lat="42.91867" lon="0.76294">
        <ele>1367.1</ele>
      </trkpt>
      <trkpt lat="42.91884" lon="0.76241">
        <ele>1363.7</ele>
      </trkpt>
      <trkpt lat="42.91888" lon="0.76183">
        <ele>1361.8</ele>
      </trkpt>
      <trkpt lat="42.91908" lon="0.76167">
        <ele>1359.4</ele>
      </trkpt>
      <trkpt lat="42.91917" lon="0.76159">
        <ele>1359.6</ele>
      </trkpt>
      <trkpt lat="42.9192" lon="0.76169">
        <ele>1358.4</ele>
      </trkpt>
      <trkpt lat="42.91933" lon="0.76172">
        <ele>1359.5</ele>
      </trkpt>
      <trkpt lat="42.91937" lon="0.76182">
        <ele>1359.9</ele>
      </trkpt>
      <trkpt lat="42.91943" lon="0.76174">
        <ele>1360.2</ele>
      </trkpt>
      <trkpt lat="42.91965" lon="0.76173">
        <ele>1362</ele>
      </trkpt>
      <trkpt lat="42.9198" lon="0.76175">
        <ele>1363.6</ele>
      </trkpt>
      <trkpt lat="42.91994" lon="0.76188">
        <ele>1363.5</ele>
      </trkpt>
      <trkpt lat="42.9202" lon="0.76226">
        <ele>1365.8</ele>
      </trkpt>
      <trkpt lat="42.92051" lon="0.76254">
        <ele>1360.1</ele>
      </trkpt>
      <trkpt lat="42.92076" lon="0.76261">
        <ele>1364.5</ele>
      </trkpt>
      <trkpt lat="42.92088" lon="0.76277">
        <ele>1374</ele>
      </trkpt>
      <trkpt lat="42.92104" lon="0.76335">
        <ele>1364.1</ele>
      </trkpt>
      <trkpt lat="42.92156" lon="0.76476">
        <ele>1351.3</ele>
      </trkpt>
      <trkpt lat="42.92182" lon="0.76506">
        <ele>1361</ele>
      </trkpt>
      <trkpt lat="42.92196" lon="0.76561">
        <ele>1363.6</ele>
      </trkpt>
      <trkpt lat="42.92202" lon="0.76629">
        <ele>1355.5</ele>
      </trkpt>
      <trkpt lat="42.92206" lon="0.76702">
        <ele>1345.9</ele>
      </trkpt>
      <trkpt lat="42.92215" lon="0.76775">
        <ele>1338.7</ele>
      </trkpt>
      <trkpt lat="42.92238" lon="0.76881">
        <ele>1328.8</ele>
      </trkpt>
      <trkpt lat="42.92252" lon="0.76935">
        <ele>1338.3</ele>
      </trkpt>
      <trkpt lat="42.92273" lon="0.76984">
        <ele>1333</ele>
      </trkpt>
      <trkpt lat="42.92296" lon="0.77021">
        <ele>1316.4</ele>
      </trkpt>
      <trkpt lat="42.92325" lon="0.77046">
        <ele>1314.5</ele>
      </trkpt>
      <trkpt lat="42.92356" lon="0.77043">
        <ele>1326.8</ele>
      </trkpt>
      <trkpt lat="42.92389" lon="0.77043">
        <ele>1328.8</ele>
      </trkpt>
      <trkpt lat="42.92436" lon="0.77067">
        <ele>1332.2</ele>
      </trkpt>
      <trkpt lat="42.92451" lon="0.77074">
        <ele>1334.6</ele>
      </trkpt>
      <trkpt lat="42.92493" lon="0.77105">
        <ele>1317</ele>
      </trkpt>
      <trkpt lat="42.92519" lon="0.77118">
        <ele>1328.5</ele>
      </trkpt>
      <trkpt lat="42.92545" lon="0.77146">
        <ele>1327.4</ele>
      </trkpt>
      <trkpt lat="42.92585" lon="0.77216">
        <ele>1319.4</ele>
      </trkpt>
      <trkpt lat="42.92615" lon="0.77256">
        <ele>1298</ele>
      </trkpt>
      <trkpt lat="42.92637" lon="0.77278">
        <ele>1299.6</ele>
      </trkpt>
      <trkpt lat="42.92667" lon="0.77295">
        <ele>1313.1</ele>
      </trkpt>
      <trkpt lat="42.92695" lon="0.7732">
        <ele>1309.4</ele>
      </trkpt>
      <trkpt lat="42.92714" lon="0.7733">
        <ele>1311.6</ele>
      </trkpt>
      <trkpt lat="42.92734" lon="0.77338">
        <ele>1296.4</ele>
      </trkpt>
      <trkpt lat="42.92754" lon="0.7735">
        <ele>1304.9</ele>
      </trkpt>
      <trkpt lat="42.92767" lon="0.77361">
        <ele>1303.2</ele>
      </trkpt>
      <trkpt lat="42.92776" lon="0.77364">
        <ele>1303.3</ele>
      </trkpt>
      <trkpt lat="42.92789" lon="0.77372">
        <ele>1303.2</ele>
      </trkpt>
      <trkpt lat="42.92799" lon="0.77387">
        <ele>1301.7</ele>
      </trkpt>
      <trkpt lat="42.92805" lon="0.7739">
        <ele>1301.7</ele>
      </trkpt>
      <trkpt lat="42.92809" lon="0.77397">
        <ele>1300.9</ele>
      </trkpt>
      <trkpt lat="42.92823" lon="0.77407">
        <ele>1299.6</ele>
      </trkpt>
      <trkpt lat="42.92828" lon="0.77414">
        <ele>1298.2</ele>
      </trkpt>
      <trkpt lat="42.92851" lon="0.77436">
        <ele>1293</ele>
      </trkpt>
      <trkpt lat="42.92873" lon="0.77462">
        <ele>1290.8</ele>
      </trkpt>
      <trkpt lat="42.92892" lon="0.77496">
        <ele>1289.8</ele>
      </trkpt>
      <trkpt lat="42.92917" lon="0.7755">
        <ele>1282.8</ele>
      </trkpt>
      <trkpt lat="42.92928" lon="0.77591">
        <ele>1276.1</ele>
      </trkpt>
      <trkpt lat="42.92948" lon="0.77643">
        <ele>1274.9</ele>
      </trkpt>
      <trkpt lat="42.92992" lon="0.77725">
        <ele>1270.7</ele>
      </trkpt>
      <trkpt lat="42.92998" lon="0.77742">
        <ele>1273.8</ele>
      </trkpt>
      <trkpt lat="42.9303" lon="0.77802">
        <ele>1272.8</ele>
      </trkpt>
      <trkpt lat="42.93036" lon="0.7781">
        <ele>1272.9</ele>
      </trkpt>
      <trkpt lat="42.93041" lon="0.7781">
        <ele>1273.2</ele>
      </trkpt>
      <trkpt lat="42.93044" lon="0.77806">
        <ele>1273.3</ele>
      </trkpt>
      <trkpt lat="42.93048" lon="0.77797">
        <ele>1273.4</ele>
      </trkpt>
      <trkpt lat="42.93048" lon="0.77777">
        <ele>1273.2</ele>
      </trkpt>
      <trkpt lat="42.93033" lon="0.77717">
        <ele>1275.6</ele>
      </trkpt>
      <trkpt lat="42.9303" lon="0.77674">
        <ele>1278.2</ele>
      </trkpt>
      <trkpt lat="42.93019" lon="0.77628">
        <ele>1278.5</ele>
      </trkpt>
      <trkpt lat="42.93016" lon="0.77569">
        <ele>1276.8</ele>
      </trkpt>
      <trkpt lat="42.9302" lon="0.77567">
        <ele>1275.1</ele>
      </trkpt>
      <trkpt lat="42.93022" lon="0.77554">
        <ele>1272.5</ele>
      </trkpt>
      <trkpt lat="42.93021" lon="0.77498">
        <ele>1268.5</ele>
      </trkpt>
      <trkpt lat="42.93013" lon="0.77453">
        <ele>1266.2</ele>
      </trkpt>
      <trkpt lat="42.93014" lon="0.77429">
        <ele>1269.8</ele>
      </trkpt>
      <trkpt lat="42.93021" lon="0.77405">
        <ele>1266.7</ele>
      </trkpt>
      <trkpt lat="42.93025" lon="0.77381">
        <ele>1263.3</ele>
      </trkpt>
      <trkpt lat="42.93018" lon="0.7734">
        <ele>1271.3</ele>
      </trkpt>
      <trkpt lat="42.93022" lon="0.77295">
        <ele>1263.7</ele>
      </trkpt>
      <trkpt lat="42.93029" lon="0.7723">
        <ele>1264.6</ele>
      </trkpt>
      <trkpt lat="42.93036" lon="0.77193">
        <ele>1264.5</ele>
      </trkpt>
      <trkpt lat="42.93053" lon="0.77171">
        <ele>1260.2</ele>
      </trkpt>
      <trkpt lat="42.93087" lon="0.77141">
        <ele>1254</ele>
      </trkpt>
      <trkpt lat="42.93117" lon="0.77112">
        <ele>1257</ele>
      </trkpt>
      <trkpt lat="42.93134" lon="0.77102">
        <ele>1255</ele>
      </trkpt>
      <trkpt lat="42.93158" lon="0.77096">
        <ele>1252.2</ele>
      </trkpt>
      <trkpt lat="42.93164" lon="0.77091">
        <ele>1251.7</ele>
      </trkpt>
      <trkpt lat="42.93175" lon="0.77084">
        <ele>1251.9</ele>
      </trkpt>
      <trkpt lat="42.93184" lon="0.77085">
        <ele>1252.9</ele>
      </trkpt>
      <trkpt lat="42.93189" lon="0.77097">
        <ele>1253.3</ele>
      </trkpt>
      <trkpt lat="42.93194" lon="0.77119">
        <ele>1252.4</ele>
      </trkpt>
      <trkpt lat="42.93201" lon="0.77137">
        <ele>1251.3</ele>
      </trkpt>
      <trkpt lat="42.93216" lon="0.77174">
        <ele>1240.7</ele>
      </trkpt>
      <trkpt lat="42.93247" lon="0.77222">
        <ele>1237.5</ele>
      </trkpt>
      <trkpt lat="42.93264" lon="0.77256">
        <ele>1241.7</ele>
      </trkpt>
      <trkpt lat="42.93273" lon="0.77282">
        <ele>1244.3</ele>
      </trkpt>
      <trkpt lat="42.93284" lon="0.77305">
        <ele>1244.3</ele>
      </trkpt>
      <trkpt lat="42.93299" lon="0.77373">
        <ele>1230.7</ele>
      </trkpt>
      <trkpt lat="42.93323" lon="0.77415">
        <ele>1232.7</ele>
      </trkpt>
      <trkpt lat="42.93335" lon="0.7745">
        <ele>1238</ele>
      </trkpt>
      <trkpt lat="42.93363" lon="0.77479">
        <ele>1238.4</ele>
      </trkpt>
      <trkpt lat="42.93369" lon="0.77505">
        <ele>1229.2</ele>
      </trkpt>
      <trkpt lat="42.93368" lon="0.77543">
        <ele>1227.2</ele>
      </trkpt>
      <trkpt lat="42.93376" lon="0.7758">
        <ele>1227</ele>
      </trkpt>
      <trkpt lat="42.93439" lon="0.77776">
        <ele>1219.7</ele>
      </trkpt>
      <trkpt lat="42.93451" lon="0.77827">
        <ele>1219.1</ele>
      </trkpt>
      <trkpt lat="42.93455" lon="0.77861">
        <ele>1214.5</ele>
      </trkpt>
      <trkpt lat="42.93459" lon="0.77905">
        <ele>1213.9</ele>
      </trkpt>
      <trkpt lat="42.93461" lon="0.77972">
        <ele>1207.3</ele>
      </trkpt>
      <trkpt lat="42.93456" lon="0.78023">
        <ele>1196.8</ele>
      </trkpt>
      <trkpt lat="42.93459" lon="0.78089">
        <ele>1190.3</ele>
      </trkpt>
      <trkpt lat="42.93456" lon="0.78151">
        <ele>1188.4</ele>
      </trkpt>
      <trkpt lat="42.9346" lon="0.78276">
        <ele>1181.6</ele>
      </trkpt>
      <trkpt lat="42.93453" lon="0.78348">
        <ele>1174</ele>
      </trkpt>
      <trkpt lat="42.93454" lon="0.7847">
        <ele>1168.9</ele>
      </trkpt>
      <trkpt lat="42.93459" lon="0.78588">
        <ele>1145.9</ele>
      </trkpt>
      <trkpt lat="42.93462" lon="0.78601">
        <ele>1145.9</ele>
      </trkpt>
      <trkpt lat="42.93492" lon="0.78612">
        <ele>1154.5</ele>
      </trkpt>
      <trkpt lat="42.93506" lon="0.78635">
        <ele>1178.5</ele>
      </trkpt>
      <trkpt lat="42.9351" lon="0.78647">
        <ele>1173.6</ele>
      </trkpt>
      <trkpt lat="42.93548" lon="0.78779">
        <ele>1139.8</ele>
      </trkpt>
      <trkpt lat="42.93562" lon="0.78819">
        <ele>1138.6</ele>
      </trkpt>
      <trkpt lat="42.93584" lon="0.78847">
        <ele>1138.3</ele>
      </trkpt>
      <trkpt lat="42.93628" lon="0.7886">
        <ele>1133.1</ele>
      </trkpt>
      <trkpt lat="42.93672" lon="0.78866">
        <ele>1128.9</ele>
      </trkpt>
      <trkpt lat="42.93696" lon="0.78846">
        <ele>1129</ele>
      </trkpt>
      <trkpt lat="42.93706" lon="0.78829">
        <ele>1145.1</ele>
      </trkpt>
      <trkpt lat="42.93711" lon="0.7882">
        <ele>1144.9</ele>
      </trkpt>
      <trkpt lat="42.93724" lon="0.78797">
        <ele>1146.6</ele>
      </trkpt>
      <trkpt lat="42.93746" lon="0.78754">
        <ele>1149.5</ele>
      </trkpt>
      <trkpt lat="42.93775" lon="0.78712">
        <ele>1148.3</ele>
      </trkpt>
      <trkpt lat="42.93807" lon="0.78693">
        <ele>1144.9</ele>
      </trkpt>
      <trkpt lat="42.93832" lon="0.78674">
        <ele>1144</ele>
      </trkpt>
      <trkpt lat="42.93869" lon="0.78634">
        <ele>1152.7</ele>
      </trkpt>
      <trkpt lat="42.93936" lon="0.78595">
        <ele>1136.5</ele>
      </trkpt>
      <trkpt lat="42.93947" lon="0.78585">
        <ele>1133</ele>
      </trkpt>
      <trkpt lat="42.93956" lon="0.78571">
        <ele>1156</ele>
      </trkpt>
      <trkpt lat="42.93966" lon="0.78553">
        <ele>1157</ele>
      </trkpt>
      <trkpt lat="42.93978" lon="0.78541">
        <ele>1157.9</ele>
      </trkpt>
      <trkpt lat="42.94047" lon="0.78502">
        <ele>1137.1</ele>
      </trkpt>
      <trkpt lat="42.94085" lon="0.78467">
        <ele>1140.1</ele>
      </trkpt>
      <trkpt lat="42.94138" lon="0.78414">
        <ele>1157.1</ele>
      </trkpt>
      <trkpt lat="42.94161" lon="0.78404">
        <ele>1149.3</ele>
      </trkpt>
      <trkpt lat="42.94169" lon="0.78387">
        <ele>1134.1</ele>
      </trkpt>
      <trkpt lat="42.94172" lon="0.78382">
        <ele>1134.3</ele>
      </trkpt>
      <trkpt lat="42.94182" lon="0.78341">
        <ele>1143.8</ele>
      </trkpt>
      <trkpt lat="42.94204" lon="0.78287">
        <ele>1151</ele>
      </trkpt>
      <trkpt lat="42.94222" lon="0.78262">
        <ele>1149.2</ele>
      </trkpt>
      <trkpt lat="42.94241" lon="0.7824">
        <ele>1155.3</ele>
      </trkpt>
      <trkpt lat="42.94255" lon="0.78232">
        <ele>1148.2</ele>
      </trkpt>
      <trkpt lat="42.94278" lon="0.78236">
        <ele>1148.3</ele>
      </trkpt>
      <trkpt lat="42.94325" lon="0.78248">
        <ele>1137</ele>
      </trkpt>
      <trkpt lat="42.94369" lon="0.78259">
        <ele>1116.9</ele>
      </trkpt>
      <trkpt lat="42.94387" lon="0.78259">
        <ele>1115.2</ele>
      </trkpt>
      <trkpt lat="42.94396" lon="0.78254">
        <ele>1115.3</ele>
      </trkpt>
      <trkpt lat="42.94416" lon="0.78207">
        <ele>1133.5</ele>
      </trkpt>
      <trkpt lat="42.94428" lon="0.78193">
        <ele>1127.1</ele>
      </trkpt>
      <trkpt lat="42.9446" lon="0.78175">
        <ele>1126.3</ele>
      </trkpt>
      <trkpt lat="42.94481" lon="0.78175">
        <ele>1126</ele>
      </trkpt>
      <trkpt lat="42.94494" lon="0.78171">
        <ele>1127.5</ele>
      </trkpt>
      <trkpt lat="42.94501" lon="0.78168">
        <ele>1129</ele>
      </trkpt>
      <trkpt lat="42.94508" lon="0.78165">
        <ele>1135.2</ele>
      </trkpt>
      <trkpt lat="42.94525" lon="0.78169">
        <ele>1130.8</ele>
      </trkpt>
      <trkpt lat="42.94539" lon="0.78186">
        <ele>1131.7</ele>
      </trkpt>
      <trkpt lat="42.9455" lon="0.78208">
        <ele>1130.6</ele>
      </trkpt>
      <trkpt lat="42.94573" lon="0.78274">
        <ele>1116.8</ele>
      </trkpt>
      <trkpt lat="42.94608" lon="0.78341">
        <ele>1118</ele>
      </trkpt>
      <trkpt lat="42.94616" lon="0.78358">
        <ele>1118.9</ele>
      </trkpt>
      <trkpt lat="42.94659" lon="0.78431">
        <ele>1106.9</ele>
      </trkpt>
      <trkpt lat="42.94676" lon="0.78444">
        <ele>1112.2</ele>
      </trkpt>
      <trkpt lat="42.94694" lon="0.78451">
        <ele>1110.9</ele>
      </trkpt>
      <trkpt lat="42.94716" lon="0.78445">
        <ele>1113.5</ele>
      </trkpt>
      <trkpt lat="42.94728" lon="0.78439">
        <ele>1116.7</ele>
      </trkpt>
      <trkpt lat="42.94754" lon="0.78426">
        <ele>1123.8</ele>
      </trkpt>
      <trkpt lat="42.94785" lon="0.78423">
        <ele>1109.3</ele>
      </trkpt>
      <trkpt lat="42.94809" lon="0.78408">
        <ele>1131.3</ele>
      </trkpt>
      <trkpt lat="42.94828" lon="0.78394">
        <ele>1130.9</ele>
      </trkpt>
      <trkpt lat="42.9484" lon="0.78375">
        <ele>1122.2</ele>
      </trkpt>
      <trkpt lat="42.94853" lon="0.78361">
        <ele>1126.1</ele>
      </trkpt>
      <trkpt lat="42.94866" lon="0.78353">
        <ele>1124.9</ele>
      </trkpt>
      <trkpt lat="42.94892" lon="0.7835">
        <ele>1120</ele>
      </trkpt>
      <trkpt lat="42.94905" lon="0.78339">
        <ele>1121.4</ele>
      </trkpt>
      <trkpt lat="42.94926" lon="0.78327">
        <ele>1129.2</ele>
      </trkpt>
      <trkpt lat="42.94952" lon="0.78318">
        <ele>1132.3</ele>
      </trkpt>
      <trkpt lat="42.94989" lon="0.78305">
        <ele>1128.4</ele>
      </trkpt>
      <trkpt lat="42.95031" lon="0.78288">
        <ele>1116.7</ele>
      </trkpt>
      <trkpt lat="42.95046" lon="0.78276">
        <ele>1116.8</ele>
      </trkpt>
      <trkpt lat="42.95058" lon="0.78262">
        <ele>1116.6</ele>
      </trkpt>
      <trkpt lat="42.9507" lon="0.78236">
        <ele>1132.8</ele>
      </trkpt>
      <trkpt lat="42.95085" lon="0.78218">
        <ele>1117.6</ele>
      </trkpt>
      <trkpt lat="42.9511" lon="0.78199">
        <ele>1118.6</ele>
      </trkpt>
      <trkpt lat="42.95125" lon="0.7816">
        <ele>1136.1</ele>
      </trkpt>
      <trkpt lat="42.95133" lon="0.78147">
        <ele>1136</ele>
      </trkpt>
      <trkpt lat="42.95143" lon="0.7814">
        <ele>1135.4</ele>
      </trkpt>
      <trkpt lat="42.95168" lon="0.78132">
        <ele>1129.1</ele>
      </trkpt>
      <trkpt lat="42.95186" lon="0.78136">
        <ele>1128.3</ele>
      </trkpt>
      <trkpt lat="42.95232" lon="0.78173">
        <ele>1104.3</ele>
      </trkpt>
      <trkpt lat="42.95241" lon="0.78176">
        <ele>1105.2</ele>
      </trkpt>
      <trkpt lat="42.95251" lon="0.78171">
        <ele>1108.2</ele>
      </trkpt>
      <trkpt lat="42.95259" lon="0.78165">
        <ele>1116.4</ele>
      </trkpt>
      <trkpt lat="42.95267" lon="0.78154">
        <ele>1122.1</ele>
      </trkpt>
      <trkpt lat="42.95278" lon="0.78147">
        <ele>1125.7</ele>
      </trkpt>
      <trkpt lat="42.95312" lon="0.78149">
        <ele>1125.5</ele>
      </trkpt>
      <trkpt lat="42.95336" lon="0.78163">
        <ele>1119.1</ele>
      </trkpt>
      <trkpt lat="42.95356" lon="0.78179">
        <ele>1114.3</ele>
      </trkpt>
      <trkpt lat="42.95389" lon="0.78195">
        <ele>1116.3</ele>
      </trkpt>
      <trkpt lat="42.95393" lon="0.78197">
        <ele>1116.4</ele>
      </trkpt>
      <trkpt lat="42.95429" lon="0.78216">
        <ele>1127.6</ele>
      </trkpt>
      <trkpt lat="42.95486" lon="0.78255">
        <ele>1118.6</ele>
      </trkpt>
      <trkpt lat="42.95514" lon="0.78282">
        <ele>1126.6</ele>
      </trkpt>
      <trkpt lat="42.95585" lon="0.78351">
        <ele>1118.5</ele>
      </trkpt>
      <trkpt lat="42.95627" lon="0.78376">
        <ele>1115</ele>
      </trkpt>
      <trkpt lat="42.95667" lon="0.78377">
        <ele>1121.6</ele>
      </trkpt>
      <trkpt lat="42.95686" lon="0.78384">
        <ele>1119.7</ele>
      </trkpt>
      <trkpt lat="42.95698" lon="0.78391">
        <ele>1118.5</ele>
      </trkpt>
      <trkpt lat="42.95742" lon="0.78378">
        <ele>1119.3</ele>
      </trkpt>
      <trkpt lat="42.95766" lon="0.78363">
        <ele>1115.4</ele>
      </trkpt>
      <trkpt lat="42.95777" lon="0.78351">
        <ele>1115.9</ele>
      </trkpt>
      <trkpt lat="42.95796" lon="0.78326">
        <ele>1123.2</ele>
      </trkpt>
      <trkpt lat="42.95834" lon="0.78254">
        <ele>1116.8</ele>
      </trkpt>
      <trkpt lat="42.95846" lon="0.78228">
        <ele>1115.3</ele>
      </trkpt>
      <trkpt lat="42.95874" lon="0.78174">
        <ele>1113.9</ele>
      </trkpt>
      <trkpt lat="42.95954" lon="0.78026">
        <ele>1102.9</ele>
      </trkpt>
      <trkpt lat="42.95969" lon="0.78005">
        <ele>1100.1</ele>
      </trkpt>
      <trkpt lat="42.95998" lon="0.77984">
        <ele>1098.3</ele>
      </trkpt>
      <trkpt lat="42.9601" lon="0.77971">
        <ele>1088.1</ele>
      </trkpt>
      <trkpt lat="42.96028" lon="0.77944">
        <ele>1087.8</ele>
      </trkpt>
      <trkpt lat="42.96063" lon="0.77872">
        <ele>1087.2</ele>
      </trkpt>
      <trkpt lat="42.96079" lon="0.77837">
        <ele>1082</ele>
      </trkpt>
      <trkpt lat="42.96092" lon="0.77808">
        <ele>1074.6</ele>
      </trkpt>
      <trkpt lat="42.96102" lon="0.77778">
        <ele>1073.3</ele>
      </trkpt>
      <trkpt lat="42.9611" lon="0.77748">
        <ele>1072.2</ele>
      </trkpt>
      <trkpt lat="42.96112" lon="0.77699">
        <ele>1070.5</ele>
      </trkpt>
      <trkpt lat="42.96121" lon="0.77657">
        <ele>1068.5</ele>
      </trkpt>
      <trkpt lat="42.9613" lon="0.77635">
        <ele>1067.2</ele>
      </trkpt>
      <trkpt lat="42.9614" lon="0.77622">
        <ele>1066.1</ele>
      </trkpt>
      <trkpt lat="42.96173" lon="0.77604">
        <ele>1055.4</ele>
      </trkpt>
      <trkpt lat="42.96194" lon="0.77587">
        <ele>1054.4</ele>
      </trkpt>
      <trkpt lat="42.96208" lon="0.77567">
        <ele>1053.7</ele>
      </trkpt>
      <trkpt lat="42.96218" lon="0.77547">
        <ele>1053.2</ele>
      </trkpt>
      <trkpt lat="42.96233" lon="0.77531">
        <ele>1052.4</ele>
      </trkpt>
      <trkpt lat="42.96244" lon="0.77516">
        <ele>1051.2</ele>
      </trkpt>
      <trkpt lat="42.96252" lon="0.77495">
        <ele>1047.2</ele>
      </trkpt>
      <trkpt lat="42.96251" lon="0.7747">
        <ele>1043.3</ele>
      </trkpt>
      <trkpt lat="42.96252" lon="0.77392">
        <ele>1041.4</ele>
      </trkpt>
      <trkpt lat="42.96262" lon="0.77325">
        <ele>1040.9</ele>
      </trkpt>
      <trkpt lat="42.96284" lon="0.77245">
        <ele>1037</ele>
      </trkpt>
      <trkpt lat="42.96286" lon="0.77233">
        <ele>1036.6</ele>
      </trkpt>
      <trkpt lat="42.96285" lon="0.77224">
        <ele>1036.8</ele>
      </trkpt>
      <trkpt lat="42.96285" lon="0.7722">
        <ele>1036.8</ele>
      </trkpt>
      <trkpt lat="42.96285" lon="0.77224">
        <ele>1036.8</ele>
      </trkpt>
      <trkpt lat="42.96286" lon="0.77233">
        <ele>1036.6</ele>
      </trkpt>
      <trkpt lat="42.96294" lon="0.77253">
        <ele>1035.1</ele>
      </trkpt>
      <trkpt lat="42.96301" lon="0.77276">
        <ele>1034.4</ele>
      </trkpt>
      <trkpt lat="42.96302" lon="0.77283">
        <ele>1034.5</ele>
      </trkpt>
      <trkpt lat="42.96301" lon="0.77276">
        <ele>1034.4</ele>
      </trkpt>
      <trkpt lat="42.96312" lon="0.77275">
        <ele>1033</ele>
      </trkpt>
      <trkpt lat="42.96332" lon="0.77266">
        <ele>1029.8</ele>
      </trkpt>
      <trkpt lat="42.96359" lon="0.7722">
        <ele>1016.7</ele>
      </trkpt>
      <trkpt lat="42.96383" lon="0.77197">
        <ele>1012.4</ele>
      </trkpt>
      <trkpt lat="42.96401" lon="0.77194">
        <ele>1009.1</ele>
      </trkpt>
      <trkpt lat="42.96412" lon="0.77206">
        <ele>1010</ele>
      </trkpt>
      <trkpt lat="42.96423" lon="0.77203">
        <ele>999.9</ele>
      </trkpt>
      <trkpt lat="42.96441" lon="0.77189">
        <ele>997.8</ele>
      </trkpt>
      <trkpt lat="42.96475" lon="0.77155">
        <ele>979.8</ele>
      </trkpt>
      <trkpt lat="42.96529" lon="0.77136">
        <ele>965</ele>
      </trkpt>
      <trkpt lat="42.96592" lon="0.77127">
        <ele>959.6</ele>
      </trkpt>
      <trkpt lat="42.96626" lon="0.77101">
        <ele>954.6</ele>
      </trkpt>
      <trkpt lat="42.96648" lon="0.77068">
        <ele>927.9</ele>
      </trkpt>
      <trkpt lat="42.96701" lon="0.77042">
        <ele>920.9</ele>
      </trkpt>
      <trkpt lat="42.96757" lon="0.77004">
        <ele>905.9</ele>
      </trkpt>
      <trkpt lat="42.96811" lon="0.76989">
        <ele>881.3</ele>
      </trkpt>
      <trkpt lat="42.96882" lon="0.76982">
        <ele>869.2</ele>
      </trkpt>
      <trkpt lat="42.96909" lon="0.76971">
        <ele>866.7</ele>
      </trkpt>
      <trkpt lat="42.97017" lon="0.76927">
        <ele>835.3</ele>
      </trkpt>
      <trkpt lat="42.97097" lon="0.7691">
        <ele>813.5</ele>
      </trkpt>
      <trkpt lat="42.97145" lon="0.76886">
        <ele>807.3</ele>
      </trkpt>
      <trkpt lat="42.97274" lon="0.76804">
        <ele>767.3</ele>
      </trkpt>
      <trkpt lat="42.97293" lon="0.76791">
        <ele>763.8</ele>
      </trkpt>
      <trkpt lat="42.97323" lon="0.76772">
        <ele>757.5</ele>
      </trkpt>
      <trkpt lat="42.97371" lon="0.76742">
        <ele>733</ele>
      </trkpt>
      <trkpt lat="42.97458" lon="0.76688">
        <ele>718.2</ele>
      </trkpt>
      <trkpt lat="42.97512" lon="0.76671">
        <ele>702.4</ele>
      </trkpt>
      <trkpt lat="42.97552" lon="0.76678">
        <ele>694.8</ele>
      </trkpt>
      <trkpt lat="42.97577" lon="0.76694">
        <ele>692.2</ele>
      </trkpt>
      <trkpt lat="42.97607" lon="0.76721">
        <ele>668.9</ele>
      </trkpt>
      <trkpt lat="42.97626" lon="0.7675">
        <ele>664.4</ele>
      </trkpt>
      <trkpt lat="42.97644" lon="0.76817">
        <ele>667.3</ele>
      </trkpt>
      <trkpt lat="42.9766" lon="0.76877">
        <ele>668</ele>
      </trkpt>
      <trkpt lat="42.97668" lon="0.76906">
        <ele>642.4</ele>
      </trkpt>
      <trkpt lat="42.97676" lon="0.76935">
        <ele>640.1</ele>
      </trkpt>
      <trkpt lat="42.9771" lon="0.77032">
        <ele>635.7</ele>
      </trkpt>
      <trkpt lat="42.9772" lon="0.77048">
        <ele>633.7</ele>
      </trkpt>
      <trkpt lat="42.97737" lon="0.77053">
        <ele>630.3</ele>
      </trkpt>
      <trkpt lat="42.97746" lon="0.77102">
        <ele>629.4</ele>
      </trkpt>
      <trkpt lat="42.97752" lon="0.77119">
        <ele>616</ele>
      </trkpt>
      <trkpt lat="42.97759" lon="0.77123">
        <ele>615.8</ele>
      </trkpt>
      <trkpt lat="42.97771" lon="0.77111">
        <ele>615</ele>
      </trkpt>
      <trkpt lat="42.97773" lon="0.77068">
        <ele>614</ele>
      </trkpt>
      <trkpt lat="42.97776" lon="0.77044">
        <ele>613</ele>
      </trkpt>
      <trkpt lat="42.97782" lon="0.77038">
        <ele>612.6</ele>
      </trkpt>
      <trkpt lat="42.978" lon="0.77042">
        <ele>611.5</ele>
      </trkpt>
      <trkpt lat="42.97815" lon="0.77046">
        <ele>610.6</ele>
      </trkpt>
      <trkpt lat="42.97859" lon="0.77041">
        <ele>618.9</ele>
      </trkpt>
      <trkpt lat="42.97856" lon="0.76987">
        <ele>619.4</ele>
      </trkpt>
      <trkpt lat="42.97892" lon="0.76848">
        <ele>627.1</ele>
      </trkpt>
      <trkpt lat="42.97946" lon="0.76722">
        <ele>635.2</ele>
      </trkpt>
      <trkpt lat="42.98008" lon="0.76611">
        <ele>639.8</ele>
      </trkpt>
      <trkpt lat="42.9808" lon="0.76497">
        <ele>630.2</ele>
      </trkpt>
      <trkpt lat="42.98182" lon="0.76381">
        <ele>635.7</ele>
      </trkpt>
      <trkpt lat="42.98292" lon="0.76283">
        <ele>634</ele>
      </trkpt>
      <trkpt lat="42.98449" lon="0.76175">
        <ele>638.8</ele>
      </trkpt>
      <trkpt lat="42.98536" lon="0.7612">
        <ele>639.5</ele>
      </trkpt>
      <trkpt lat="42.98621" lon="0.76048">
        <ele>637.4</ele>
      </trkpt>
      <trkpt lat="42.9877" lon="0.75956">
        <ele>641.1</ele>
      </trkpt>
      <trkpt lat="42.98895" lon="0.75861">
        <ele>634.1</ele>
      </trkpt>
      <trkpt lat="42.99005" lon="0.75805">
        <ele>634.4</ele>
      </trkpt>
      <trkpt lat="42.99158" lon="0.75747">
        <ele>630.9</ele>
      </trkpt>
      <trkpt lat="42.99231" lon="0.75707">
        <ele>632.2</ele>
      </trkpt>
      <trkpt lat="42.99336" lon="0.75633">
        <ele>641.4</ele>
      </trkpt>
      <trkpt lat="42.99367" lon="0.75594">
        <ele>637.9</ele>
      </trkpt>
      <trkpt lat="42.99473" lon="0.75546">
        <ele>634</ele>
      </trkpt>
      <trkpt lat="42.99612" lon="0.75488">
        <ele>632.8</ele>
      </trkpt>
      <trkpt lat="42.9972" lon="0.75443">
        <ele>639.6</ele>
      </trkpt>
      <trkpt lat="42.99817" lon="0.75446">
        <ele>645.7</ele>
      </trkpt>
      <trkpt lat="42.99805" lon="0.75491">
        <ele>651.8</ele>
      </trkpt>
      <trkpt lat="42.99884" lon="0.7553">
        <ele>651</ele>
      </trkpt>
      <trkpt lat="42.99929" lon="0.75573">
        <ele>639.7</ele>
      </trkpt>
      <trkpt lat="42.99946" lon="0.75615">
        <ele>640.6</ele>
      </trkpt>
      <trkpt lat="42.99979" lon="0.75618">
        <ele>636.1</ele>
      </trkpt>
      <trkpt lat="43.00026" lon="0.75604">
        <ele>614.6</ele>
      </trkpt>
      <trkpt lat="43.00053" lon="0.75686">
        <ele>610.5</ele>
      </trkpt>
      <trkpt lat="43.00068" lon="0.75821">
        <ele>600</ele>
      </trkpt>
      <trkpt lat="43.00072" lon="0.75961">
        <ele>594.4</ele>
      </trkpt>
      <trkpt lat="43.00089" lon="0.7608">
        <ele>562.3</ele>
      </trkpt>
      <trkpt lat="43.00114" lon="0.76217">
        <ele>544.4</ele>
      </trkpt>
      <trkpt lat="43.00157" lon="0.76365">
        <ele>541.3</ele>
      </trkpt>
      <trkpt lat="43.00176" lon="0.76474">
        <ele>514.7</ele>
      </trkpt>
      <trkpt lat="43.00209" lon="0.76555">
        <ele>506.7</ele>
      </trkpt>
      <trkpt lat="43.00211" lon="0.76661">
        <ele>505</ele>
      </trkpt>
      <trkpt lat="43.00219" lon="0.7682">
        <ele>502.5</ele>
      </trkpt>
      <trkpt lat="43.00259" lon="0.76725">
        <ele>489.3</ele>
      </trkpt>
      <trkpt lat="43.00321" lon="0.76637">
        <ele>481.2</ele>
      </trkpt>
      <trkpt lat="43.00344" lon="0.76603">
        <ele>473.9</ele>
      </trkpt>
      <trkpt lat="43.00379" lon="0.76542">
        <ele>471.2</ele>
      </trkpt>
      <trkpt lat="43.0042" lon="0.7646">
        <ele>469</ele>
      </trkpt>
      <trkpt lat="43.00504" lon="0.76351">
        <ele>459.3</ele>
      </trkpt>
      <trkpt lat="43.00522" lon="0.76318">
        <ele>457.1</ele>
      </trkpt>
      <trkpt lat="43.00539" lon="0.76278">
        <ele>456.1</ele>
      </trkpt>
      <trkpt lat="43.00592" lon="0.7627">
        <ele>455</ele>
      </trkpt>
      <trkpt lat="43.00633" lon="0.7623">
        <ele>452.2</ele>
      </trkpt>
      <trkpt lat="43.00667" lon="0.76157">
        <ele>449.8</ele>
      </trkpt>
      <trkpt lat="43.0068" lon="0.76079">
        <ele>447.4</ele>
      </trkpt>
      <trkpt lat="43.00688" lon="0.76023">
        <ele>446.1</ele>
      </trkpt>
      <trkpt lat="43.00698" lon="0.75986">
        <ele>445.2</ele>
      </trkpt>
      <trkpt lat="43.00752" lon="0.75897">
        <ele>445.4</ele>
      </trkpt>
      <trkpt lat="43.00841" lon="0.7578">
        <ele>442</ele>
      </trkpt>
      <trkpt lat="43.00872" lon="0.75753">
        <ele>441.4</ele>
      </trkpt>
      <trkpt lat="43.00894" lon="0.7571">
        <ele>438</ele>
      </trkpt>
      <trkpt lat="43.00898" lon="0.75708">
        <ele>437.9</ele>
      </trkpt>
      <trkpt lat="43.0091" lon="0.75703">
        <ele>437.6</ele>
      </trkpt>
      <trkpt lat="43.00947" lon="0.75728">
        <ele>436.4</ele>
      </trkpt>
      <trkpt lat="43.00958" lon="0.75751">
        <ele>438.3</ele>
      </trkpt>
      <trkpt lat="43.00999" lon="0.7581">
        <ele>438.7</ele>
      </trkpt>
      <trkpt lat="43.011" lon="0.75916">
        <ele>438.6</ele>
      </trkpt>
      <trkpt lat="43.01159" lon="0.75964">
        <ele>438.2</ele>
      </trkpt>
      <trkpt lat="43.01246" lon="0.76076">
        <ele>436.4</ele>
      </trkpt>
      <trkpt lat="43.0131" lon="0.76135">
        <ele>435.6</ele>
      </trkpt>
      <trkpt lat="43.01356" lon="0.76177">
        <ele>435</ele>
      </trkpt>
      <trkpt lat="43.01375" lon="0.76195">
        <ele>434.8</ele>
      </trkpt>
      <trkpt lat="43.01384" lon="0.76182">
        <ele>434.5</ele>
      </trkpt>
      <trkpt lat="43.01403" lon="0.76125">
        <ele>433.2</ele>
      </trkpt>
      <trkpt lat="43.01418" lon="0.76061">
        <ele>430.7</ele>
      </trkpt>
      <trkpt lat="43.01422" lon="0.76033">
        <ele>430.1</ele>
      </trkpt>
      <trkpt lat="43.0142" lon="0.76026">
        <ele>430</ele>
      </trkpt>
      <trkpt lat="43.01509" lon="0.75809">
        <ele>427.1</ele>
      </trkpt>
      <trkpt lat="43.0152" lon="0.75712">
        <ele>425.4</ele>
      </trkpt>
      <trkpt lat="43.01521" lon="0.75708">
        <ele>425.3</ele>
      </trkpt>
      <trkpt lat="43.01544" lon="0.75619">
        <ele>422.1</ele>
      </trkpt>
      <trkpt lat="43.01551" lon="0.75556">
        <ele>420.5</ele>
      </trkpt>
      <trkpt lat="43.01553" lon="0.75542">
        <ele>420.4</ele>
      </trkpt>
      <trkpt lat="43.01553" lon="0.75512">
        <ele>420.1</ele>
      </trkpt>
      <trkpt lat="43.0155" lon="0.75473">
        <ele>419.4</ele>
      </trkpt>
      <trkpt lat="43.0155" lon="0.75472">
        <ele>419.4</ele>
      </trkpt>
      <trkpt lat="43.01554" lon="0.75446">
        <ele>419.2</ele>
      </trkpt>
      <trkpt lat="43.01536" lon="0.75469">
        <ele>419.7</ele>
      </trkpt>
      <trkpt lat="43.01499" lon="0.75498">
        <ele>421</ele>
      </trkpt>
      <trkpt lat="43.01418" lon="0.75509">
        <ele>421.2</ele>
      </trkpt>
      <trkpt lat="43.01382" lon="0.75499">
        <ele>422</ele>
      </trkpt>
      <trkpt lat="43.01344" lon="0.75485">
        <ele>422.3</ele>
      </trkpt>
      <trkpt lat="43.01343" lon="0.75485">
        <ele>422.3</ele>
      </trkpt>
      <trkpt lat="43.01344" lon="0.75485">
        <ele>422.3</ele>
      </trkpt>
      <trkpt lat="43.01344" lon="0.75482">
        <ele>422.3</ele>
      </trkpt>
      <trkpt lat="43.01347" lon="0.75464">
        <ele>422.6</ele>
      </trkpt>
      <trkpt lat="43.01351" lon="0.75444">
        <ele>422.9</ele>
      </trkpt>
      <trkpt lat="43.01357" lon="0.7542">
        <ele>423.1</ele>
      </trkpt>
      <trkpt lat="43.01316" lon="0.75393">
        <ele>425.4</ele>
      </trkpt>
      <trkpt lat="43.01253" lon="0.75343">
        <ele>428</ele>
      </trkpt>
      <trkpt lat="43.01232" lon="0.75313">
        <ele>429.7</ele>
      </trkpt>
      <trkpt lat="43.01185" lon="0.75277">
        <ele>431.1</ele>
      </trkpt>
      <trkpt lat="43.01154" lon="0.75243">
        <ele>433.7</ele>
      </trkpt>
      <trkpt lat="43.01134" lon="0.752">
        <ele>433.6</ele>
      </trkpt>
      <trkpt lat="43.01099" lon="0.75162">
        <ele>436.1</ele>
      </trkpt>
      <trkpt lat="43.01063" lon="0.75144">
        <ele>438.2</ele>
      </trkpt>
      <trkpt lat="43.01018" lon="0.75152">
        <ele>438.8</ele>
      </trkpt>
      <trkpt lat="43.0098" lon="0.75153">
        <ele>440.2</ele>
      </trkpt>
      <trkpt lat="43.00883" lon="0.75143">
        <ele>444.3</ele>
      </trkpt>
      <trkpt lat="43.0076" lon="0.75048">
        <ele>452.4</ele>
      </trkpt>
      <trkpt lat="43.00749" lon="0.75043">
        <ele>454.3</ele>
      </trkpt>
      <trkpt lat="43.00747" lon="0.75045">
        <ele>454.3</ele>
      </trkpt>
      <trkpt lat="43.0065" lon="0.74955">
        <ele>459.1</ele>
      </trkpt>
      <trkpt lat="43.00626" lon="0.74904">
        <ele>468.6</ele>
      </trkpt>
      <trkpt lat="43.00595" lon="0.74862">
        <ele>475.7</ele>
      </trkpt>
      <trkpt lat="43.00541" lon="0.74888">
        <ele>497</ele>
      </trkpt>
      <trkpt lat="43.00507" lon="0.74933">
        <ele>493.7</ele>
      </trkpt>
      <trkpt lat="43.00472" lon="0.74965">
        <ele>513</ele>
      </trkpt>
      <trkpt lat="43.00483" lon="0.74888">
        <ele>528.9</ele>
      </trkpt>
      <trkpt lat="43.00514" lon="0.74812">
        <ele>523.2</ele>
      </trkpt>
      <trkpt lat="43.00532" lon="0.74754">
        <ele>528</ele>
      </trkpt>
      <trkpt lat="43.00565" lon="0.74733">
        <ele>533.2</ele>
      </trkpt>
      <trkpt lat="43.00595" lon="0.74701">
        <ele>526</ele>
      </trkpt>
      <trkpt lat="43.00628" lon="0.74669">
        <ele>526.9</ele>
      </trkpt>
      <trkpt lat="43.00634" lon="0.74632">
        <ele>545.6</ele>
      </trkpt>
      <trkpt lat="43.00631" lon="0.74553">
        <ele>564.2</ele>
      </trkpt>
      <trkpt lat="43.00606" lon="0.74501">
        <ele>570.4</ele>
      </trkpt>
      <trkpt lat="43.00581" lon="0.74445">
        <ele>585.6</ele>
      </trkpt>
      <trkpt lat="43.00533" lon="0.7443">
        <ele>590.7</ele>
      </trkpt>
      <trkpt lat="43.00495" lon="0.74455">
        <ele>601.4</ele>
      </trkpt>
      <trkpt lat="43.00455" lon="0.7447">
        <ele>603.4</ele>
      </trkpt>
      <trkpt lat="43.00417" lon="0.74494">
        <ele>605.6</ele>
      </trkpt>
      <trkpt lat="43.00375" lon="0.74515">
        <ele>607.3</ele>
      </trkpt>
      <trkpt lat="43.0032" lon="0.74458">
        <ele>616.1</ele>
      </trkpt>
      <trkpt lat="43.003" lon="0.74491">
        <ele>613.7</ele>
      </trkpt>
      <trkpt lat="43.0024" lon="0.74512">
        <ele>602.8</ele>
      </trkpt>
      <trkpt lat="43.00211" lon="0.74479">
        <ele>608.2</ele>
      </trkpt>
      <trkpt lat="43.00157" lon="0.74488">
        <ele>605.9</ele>
      </trkpt>
      <trkpt lat="43.0008" lon="0.74536">
        <ele>607.4</ele>
      </trkpt>
      <trkpt lat="43.0008" lon="0.74536">
        <ele>607.4</ele>
      </trkpt>
    </trkseg>
  </trk>
</gpx>